<?xml version='1.0' encoding='UTF-8'?><gpx version="1.1" creator="JPX - https://github.com/jenetics/jpx" xmlns="http://www.topografix.com/GPX/1/1"><trk><trkseg><trkpt lat="38.095639210294536" lon="14.905087898061028"><ele>713.0</ele><time>2026-04-19T08:08:01.999Z</time></trkpt><trkpt lat="38.09564835962376" lon="14.905195898064031"><ele>713.0</ele><time>2026-04-19T08:08:03.999Z</time></trkpt><trkpt lat="38.0956949513639" lon="14.90529801510808"><ele>713.0</ele><time>2026-04-19T08:08:06.999Z</time></trkpt><trkpt lat="38.09571632377062" lon="14.905401119356428"><ele>713.0</ele><time>2026-04-19T08:08:08.999Z</time></trkpt><trkpt lat="38.09573988918442" lon="14.90553135675056"><ele>713.0</ele><time>2026-04-19T08:08:10.999Z</time></trkpt><trkpt lat="38.09578275799013" lon="14.905635228133706"><ele>714.8333333333333</ele><time>2026-04-19T08:08:12.999Z</time></trkpt><trkpt lat="38.09582393993221" lon="14.905713260461955"><ele>716.6666666666666</ele><time>2026-04-19T08:08:14.999Z</time></trkpt><trkpt lat="38.095904970237065" lon="14.90570225680841"><ele>718.5</ele><time>2026-04-19T08:08:17.999Z</time></trkpt><trkpt lat="38.09599036929577" lon="14.905653367843401"><ele>720.3333333333334</ele><time>2026-04-19T08:08:31.999Z</time></trkpt><trkpt lat="38.09607895522679" lon="14.905650353008367"><ele>722.1666666666667</ele><time>2026-04-19T08:08:33.998Z</time></trkpt><trkpt lat="38.096170596113936" lon="14.905670040650051"><ele>724.0</ele><time>2026-04-19T08:08:35.998Z</time></trkpt><trkpt lat="38.09626445704977" lon="14.905695516085071"><ele>724.0</ele><time>2026-04-19T08:08:37.998Z</time></trkpt><trkpt lat="38.09634453500904" lon="14.905753711631116"><ele>724.0</ele><time>2026-04-19T08:08:40.998Z</time></trkpt><trkpt lat="38.096405220491995" lon="14.90579891938603"><ele>724.0</ele><time>2026-04-19T08:08:43.998Z</time></trkpt><trkpt lat="38.096444351152336" lon="14.905872054952258"><ele>724.0</ele><time>2026-04-19T08:08:49.998Z</time></trkpt><trkpt lat="38.096507933845906" lon="14.90591113600606"><ele>724.0</ele><time>2026-04-19T08:08:52Z</time></trkpt><trkpt lat="38.096596853555155" lon="14.905955340041483"><ele>724.0</ele><time>2026-04-19T08:08:54Z</time></trkpt><trkpt lat="38.096674397026646" lon="14.905945449646914"><ele>724.4000000000001</ele><time>2026-04-19T08:08:55Z</time></trkpt><trkpt lat="38.096761415896744" lon="14.905923308200252"><ele>724.8</ele><time>2026-04-19T08:08:56Z</time></trkpt><trkpt lat="38.09684680922641" lon="14.905892503834808"><ele>725.2</ele><time>2026-04-19T08:08:57Z</time></trkpt><trkpt lat="38.09693453983894" lon="14.905866365500277"><ele>725.5999999999999</ele><time>2026-04-19T08:08:58Z</time></trkpt><trkpt lat="38.097022169856295" lon="14.90584539896821"><ele>726.0</ele><time>2026-04-19T08:08:59Z</time></trkpt><trkpt lat="38.09711473013486" lon="14.905834833897442"><ele>726.0</ele><time>2026-04-19T08:09:00Z</time></trkpt><trkpt lat="38.097213436487856" lon="14.905829817451734"><ele>726.0</ele><time>2026-04-19T08:09:01Z</time></trkpt><trkpt lat="38.0973144905868" lon="14.90582568434975"><ele>726.0</ele><time>2026-04-19T08:09:02Z</time></trkpt><trkpt lat="38.09740937490926" lon="14.905807362371698"><ele>726.0</ele><time>2026-04-19T08:09:03Z</time></trkpt><trkpt lat="38.09749723901966" lon="14.90579210081044"><ele>726.0</ele><time>2026-04-19T08:09:04Z</time></trkpt><trkpt lat="38.09760316815831" lon="14.905786205390262"><ele>726.8571428571428</ele><time>2026-04-19T08:09:05Z</time></trkpt><trkpt lat="38.0976935443291" lon="14.905797119138917"><ele>727.7142857142857</ele><time>2026-04-19T08:09:06Z</time></trkpt><trkpt lat="38.09776032974789" lon="14.905822657397671"><ele>728.5714285714286</ele><time>2026-04-19T08:09:07Z</time></trkpt><trkpt lat="38.0978086868865" lon="14.90587516673405"><ele>729.4285714285713</ele><time>2026-04-19T08:09:08Z</time></trkpt><trkpt lat="38.09784832665905" lon="14.905954770013956"><ele>730.2857142857143</ele><time>2026-04-19T08:09:09Z</time></trkpt><trkpt lat="38.09788216746121" lon="14.906042802162721"><ele>731.1428571428571</ele><time>2026-04-19T08:09:10Z</time></trkpt><trkpt lat="38.09791932671115" lon="14.906123660924887"><ele>732.0</ele><time>2026-04-19T08:09:11Z</time></trkpt><trkpt lat="38.09796156517578" lon="14.906206518152104"><ele>735.8333333333334</ele><time>2026-04-19T08:09:12Z</time></trkpt><trkpt lat="38.09800573771545" lon="14.906287153407307"><ele>739.6666666666666</ele><time>2026-04-19T08:09:13Z</time></trkpt><trkpt lat="38.098054886676806" lon="14.90633794679461"><ele>743.5</ele><time>2026-04-19T08:09:14Z</time></trkpt><trkpt lat="38.09816950954676" lon="14.906283240922878"><ele>747.3333333333333</ele><time>2026-04-19T08:09:16Z</time></trkpt><trkpt lat="38.09822797523434" lon="14.906222064066563"><ele>751.1666666666666</ele><time>2026-04-19T08:09:17Z</time></trkpt><trkpt lat="38.09829664378837" lon="14.906145896148567"><ele>755.0</ele><time>2026-04-19T08:09:18Z</time></trkpt><trkpt lat="38.098389220946046" lon="14.906051583702183"><ele>756.0</ele><time>2026-04-19T08:09:19Z</time></trkpt><trkpt lat="38.098458189504605" lon="14.905978819098044"><ele>757.0</ele><time>2026-04-19T08:09:20Z</time></trkpt><trkpt lat="38.09853345173083" lon="14.905923405332205"><ele>758.0</ele><time>2026-04-19T08:09:21Z</time></trkpt><trkpt lat="38.0986333910854" lon="14.905877430353682"><ele>759.0</ele><time>2026-04-19T08:09:22Z</time></trkpt><trkpt lat="38.09873746091153" lon="14.905854454684716"><ele>760.0</ele><time>2026-04-19T08:09:23Z</time></trkpt><trkpt lat="38.09882668374883" lon="14.905869953224617"><ele>760.0</ele><time>2026-04-19T08:09:24Z</time></trkpt><trkpt lat="38.0989111280709" lon="14.905914066425977"><ele>760.0</ele><time>2026-04-19T08:09:25Z</time></trkpt><trkpt lat="38.098982077192254" lon="14.905979805950125"><ele>760.0</ele><time>2026-04-19T08:09:26Z</time></trkpt><trkpt lat="38.09903925234529" lon="14.90608782066737"><ele>760.0</ele><time>2026-04-19T08:09:27Z</time></trkpt><trkpt lat="38.099109153249515" lon="14.90621382204881"><ele>760.0</ele><time>2026-04-19T08:09:28Z</time></trkpt><trkpt lat="38.09919173418549" lon="14.906334499620193"><ele>759.6666666666667</ele><time>2026-04-19T08:09:29Z</time></trkpt><trkpt lat="38.099264322156834" lon="14.906430797608795"><ele>759.3333333333334</ele><time>2026-04-19T08:09:30Z</time></trkpt><trkpt lat="38.099342512343135" lon="14.906512197641641"><ele>759.0</ele><time>2026-04-19T08:09:31Z</time></trkpt><trkpt lat="38.09942243327167" lon="14.906578135703354"><ele>758.6666666666666</ele><time>2026-04-19T08:09:32Z</time></trkpt><trkpt lat="38.099479271403474" lon="14.906615348786005"><ele>758.3333333333333</ele><time>2026-04-19T08:09:33Z</time></trkpt><trkpt lat="38.09940546010477" lon="14.90665191835479"><ele>758.0</ele><time>2026-04-19T08:09:38Z</time></trkpt><trkpt lat="38.099322878421454" lon="14.906570960380325"><ele>758.0</ele><time>2026-04-19T08:09:39.999Z</time></trkpt><trkpt lat="38.09920971427806" lon="14.906524564697532"><ele>758.0</ele><time>2026-04-19T08:09:41.999Z</time></trkpt><trkpt lat="38.09913402224146" lon="14.906496819184214"><ele>758.0</ele><time>2026-04-19T08:09:42.999Z</time></trkpt><trkpt lat="38.099046732795685" lon="14.9064818997562"><ele>758.0</ele><time>2026-04-19T08:09:43.999Z</time></trkpt><trkpt lat="38.09897232730933" lon="14.90650524404311"><ele>758.0</ele><time>2026-04-19T08:09:44.999Z</time></trkpt><trkpt lat="38.09888577570931" lon="14.906560601959542"><ele>758.3333333333333</ele><time>2026-04-19T08:09:46.999Z</time></trkpt><trkpt lat="38.09880791194682" lon="14.906591236360878"><ele>758.6666666666666</ele><time>2026-04-19T08:09:48.999Z</time></trkpt><trkpt lat="38.098729114395404" lon="14.906627567463012"><ele>759.0</ele><time>2026-04-19T08:09:50.999Z</time></trkpt><trkpt lat="38.09864596114642" lon="14.906724541798852"><ele>759.3333333333334</ele><time>2026-04-19T08:09:52.999Z</time></trkpt><trkpt lat="38.098597150040675" lon="14.906796541109308"><ele>759.6666666666667</ele><time>2026-04-19T08:09:53.999Z</time></trkpt><trkpt lat="38.098530851983725" lon="14.906873973639417"><ele>760.0</ele><time>2026-04-19T08:09:54.999Z</time></trkpt><trkpt lat="38.09846057519424" lon="14.906948751391324"><ele>761.8333333333334</ele><time>2026-04-19T08:09:55.999Z</time></trkpt><trkpt lat="38.0984086442008" lon="14.906998651606425"><ele>763.6666666666667</ele><time>2026-04-19T08:09:56.999Z</time></trkpt><trkpt lat="38.098353911096105" lon="14.907078664576261"><ele>765.5</ele><time>2026-04-19T08:09:59.999Z</time></trkpt><trkpt lat="38.09830128541275" lon="14.907143397755807"><ele>767.3333333333334</ele><time>2026-04-19T08:10:01.999Z</time></trkpt><trkpt lat="38.09823409502219" lon="14.90726849371176"><ele>769.1666666666666</ele><time>2026-04-19T08:10:03.999Z</time></trkpt><trkpt lat="38.098197731081164" lon="14.90734829713012"><ele>771.0</ele><time>2026-04-19T08:10:04.999Z</time></trkpt><trkpt lat="38.09815990444832" lon="14.907432544369623"><ele>771.0</ele><time>2026-04-19T08:10:05.999Z</time></trkpt><trkpt lat="38.098120309719" lon="14.907535844334635"><ele>771.0</ele><time>2026-04-19T08:10:06.999Z</time></trkpt><trkpt lat="38.09808255461978" lon="14.907638280065845"><ele>771.0</ele><time>2026-04-19T08:10:07.999Z</time></trkpt><trkpt lat="38.09804165737478" lon="14.90773360463271"><ele>771.0</ele><time>2026-04-19T08:10:08.999Z</time></trkpt><trkpt lat="38.09800822717754" lon="14.90783136505817"><ele>771.0</ele><time>2026-04-19T08:10:09.999Z</time></trkpt><trkpt lat="38.0979676773198" lon="14.907933411998997"><ele>771.0</ele><time>2026-04-19T08:10:10.999Z</time></trkpt><trkpt lat="38.09791875458522" lon="14.908023233978486"><ele>773.3333333333334</ele><time>2026-04-19T08:10:11.999Z</time></trkpt><trkpt lat="38.09787364727795" lon="14.908099704719659"><ele>775.6666666666667</ele><time>2026-04-19T08:10:12.999Z</time></trkpt><trkpt lat="38.09782972575174" lon="14.90816711596907"><ele>778.0</ele><time>2026-04-19T08:10:13.999Z</time></trkpt><trkpt lat="38.09779551071508" lon="14.908236604320546"><ele>780.3333333333334</ele><time>2026-04-19T08:10:14.999Z</time></trkpt><trkpt lat="38.097806367494606" lon="14.908327644749093"><ele>782.6666666666667</ele><time>2026-04-19T08:10:16.999Z</time></trkpt><trkpt lat="38.09792606364257" lon="14.908355679304883"><ele>785.0</ele><time>2026-04-19T08:10:18.999Z</time></trkpt><trkpt lat="38.09799618349409" lon="14.908384717443923"><ele>787.8</ele><time>2026-04-19T08:10:19.999Z</time></trkpt><trkpt lat="38.09806715237777" lon="14.908433130472591"><ele>790.6</ele><time>2026-04-19T08:10:20.999Z</time></trkpt><trkpt lat="38.0981029827022" lon="14.90851427268921"><ele>793.4000000000001</ele><time>2026-04-19T08:10:21.999Z</time></trkpt><trkpt lat="38.098171991468526" lon="14.908600459661946"><ele>796.2</ele><time>2026-04-19T08:10:23.999Z</time></trkpt><trkpt lat="38.09820753050826" lon="14.908681871389472"><ele>799.0</ele><time>2026-04-19T08:10:25.999Z</time></trkpt><trkpt lat="38.098163927509496" lon="14.908835667946564"><ele>798.9999999999999</ele><time>2026-04-19T08:10:27.999Z</time></trkpt><trkpt lat="38.09812708603238" lon="14.908944941496484"><ele>799.0</ele><time>2026-04-19T08:10:28.999Z</time></trkpt><trkpt lat="38.0980801278043" lon="14.909052054912875"><ele>799.0</ele><time>2026-04-19T08:10:29.999Z</time></trkpt><trkpt lat="38.09802502366" lon="14.909152852959245"><ele>799.0</ele><time>2026-04-19T08:10:30.999Z</time></trkpt><trkpt lat="38.09796597501024" lon="14.909224476766628"><ele>798.9999999999999</ele><time>2026-04-19T08:10:31.999Z</time></trkpt><trkpt lat="38.097907978223354" lon="14.909258746944472"><ele>799.0</ele><time>2026-04-19T08:10:32.999Z</time></trkpt><trkpt lat="38.09783756662671" lon="14.909374212513189"><ele>801.1666666666666</ele><time>2026-04-19T08:10:34.999Z</time></trkpt><trkpt lat="38.09780401446509" lon="14.909442762857239"><ele>803.3333333333333</ele><time>2026-04-19T08:10:35.999Z</time></trkpt><trkpt lat="38.09778012471427" lon="14.909521193679769"><ele>805.5</ele><time>2026-04-19T08:10:36.999Z</time></trkpt><trkpt lat="38.09774426870597" lon="14.909592685166372"><ele>807.6666666666667</ele><time>2026-04-19T08:10:37.999Z</time></trkpt><trkpt lat="38.097738655089564" lon="14.90967243011018"><ele>809.8333333333334</ele><time>2026-04-19T08:10:38.998Z</time></trkpt><trkpt lat="38.09769395403433" lon="14.909793804645581"><ele>812.0</ele><time>2026-04-19T08:10:40.998Z</time></trkpt><trkpt lat="38.09764935987811" lon="14.909924542125527"><ele>812.0000000000001</ele><time>2026-04-19T08:10:42.998Z</time></trkpt><trkpt lat="38.09761200544779" lon="14.910002931232226"><ele>812.0</ele><time>2026-04-19T08:10:43.998Z</time></trkpt><trkpt lat="38.09756764251631" lon="14.910098669889573"><ele>812.0</ele><time>2026-04-19T08:10:44.998Z</time></trkpt><trkpt lat="38.097521305689206" lon="14.910205901079246"><ele>812.0</ele><time>2026-04-19T08:10:45.998Z</time></trkpt><trkpt lat="38.097474387212905" lon="14.910307569496174"><ele>812.0000000000001</ele><time>2026-04-19T08:10:46.998Z</time></trkpt><trkpt lat="38.09743374831841" lon="14.910389503748291"><ele>812.0</ele><time>2026-04-19T08:10:47.998Z</time></trkpt><trkpt lat="38.0973915690269" lon="14.910520450593117"><ele>814.1666666666667</ele><time>2026-04-19T08:10:49.998Z</time></trkpt><trkpt lat="38.09745133451497" lon="14.91057569797387"><ele>816.3333333333334</ele><time>2026-04-19T08:10:50.998Z</time></trkpt><trkpt lat="38.09754789459538" lon="14.910557195369519"><ele>818.5</ele><time>2026-04-19T08:10:52.998Z</time></trkpt><trkpt lat="38.097589970577495" lon="14.91049649588867"><ele>820.6666666666667</ele><time>2026-04-19T08:10:53.998Z</time></trkpt><trkpt lat="38.097682437636095" lon="14.910443272098012"><ele>822.8333333333334</ele><time>2026-04-19T08:10:55.998Z</time></trkpt><trkpt lat="38.09773005644224" lon="14.910529114666728"><ele>825.0</ele><time>2026-04-19T08:10:58Z</time></trkpt><trkpt lat="38.097809396766316" lon="14.910627645803606"><ele>825.0</ele><time>2026-04-19T08:11:00Z</time></trkpt><trkpt lat="38.09788178033432" lon="14.910620572888643"><ele>825.0</ele><time>2026-04-19T08:11:04Z</time></trkpt><trkpt lat="38.09795139966304" lon="14.910568550626133"><ele>825.0</ele><time>2026-04-19T08:11:05Z</time></trkpt><trkpt lat="38.09803792543784" lon="14.910525331599276"><ele>825.0</ele><time>2026-04-19T08:11:06Z</time></trkpt><trkpt lat="38.09813201785858" lon="14.910497634212305"><ele>825.0</ele><time>2026-04-19T08:11:07Z</time></trkpt><trkpt lat="38.09822491537967" lon="14.91046633148643"><ele>825.0</ele><time>2026-04-19T08:11:08Z</time></trkpt><trkpt lat="38.098312843067895" lon="14.91043162985449"><ele>828.0</ele><time>2026-04-19T08:11:09Z</time></trkpt><trkpt lat="38.09839694461898" lon="14.910396650906481"><ele>831.0</ele><time>2026-04-19T08:11:10Z</time></trkpt><trkpt lat="38.09848293896008" lon="14.910365991755183"><ele>834.0</ele><time>2026-04-19T08:11:11Z</time></trkpt><trkpt lat="38.098573973574766" lon="14.910342622914587"><ele>837.0</ele><time>2026-04-19T08:11:12Z</time></trkpt><trkpt lat="38.09865009566016" lon="14.910311352797503"><ele>840.0</ele><time>2026-04-19T08:11:13Z</time></trkpt><trkpt lat="38.09871423460137" lon="14.91026983101491"><ele>843.0</ele><time>2026-04-19T08:11:14Z</time></trkpt><trkpt lat="38.09877111937491" lon="14.910218034517953"><ele>843.0</ele><time>2026-04-19T08:11:15Z</time></trkpt><trkpt lat="38.09883501718422" lon="14.910168430690357"><ele>843.0</ele><time>2026-04-19T08:11:16Z</time></trkpt><trkpt lat="38.09890858192269" lon="14.910109675131839"><ele>843.0</ele><time>2026-04-19T08:11:17Z</time></trkpt><trkpt lat="38.09897937685421" lon="14.910043665194348"><ele>843.0</ele><time>2026-04-19T08:11:18Z</time></trkpt><trkpt lat="38.09905419573823" lon="14.909958134543723"><ele>843.0</ele><time>2026-04-19T08:11:19Z</time></trkpt><trkpt lat="38.09911777719327" lon="14.909891887426053"><ele>843.0</ele><time>2026-04-19T08:11:20Z</time></trkpt><trkpt lat="38.09917894010502" lon="14.90986043035402"><ele>842.6666666666666</ele><time>2026-04-19T08:11:21Z</time></trkpt><trkpt lat="38.09930466138219" lon="14.909861963708044"><ele>842.3333333333333</ele><time>2026-04-19T08:11:23Z</time></trkpt><trkpt lat="38.09936488937855" lon="14.909891284000311"><ele>842.0</ele><time>2026-04-19T08:11:24Z</time></trkpt><trkpt lat="38.09946272123615" lon="14.909925994289344"><ele>841.6666666666666</ele><time>2026-04-19T08:11:26Z</time></trkpt><trkpt lat="38.09952941794672" lon="14.90993399169994"><ele>841.3333333333333</ele><time>2026-04-19T08:11:27Z</time></trkpt><trkpt lat="38.09961571971024" lon="14.909948701000612"><ele>841.0</ele><time>2026-04-19T08:11:28Z</time></trkpt><trkpt lat="38.09970784153383" lon="14.90998895931356"><ele>840.9999999999999</ele><time>2026-04-19T08:11:29Z</time></trkpt><trkpt lat="38.09979451612208" lon="14.910065206060098"><ele>841.0</ele><time>2026-04-19T08:11:30Z</time></trkpt><trkpt lat="38.09987150043558" lon="14.91012898918709"><ele>841.0</ele><time>2026-04-19T08:11:31Z</time></trkpt><trkpt lat="38.099936089417994" lon="14.910175249938714"><ele>841.0</ele><time>2026-04-19T08:11:32Z</time></trkpt><trkpt lat="38.099991095757304" lon="14.910234821010938"><ele>840.9999999999999</ele><time>2026-04-19T08:11:33Z</time></trkpt><trkpt lat="38.100037073757" lon="14.91032938557809"><ele>841.0</ele><time>2026-04-19T08:11:34Z</time></trkpt><trkpt lat="38.100072637758736" lon="14.910458821432897"><ele>844.9999999999999</ele><time>2026-04-19T08:11:35Z</time></trkpt><trkpt lat="38.10011515008895" lon="14.910562050219744"><ele>849.0</ele><time>2026-04-19T08:11:36Z</time></trkpt><trkpt lat="38.10018144781597" lon="14.910626728458585"><ele>853.0</ele><time>2026-04-19T08:11:37Z</time></trkpt><trkpt lat="38.10024991962365" lon="14.910662996946739"><ele>857.0</ele><time>2026-04-19T08:11:38Z</time></trkpt><trkpt lat="38.100315554204585" lon="14.910675497634784"><ele>860.9999999999999</ele><time>2026-04-19T08:11:39Z</time></trkpt><trkpt lat="38.10040062907007" lon="14.910658401364044"><ele>865.0</ele><time>2026-04-19T08:11:41Z</time></trkpt><trkpt lat="38.100467124777104" lon="14.910663460765095"><ele>865.0</ele><time>2026-04-19T08:11:44.999Z</time></trkpt><trkpt lat="38.10055879600379" lon="14.910709299534808"><ele>865.0</ele><time>2026-04-19T08:11:47.999Z</time></trkpt><trkpt lat="38.10066060872639" lon="14.910800742071974"><ele>865.0</ele><time>2026-04-19T08:11:49.999Z</time></trkpt><trkpt lat="38.10074979801783" lon="14.910928221681404"><ele>865.0</ele><time>2026-04-19T08:11:51.999Z</time></trkpt><trkpt lat="38.100797070906744" lon="14.911031568901233"><ele>868.3333333333333</ele><time>2026-04-19T08:11:52.999Z</time></trkpt><trkpt lat="38.100835911119525" lon="14.911095612422546"><ele>871.6666666666666</ele><time>2026-04-19T08:11:53.999Z</time></trkpt><trkpt lat="38.100948169972355" lon="14.911090795300323"><ele>875.0</ele><time>2026-04-19T08:11:55.999Z</time></trkpt><trkpt lat="38.101029355243575" lon="14.911015878397187"><ele>878.3333333333333</ele><time>2026-04-19T08:11:56.999Z</time></trkpt><trkpt lat="38.10111094240165" lon="14.91097310726942"><ele>881.6666666666666</ele><time>2026-04-19T08:11:57.999Z</time></trkpt><trkpt lat="38.1011802551349" lon="14.910983695508929"><ele>885.0</ele><time>2026-04-19T08:11:58.999Z</time></trkpt><trkpt lat="38.10125021272735" lon="14.91107263085968"><ele>885.0</ele><time>2026-04-19T08:12:01.999Z</time></trkpt><trkpt lat="38.10134799413975" lon="14.911056899441126"><ele>885.0</ele><time>2026-04-19T08:12:03.999Z</time></trkpt><trkpt lat="38.10134937825186" lon="14.911148526584384"><ele>885.0</ele><time>2026-04-19T08:12:07.999Z</time></trkpt><trkpt lat="38.1013212967078" lon="14.911227472943096"><ele>885.0</ele><time>2026-04-19T08:12:33.999Z</time></trkpt><trkpt lat="38.10126769120129" lon="14.911283607577065"><ele>885.0</ele><time>2026-04-19T08:12:37.999Z</time></trkpt><trkpt lat="38.101197152161575" lon="14.911324099547839"><ele>885.0</ele><time>2026-04-19T08:12:41.999Z</time></trkpt><trkpt lat="38.101162760491334" lon="14.91142147351393"><ele>885.0</ele><time>2026-04-19T08:13:01.998Z</time></trkpt><trkpt lat="38.10110013754971" lon="14.911514986752936"><ele>885.0</ele><time>2026-04-19T08:13:05Z</time></trkpt><trkpt lat="38.10102853078605" lon="14.9116173811988"><ele>885.0</ele><time>2026-04-19T08:13:12Z</time></trkpt><trkpt lat="38.10096810705918" lon="14.911702782542985"><ele>885.0</ele><time>2026-04-19T08:13:14Z</time></trkpt><trkpt lat="38.10090395122321" lon="14.911753025658955"><ele>885.0</ele><time>2026-04-19T08:13:19Z</time></trkpt><trkpt lat="38.100834527867775" lon="14.91178683215645"><ele>885.0</ele><time>2026-04-19T08:13:24Z</time></trkpt><trkpt lat="38.10077246758579" lon="14.911824836852764"><ele>888.2857142857142</ele><time>2026-04-19T08:13:29Z</time></trkpt><trkpt lat="38.10070434383247" lon="14.911845100925182"><ele>891.5714285714286</ele><time>2026-04-19T08:13:54.999Z</time></trkpt><trkpt lat="38.10063658597862" lon="14.911899703695173"><ele>894.8571428571429</ele><time>2026-04-19T08:14:31.999Z</time></trkpt><trkpt lat="38.10058558313286" lon="14.91195017890605"><ele>898.1428571428571</ele><time>2026-04-19T08:14:38.999Z</time></trkpt><trkpt lat="38.100536920294445" lon="14.912028107314597"><ele>901.4285714285716</ele><time>2026-04-19T08:14:42.999Z</time></trkpt><trkpt lat="38.10053032929503" lon="14.912118713496396"><ele>904.7142857142858</ele><time>2026-04-19T08:14:45.998Z</time></trkpt><trkpt lat="38.10060295911847" lon="14.912150127149715"><ele>908.0</ele><time>2026-04-19T08:14:48.998Z</time></trkpt><trkpt lat="38.10067941623615" lon="14.912171989578196"><ele>908.1666666666667</ele><time>2026-04-19T08:14:51.998Z</time></trkpt><trkpt lat="38.10079688517791" lon="14.912198604276552"><ele>908.3333333333334</ele><time>2026-04-19T08:14:52.998Z</time></trkpt><trkpt lat="38.100861291252116" lon="14.912194085695422"><ele>908.5</ele><time>2026-04-19T08:14:53.998Z</time></trkpt><trkpt lat="38.10092739527536" lon="14.912195964757203"><ele>908.6666666666667</ele><time>2026-04-19T08:14:54.998Z</time></trkpt><trkpt lat="38.10105231694409" lon="14.91222651908362"><ele>908.8333333333334</ele><time>2026-04-19T08:14:56.998Z</time></trkpt><trkpt lat="38.1011158308901" lon="14.912249903788082"><ele>909.0</ele><time>2026-04-19T08:14:57.998Z</time></trkpt><trkpt lat="38.101175506846005" lon="14.91232251182049"><ele>909.0</ele><time>2026-04-19T08:14:59.998Z</time></trkpt><trkpt lat="38.101111301916816" lon="14.912346309271602"><ele>909.0</ele><time>2026-04-19T08:15:01.998Z</time></trkpt><trkpt lat="38.10106466892149" lon="14.91240384285566"><ele>909.0</ele><time>2026-04-19T08:15:03.998Z</time></trkpt><trkpt lat="38.10099753203325" lon="14.912473186815397"><ele>909.0</ele><time>2026-04-19T08:15:09Z</time></trkpt><trkpt lat="38.10093979158127" lon="14.912548215880006"><ele>909.0</ele><time>2026-04-19T08:15:12Z</time></trkpt><trkpt lat="38.10088740464541" lon="14.91262475866645"><ele>909.0</ele><time>2026-04-19T08:15:14Z</time></trkpt><trkpt lat="38.10083677052384" lon="14.912695101953272"><ele>913.0</ele><time>2026-04-19T08:15:16Z</time></trkpt><trkpt lat="38.100741478131866" lon="14.912803549414674"><ele>917.0</ele><time>2026-04-19T08:15:18Z</time></trkpt><trkpt lat="38.100653495960835" lon="14.912892923658362"><ele>921.0</ele><time>2026-04-19T08:15:20Z</time></trkpt><trkpt lat="38.10055881516757" lon="14.912966717851173"><ele>925.0</ele><time>2026-04-19T08:15:22Z</time></trkpt><trkpt lat="38.100479346601546" lon="14.91304790704707"><ele>925.0</ele><time>2026-04-19T08:15:24Z</time></trkpt><trkpt lat="38.10039503916977" lon="14.913128870656905"><ele>925.0</ele><time>2026-04-19T08:15:26Z</time></trkpt><trkpt lat="38.10030172720327" lon="14.913196228952705"><ele>925.0</ele><time>2026-04-19T08:15:28Z</time></trkpt><trkpt lat="38.100211011392624" lon="14.91328071446645"><ele>925.0</ele><time>2026-04-19T08:15:30Z</time></trkpt><trkpt lat="38.10016841666256" lon="14.91335473379252"><ele>925.0</ele><time>2026-04-19T08:15:32Z</time></trkpt><trkpt lat="38.10012662700563" lon="14.91343066013622"><ele>927.4</ele><time>2026-04-19T08:15:34Z</time></trkpt><trkpt lat="38.100063628904316" lon="14.913533146461761"><ele>929.8</ele><time>2026-04-19T08:15:36Z</time></trkpt><trkpt lat="38.100008965352714" lon="14.913604699282404"><ele>932.2</ele><time>2026-04-19T08:15:44Z</time></trkpt><trkpt lat="38.10000900208822" lon="14.913687978598828"><ele>934.6</ele><time>2026-04-19T08:15:49Z</time></trkpt><trkpt lat="38.10006232546671" lon="14.91377996026858"><ele>937.0</ele><time>2026-04-19T08:15:50.999Z</time></trkpt><trkpt lat="38.1000904274405" lon="14.91406675027274"><ele>937.0</ele><time>2026-04-19T08:15:52.999Z</time></trkpt><trkpt lat="38.10007155200304" lon="14.914220138006542"><ele>937.0</ele><time>2026-04-19T08:15:54.999Z</time></trkpt><trkpt lat="38.100088167323015" lon="14.914303119314214"><ele>937.0</ele><time>2026-04-19T08:15:55.999Z</time></trkpt><trkpt lat="38.10016815493498" lon="14.91439086185135"><ele>937.0</ele><time>2026-04-19T08:15:57.999Z</time></trkpt><trkpt lat="38.10024368898019" lon="14.9144958967205"><ele>937.0</ele><time>2026-04-19T08:15:59.999Z</time></trkpt><trkpt lat="38.10024747040514" lon="14.91462350466507"><ele>939.4999999999999</ele><time>2026-04-19T08:16:01.999Z</time></trkpt><trkpt lat="38.10022170858301" lon="14.91473231417622"><ele>942.0</ele><time>2026-04-19T08:16:04.999Z</time></trkpt><trkpt lat="38.10020858126253" lon="14.914810716277444"><ele>944.5</ele><time>2026-04-19T08:16:08.999Z</time></trkpt><trkpt lat="38.10018551642208" lon="14.914901519201624"><ele>947.0</ele><time>2026-04-19T08:16:19.999Z</time></trkpt><trkpt lat="38.10030246236253" lon="14.915009168536423"><ele>949.4999999999999</ele><time>2026-04-19T08:16:21.999Z</time></trkpt><trkpt lat="38.100349320740634" lon="14.915081084482908"><ele>952.0</ele><time>2026-04-19T08:16:24.999Z</time></trkpt><trkpt lat="38.100428594573295" lon="14.915095051937437"><ele>955.1666666666666</ele><time>2026-04-19T08:16:27.999Z</time></trkpt><trkpt lat="38.10051592876747" lon="14.915071440401508"><ele>958.3333333333333</ele><time>2026-04-19T08:16:31.999Z</time></trkpt><trkpt lat="38.10052198042468" lon="14.91519017247093"><ele>961.5</ele><time>2026-04-19T08:16:34.999Z</time></trkpt><trkpt lat="38.100584347424856" lon="14.91526218576399"><ele>964.6666666666667</ele><time>2026-04-19T08:16:37.999Z</time></trkpt><trkpt lat="38.10065971167567" lon="14.915248865181521"><ele>967.8333333333334</ele><time>2026-04-19T08:16:39.999Z</time></trkpt><trkpt lat="38.10071910559342" lon="14.915322267574142"><ele>971.0</ele><time>2026-04-19T08:16:42.999Z</time></trkpt><trkpt lat="38.10076709000187" lon="14.91549617619571"><ele>972.8333333333334</ele><time>2026-04-19T08:16:45.999Z</time></trkpt><trkpt lat="38.10077631900659" lon="14.915588900748753"><ele>974.6666666666667</ele><time>2026-04-19T08:16:46.999Z</time></trkpt><trkpt lat="38.100789359039666" lon="14.91568905888355"><ele>976.5</ele><time>2026-04-19T08:16:47.998Z</time></trkpt><trkpt lat="38.100802953458995" lon="14.915782227511729"><ele>978.3333333333333</ele><time>2026-04-19T08:16:48.998Z</time></trkpt><trkpt lat="38.1008551565067" lon="14.915898767060233"><ele>980.1666666666666</ele><time>2026-04-19T08:16:50.998Z</time></trkpt><trkpt lat="38.10089670302507" lon="14.916028218270203"><ele>982.0</ele><time>2026-04-19T08:16:52.998Z</time></trkpt><trkpt lat="38.100909059573866" lon="14.916106871883283"><ele>985.1666666666666</ele><time>2026-04-19T08:16:53.998Z</time></trkpt><trkpt lat="38.10092202662185" lon="14.916191649818106"><ele>988.3333333333333</ele><time>2026-04-19T08:16:54.998Z</time></trkpt><trkpt lat="38.100940099636084" lon="14.916268627419697"><ele>991.5</ele><time>2026-04-19T08:16:55.998Z</time></trkpt><trkpt lat="38.10096252299973" lon="14.916355807254687"><ele>994.6666666666667</ele><time>2026-04-19T08:16:56.998Z</time></trkpt><trkpt lat="38.1009926789503" lon="14.916466140346914"><ele>997.8333333333334</ele><time>2026-04-19T08:16:57.998Z</time></trkpt><trkpt lat="38.10102118768314" lon="14.916572985185628"><ele>1001.0</ele><time>2026-04-19T08:16:58.998Z</time></trkpt><trkpt lat="38.10103316127322" lon="14.916668800281442"><ele>1005.8333333333334</ele><time>2026-04-19T08:16:59.998Z</time></trkpt><trkpt lat="38.10103680329187" lon="14.916756414031143"><ele>1010.6666666666667</ele><time>2026-04-19T08:17:00.998Z</time></trkpt><trkpt lat="38.101041593305915" lon="14.916851240590038"><ele>1015.5</ele><time>2026-04-19T08:17:01.998Z</time></trkpt><trkpt lat="38.10105025386289" lon="14.91695409334125"><ele>1020.3333333333333</ele><time>2026-04-19T08:17:02.998Z</time></trkpt><trkpt lat="38.101061534678536" lon="14.917050397386879"><ele>1025.1666666666665</ele><time>2026-04-19T08:17:03.998Z</time></trkpt><trkpt lat="38.10107614525422" lon="14.917143155307416"><ele>1030.0</ele><time>2026-04-19T08:17:04.998Z</time></trkpt><trkpt lat="38.10106919503674" lon="14.917246160331556"><ele>1030.0</ele><time>2026-04-19T08:17:07.998Z</time></trkpt><trkpt lat="38.10108238384515" lon="14.917329554460464"><ele>1030.0</ele><time>2026-04-19T08:17:09.998Z</time></trkpt><trkpt lat="38.1011494384077" lon="14.91730917642211"><ele>1030.0</ele><time>2026-04-19T08:17:11.998Z</time></trkpt><trkpt lat="38.101316674224606" lon="14.917353329913103"><ele>1030.0</ele><time>2026-04-19T08:17:15Z</time></trkpt><trkpt lat="38.10143232802008" lon="14.9173935466896"><ele>1030.0</ele><time>2026-04-19T08:17:17Z</time></trkpt><trkpt lat="38.10154013824263" lon="14.917447328283378"><ele>1029.8</ele><time>2026-04-19T08:17:19Z</time></trkpt><trkpt lat="38.10165166132291" lon="14.917489346676934"><ele>1029.6</ele><time>2026-04-19T08:17:21Z</time></trkpt><trkpt lat="38.10176647537778" lon="14.917525795607489"><ele>1029.4</ele><time>2026-04-19T08:17:23Z</time></trkpt><trkpt lat="38.101867138591196" lon="14.917583221802078"><ele>1029.2</ele><time>2026-04-19T08:17:25Z</time></trkpt><trkpt lat="38.10193190173594" lon="14.917671462306963"><ele>1029.0</ele><time>2026-04-19T08:17:27Z</time></trkpt><trkpt lat="38.10199031656052" lon="14.917806647394768"><ele>1034.0</ele><time>2026-04-19T08:17:29Z</time></trkpt><trkpt lat="38.10205336424198" lon="14.917904904641805"><ele>1039.0</ele><time>2026-04-19T08:17:31Z</time></trkpt><trkpt lat="38.102114543929844" lon="14.917932216529657"><ele>1044.0</ele><time>2026-04-19T08:17:32Z</time></trkpt><trkpt lat="38.10218958600614" lon="14.91795410431107"><ele>1049.0</ele><time>2026-04-19T08:17:33Z</time></trkpt><trkpt lat="38.10228158020373" lon="14.917916739388074"><ele>1054.0</ele><time>2026-04-19T08:17:35Z</time></trkpt><trkpt lat="38.1023930388642" lon="14.917930661367807"><ele>1052.8</ele><time>2026-04-19T08:17:37Z</time></trkpt><trkpt lat="38.10245831476986" lon="14.917977048167533"><ele>1051.6000000000001</ele><time>2026-04-19T08:17:38Z</time></trkpt><trkpt lat="38.102523159547154" lon="14.918049012709142"><ele>1050.4</ele><time>2026-04-19T08:17:39Z</time></trkpt><trkpt lat="38.10260724237511" lon="14.918144968331266"><ele>1049.2</ele><time>2026-04-19T08:17:40Z</time></trkpt><trkpt lat="38.1027071935014" lon="14.918241838146454"><ele>1048.0</ele><time>2026-04-19T08:17:41Z</time></trkpt><trkpt lat="38.10280422383501" lon="14.918339632061045"><ele>1049.2</ele><time>2026-04-19T08:17:42Z</time></trkpt><trkpt lat="38.10288554654214" lon="14.918414863094982"><ele>1050.4</ele><time>2026-04-19T08:17:43Z</time></trkpt><trkpt lat="38.10296468968737" lon="14.918470817797022"><ele>1051.6000000000001</ele><time>2026-04-19T08:17:44Z</time></trkpt><trkpt lat="38.10304723851658" lon="14.918505030293103"><ele>1052.8</ele><time>2026-04-19T08:17:45Z</time></trkpt><trkpt lat="38.1031328532978" lon="14.918558766535215"><ele>1054.0</ele><time>2026-04-19T08:17:46Z</time></trkpt><trkpt lat="38.103209881087004" lon="14.918614979054338"><ele>1052.0000000000002</ele><time>2026-04-19T08:17:47Z</time></trkpt><trkpt lat="38.10328095375655" lon="14.918662386064607"><ele>1050.0</ele><time>2026-04-19T08:17:48Z</time></trkpt><trkpt lat="38.10334371369764" lon="14.918703402953897"><ele>1048.0</ele><time>2026-04-19T08:17:49Z</time></trkpt><trkpt lat="38.10340821149341" lon="14.918741557158269"><ele>1046.0</ele><time>2026-04-19T08:17:50Z</time></trkpt><trkpt lat="38.103475822922896" lon="14.918752024336868"><ele>1044.0</ele><time>2026-04-19T08:17:51Z</time></trkpt><trkpt lat="38.10355250732364" lon="14.918754450055168"><ele>1042.0000000000002</ele><time>2026-04-19T08:17:53Z</time></trkpt><trkpt lat="38.10353564191819" lon="14.918840962116128"><ele>1040.0</ele><time>2026-04-19T08:17:54.999Z</time></trkpt><trkpt lat="38.10348787885549" lon="14.918916931875394"><ele>1040.0</ele><time>2026-04-19T08:17:56.999Z</time></trkpt><trkpt lat="38.10344559063087" lon="14.918998747855332"><ele>1040.0</ele><time>2026-04-19T08:17:58.999Z</time></trkpt><trkpt lat="38.103348690968225" lon="14.919068583482533"><ele>1040.0</ele><time>2026-04-19T08:18:00.999Z</time></trkpt><trkpt lat="38.10328211718416" lon="14.919080626640627"><ele>1040.0</ele><time>2026-04-19T08:18:01.999Z</time></trkpt><trkpt lat="38.1032099681081" lon="14.919084922960323"><ele>1040.0</ele><time>2026-04-19T08:18:02.999Z</time></trkpt><trkpt lat="38.103139653304346" lon="14.91908682680715"><ele>1040.0</ele><time>2026-04-19T08:18:03.999Z</time></trkpt><trkpt lat="38.10306383288891" lon="14.919093071751302"><ele>1042.3333333333335</ele><time>2026-04-19T08:18:04.999Z</time></trkpt><trkpt lat="38.103002335429075" lon="14.91907360391193"><ele>1044.6666666666667</ele><time>2026-04-19T08:18:05.999Z</time></trkpt><trkpt lat="38.10291495241914" lon="14.919014123434078"><ele>1047.0</ele><time>2026-04-19T08:18:07.999Z</time></trkpt><trkpt lat="38.10283583123205" lon="14.918990528515563"><ele>1049.3333333333333</ele><time>2026-04-19T08:18:09.999Z</time></trkpt><trkpt lat="38.10276865284173" lon="14.918990197884998"><ele>1051.6666666666665</ele><time>2026-04-19T08:18:10.999Z</time></trkpt><trkpt lat="38.102696016913065" lon="14.918977531259035"><ele>1054.0</ele><time>2026-04-19T08:18:11.999Z</time></trkpt><trkpt lat="38.10262002574154" lon="14.918969364948731"><ele>1054.0</ele><time>2026-04-19T08:18:12.999Z</time></trkpt><trkpt lat="38.102547911599814" lon="14.918970621662245"><ele>1054.0</ele><time>2026-04-19T08:18:13.999Z</time></trkpt><trkpt lat="38.10246788823794" lon="14.918991700264998"><ele>1054.0</ele><time>2026-04-19T08:18:14.999Z</time></trkpt><trkpt lat="38.10238647778163" lon="14.919010073042706"><ele>1054.0</ele><time>2026-04-19T08:18:15.999Z</time></trkpt><trkpt lat="38.102314064602275" lon="14.919022015759674"><ele>1054.0</ele><time>2026-04-19T08:18:16.999Z</time></trkpt><trkpt lat="38.10224977004889" lon="14.919021763686537"><ele>1054.0</ele><time>2026-04-19T08:18:17.999Z</time></trkpt><trkpt lat="38.10215337269591" lon="14.91904243452136"><ele>1055.0000000000002</ele><time>2026-04-19T08:18:19.999Z</time></trkpt><trkpt lat="38.10209273162296" lon="14.919072962766082"><ele>1056.0</ele><time>2026-04-19T08:18:20.999Z</time></trkpt><trkpt lat="38.102029544654386" lon="14.919093634354597"><ele>1057.0</ele><time>2026-04-19T08:18:21.999Z</time></trkpt><trkpt lat="38.10196260271114" lon="14.919114707424086"><ele>1058.0</ele><time>2026-04-19T08:18:22.999Z</time></trkpt><trkpt lat="38.101891259825194" lon="14.919159066667069"><ele>1059.0</ele><time>2026-04-19T08:18:23.999Z</time></trkpt><trkpt lat="38.1018128229951" lon="14.919211660082107"><ele>1060.0000000000002</ele><time>2026-04-19T08:18:24.999Z</time></trkpt><trkpt lat="38.101752097894746" lon="14.91925601226171"><ele>1061.0</ele><time>2026-04-19T08:18:25.999Z</time></trkpt><trkpt lat="38.10167949388543" lon="14.919343672773223"><ele>1063.1666666666667</ele><time>2026-04-19T08:18:27.999Z</time></trkpt><trkpt lat="38.101575311398626" lon="14.919440093579171"><ele>1065.3333333333335</ele><time>2026-04-19T08:18:29.999Z</time></trkpt><trkpt lat="38.10151893015311" lon="14.919491462158623"><ele>1067.5</ele><time>2026-04-19T08:18:30.999Z</time></trkpt><trkpt lat="38.10146255281119" lon="14.919550685186321"><ele>1069.6666666666667</ele><time>2026-04-19T08:18:31.999Z</time></trkpt><trkpt lat="38.10140600061771" lon="14.919631219025954"><ele>1071.8333333333333</ele><time>2026-04-19T08:18:32.999Z</time></trkpt><trkpt lat="38.10135626757441" lon="14.919718946465116"><ele>1074.0</ele><time>2026-04-19T08:18:33.999Z</time></trkpt><trkpt lat="38.10129834596895" lon="14.91977672067282"><ele>1074.0</ele><time>2026-04-19T08:18:34.999Z</time></trkpt><trkpt lat="38.10119509239284" lon="14.919809950657546"><ele>1074.0</ele><time>2026-04-19T08:18:36.999Z</time></trkpt><trkpt lat="38.10110359015293" lon="14.919840208305946"><ele>1074.0</ele><time>2026-04-19T08:18:38.999Z</time></trkpt><trkpt lat="38.10115145081092" lon="14.919924397865737"><ele>1074.0</ele><time>2026-04-19T08:18:42.999Z</time></trkpt><trkpt lat="38.10121600781801" lon="14.919918335821393"><ele>1074.0</ele><time>2026-04-19T08:18:45.999Z</time></trkpt><trkpt lat="38.10126752631963" lon="14.919966276761262"><ele>1074.0</ele><time>2026-04-19T08:18:47.999Z</time></trkpt><trkpt lat="38.1013209254548" lon="14.920018717336637"><ele>1068.8333333333333</ele><time>2026-04-19T08:18:50.998Z</time></trkpt><trkpt lat="38.10137992315748" lon="14.920092623217517"><ele>1063.6666666666667</ele><time>2026-04-19T08:18:53.998Z</time></trkpt><trkpt lat="38.10143239505552" lon="14.920147202989803"><ele>1058.5</ele><time>2026-04-19T08:18:56.998Z</time></trkpt><trkpt lat="38.101494269458314" lon="14.920220248472576"><ele>1053.3333333333335</ele><time>2026-04-19T08:18:59.998Z</time></trkpt><trkpt lat="38.101573589819814" lon="14.9202793217723"><ele>1048.1666666666667</ele><time>2026-04-19T08:19:00.998Z</time></trkpt><trkpt lat="38.10163480976512" lon="14.9203418589026"><ele>1043.0</ele><time>2026-04-19T08:19:02.998Z</time></trkpt><trkpt lat="38.10168794392147" lon="14.920387785518937"><ele>1043.0</ele><time>2026-04-19T08:19:03.998Z</time></trkpt><trkpt lat="38.10175062617717" lon="14.920436052116882"><ele>1043.0</ele><time>2026-04-19T08:19:05.998Z</time></trkpt><trkpt lat="38.1017876550047" lon="14.920549026621591"><ele>1043.0</ele><time>2026-04-19T08:19:08.998Z</time></trkpt><trkpt lat="38.10179454006106" lon="14.920641381510938"><ele>1043.0</ele><time>2026-04-19T08:19:10.998Z</time></trkpt><trkpt lat="38.101820964406045" lon="14.920736074431014"><ele>1043.0</ele><time>2026-04-19T08:19:12.998Z</time></trkpt><trkpt lat="38.10187290705287" lon="14.92081287784969"><ele>1043.0</ele><time>2026-04-19T08:19:14.998Z</time></trkpt><trkpt lat="38.1019660282191" lon="14.920891837069716"><ele>1037.2</ele><time>2026-04-19T08:19:16.998Z</time></trkpt><trkpt lat="38.10203275514773" lon="14.92095173921731"><ele>1031.4</ele><time>2026-04-19T08:19:17.998Z</time></trkpt><trkpt lat="38.10208804669836" lon="14.921054429164656"><ele>1025.6000000000001</ele><time>2026-04-19T08:19:19.998Z</time></trkpt><trkpt lat="38.10213185325615" lon="14.92116591526757"><ele>1019.8000000000001</ele><time>2026-04-19T08:19:22Z</time></trkpt><trkpt lat="38.10219731729769" lon="14.921271708029087"><ele>1014.0</ele><time>2026-04-19T08:19:24Z</time></trkpt><trkpt lat="38.10224396288415" lon="14.921393904625171"><ele>1014.0</ele><time>2026-04-19T08:19:26Z</time></trkpt><trkpt lat="38.10226874430457" lon="14.921474192486635"><ele>1014.0000000000001</ele><time>2026-04-19T08:19:27Z</time></trkpt><trkpt lat="38.10232587414406" lon="14.92160520107408"><ele>1014.0000000000001</ele><time>2026-04-19T08:19:29Z</time></trkpt><trkpt lat="38.10238042038457" lon="14.92174921830067"><ele>1014.0</ele><time>2026-04-19T08:19:31Z</time></trkpt><trkpt lat="38.10241922017451" lon="14.92187302235052"><ele>1014.0</ele><time>2026-04-19T08:19:33Z</time></trkpt><trkpt lat="38.10247336262523" lon="14.921939837346"><ele>1014.5</ele><time>2026-04-19T08:19:35Z</time></trkpt><trkpt lat="38.102543098041316" lon="14.922035182624919"><ele>1015.0</ele><time>2026-04-19T08:19:37Z</time></trkpt><trkpt lat="38.10259086985725" lon="14.922141373391556"><ele>1015.5</ele><time>2026-04-19T08:19:39Z</time></trkpt><trkpt lat="38.10265225420238" lon="14.922186578246265"><ele>1016.0</ele><time>2026-04-19T08:19:42Z</time></trkpt><trkpt lat="38.10270719312527" lon="14.92222741885506"><ele>1016.5</ele><time>2026-04-19T08:19:46Z</time></trkpt><trkpt lat="38.10274404917707" lon="14.922294202354564"><ele>1017.0</ele><time>2026-04-19T08:19:51Z</time></trkpt><trkpt lat="38.10277480669755" lon="14.92236847350282"><ele>1017.0</ele><time>2026-04-19T08:19:56Z</time></trkpt><trkpt lat="38.10281295574349" lon="14.92244647553842"><ele>1017.0</ele><time>2026-04-19T08:19:59.999Z</time></trkpt><trkpt lat="38.102882966168906" lon="14.922533844783603"><ele>1017.0</ele><time>2026-04-19T08:20:02.999Z</time></trkpt><trkpt lat="38.10299947005221" lon="14.92260867800293"><ele>1017.0</ele><time>2026-04-19T08:20:04.999Z</time></trkpt><trkpt lat="38.10308732072839" lon="14.922652587485056"><ele>1017.0</ele><time>2026-04-19T08:20:06.999Z</time></trkpt><trkpt lat="38.10319073922089" lon="14.922719782291454"><ele>1012.8333333333334</ele><time>2026-04-19T08:20:08.999Z</time></trkpt><trkpt lat="38.10328859571786" lon="14.922785246756348"><ele>1008.6666666666667</ele><time>2026-04-19T08:20:10.999Z</time></trkpt><trkpt lat="38.103345432157006" lon="14.922866027839008"><ele>1004.5</ele><time>2026-04-19T08:20:12.999Z</time></trkpt><trkpt lat="38.10340811048526" lon="14.922926967894867"><ele>1000.3333333333334</ele><time>2026-04-19T08:20:15.999Z</time></trkpt><trkpt lat="38.10347884965112" lon="14.922960363979746"><ele>996.1666666666667</ele><time>2026-04-19T08:20:17.999Z</time></trkpt><trkpt lat="38.10355100985548" lon="14.92301788123452"><ele>992.0</ele><time>2026-04-19T08:20:19.999Z</time></trkpt><trkpt lat="38.10359936281085" lon="14.923072886943865"><ele>992.0000000000001</ele><time>2026-04-19T08:20:20.999Z</time></trkpt><trkpt lat="38.10365645621426" lon="14.923141399032733"><ele>992.0</ele><time>2026-04-19T08:20:21.999Z</time></trkpt><trkpt lat="38.10371325494544" lon="14.923256097749293"><ele>992.0</ele><time>2026-04-19T08:20:23.999Z</time></trkpt><trkpt lat="38.10370982450493" lon="14.923337016057777"><ele>992.0</ele><time>2026-04-19T08:20:25.999Z</time></trkpt><trkpt lat="38.10373052219533" lon="14.92342381399226"><ele>992.0000000000001</ele><time>2026-04-19T08:20:28.999Z</time></trkpt><trkpt lat="38.10372565569231" lon="14.923518457674161"><ele>992.0</ele><time>2026-04-19T08:20:32.999Z</time></trkpt><trkpt lat="38.10373983098215" lon="14.923602203003004"><ele>986.8571428571429</ele><time>2026-04-19T08:20:35.999Z</time></trkpt><trkpt lat="38.1037905795199" lon="14.923659814721985"><ele>981.7142857142858</ele><time>2026-04-19T08:20:39.999Z</time></trkpt><trkpt lat="38.10384815783798" lon="14.923723485167262"><ele>976.5714285714287</ele><time>2026-04-19T08:20:43.999Z</time></trkpt><trkpt lat="38.10389586371762" lon="14.923785642776659"><ele>971.4285714285716</ele><time>2026-04-19T08:20:47.999Z</time></trkpt><trkpt lat="38.10395233194312" lon="14.923855471615067"><ele>966.2857142857143</ele><time>2026-04-19T08:20:51.999Z</time></trkpt><trkpt lat="38.10401034937723" lon="14.923923680782549"><ele>961.1428571428573</ele><time>2026-04-19T08:20:55.998Z</time></trkpt><trkpt lat="38.10407542976883" lon="14.923950275724138"><ele>956.0000000000001</ele><time>2026-04-19T08:21:00.998Z</time></trkpt><trkpt lat="38.10413718909879" lon="14.924005514010346"><ele>954.857142857143</ele><time>2026-04-19T08:21:03.998Z</time></trkpt><trkpt lat="38.10421778534745" lon="14.924043432541202"><ele>953.7142857142858</ele><time>2026-04-19T08:21:05.998Z</time></trkpt><trkpt lat="38.104281841393046" lon="14.924033275557472"><ele>952.5714285714286</ele><time>2026-04-19T08:21:15.998Z</time></trkpt><trkpt lat="38.104350349971384" lon="14.924024781907312"><ele>951.4285714285714</ele><time>2026-04-19T08:21:19.998Z</time></trkpt><trkpt lat="38.10441916131883" lon="14.923990309488993"><ele>950.2857142857142</ele><time>2026-04-19T08:21:23.998Z</time></trkpt><trkpt lat="38.10448040871663" lon="14.923962493438488"><ele>949.142857142857</ele><time>2026-04-19T08:21:27Z</time></trkpt><trkpt lat="38.10453913195348" lon="14.923930875264674"><ele>947.9999999999999</ele><time>2026-04-19T08:21:30Z</time></trkpt><trkpt lat="38.10460697129336" lon="14.923876377803923"><ele>948.0</ele><time>2026-04-19T08:21:34Z</time></trkpt><trkpt lat="38.10466422398709" lon="14.923827263847903"><ele>948.0</ele><time>2026-04-19T08:21:38Z</time></trkpt><trkpt lat="38.10471828449321" lon="14.923767879750102"><ele>948.0</ele><time>2026-04-19T08:21:43Z</time></trkpt><trkpt lat="38.10477439675589" lon="14.923685323229167"><ele>948.0</ele><time>2026-04-19T08:21:46Z</time></trkpt><trkpt lat="38.10480478169537" lon="14.923586329243054"><ele>948.0</ele><time>2026-04-19T08:21:49Z</time></trkpt><trkpt lat="38.10483711656211" lon="14.923506883807185"><ele>948.0</ele><time>2026-04-19T08:21:52Z</time></trkpt><trkpt lat="38.10485319400101" lon="14.92341621302611"><ele>950.3333333333334</ele><time>2026-04-19T08:21:56Z</time></trkpt><trkpt lat="38.1048773675727" lon="14.923336733379934"><ele>952.6666666666667</ele><time>2026-04-19T08:22:00Z</time></trkpt><trkpt lat="38.10489722799558" lon="14.923240625596698"><ele>955.0</ele><time>2026-04-19T08:22:03.999Z</time></trkpt><trkpt lat="38.1049165057837" lon="14.923161384435243"><ele>957.3333333333334</ele><time>2026-04-19T08:22:25.999Z</time></trkpt><trkpt lat="38.104962709539485" lon="14.923247274963156"><ele>959.6666666666667</ele><time>2026-04-19T08:22:32.999Z</time></trkpt><trkpt lat="38.105016706459985" lon="14.923331918204694"><ele>962.0</ele><time>2026-04-19T08:22:36.999Z</time></trkpt><trkpt lat="38.10505685511151" lon="14.923419305651413"><ele>952.8333333333334</ele><time>2026-04-19T08:22:39.999Z</time></trkpt><trkpt lat="38.10508081276636" lon="14.923505818314347"><ele>943.6666666666667</ele><time>2026-04-19T08:22:41.999Z</time></trkpt><trkpt lat="38.105130137955534" lon="14.923586693728742"><ele>934.5</ele><time>2026-04-19T08:22:43.999Z</time></trkpt><trkpt lat="38.105166628638194" lon="14.923662571533262"><ele>925.3333333333333</ele><time>2026-04-19T08:22:45.999Z</time></trkpt><trkpt lat="38.10520328994802" lon="14.923765511699582"><ele>916.1666666666666</ele><time>2026-04-19T08:22:48.999Z</time></trkpt><trkpt lat="38.1052141768019" lon="14.923869200663905"><ele>907.0</ele><time>2026-04-19T08:22:50.999Z</time></trkpt><trkpt lat="38.10520200460676" lon="14.923993007610425"><ele>906.9999999999999</ele><time>2026-04-19T08:22:52.999Z</time></trkpt><trkpt lat="38.10518927192927" lon="14.924103905491654"><ele>907.0</ele><time>2026-04-19T08:22:53.999Z</time></trkpt><trkpt lat="38.105177236342286" lon="14.924221780726047"><ele>907.0</ele><time>2026-04-19T08:22:54.999Z</time></trkpt><trkpt lat="38.10516908516401" lon="14.924326362285653"><ele>907.0</ele><time>2026-04-19T08:22:55.999Z</time></trkpt><trkpt lat="38.10516629942624" lon="14.924406385950965"><ele>906.9999999999999</ele><time>2026-04-19T08:22:56.999Z</time></trkpt><trkpt lat="38.10512055815085" lon="14.924548596110363"><ele>907.0</ele><time>2026-04-19T08:22:58.998Z</time></trkpt><trkpt lat="38.10509210544822" lon="14.924623827813766"><ele>907.9999999999999</ele><time>2026-04-19T08:22:59.998Z</time></trkpt><trkpt lat="38.10505177835064" lon="14.924695917702586"><ele>909.0</ele><time>2026-04-19T08:23:00.998Z</time></trkpt><trkpt lat="38.10500007673984" lon="14.924761806118692"><ele>910.0</ele><time>2026-04-19T08:23:01.998Z</time></trkpt><trkpt lat="38.10495072100994" lon="14.924828582431049"><ele>911.0</ele><time>2026-04-19T08:23:02.998Z</time></trkpt><trkpt lat="38.104895774535976" lon="14.92493987175256"><ele>911.9999999999999</ele><time>2026-04-19T08:23:04.998Z</time></trkpt><trkpt lat="38.10486548010772" lon="14.925097915332314"><ele>913.0</ele><time>2026-04-19T08:23:06.998Z</time></trkpt><trkpt lat="38.104834111326966" lon="14.92518809981798"><ele>908.3333333333333</ele><time>2026-04-19T08:23:07.998Z</time></trkpt><trkpt lat="38.10481818319304" lon="14.925283851335411"><ele>903.6666666666666</ele><time>2026-04-19T08:23:08.998Z</time></trkpt><trkpt lat="38.104802991441304" lon="14.925379232100378"><ele>899.0</ele><time>2026-04-19T08:23:09.998Z</time></trkpt><trkpt lat="38.104784572041936" lon="14.92545897937284"><ele>894.3333333333333</ele><time>2026-04-19T08:23:10.998Z</time></trkpt><trkpt lat="38.1047171007628" lon="14.925569516388556"><ele>889.6666666666666</ele><time>2026-04-19T08:23:12.998Z</time></trkpt><trkpt lat="38.104656545464486" lon="14.925667527179646"><ele>885.0</ele><time>2026-04-19T08:23:14.998Z</time></trkpt><trkpt lat="38.10463635226245" lon="14.925763848154798"><ele>885.0</ele><time>2026-04-19T08:23:16.998Z</time></trkpt><trkpt lat="38.10459865409324" lon="14.925845451716961"><ele>885.0</ele><time>2026-04-19T08:23:19.998Z</time></trkpt><trkpt lat="38.104559474333634" lon="14.925920344561908"><ele>885.0</ele><time>2026-04-19T08:23:21.998Z</time></trkpt><trkpt lat="38.10456693553621" lon="14.926008900144344"><ele>885.0</ele><time>2026-04-19T08:23:24.998Z</time></trkpt><trkpt lat="38.10462940135873" lon="14.92604141046012"><ele>885.0</ele><time>2026-04-19T08:23:26.998Z</time></trkpt><trkpt lat="38.10469233919766" lon="14.926116139230029"><ele>885.0</ele><time>2026-04-19T08:23:28.998Z</time></trkpt><trkpt lat="38.10473705396009" lon="14.926193387451908"><ele>885.0</ele><time>2026-04-19T08:23:31.998Z</time></trkpt><trkpt lat="38.104787006192595" lon="14.926261731447422"><ele>884.5</ele><time>2026-04-19T08:23:35Z</time></trkpt><trkpt lat="38.104842078110316" lon="14.926323274476236"><ele>884.0</ele><time>2026-04-19T08:23:39Z</time></trkpt><trkpt lat="38.10488280963018" lon="14.926419318949915"><ele>883.5</ele><time>2026-04-19T08:23:41Z</time></trkpt><trkpt lat="38.10493477009348" lon="14.926528700820603"><ele>883.0</ele><time>2026-04-19T08:23:43Z</time></trkpt><trkpt lat="38.104970062496356" lon="14.926634460087795"><ele>882.5</ele><time>2026-04-19T08:23:45Z</time></trkpt><trkpt lat="38.10499102793081" lon="14.926748338844051"><ele>882.0</ele><time>2026-04-19T08:23:47Z</time></trkpt><trkpt lat="38.10500350796944" lon="14.926841286882075"><ele>883.6666666666666</ele><time>2026-04-19T08:23:49Z</time></trkpt><trkpt lat="38.10498803474919" lon="14.926922809453998"><ele>885.3333333333333</ele><time>2026-04-19T08:23:51Z</time></trkpt><trkpt lat="38.10494801072932" lon="14.927022835929147"><ele>887.0</ele><time>2026-04-19T08:23:53Z</time></trkpt><trkpt lat="38.10492165891157" lon="14.927149567828163"><ele>888.6666666666666</ele><time>2026-04-19T08:23:55Z</time></trkpt><trkpt lat="38.10490927187167" lon="14.927264841810603"><ele>890.3333333333333</ele><time>2026-04-19T08:23:57Z</time></trkpt><trkpt lat="38.10491597977129" lon="14.927373733945926"><ele>892.0</ele><time>2026-04-19T08:23:59Z</time></trkpt><trkpt lat="38.10494542830396" lon="14.927477042325329"><ele>894.2</ele><time>2026-04-19T08:24:01Z</time></trkpt><trkpt lat="38.10496263362213" lon="14.927592839136777"><ele>896.4000000000001</ele><time>2026-04-19T08:24:03Z</time></trkpt><trkpt lat="38.105001073702816" lon="14.927675726720027"><ele>898.5999999999999</ele><time>2026-04-19T08:24:05Z</time></trkpt><trkpt lat="38.10508101172649" lon="14.927811434388024"><ele>900.8</ele><time>2026-04-19T08:24:07Z</time></trkpt><trkpt lat="38.105114084902404" lon="14.9278909431321"><ele>903.0</ele><time>2026-04-19T08:24:08Z</time></trkpt><trkpt lat="38.105096732172356" lon="14.92801814225292"><ele>903.0</ele><time>2026-04-19T08:24:09.999Z</time></trkpt><trkpt lat="38.10504206850758" lon="14.928142836560623"><ele>903.0</ele><time>2026-04-19T08:24:11.999Z</time></trkpt><trkpt lat="38.10504935828584" lon="14.928223436953264"><ele>903.0</ele><time>2026-04-19T08:24:13.999Z</time></trkpt><trkpt lat="38.105030639584974" lon="14.92830543002989"><ele>903.0</ele><time>2026-04-19T08:24:16.999Z</time></trkpt><trkpt lat="38.10500738628977" lon="14.92848990138695"><ele>903.0</ele><time>2026-04-19T08:24:18.999Z</time></trkpt><trkpt lat="38.10500175788412" lon="14.9285852319519"><ele>904.0</ele><time>2026-04-19T08:24:20.999Z</time></trkpt><trkpt lat="38.10501476142843" lon="14.928675749254271"><ele>905.0</ele><time>2026-04-19T08:24:44.999Z</time></trkpt><trkpt lat="38.10504943267928" lon="14.928794191830905"><ele>906.0</ele><time>2026-04-19T08:24:50.999Z</time></trkpt><trkpt lat="38.105096230537455" lon="14.92888082331069"><ele>907.0</ele><time>2026-04-19T08:24:52.999Z</time></trkpt><trkpt lat="38.10515362609447" lon="14.928976508085132"><ele>908.0</ele><time>2026-04-19T08:24:54.999Z</time></trkpt><trkpt lat="38.10519056301787" lon="14.92906604932307"><ele>909.0</ele><time>2026-04-19T08:24:56.999Z</time></trkpt><trkpt lat="38.105216991296864" lon="14.929156552607477"><ele>909.0</ele><time>2026-04-19T08:24:58.999Z</time></trkpt><trkpt lat="38.105227828902834" lon="14.929245754280092"><ele>909.0</ele><time>2026-04-19T08:25:00.999Z</time></trkpt><trkpt lat="38.105248671767654" lon="14.929343252085653"><ele>909.0</ele><time>2026-04-19T08:25:02.999Z</time></trkpt><trkpt lat="38.105294521221275" lon="14.929450021608472"><ele>909.0</ele><time>2026-04-19T08:25:04.998Z</time></trkpt><trkpt lat="38.10533151065094" lon="14.929534546022275"><ele>909.0</ele><time>2026-04-19T08:26:15.999Z</time></trkpt><trkpt lat="38.105335720839" lon="14.929662060596385"><ele>909.0</ele><time>2026-04-19T08:26:17.999Z</time></trkpt><trkpt lat="38.105337080121714" lon="14.929784693655053"><ele>909.0</ele><time>2026-04-19T08:26:19.999Z</time></trkpt><trkpt lat="38.105359427091166" lon="14.929937359215929"><ele>909.0</ele><time>2026-04-19T08:26:21.999Z</time></trkpt><trkpt lat="38.10541966575932" lon="14.930050833237663"><ele>909.0</ele><time>2026-04-19T08:26:23.999Z</time></trkpt><trkpt lat="38.10548969230428" lon="14.930186656017339"><ele>909.0</ele><time>2026-04-19T08:26:25.999Z</time></trkpt><trkpt lat="38.10552289344785" lon="14.93033343392403"><ele>910.0</ele><time>2026-04-19T08:26:27.999Z</time></trkpt><trkpt lat="38.105541909551704" lon="14.93045432924481"><ele>911.0000000000001</ele><time>2026-04-19T08:26:29.999Z</time></trkpt><trkpt lat="38.10555457896861" lon="14.930587963852245"><ele>912.0000000000001</ele><time>2026-04-19T08:26:31.999Z</time></trkpt><trkpt lat="38.10555988916547" lon="14.930727514364907"><ele>913.0</ele><time>2026-04-19T08:26:33.999Z</time></trkpt><trkpt lat="38.10555051425108" lon="14.930868325577842"><ele>914.0</ele><time>2026-04-19T08:26:35.999Z</time></trkpt><trkpt lat="38.10556048730911" lon="14.930996457520429"><ele>914.0</ele><time>2026-04-19T08:26:37.999Z</time></trkpt><trkpt lat="38.105606920990766" lon="14.931131297744583"><ele>914.0</ele><time>2026-04-19T08:26:39.999Z</time></trkpt><trkpt lat="38.105671203725606" lon="14.931252491947014"><ele>914.0</ele><time>2026-04-19T08:26:41.999Z</time></trkpt><trkpt lat="38.10573195237756" lon="14.931366659583547"><ele>914.0</ele><time>2026-04-19T08:26:43.999Z</time></trkpt><trkpt lat="38.10583083789367" lon="14.931460797091184"><ele>914.6666666666667</ele><time>2026-04-19T08:26:45.999Z</time></trkpt><trkpt lat="38.1059212503993" lon="14.931566928591767"><ele>915.3333333333334</ele><time>2026-04-19T08:26:47.999Z</time></trkpt><trkpt lat="38.105963879165834" lon="14.93162736305102"><ele>916.0</ele><time>2026-04-19T08:26:48.999Z</time></trkpt><trkpt lat="38.10600714164089" lon="14.931697042972708"><ele>916.6666666666667</ele><time>2026-04-19T08:26:49.999Z</time></trkpt><trkpt lat="38.106050674137315" lon="14.931775677915246"><ele>917.3333333333334</ele><time>2026-04-19T08:26:50.999Z</time></trkpt><trkpt lat="38.106094947991345" lon="14.931850170466115"><ele>918.0</ele><time>2026-04-19T08:26:51.999Z</time></trkpt><trkpt lat="38.10614067119642" lon="14.931916291893447"><ele>918.0</ele><time>2026-04-19T08:26:52.999Z</time></trkpt><trkpt lat="38.106226327719796" lon="14.931996585162132"><ele>918.0</ele><time>2026-04-19T08:26:54.999Z</time></trkpt><trkpt lat="38.10629769015862" lon="14.932116644033691"><ele>918.0</ele><time>2026-04-19T08:26:56.999Z</time></trkpt><trkpt lat="38.1063469046638" lon="14.93218170852312"><ele>918.0</ele><time>2026-04-19T08:26:57.999Z</time></trkpt><trkpt lat="38.10639766507687" lon="14.932243451629063"><ele>918.0</ele><time>2026-04-19T08:26:58.999Z</time></trkpt><trkpt lat="38.10643533694763" lon="14.932354403452806"><ele>918.0</ele><time>2026-04-19T08:27:00.999Z</time></trkpt><trkpt lat="38.106511297046254" lon="14.932450115884754"><ele>918.0</ele><time>2026-04-19T08:27:02.999Z</time></trkpt><trkpt lat="38.10658313208937" lon="14.932551240647422"><ele>918.0</ele><time>2026-04-19T08:27:03.999Z</time></trkpt><trkpt lat="38.106658776222645" lon="14.932660011673965"><ele>918.0</ele><time>2026-04-19T08:27:04.999Z</time></trkpt><trkpt lat="38.10669969575527" lon="14.93273537644739"><ele>918.0</ele><time>2026-04-19T08:27:05.999Z</time></trkpt><trkpt lat="38.106670721487866" lon="14.932845690204168"><ele>921.1666666666666</ele><time>2026-04-19T08:27:07.999Z</time></trkpt><trkpt lat="38.106619742309384" lon="14.9329775943149"><ele>924.3333333333333</ele><time>2026-04-19T08:27:09.999Z</time></trkpt><trkpt lat="38.106602768646184" lon="14.933061758439084"><ele>927.5</ele><time>2026-04-19T08:27:11.998Z</time></trkpt><trkpt lat="38.106637860714365" lon="14.933137201713269"><ele>930.6666666666666</ele><time>2026-04-19T08:27:38.998Z</time></trkpt><trkpt lat="38.10670891917818" lon="14.933155624817115"><ele>933.8333333333333</ele><time>2026-04-19T08:27:53Z</time></trkpt><trkpt lat="38.1067702910232" lon="14.933132464366793"><ele>937.0</ele><time>2026-04-19T08:27:54Z</time></trkpt><trkpt lat="38.10683617864676" lon="14.933124803558975"><ele>937.0</ele><time>2026-04-19T08:27:55Z</time></trkpt><trkpt lat="38.10690084309623" lon="14.933144951643076"><ele>937.0</ele><time>2026-04-19T08:27:56Z</time></trkpt><trkpt lat="38.10696287120851" lon="14.933176361440204"><ele>937.0</ele><time>2026-04-19T08:27:57Z</time></trkpt><trkpt lat="38.107025777732716" lon="14.933215087234727"><ele>937.0</ele><time>2026-04-19T08:27:58Z</time></trkpt><trkpt lat="38.10708543155026" lon="14.93325412804732"><ele>937.0</ele><time>2026-04-19T08:27:59Z</time></trkpt><trkpt lat="38.10714003002267" lon="14.933305229030584"><ele>937.0</ele><time>2026-04-19T08:28:00Z</time></trkpt><trkpt lat="38.10719229028629" lon="14.933361499588898"><ele>937.0</ele><time>2026-04-19T08:28:01Z</time></trkpt><trkpt lat="38.107239374021745" lon="14.933422789655944"><ele>932.9999999999999</ele><time>2026-04-19T08:28:02Z</time></trkpt><trkpt lat="38.10729218860391" lon="14.933473446952235"><ele>929.0</ele><time>2026-04-19T08:28:03Z</time></trkpt><trkpt lat="38.10735075146034" lon="14.933504493149972"><ele>925.0</ele><time>2026-04-19T08:28:04Z</time></trkpt><trkpt lat="38.1074212438473" lon="14.933516542986053"><ele>921.0</ele><time>2026-04-19T08:28:05Z</time></trkpt><trkpt lat="38.107502533091605" lon="14.933514366985426"><ele>916.9999999999999</ele><time>2026-04-19T08:28:06Z</time></trkpt><trkpt lat="38.10758884079842" lon="14.933516045956564"><ele>913.0</ele><time>2026-04-19T08:28:07Z</time></trkpt><trkpt lat="38.10768026793891" lon="14.93352872956139"><ele>913.0</ele><time>2026-04-19T08:28:08Z</time></trkpt><trkpt lat="38.10777181474673" lon="14.93355149214083"><ele>913.0</ele><time>2026-04-19T08:28:09Z</time></trkpt><trkpt lat="38.10785517959543" lon="14.933583403707797"><ele>913.0</ele><time>2026-04-19T08:28:10Z</time></trkpt><trkpt lat="38.10791492206079" lon="14.933684621728391"><ele>913.0</ele><time>2026-04-19T08:28:18.999Z</time></trkpt><trkpt lat="38.10796363209494" lon="14.93380057754864"><ele>913.0</ele><time>2026-04-19T08:28:20.999Z</time></trkpt><trkpt lat="38.108051763059784" lon="14.933908230419146"><ele>912.9999999999999</ele><time>2026-04-19T08:28:22.999Z</time></trkpt><trkpt lat="38.1081127751013" lon="14.933952887638497"><ele>913.0</ele><time>2026-04-19T08:28:23.999Z</time></trkpt><trkpt lat="38.108176640289" lon="14.933987981947134"><ele>912.9999999999999</ele><time>2026-04-19T08:28:24.999Z</time></trkpt><trkpt lat="38.10823756117027" lon="14.934041159915449"><ele>912.9999999999999</ele><time>2026-04-19T08:28:26.999Z</time></trkpt><trkpt lat="38.108202097294054" lon="14.934109991253486"><ele>913.0</ele><time>2026-04-19T08:28:29.999Z</time></trkpt><trkpt lat="38.108138195022924" lon="14.934098029817358"><ele>912.9999999999999</ele><time>2026-04-19T08:28:30.999Z</time></trkpt><trkpt lat="38.108059086999575" lon="14.934076317275533"><ele>912.9999999999999</ele><time>2026-04-19T08:28:31.999Z</time></trkpt><trkpt lat="38.1079889184258" lon="14.934063951954004"><ele>912.9999999999999</ele><time>2026-04-19T08:28:32.999Z</time></trkpt><trkpt lat="38.10791946180144" lon="14.934068986782899"><ele>913.0</ele><time>2026-04-19T08:28:33.999Z</time></trkpt><trkpt lat="38.107853980013566" lon="14.934088977269605"><ele>913.0</ele><time>2026-04-19T08:28:34.999Z</time></trkpt><trkpt lat="38.10776749503328" lon="14.934147952987876"><ele>913.0</ele><time>2026-04-19T08:28:36.999Z</time></trkpt><trkpt lat="38.10771013392368" lon="14.934287913169708"><ele>912.9999999999999</ele><time>2026-04-19T08:28:38.999Z</time></trkpt><trkpt lat="38.10768488695046" lon="14.934381779442745"><ele>913.0</ele><time>2026-04-19T08:28:39.999Z</time></trkpt><trkpt lat="38.10765917309338" lon="14.934479583914298"><ele>907.9999999999999</ele><time>2026-04-19T08:28:40.999Z</time></trkpt><trkpt lat="38.10762792872867" lon="14.93456284935186"><ele>903.0</ele><time>2026-04-19T08:28:41.999Z</time></trkpt><trkpt lat="38.10755031714973" lon="14.93468058357151"><ele>898.0</ele><time>2026-04-19T08:28:43.999Z</time></trkpt><trkpt lat="38.1074940991686" lon="14.934736102760759"><ele>893.0</ele><time>2026-04-19T08:28:45.999Z</time></trkpt><trkpt lat="38.10756404072996" lon="14.934783526585738"><ele>887.9999999999999</ele><time>2026-04-19T08:28:47.999Z</time></trkpt><trkpt lat="38.10766027601037" lon="14.934742965259566"><ele>883.0</ele><time>2026-04-19T08:28:49.999Z</time></trkpt><trkpt lat="38.10776805301802" lon="14.934651217509293"><ele>882.9999999999999</ele><time>2026-04-19T08:28:51.999Z</time></trkpt><trkpt lat="38.1078292201408" lon="14.93459297856072"><ele>883.0</ele><time>2026-04-19T08:28:52.999Z</time></trkpt><trkpt lat="38.10788211408983" lon="14.93453403796199"><ele>883.0</ele><time>2026-04-19T08:28:53.999Z</time></trkpt><trkpt lat="38.107990860844396" lon="14.934525148888268"><ele>883.0</ele><time>2026-04-19T08:28:55.999Z</time></trkpt><trkpt lat="38.1080719312741" lon="14.934559410535119"><ele>882.9999999999999</ele><time>2026-04-19T08:28:56.999Z</time></trkpt><trkpt lat="38.108167608264495" lon="14.934612689839206"><ele>883.0</ele><time>2026-04-19T08:28:57.999Z</time></trkpt><trkpt lat="38.10824733819696" lon="14.934669638526358"><ele>883.4999999999999</ele><time>2026-04-19T08:28:58.999Z</time></trkpt><trkpt lat="38.10830575343625" lon="14.93471999031709"><ele>884.0</ele><time>2026-04-19T08:28:59.999Z</time></trkpt><trkpt lat="38.108404601815586" lon="14.934824193330837"><ele>884.5</ele><time>2026-04-19T08:29:01.999Z</time></trkpt><trkpt lat="38.108475057606064" lon="14.934875851842062"><ele>885.0</ele><time>2026-04-19T08:29:02.999Z</time></trkpt><trkpt lat="38.108556157999494" lon="14.934909800260298"><ele>885.4999999999999</ele><time>2026-04-19T08:29:03.999Z</time></trkpt><trkpt lat="38.108626796739" lon="14.934945036047827"><ele>886.0</ele><time>2026-04-19T08:29:04.999Z</time></trkpt><trkpt lat="38.10870274747408" lon="14.934975449746773"><ele>885.9999999999999</ele><time>2026-04-19T08:29:05.999Z</time></trkpt><trkpt lat="38.108778384680456" lon="14.935002572164178"><ele>886.0</ele><time>2026-04-19T08:29:06.999Z</time></trkpt><trkpt lat="38.10885156616065" lon="14.935037522272921"><ele>886.0</ele><time>2026-04-19T08:29:07.999Z</time></trkpt><trkpt lat="38.10891136333746" lon="14.935089134200272"><ele>886.0</ele><time>2026-04-19T08:29:08.999Z</time></trkpt><trkpt lat="38.10896478494618" lon="14.935150583761944"><ele>885.9999999999999</ele><time>2026-04-19T08:29:09.999Z</time></trkpt><trkpt lat="38.109025629375026" lon="14.935205605597174"><ele>886.0</ele><time>2026-04-19T08:29:10.999Z</time></trkpt><trkpt lat="38.10909772902436" lon="14.935256330226478"><ele>881.8333333333333</ele><time>2026-04-19T08:29:11.999Z</time></trkpt><trkpt lat="38.1091832152334" lon="14.935289244860941"><ele>877.6666666666666</ele><time>2026-04-19T08:29:12.999Z</time></trkpt><trkpt lat="38.10927261293042" lon="14.935307614628242"><ele>873.5</ele><time>2026-04-19T08:29:13.999Z</time></trkpt><trkpt lat="38.10935900470116" lon="14.93531814285457"><ele>869.3333333333333</ele><time>2026-04-19T08:29:14.998Z</time></trkpt><trkpt lat="38.10944161127491" lon="14.935328547581806"><ele>865.1666666666666</ele><time>2026-04-19T08:29:15.998Z</time></trkpt><trkpt lat="38.10952109806348" lon="14.9353372225966"><ele>861.0</ele><time>2026-04-19T08:29:16.998Z</time></trkpt><trkpt lat="38.10960624702099" lon="14.935418569884595"><ele>861.0</ele><time>2026-04-19T08:29:18.998Z</time></trkpt><trkpt lat="38.109647430298814" lon="14.93550960988381"><ele>860.9999999999999</ele><time>2026-04-19T08:29:19.998Z</time></trkpt><trkpt lat="38.10969208334771" lon="14.93561635153811"><ele>860.9999999999999</ele><time>2026-04-19T08:29:20.998Z</time></trkpt><trkpt lat="38.10974762877673" lon="14.93572348333806"><ele>861.0</ele><time>2026-04-19T08:29:21.998Z</time></trkpt><trkpt lat="38.10981995417635" lon="14.935807746468175"><ele>861.0</ele><time>2026-04-19T08:29:22.998Z</time></trkpt><trkpt lat="38.109891100712765" lon="14.935892759862877"><ele>861.5</ele><time>2026-04-19T08:29:23.998Z</time></trkpt><trkpt lat="38.10994356084705" lon="14.935998325457641"><ele>862.0</ele><time>2026-04-19T08:29:24.998Z</time></trkpt><trkpt lat="38.10999100140402" lon="14.936105758323901"><ele>862.5</ele><time>2026-04-19T08:29:25.998Z</time></trkpt><trkpt lat="38.11003773911433" lon="14.936189451085925"><ele>863.0</ele><time>2026-04-19T08:29:26.998Z</time></trkpt><trkpt lat="38.11009444541916" lon="14.936253929821897"><ele>863.5</ele><time>2026-04-19T08:29:27.998Z</time></trkpt><trkpt lat="38.11015091316219" lon="14.93631041849519"><ele>864.0</ele><time>2026-04-19T08:29:28.998Z</time></trkpt><trkpt lat="38.110215977385465" lon="14.936396284829312"><ele>864.0</ele><time>2026-04-19T08:29:30.998Z</time></trkpt><trkpt lat="38.110195079322054" lon="14.936482813216678"><ele>864.0</ele><time>2026-04-19T08:29:33.998Z</time></trkpt><trkpt lat="38.110132366958986" lon="14.936407112106293"><ele>864.0</ele><time>2026-04-19T08:29:35.998Z</time></trkpt><trkpt lat="38.110095719557954" lon="14.936333422380931"><ele>864.0</ele><time>2026-04-19T08:29:36.998Z</time></trkpt><trkpt lat="38.11003771568495" lon="14.936284335397389"><ele>864.0</ele><time>2026-04-19T08:29:37.998Z</time></trkpt><trkpt lat="38.10997309726145" lon="14.936249959409544"><ele>864.0</ele><time>2026-04-19T08:29:38.998Z</time></trkpt><trkpt lat="38.10990762304463" lon="14.936231391826365"><ele>864.0</ele><time>2026-04-19T08:29:39.998Z</time></trkpt><trkpt lat="38.10985197424089" lon="14.936174702746612"><ele>863.5</ele><time>2026-04-19T08:29:40.998Z</time></trkpt><trkpt lat="38.109794149014775" lon="14.936109593461952"><ele>863.0</ele><time>2026-04-19T08:29:41.998Z</time></trkpt><trkpt lat="38.10973514555169" lon="14.936046579902925"><ele>862.5</ele><time>2026-04-19T08:29:42.998Z</time></trkpt><trkpt lat="38.10967179931881" lon="14.93598855016192"><ele>862.0</ele><time>2026-04-19T08:29:43.998Z</time></trkpt><trkpt lat="38.10960351159915" lon="14.935943454865964"><ele>861.5</ele><time>2026-04-19T08:29:44.998Z</time></trkpt><trkpt lat="38.10953869465158" lon="14.935898360067126"><ele>861.0</ele><time>2026-04-19T08:29:45.998Z</time></trkpt><trkpt lat="38.109484225973326" lon="14.93583892761116"><ele>861.0</ele><time>2026-04-19T08:29:46.998Z</time></trkpt><trkpt lat="38.10943334549144" lon="14.935766818980307"><ele>861.0</ele><time>2026-04-19T08:29:47.998Z</time></trkpt><trkpt lat="38.10937887847873" lon="14.935709679234416"><ele>861.0</ele><time>2026-04-19T08:29:48.998Z</time></trkpt><trkpt lat="38.10931680612411" lon="14.935689774285155"><ele>861.0</ele><time>2026-04-19T08:29:49.998Z</time></trkpt><trkpt lat="38.10924115727396" lon="14.935698346988028"><ele>861.0</ele><time>2026-04-19T08:29:51Z</time></trkpt><trkpt lat="38.10915884966735" lon="14.935723907371559"><ele>861.0</ele><time>2026-04-19T08:29:52Z</time></trkpt><trkpt lat="38.109075836632286" lon="14.935729027032746"><ele>859.1428571428571</ele><time>2026-04-19T08:29:53Z</time></trkpt><trkpt lat="38.10900205647501" lon="14.935741014970356"><ele>857.2857142857142</ele><time>2026-04-19T08:29:54Z</time></trkpt><trkpt lat="38.10892903300514" lon="14.935756852772903"><ele>855.4285714285714</ele><time>2026-04-19T08:29:55Z</time></trkpt><trkpt lat="38.1088508373842" lon="14.935759253411796"><ele>853.5714285714286</ele><time>2026-04-19T08:29:56Z</time></trkpt><trkpt lat="38.10878167600821" lon="14.93573479160052"><ele>851.7142857142857</ele><time>2026-04-19T08:29:57Z</time></trkpt><trkpt lat="38.1087150797564" lon="14.935695232102152"><ele>849.8571428571429</ele><time>2026-04-19T08:29:58Z</time></trkpt><trkpt lat="38.108653792176646" lon="14.935637860373223"><ele>848.0</ele><time>2026-04-19T08:29:59Z</time></trkpt><trkpt lat="38.10858731324269" lon="14.93557901503074"><ele>848.0000000000001</ele><time>2026-04-19T08:30:00Z</time></trkpt><trkpt lat="38.108521154786374" lon="14.935536595694591"><ele>848.0</ele><time>2026-04-19T08:30:01Z</time></trkpt><trkpt lat="38.10844453718697" lon="14.93551864208158"><ele>848.0</ele><time>2026-04-19T08:30:02Z</time></trkpt><trkpt lat="38.1083592022287" lon="14.935519686122204"><ele>848.0</ele><time>2026-04-19T08:30:03Z</time></trkpt><trkpt lat="38.10827737694589" lon="14.935525517046502"><ele>848.0000000000001</ele><time>2026-04-19T08:30:04Z</time></trkpt><trkpt lat="38.10818915235042" lon="14.935538681500901"><ele>848.0</ele><time>2026-04-19T08:30:05Z</time></trkpt><trkpt lat="38.108099341964554" lon="14.93554019610385"><ele>849.0000000000001</ele><time>2026-04-19T08:30:06Z</time></trkpt><trkpt lat="38.10802618434047" lon="14.935543773079068"><ele>850.0</ele><time>2026-04-19T08:30:07Z</time></trkpt><trkpt lat="38.10793472354322" lon="14.935635601147936"><ele>851.0</ele><time>2026-04-19T08:30:09Z</time></trkpt><trkpt lat="38.107897907712896" lon="14.935714905564305"><ele>852.0</ele><time>2026-04-19T08:30:10Z</time></trkpt><trkpt lat="38.10784379316719" lon="14.935793896839838"><ele>853.0000000000001</ele><time>2026-04-19T08:30:11Z</time></trkpt><trkpt lat="38.10778292620444" lon="14.935877607972"><ele>854.0</ele><time>2026-04-19T08:30:12Z</time></trkpt><trkpt lat="38.107726545761885" lon="14.935959480712375"><ele>850.1666666666667</ele><time>2026-04-19T08:30:13Z</time></trkpt><trkpt lat="38.10767869543517" lon="14.936050689591198"><ele>846.3333333333334</ele><time>2026-04-19T08:30:14Z</time></trkpt><trkpt lat="38.107646636828015" lon="14.936145934162562"><ele>842.5</ele><time>2026-04-19T08:30:15Z</time></trkpt><trkpt lat="38.10761398040158" lon="14.93623063924209"><ele>838.6666666666667</ele><time>2026-04-19T08:30:16Z</time></trkpt><trkpt lat="38.10758378462885" lon="14.936307579810158"><ele>834.8333333333334</ele><time>2026-04-19T08:30:17Z</time></trkpt><trkpt lat="38.10755385544898" lon="14.936378464671106"><ele>831.0</ele><time>2026-04-19T08:30:18Z</time></trkpt><trkpt lat="38.10748721789978" lon="14.936477108637654"><ele>826.6666666666666</ele><time>2026-04-19T08:30:20Z</time></trkpt><trkpt lat="38.10738726618361" lon="14.936456004713715"><ele>822.3333333333333</ele><time>2026-04-19T08:30:23Z</time></trkpt><trkpt lat="38.107357886682344" lon="14.936384696403081"><ele>818.0</ele><time>2026-04-19T08:30:24Z</time></trkpt><trkpt lat="38.10734605417562" lon="14.936292655325053"><ele>813.6666666666666</ele><time>2026-04-19T08:30:25Z</time></trkpt><trkpt lat="38.107349859486135" lon="14.936186474477614"><ele>809.3333333333333</ele><time>2026-04-19T08:30:25.999Z</time></trkpt><trkpt lat="38.107306776179286" lon="14.936093011712362"><ele>805.0</ele><time>2026-04-19T08:30:26.999Z</time></trkpt><trkpt lat="38.10724483380239" lon="14.936034988329475"><ele>804.9999999999999</ele><time>2026-04-19T08:30:27.999Z</time></trkpt><trkpt lat="38.107175447378125" lon="14.93600877268856"><ele>805.0</ele><time>2026-04-19T08:30:28.999Z</time></trkpt><trkpt lat="38.10710258944933" lon="14.935975032142418"><ele>805.0</ele><time>2026-04-19T08:30:29.999Z</time></trkpt><trkpt lat="38.10702068759562" lon="14.935969349642507"><ele>805.0</ele><time>2026-04-19T08:30:30.999Z</time></trkpt><trkpt lat="38.1069497378713" lon="14.935930187618075"><ele>804.9999999999999</ele><time>2026-04-19T08:30:31.999Z</time></trkpt><trkpt lat="38.106889856894" lon="14.93587610407441"><ele>805.0</ele><time>2026-04-19T08:30:32.999Z</time></trkpt><trkpt lat="38.10683865263892" lon="14.935815429586011"><ele>810.3333333333333</ele><time>2026-04-19T08:30:33.999Z</time></trkpt><trkpt lat="38.10679535481865" lon="14.935741415961862"><ele>815.6666666666666</ele><time>2026-04-19T08:30:34.999Z</time></trkpt><trkpt lat="38.10676391593016" lon="14.935654225560702"><ele>821.0</ele><time>2026-04-19T08:30:35.999Z</time></trkpt><trkpt lat="38.106722979702155" lon="14.935589835066791"><ele>826.3333333333333</ele><time>2026-04-19T08:30:36.999Z</time></trkpt><trkpt lat="38.106651189053835" lon="14.935557622224273"><ele>831.6666666666666</ele><time>2026-04-19T08:30:38.999Z</time></trkpt><trkpt lat="38.106590108698406" lon="14.935623930473591"><ele>837.0</ele><time>2026-04-19T08:30:39.999Z</time></trkpt><trkpt lat="38.10650304626333" lon="14.935707582568979"><ele>837.6666666666666</ele><time>2026-04-19T08:30:40.999Z</time></trkpt><trkpt lat="38.10643162091736" lon="14.935778017903782"><ele>838.3333333333333</ele><time>2026-04-19T08:30:41.999Z</time></trkpt><trkpt lat="38.10636492872452" lon="14.935846472098314"><ele>839.0</ele><time>2026-04-19T08:30:42.999Z</time></trkpt><trkpt lat="38.10630050374255" lon="14.935919579257126"><ele>839.6666666666666</ele><time>2026-04-19T08:30:43.999Z</time></trkpt><trkpt lat="38.106238712229164" lon="14.93599450428033"><ele>840.3333333333333</ele><time>2026-04-19T08:30:44.999Z</time></trkpt><trkpt lat="38.10617664107366" lon="14.936075509332314"><ele>841.0</ele><time>2026-04-19T08:30:45.999Z</time></trkpt><trkpt lat="38.10611743935454" lon="14.936161531491386"><ele>834.9999999999999</ele><time>2026-04-19T08:30:46.999Z</time></trkpt><trkpt lat="38.106080333526286" lon="14.936267698253205"><ele>829.0</ele><time>2026-04-19T08:30:47.999Z</time></trkpt><trkpt lat="38.10604345944592" lon="14.936367243604419"><ele>823.0</ele><time>2026-04-19T08:30:48.999Z</time></trkpt><trkpt lat="38.10599494881928" lon="14.936454209580369"><ele>817.0</ele><time>2026-04-19T08:30:49.999Z</time></trkpt><trkpt lat="38.10593873705769" lon="14.936515605819697"><ele>810.9999999999999</ele><time>2026-04-19T08:30:50.999Z</time></trkpt><trkpt lat="38.105875541644075" lon="14.936541935863914"><ele>805.0</ele><time>2026-04-19T08:30:51.999Z</time></trkpt><trkpt lat="38.10579721701193" lon="14.936553731017574"><ele>802.9999999999999</ele><time>2026-04-19T08:30:52.999Z</time></trkpt><trkpt lat="38.10573058768623" lon="14.936541951903147"><ele>801.0</ele><time>2026-04-19T08:30:53.999Z</time></trkpt><trkpt lat="38.10567271445772" lon="14.936508587068712"><ele>799.0</ele><time>2026-04-19T08:30:54.999Z</time></trkpt><trkpt lat="38.10560705511918" lon="14.936462110916203"><ele>797.0</ele><time>2026-04-19T08:30:55.999Z</time></trkpt><trkpt lat="38.10553545981908" lon="14.936402043408986"><ele>794.9999999999999</ele><time>2026-04-19T08:30:56.999Z</time></trkpt><trkpt lat="38.10545805003766" lon="14.936356254092395"><ele>793.0</ele><time>2026-04-19T08:30:57.999Z</time></trkpt><trkpt lat="38.105389423042524" lon="14.936309617498747"><ele>792.9999999999999</ele><time>2026-04-19T08:30:58.999Z</time></trkpt><trkpt lat="38.10532307916645" lon="14.936269128639077"><ele>793.0</ele><time>2026-04-19T08:30:59.999Z</time></trkpt><trkpt lat="38.105246073260474" lon="14.936244429918414"><ele>793.0</ele><time>2026-04-19T08:31:00.999Z</time></trkpt><trkpt lat="38.105162220989705" lon="14.936250096146246"><ele>793.0</ele><time>2026-04-19T08:31:01.999Z</time></trkpt><trkpt lat="38.105082516813226" lon="14.93626571465249"><ele>792.9999999999999</ele><time>2026-04-19T08:31:02.999Z</time></trkpt><trkpt lat="38.10500095514221" lon="14.936272834227234"><ele>793.0</ele><time>2026-04-19T08:31:03.999Z</time></trkpt><trkpt lat="38.104933249767676" lon="14.936283136793461"><ele>789.4999999999999</ele><time>2026-04-19T08:31:04.999Z</time></trkpt><trkpt lat="38.10485674454968" lon="14.936336557128515"><ele>786.0</ele><time>2026-04-19T08:31:07.999Z</time></trkpt><trkpt lat="38.104765029770974" lon="14.9362653015124"><ele>782.5</ele><time>2026-04-19T08:31:11.999Z</time></trkpt><trkpt lat="38.104699406606485" lon="14.93625563332998"><ele>779.0</ele><time>2026-04-19T08:31:12.999Z</time></trkpt><trkpt lat="38.10463308841757" lon="14.936221586530943"><ele>775.4999999999999</ele><time>2026-04-19T08:33:27.999Z</time></trkpt><trkpt lat="38.10467284164868" lon="14.93614954753151"><ele>772.0</ele><time>2026-04-19T08:45:13.999Z</time></trkpt><trkpt lat="38.1047638854023" lon="14.936099222632834"><ele>771.9999999999999</ele><time>2026-04-19T08:45:23.999Z</time></trkpt><trkpt lat="38.10482017662318" lon="14.936058594328365"><ele>772.0</ele><time>2026-04-19T08:45:24.999Z</time></trkpt><trkpt lat="38.104884671736194" lon="14.936010350875092"><ele>772.0</ele><time>2026-04-19T08:45:25.999Z</time></trkpt><trkpt lat="38.104950575754074" lon="14.935943392557844"><ele>772.0</ele><time>2026-04-19T08:45:26.999Z</time></trkpt><trkpt lat="38.105004471191485" lon="14.935860666895195"><ele>771.9999999999999</ele><time>2026-04-19T08:45:27.999Z</time></trkpt><trkpt lat="38.10506438076828" lon="14.935795351365284"><ele>772.0</ele><time>2026-04-19T08:45:28.999Z</time></trkpt><trkpt lat="38.10512202951266" lon="14.935747472544612"><ele>779.4999999999999</ele><time>2026-04-19T08:45:29.999Z</time></trkpt><trkpt lat="38.10518665986481" lon="14.93570802372912"><ele>787.0</ele><time>2026-04-19T08:45:30.999Z</time></trkpt><trkpt lat="38.10530366221644" lon="14.935667366636128"><ele>794.5</ele><time>2026-04-19T08:45:32.999Z</time></trkpt><trkpt lat="38.10536643368971" lon="14.935660379995952"><ele>802.0</ele><time>2026-04-19T08:45:33.999Z</time></trkpt><trkpt lat="38.10542968493779" lon="14.935674960227988"><ele>809.4999999999999</ele><time>2026-04-19T08:45:34.999Z</time></trkpt><trkpt lat="38.10550803948752" lon="14.935683895904507"><ele>817.0</ele><time>2026-04-19T08:45:35.999Z</time></trkpt><trkpt lat="38.10557394054005" lon="14.93567845913872"><ele>816.9999999999999</ele><time>2026-04-19T08:45:36.999Z</time></trkpt><trkpt lat="38.105644416542745" lon="14.935669743772374"><ele>817.0</ele><time>2026-04-19T08:45:37.999Z</time></trkpt><trkpt lat="38.10571381134967" lon="14.935663948045043"><ele>817.0</ele><time>2026-04-19T08:45:38.999Z</time></trkpt><trkpt lat="38.105807665764985" lon="14.93561385488852"><ele>817.0</ele><time>2026-04-19T08:45:40.999Z</time></trkpt><trkpt lat="38.10582522605754" lon="14.935505686518221"><ele>816.9999999999999</ele><time>2026-04-19T08:45:42.999Z</time></trkpt><trkpt lat="38.105842243072054" lon="14.93540339511143"><ele>817.0</ele><time>2026-04-19T08:46:29.998Z</time></trkpt><trkpt lat="38.10583158945757" lon="14.93531915068205"><ele>820.9999999999999</ele><time>2026-04-19T08:48:15.998Z</time></trkpt><trkpt lat="38.10580579840588" lon="14.935243485487803"><ele>825.0</ele><time>2026-04-19T08:49:14Z</time></trkpt><trkpt lat="38.10581908459681" lon="14.935151631178112"><ele>829.0</ele><time>2026-04-19T08:50:00.999Z</time></trkpt><trkpt lat="38.10579922228456" lon="14.935060897246656"><ele>833.0</ele><time>2026-04-19T08:50:03.999Z</time></trkpt><trkpt lat="38.10578623536065" lon="14.934953973853537"><ele>836.9999999999999</ele><time>2026-04-19T08:50:06.999Z</time></trkpt><trkpt lat="38.10577272092077" lon="14.934864161102505"><ele>841.0</ele><time>2026-04-19T08:50:10.999Z</time></trkpt><trkpt lat="38.10581436217504" lon="14.934770588806495"><ele>846.1666666666666</ele><time>2026-04-19T08:50:13.998Z</time></trkpt><trkpt lat="38.10586058844494" lon="14.934696051553171"><ele>851.3333333333333</ele><time>2026-04-19T08:50:31.998Z</time></trkpt><trkpt lat="38.10578673841826" lon="14.93469978918539"><ele>856.5</ele><time>2026-04-19T08:53:41.999Z</time></trkpt><trkpt lat="38.105835831960796" lon="14.934619515582332"><ele>861.6666666666667</ele><time>2026-04-19T08:53:44.999Z</time></trkpt><trkpt lat="38.10586993720154" lon="14.934529108795575"><ele>866.8333333333334</ele><time>2026-04-19T08:53:48.999Z</time></trkpt><trkpt lat="38.10587790517535" lon="14.934426507292917"><ele>872.0</ele><time>2026-04-19T08:53:50.999Z</time></trkpt><trkpt lat="38.105906412513406" lon="14.934333133856757"><ele>878.2</ele><time>2026-04-19T08:53:52.999Z</time></trkpt><trkpt lat="38.10594860503551" lon="14.934204612848934"><ele>884.4000000000001</ele><time>2026-04-19T08:53:54.999Z</time></trkpt><trkpt lat="38.105959413885316" lon="14.934092192454104"><ele>890.5999999999999</ele><time>2026-04-19T08:53:56.999Z</time></trkpt><trkpt lat="38.105987651762234" lon="14.933969223393431"><ele>896.8</ele><time>2026-04-19T08:53:58.999Z</time></trkpt><trkpt lat="38.10603883691703" lon="14.933868962575879"><ele>903.0</ele><time>2026-04-19T08:54:00.999Z</time></trkpt><trkpt lat="38.106130081213415" lon="14.933786287308594"><ele>903.0</ele><time>2026-04-19T08:54:02.999Z</time></trkpt><trkpt lat="38.10623168118867" lon="14.933716787633337"><ele>903.0</ele><time>2026-04-19T08:54:04.999Z</time></trkpt><trkpt lat="38.10631185974312" lon="14.93363708463821"><ele>903.0</ele><time>2026-04-19T08:54:06.999Z</time></trkpt><trkpt lat="38.10636334283994" lon="14.933579616865172"><ele>903.0</ele><time>2026-04-19T08:54:07.999Z</time></trkpt><trkpt lat="38.10642582745369" lon="14.933496841505265"><ele>903.0</ele><time>2026-04-19T08:54:08.999Z</time></trkpt><trkpt lat="38.106497836915885" lon="14.933381306983554"><ele>903.6666666666666</ele><time>2026-04-19T08:54:09.999Z</time></trkpt><trkpt lat="38.106561857144015" lon="14.933288728335024"><ele>904.3333333333333</ele><time>2026-04-19T08:54:10.999Z</time></trkpt><trkpt lat="38.10662417729534" lon="14.933204770677204"><ele>905.0</ele><time>2026-04-19T08:54:11.999Z</time></trkpt><trkpt lat="38.106661090183195" lon="14.933126908671818"><ele>905.6666666666666</ele><time>2026-04-19T08:54:12.999Z</time></trkpt><trkpt lat="38.106620629896355" lon="14.933064619579211"><ele>906.3333333333333</ele><time>2026-04-19T08:55:08Z</time></trkpt><trkpt lat="38.106669362338636" lon="14.933140131368328"><ele>907.0</ele><time>2026-04-19T08:55:43.999Z</time></trkpt><trkpt lat="38.106749909865826" lon="14.933137867394139"><ele>913.0</ele><time>2026-04-19T08:55:45.999Z</time></trkpt><trkpt lat="38.10687251888142" lon="14.93313202869356"><ele>919.0</ele><time>2026-04-19T08:55:47.999Z</time></trkpt><trkpt lat="38.106944801911446" lon="14.933159792338065"><ele>925.0</ele><time>2026-04-19T08:55:48.999Z</time></trkpt><trkpt lat="38.10701315975094" lon="14.933205713115022"><ele>931.0</ele><time>2026-04-19T08:55:49.999Z</time></trkpt><trkpt lat="38.107075478637896" lon="14.933251818959418"><ele>937.0</ele><time>2026-04-19T08:55:50.999Z</time></trkpt><trkpt lat="38.107176943271824" lon="14.933351425951813"><ele>932.2</ele><time>2026-04-19T08:55:52.999Z</time></trkpt><trkpt lat="38.10722638419037" lon="14.933410662696172"><ele>927.4000000000001</ele><time>2026-04-19T08:55:53.999Z</time></trkpt><trkpt lat="38.10732437835427" lon="14.933502610279083"><ele>922.5999999999999</ele><time>2026-04-19T08:55:55.999Z</time></trkpt><trkpt lat="38.107456823866315" lon="14.933521441172184"><ele>917.8</ele><time>2026-04-19T08:55:57.999Z</time></trkpt><trkpt lat="38.10753724442542" lon="14.93351947110256"><ele>913.0</ele><time>2026-04-19T08:55:58.999Z</time></trkpt><trkpt lat="38.10763077739397" lon="14.933528262041056"><ele>912.9999999999999</ele><time>2026-04-19T08:55:59.999Z</time></trkpt><trkpt lat="38.107723216429214" lon="14.93354362739992"><ele>913.0</ele><time>2026-04-19T08:56:00.999Z</time></trkpt><trkpt lat="38.107804249603824" lon="14.933560828270021"><ele>913.0</ele><time>2026-04-19T08:56:01.999Z</time></trkpt><trkpt lat="38.10787341620751" lon="14.933592064383074"><ele>913.0</ele><time>2026-04-19T08:56:03.999Z</time></trkpt><trkpt lat="38.107945440470424" lon="14.933625057501835"><ele>912.9999999999999</ele><time>2026-04-19T08:57:16Z</time></trkpt><trkpt lat="38.10802842159261" lon="14.93365632029425"><ele>913.0</ele><time>2026-04-19T08:57:17Z</time></trkpt><trkpt lat="38.1081124317655" lon="14.933688151135238"><ele>913.0</ele><time>2026-04-19T08:57:18Z</time></trkpt><trkpt lat="38.1081928868611" lon="14.933722422249001"><ele>913.0</ele><time>2026-04-19T08:57:19Z</time></trkpt><trkpt lat="38.108288801304454" lon="14.933753651190992"><ele>913.0</ele><time>2026-04-19T08:57:20Z</time></trkpt><trkpt lat="38.108404480137196" lon="14.933806117633571"><ele>913.0</ele><time>2026-04-19T08:57:21Z</time></trkpt><trkpt lat="38.10852469951231" lon="14.933855264789807"><ele>913.0</ele><time>2026-04-19T08:57:22Z</time></trkpt><trkpt lat="38.10865144715933" lon="14.933899708649164"><ele>914.5999999999999</ele><time>2026-04-19T08:57:23Z</time></trkpt><trkpt lat="38.10877680039281" lon="14.933947659407593"><ele>916.1999999999999</ele><time>2026-04-19T08:57:24Z</time></trkpt><trkpt lat="38.108871307811" lon="14.933987479555382"><ele>917.8</ele><time>2026-04-19T08:57:25Z</time></trkpt><trkpt lat="38.108945346068786" lon="14.934026988432976"><ele>919.4</ele><time>2026-04-19T08:57:26Z</time></trkpt><trkpt lat="38.109012336271185" lon="14.934069046121285"><ele>921.0</ele><time>2026-04-19T08:57:27Z</time></trkpt><trkpt lat="38.10907886100579" lon="14.934106246061763"><ele>922.4285714285716</ele><time>2026-04-19T08:57:28Z</time></trkpt><trkpt lat="38.1091499199829" lon="14.934138152689561"><ele>923.8571428571429</ele><time>2026-04-19T08:57:29Z</time></trkpt><trkpt lat="38.10922040023477" lon="14.934168349976439"><ele>925.2857142857143</ele><time>2026-04-19T08:57:30Z</time></trkpt><trkpt lat="38.10928575268014" lon="14.93419623548876"><ele>926.7142857142858</ele><time>2026-04-19T08:57:31Z</time></trkpt><trkpt lat="38.10934962764669" lon="14.934224235882859"><ele>928.1428571428571</ele><time>2026-04-19T08:57:32Z</time></trkpt><trkpt lat="38.10941621800497" lon="14.934244322912612"><ele>929.5714285714286</ele><time>2026-04-19T08:57:33Z</time></trkpt><trkpt lat="38.10948264063634" lon="14.934254949651105"><ele>931.0</ele><time>2026-04-19T08:57:34Z</time></trkpt><trkpt lat="38.109589564024525" lon="14.934264706180578"><ele>930.9999999999999</ele><time>2026-04-19T08:57:36Z</time></trkpt><trkpt lat="38.10965045555939" lon="14.93428756391456"><ele>931.0</ele><time>2026-04-19T08:59:15Z</time></trkpt><trkpt lat="38.10954729085393" lon="14.934271061491879"><ele>931.0</ele><time>2026-04-19T08:59:19Z</time></trkpt><trkpt lat="38.10947446033826" lon="14.934247042271991"><ele>931.0</ele><time>2026-04-19T08:59:20Z</time></trkpt><trkpt lat="38.10940371113279" lon="14.934248027816283"><ele>930.9999999999999</ele><time>2026-04-19T08:59:21Z</time></trkpt><trkpt lat="38.10931153467229" lon="14.93422414281271"><ele>931.0</ele><time>2026-04-19T08:59:23Z</time></trkpt><trkpt lat="38.109240676917885" lon="14.934179999519735"><ele>930.9999999999999</ele><time>2026-04-19T08:59:25Z</time></trkpt><trkpt lat="38.10917380333281" lon="14.934145513004275"><ele>931.0</ele><time>2026-04-19T08:59:27Z</time></trkpt><trkpt lat="38.10906874478157" lon="14.934098261941008"><ele>931.0</ele><time>2026-04-19T08:59:29Z</time></trkpt><trkpt lat="38.10897023139883" lon="14.934045166014057"><ele>931.0</ele><time>2026-04-19T08:59:31Z</time></trkpt><trkpt lat="38.10889377812383" lon="14.934016554424238"><ele>930.9999999999999</ele><time>2026-04-19T08:59:33Z</time></trkpt><trkpt lat="38.108824504686865" lon="14.93397106178634"><ele>931.0</ele><time>2026-04-19T08:59:35Z</time></trkpt><trkpt lat="38.1087239745146" lon="14.933945858932358"><ele>929.0</ele><time>2026-04-19T08:59:38Z</time></trkpt><trkpt lat="38.108590206116816" lon="14.933894269101607"><ele>926.9999999999999</ele><time>2026-04-19T08:59:39.999Z</time></trkpt><trkpt lat="38.108503453564836" lon="14.933856134944662"><ele>924.9999999999999</ele><time>2026-04-19T08:59:40.999Z</time></trkpt><trkpt lat="38.10841686705984" lon="14.93382164747553"><ele>923.0</ele><time>2026-04-19T08:59:41.999Z</time></trkpt><trkpt lat="38.10832515927219" lon="14.93378650554108"><ele>921.0</ele><time>2026-04-19T08:59:42.999Z</time></trkpt><trkpt lat="38.10823615809239" lon="14.933757721683788"><ele>919.4</ele><time>2026-04-19T08:59:43.999Z</time></trkpt><trkpt lat="38.10814721560826" lon="14.933730506697394"><ele>917.8</ele><time>2026-04-19T08:59:44.999Z</time></trkpt><trkpt lat="38.10806394215571" lon="14.933697133920894"><ele>916.1999999999999</ele><time>2026-04-19T08:59:45.999Z</time></trkpt><trkpt lat="38.107984474343134" lon="14.93365219260697"><ele>914.5999999999999</ele><time>2026-04-19T08:59:46.999Z</time></trkpt><trkpt lat="38.10789577548638" lon="14.933606692849894"><ele>913.0</ele><time>2026-04-19T08:59:47.999Z</time></trkpt><trkpt lat="38.107808098007936" lon="14.933571614852982"><ele>912.9999999999999</ele><time>2026-04-19T08:59:48.999Z</time></trkpt><trkpt lat="38.10773369444054" lon="14.93354991486859"><ele>913.0</ele><time>2026-04-19T08:59:49.999Z</time></trkpt><trkpt lat="38.1076687943628" lon="14.933544369130889"><ele>913.0</ele><time>2026-04-19T08:59:51.999Z</time></trkpt><trkpt lat="38.10776935125005" lon="14.933569749910276"><ele>913.0</ele><time>2026-04-19T08:59:58.999Z</time></trkpt><trkpt lat="38.10784152787418" lon="14.933597106968834"><ele>912.9999999999999</ele><time>2026-04-19T09:00:00.999Z</time></trkpt><trkpt lat="38.10794248011365" lon="14.933608390435037"><ele>913.0</ele><time>2026-04-19T09:08:27.999Z</time></trkpt><trkpt lat="38.10800722815147" lon="14.933641908774016"><ele>913.0</ele><time>2026-04-19T09:08:28.999Z</time></trkpt><trkpt lat="38.108088103639695" lon="14.933678743805286"><ele>913.0</ele><time>2026-04-19T09:08:29.999Z</time></trkpt><trkpt lat="38.10818373761801" lon="14.933723956717095"><ele>913.0</ele><time>2026-04-19T09:08:30.999Z</time></trkpt><trkpt lat="38.10829111081442" lon="14.933777528322786"><ele>913.0</ele><time>2026-04-19T09:08:31.999Z</time></trkpt><trkpt lat="38.1084263614874" lon="14.933825631029855"><ele>913.0</ele><time>2026-04-19T09:08:32.999Z</time></trkpt><trkpt lat="38.108572469018355" lon="14.933870479606291"><ele>915.0</ele><time>2026-04-19T09:08:33.999Z</time></trkpt><trkpt lat="38.108696344521206" lon="14.933913797992577"><ele>917.0</ele><time>2026-04-19T09:08:34.999Z</time></trkpt><trkpt lat="38.10880824805776" lon="14.933959247674814"><ele>919.0</ele><time>2026-04-19T09:08:35.999Z</time></trkpt><trkpt lat="38.10891885065581" lon="14.93400917606238"><ele>921.0</ele><time>2026-04-19T09:08:36.999Z</time></trkpt><trkpt lat="38.109021907481974" lon="14.934062109508341"><ele>923.0</ele><time>2026-04-19T09:08:37.999Z</time></trkpt><trkpt lat="38.109117317183426" lon="14.934112662208982"><ele>924.9999999999999</ele><time>2026-04-19T09:08:38.999Z</time></trkpt><trkpt lat="38.10920968055343" lon="14.934155583580619"><ele>926.9999999999999</ele><time>2026-04-19T09:08:39.999Z</time></trkpt><trkpt lat="38.109303533807164" lon="14.934193696832638"><ele>929.0</ele><time>2026-04-19T09:08:40.999Z</time></trkpt><trkpt lat="38.1094086720918" lon="14.934230155548255"><ele>931.0</ele><time>2026-04-19T09:08:41.999Z</time></trkpt><trkpt lat="38.109504884491514" lon="14.934260282882033"><ele>930.6666666666666</ele><time>2026-04-19T09:08:42.999Z</time></trkpt><trkpt lat="38.1095975752436" lon="14.934279586547"><ele>930.3333333333333</ele><time>2026-04-19T09:08:43.999Z</time></trkpt><trkpt lat="38.10966517787978" lon="14.934298152901656"><ele>930.0</ele><time>2026-04-19T09:08:44.999Z</time></trkpt><trkpt lat="38.109725372593125" lon="14.934331256187937"><ele>929.6666666666667</ele><time>2026-04-19T09:08:46.999Z</time></trkpt><trkpt lat="38.109833579099494" lon="14.93441193904113"><ele>929.3333333333334</ele><time>2026-04-19T09:08:48.999Z</time></trkpt><trkpt lat="38.10989537777385" lon="14.934488523623855"><ele>929.0</ele><time>2026-04-19T09:08:49.999Z</time></trkpt><trkpt lat="38.109955510368486" lon="14.934586896442271"><ele>929.0</ele><time>2026-04-19T09:08:50.999Z</time></trkpt><trkpt lat="38.11001251172822" lon="14.934684786322896"><ele>929.0000000000001</ele><time>2026-04-19T09:08:51.999Z</time></trkpt><trkpt lat="38.1100692708948" lon="14.93478332636095"><ele>929.0000000000001</ele><time>2026-04-19T09:08:52.999Z</time></trkpt><trkpt lat="38.11012299845828" lon="14.93487900731661"><ele>929.0</ele><time>2026-04-19T09:08:53.999Z</time></trkpt><trkpt lat="38.110178374847116" lon="14.934978626561552"><ele>929.0</ele><time>2026-04-19T09:08:54.999Z</time></trkpt><trkpt lat="38.11023197102095" lon="14.93508264666212"><ele>922.8333333333334</ele><time>2026-04-19T09:08:55.999Z</time></trkpt><trkpt lat="38.11028529961224" lon="14.935175711876177"><ele>916.6666666666667</ele><time>2026-04-19T09:08:56.999Z</time></trkpt><trkpt lat="38.110334752982" lon="14.935262149501433"><ele>910.5</ele><time>2026-04-19T09:08:57.998Z</time></trkpt><trkpt lat="38.11037030021442" lon="14.935348797807329"><ele>904.3333333333333</ele><time>2026-04-19T09:08:58.998Z</time></trkpt><trkpt lat="38.11040203620278" lon="14.935428522802457"><ele>898.1666666666666</ele><time>2026-04-19T09:08:59.998Z</time></trkpt><trkpt lat="38.11044626718627" lon="14.935499152701961"><ele>892.0</ele><time>2026-04-19T09:09:00.998Z</time></trkpt><trkpt lat="38.1105006504948" lon="14.935546085301082"><ele>891.9999999999999</ele><time>2026-04-19T09:09:01.998Z</time></trkpt><trkpt lat="38.11057271445738" lon="14.935584620165146"><ele>892.0</ele><time>2026-04-19T09:09:02.998Z</time></trkpt><trkpt lat="38.11065607738306" lon="14.935617534299586"><ele>892.0</ele><time>2026-04-19T09:09:03.998Z</time></trkpt><trkpt lat="38.110742307715626" lon="14.935648567903876"><ele>892.0</ele><time>2026-04-19T09:09:04.998Z</time></trkpt><trkpt lat="38.110809541985105" lon="14.935666874015595"><ele>891.9999999999999</ele><time>2026-04-19T09:09:05.998Z</time></trkpt><trkpt lat="38.110892515371745" lon="14.93568117743024"><ele>892.0</ele><time>2026-04-19T09:09:06.998Z</time></trkpt><trkpt lat="38.11097126709633" lon="14.935659615614481"><ele>896.6</ele><time>2026-04-19T09:09:07.998Z</time></trkpt><trkpt lat="38.11105894398643" lon="14.93563598777351"><ele>901.2</ele><time>2026-04-19T09:09:08.998Z</time></trkpt><trkpt lat="38.111143842864365" lon="14.935625829220204"><ele>905.8</ele><time>2026-04-19T09:09:09.998Z</time></trkpt><trkpt lat="38.1112300753519" lon="14.935620374718814"><ele>910.4</ele><time>2026-04-19T09:09:10.998Z</time></trkpt><trkpt lat="38.1113177443305" lon="14.935603160110075"><ele>915.0</ele><time>2026-04-19T09:09:11.998Z</time></trkpt><trkpt lat="38.11141891374709" lon="14.935597884644315"><ele>915.0</ele><time>2026-04-19T09:09:12.998Z</time></trkpt><trkpt lat="38.11151451046001" lon="14.935604746281877"><ele>915.0</ele><time>2026-04-19T09:09:13.998Z</time></trkpt><trkpt lat="38.11160836187902" lon="14.935616509814443"><ele>915.0</ele><time>2026-04-19T09:09:14.998Z</time></trkpt><trkpt lat="38.111682210486464" lon="14.935635726329416"><ele>915.0</ele><time>2026-04-19T09:09:15.998Z</time></trkpt><trkpt lat="38.11174628709505" lon="14.935678927199975"><ele>915.0</ele><time>2026-04-19T09:09:16.998Z</time></trkpt><trkpt lat="38.11181206941808" lon="14.935744784038102"><ele>915.0</ele><time>2026-04-19T09:09:17.998Z</time></trkpt><trkpt lat="38.11187855903777" lon="14.935795731801633"><ele>912.2</ele><time>2026-04-19T09:09:18.998Z</time></trkpt><trkpt lat="38.111937287821206" lon="14.935828111602138"><ele>909.4</ele><time>2026-04-19T09:09:19.998Z</time></trkpt><trkpt lat="38.11204805583187" lon="14.935822290814105"><ele>906.5999999999999</ele><time>2026-04-19T09:09:21.998Z</time></trkpt><trkpt lat="38.11213198031057" lon="14.935714111817669"><ele>903.8</ele><time>2026-04-19T09:09:23.998Z</time></trkpt><trkpt lat="38.11217852036096" lon="14.935635834348346"><ele>901.0</ele><time>2026-04-19T09:09:24.998Z</time></trkpt><trkpt lat="38.112223511721005" lon="14.935550998637863"><ele>900.9999999999999</ele><time>2026-04-19T09:09:25.998Z</time></trkpt><trkpt lat="38.11227651961148" lon="14.935471024640865"><ele>901.0</ele><time>2026-04-19T09:09:26.998Z</time></trkpt><trkpt lat="38.11234459634731" lon="14.935422341611494"><ele>901.0</ele><time>2026-04-19T09:09:27.998Z</time></trkpt><trkpt lat="38.11242215188796" lon="14.935398742821993"><ele>901.0</ele><time>2026-04-19T09:09:28.998Z</time></trkpt><trkpt lat="38.11250542651459" lon="14.93539359508103"><ele>900.9999999999999</ele><time>2026-04-19T09:09:29.998Z</time></trkpt><trkpt lat="38.112578594115206" lon="14.935378106957454"><ele>901.0</ele><time>2026-04-19T09:09:30.998Z</time></trkpt><trkpt lat="38.112648763472116" lon="14.935351979076698"><ele>896.8333333333333</ele><time>2026-04-19T09:09:31.998Z</time></trkpt><trkpt lat="38.11272444442927" lon="14.935320260928401"><ele>892.6666666666666</ele><time>2026-04-19T09:09:32.998Z</time></trkpt><trkpt lat="38.1128022358119" lon="14.935275629913495"><ele>888.5</ele><time>2026-04-19T09:09:33.998Z</time></trkpt><trkpt lat="38.11288185824664" lon="14.935225253136561"><ele>884.3333333333333</ele><time>2026-04-19T09:09:34.998Z</time></trkpt><trkpt lat="38.112967994503585" lon="14.935171793675414"><ele>880.1666666666666</ele><time>2026-04-19T09:09:35.998Z</time></trkpt><trkpt lat="38.11305174087627" lon="14.935110848625879"><ele>876.0</ele><time>2026-04-19T09:09:36.998Z</time></trkpt><trkpt lat="38.11312626415058" lon="14.935061915319917"><ele>875.5</ele><time>2026-04-19T09:09:37.998Z</time></trkpt><trkpt lat="38.113184975683595" lon="14.9350271000537"><ele>875.0</ele><time>2026-04-19T09:09:38.998Z</time></trkpt><trkpt lat="38.11329532664095" lon="14.935019976457502"><ele>874.5</ele><time>2026-04-19T09:09:40.998Z</time></trkpt><trkpt lat="38.11334596237764" lon="14.935072712446086"><ele>874.0</ele><time>2026-04-19T09:09:41.998Z</time></trkpt><trkpt lat="38.113406431592416" lon="14.935163351771019"><ele>873.5</ele><time>2026-04-19T09:09:44Z</time></trkpt><trkpt lat="38.11345020099855" lon="14.93509710002024"><ele>873.0</ele><time>2026-04-19T09:09:47Z</time></trkpt><trkpt lat="38.11340203376656" lon="14.935036399692482"><ele>873.0</ele><time>2026-04-19T09:09:49Z</time></trkpt><trkpt lat="38.11330237329112" lon="14.934940461019767"><ele>873.0</ele><time>2026-04-19T09:09:51Z</time></trkpt><trkpt lat="38.11324802243737" lon="14.934854393243882"><ele>873.0</ele><time>2026-04-19T09:09:52Z</time></trkpt><trkpt lat="38.11319205364184" lon="14.934754731085182"><ele>873.0</ele><time>2026-04-19T09:09:53Z</time></trkpt><trkpt lat="38.11313641398968" lon="14.934638129075944"><ele>873.0</ele><time>2026-04-19T09:09:54Z</time></trkpt><trkpt lat="38.113113287700415" lon="14.934505487079967"><ele>877.4</ele><time>2026-04-19T09:09:55Z</time></trkpt><trkpt lat="38.11307917376315" lon="14.934369081838524"><ele>881.8</ele><time>2026-04-19T09:09:56Z</time></trkpt><trkpt lat="38.1130531197471" lon="14.934233682549225"><ele>886.2</ele><time>2026-04-19T09:09:57Z</time></trkpt><trkpt lat="38.1130327324495" lon="14.934102758445832"><ele>890.6</ele><time>2026-04-19T09:09:58Z</time></trkpt><trkpt lat="38.11300667122859" lon="14.933977206055685"><ele>895.0</ele><time>2026-04-19T09:09:58.999Z</time></trkpt><trkpt lat="38.112968930284325" lon="14.933860894895679"><ele>895.6</ele><time>2026-04-19T09:09:59.999Z</time></trkpt><trkpt lat="38.11291412597856" lon="14.933758921852744"><ele>896.2</ele><time>2026-04-19T09:10:00.999Z</time></trkpt><trkpt lat="38.11286970967499" lon="14.93364247521999"><ele>896.8</ele><time>2026-04-19T09:10:01.999Z</time></trkpt><trkpt lat="38.112820048726654" lon="14.933533258648671"><ele>897.4</ele><time>2026-04-19T09:10:02.999Z</time></trkpt><trkpt lat="38.11276875746961" lon="14.933423011690929"><ele>898.0</ele><time>2026-04-19T09:10:03.999Z</time></trkpt><trkpt lat="38.11271139983918" lon="14.9333069660133"><ele>895.9999999999999</ele><time>2026-04-19T09:10:04.999Z</time></trkpt><trkpt lat="38.11265961254037" lon="14.933193047132228"><ele>894.0</ele><time>2026-04-19T09:10:05.999Z</time></trkpt><trkpt lat="38.11261796907453" lon="14.933090566528008"><ele>892.0</ele><time>2026-04-19T09:10:06.999Z</time></trkpt><trkpt lat="38.11258434295755" lon="14.93300243879836"><ele>890.0</ele><time>2026-04-19T09:10:07.999Z</time></trkpt><trkpt lat="38.112543211774884" lon="14.93292481979769"><ele>887.9999999999999</ele><time>2026-04-19T09:10:08.999Z</time></trkpt><trkpt lat="38.112485354825765" lon="14.932861483470258"><ele>886.0</ele><time>2026-04-19T09:10:09.999Z</time></trkpt><trkpt lat="38.112407462468425" lon="14.932807538517135"><ele>891.5</ele><time>2026-04-19T09:10:10.999Z</time></trkpt><trkpt lat="38.1123152433507" lon="14.93276341138813"><ele>897.0</ele><time>2026-04-19T09:10:11.999Z</time></trkpt><trkpt lat="38.1122077806448" lon="14.932718695233717"><ele>902.5</ele><time>2026-04-19T09:10:12.999Z</time></trkpt><trkpt lat="38.11208660380671" lon="14.932679460647885"><ele>908.0</ele><time>2026-04-19T09:10:13.999Z</time></trkpt><trkpt lat="38.11196650720804" lon="14.932640218230492"><ele>908.0000000000001</ele><time>2026-04-19T09:10:14.999Z</time></trkpt><trkpt lat="38.11186792271174" lon="14.932599343448674"><ele>908.0</ele><time>2026-04-19T09:10:15.999Z</time></trkpt><trkpt lat="38.111794514044604" lon="14.932554104610508"><ele>908.0</ele><time>2026-04-19T09:10:16.999Z</time></trkpt><trkpt lat="38.11172475636916" lon="14.932523857597651"><ele>908.0</ele><time>2026-04-19T09:10:17.999Z</time></trkpt><trkpt lat="38.11164360656655" lon="14.932526503511548"><ele>908.0000000000001</ele><time>2026-04-19T09:10:18.999Z</time></trkpt><trkpt lat="38.11155904277855" lon="14.93254861629132"><ele>908.0</ele><time>2026-04-19T09:10:19.999Z</time></trkpt><trkpt lat="38.11146265981318" lon="14.932587285581185"><ele>909.5999999999999</ele><time>2026-04-19T09:10:20.999Z</time></trkpt><trkpt lat="38.11135672656815" lon="14.932623828145955"><ele>911.1999999999999</ele><time>2026-04-19T09:10:21.999Z</time></trkpt><trkpt lat="38.111252703100355" lon="14.932651750902144"><ele>912.8</ele><time>2026-04-19T09:10:22.999Z</time></trkpt><trkpt lat="38.11115266918997" lon="14.932676769512149"><ele>914.4</ele><time>2026-04-19T09:10:23.999Z</time></trkpt><trkpt lat="38.11104749899841" lon="14.932684470942494"><ele>916.0</ele><time>2026-04-19T09:10:24.999Z</time></trkpt><trkpt lat="38.110922823536455" lon="14.932674585551377"><ele>916.0</ele><time>2026-04-19T09:10:25.998Z</time></trkpt><trkpt lat="38.110780416792494" lon="14.932666090815117"><ele>916.0</ele><time>2026-04-19T09:10:26.998Z</time></trkpt><trkpt lat="38.11064574926912" lon="14.932667642013023"><ele>916.0</ele><time>2026-04-19T09:10:27.998Z</time></trkpt><trkpt lat="38.11052617771689" lon="14.932648659703624"><ele>916.0</ele><time>2026-04-19T09:10:28.998Z</time></trkpt><trkpt lat="38.11041586734332" lon="14.932622851815719"><ele>916.5</ele><time>2026-04-19T09:10:29.998Z</time></trkpt><trkpt lat="38.11029504343915" lon="14.932581982037057"><ele>917.0</ele><time>2026-04-19T09:10:30.998Z</time></trkpt><trkpt lat="38.11016416583143" lon="14.93252631718387"><ele>917.5</ele><time>2026-04-19T09:10:31.998Z</time></trkpt><trkpt lat="38.110039926239004" lon="14.93247185749647"><ele>918.0</ele><time>2026-04-19T09:10:32.998Z</time></trkpt><trkpt lat="38.1099292299086" lon="14.9324149675455"><ele>915.0</ele><time>2026-04-19T09:10:33.998Z</time></trkpt><trkpt lat="38.10982824833412" lon="14.932359190350008"><ele>912.0</ele><time>2026-04-19T09:10:34.998Z</time></trkpt><trkpt lat="38.1097287451605" lon="14.932307901226768"><ele>909.0</ele><time>2026-04-19T09:10:35.998Z</time></trkpt><trkpt lat="38.109635613781876" lon="14.93226202239911"><ele>906.0</ele><time>2026-04-19T09:10:36.998Z</time></trkpt><trkpt lat="38.109548976726614" lon="14.932211147162121"><ele>903.0</ele><time>2026-04-19T09:10:37.998Z</time></trkpt><trkpt lat="38.10946099324625" lon="14.932152007923708"><ele>903.0</ele><time>2026-04-19T09:10:38.998Z</time></trkpt><trkpt lat="38.109372767540364" lon="14.932087896576226"><ele>903.0</ele><time>2026-04-19T09:10:39.998Z</time></trkpt><trkpt lat="38.109287376540394" lon="14.932017867131815"><ele>903.0</ele><time>2026-04-19T09:10:40.998Z</time></trkpt><trkpt lat="38.10920836154102" lon="14.93196198896651"><ele>903.0</ele><time>2026-04-19T09:10:41.998Z</time></trkpt><trkpt lat="38.10913331357502" lon="14.931913374815721"><ele>903.0</ele><time>2026-04-19T09:10:42.998Z</time></trkpt><trkpt lat="38.10906140051895" lon="14.931852217101623"><ele>903.0</ele><time>2026-04-19T09:10:43.998Z</time></trkpt><trkpt lat="38.10900219086058" lon="14.931782385237982"><ele>903.0</ele><time>2026-04-19T09:10:44.998Z</time></trkpt><trkpt lat="38.10894796715897" lon="14.931712540160085"><ele>903.0</ele><time>2026-04-19T09:10:45.998Z</time></trkpt><trkpt lat="38.108921028424625" lon="14.931635737455156"><ele>903.0</ele><time>2026-04-19T09:10:46.998Z</time></trkpt><trkpt lat="38.108898999351595" lon="14.931530416080133"><ele>903.0</ele><time>2026-04-19T09:10:47.998Z</time></trkpt><trkpt lat="38.108880683743024" lon="14.93140913074835"><ele>903.0</ele><time>2026-04-19T09:10:48.998Z</time></trkpt><trkpt lat="38.10888313728046" lon="14.931291355381253"><ele>903.0</ele><time>2026-04-19T09:10:49.998Z</time></trkpt><trkpt lat="38.10890054819806" lon="14.931184758544264"><ele>903.0</ele><time>2026-04-19T09:10:50.998Z</time></trkpt><trkpt lat="38.108910299824785" lon="14.93108820508191"><ele>903.0</ele><time>2026-04-19T09:10:51.998Z</time></trkpt><trkpt lat="38.10889489306112" lon="14.931010215584156"><ele>903.0</ele><time>2026-04-19T09:10:52.998Z</time></trkpt><trkpt lat="38.10879351487991" lon="14.930932562025808"><ele>903.0</ele><time>2026-04-19T09:10:54.998Z</time></trkpt><trkpt lat="38.10871512210146" lon="14.930906488240803"><ele>903.0</ele><time>2026-04-19T09:10:55.998Z</time></trkpt><trkpt lat="38.10862374712974" lon="14.930876775587517"><ele>900.8</ele><time>2026-04-19T09:10:56.998Z</time></trkpt><trkpt lat="38.108526646472626" lon="14.93083510216023"><ele>898.5999999999999</ele><time>2026-04-19T09:10:57.998Z</time></trkpt><trkpt lat="38.10843796043153" lon="14.930780709653355"><ele>896.4000000000001</ele><time>2026-04-19T09:10:58.998Z</time></trkpt><trkpt lat="38.10836025263441" lon="14.930728146389928"><ele>894.2</ele><time>2026-04-19T09:10:59.998Z</time></trkpt><trkpt lat="38.10828720749063" lon="14.930679538531306"><ele>892.0</ele><time>2026-04-19T09:11:00.998Z</time></trkpt><trkpt lat="38.108208929972214" lon="14.930630443671108"><ele>891.9999999999999</ele><time>2026-04-19T09:11:01.998Z</time></trkpt><trkpt lat="38.10812694835026" lon="14.930592296680057"><ele>892.0</ele><time>2026-04-19T09:11:02.998Z</time></trkpt><trkpt lat="38.1080409085189" lon="14.9305669824929"><ele>892.0</ele><time>2026-04-19T09:11:03.998Z</time></trkpt><trkpt lat="38.10795582614668" lon="14.930538938609729"><ele>892.0</ele><time>2026-04-19T09:11:04.998Z</time></trkpt><trkpt lat="38.10787409648952" lon="14.93049178441122"><ele>891.9999999999999</ele><time>2026-04-19T09:11:05.998Z</time></trkpt><trkpt lat="38.10778964051538" lon="14.930433689824017"><ele>892.0</ele><time>2026-04-19T09:11:06.998Z</time></trkpt><trkpt lat="38.10770349143547" lon="14.930368850746326"><ele>891.9999999999999</ele><time>2026-04-19T09:11:07.998Z</time></trkpt><trkpt lat="38.107622119318904" lon="14.930298817952371"><ele>892.0</ele><time>2026-04-19T09:11:08.998Z</time></trkpt><trkpt lat="38.10755123157694" lon="14.930228993544226"><ele>892.0</ele><time>2026-04-19T09:11:09.998Z</time></trkpt><trkpt lat="38.10748877485711" lon="14.930157460729903"><ele>892.0</ele><time>2026-04-19T09:11:10.998Z</time></trkpt><trkpt lat="38.10742931799092" lon="14.930088721549167"><ele>891.9999999999999</ele><time>2026-04-19T09:11:11.998Z</time></trkpt><trkpt lat="38.107368385796306" lon="14.930061377012475"><ele>892.0</ele><time>2026-04-19T09:11:12.998Z</time></trkpt><trkpt lat="38.107301386846075" lon="14.930077040639679"><ele>893.8333333333333</ele><time>2026-04-19T09:11:13.998Z</time></trkpt><trkpt lat="38.10724503476223" lon="14.930138377047692"><ele>895.6666666666666</ele><time>2026-04-19T09:11:14.998Z</time></trkpt><trkpt lat="38.107207555617194" lon="14.930243583552617"><ele>897.5</ele><time>2026-04-19T09:11:15.998Z</time></trkpt><trkpt lat="38.10716679710931" lon="14.930333539229924"><ele>899.3333333333333</ele><time>2026-04-19T09:11:16.998Z</time></trkpt><trkpt lat="38.10710956639627" lon="14.930374941508694"><ele>901.1666666666666</ele><time>2026-04-19T09:11:17.998Z</time></trkpt><trkpt lat="38.107043806822546" lon="14.930363557213202"><ele>903.0</ele><time>2026-04-19T09:11:18.998Z</time></trkpt><trkpt lat="38.106989776740186" lon="14.930303666324058"><ele>903.0</ele><time>2026-04-19T09:11:19.998Z</time></trkpt><trkpt lat="38.10696023029047" lon="14.930216420328824"><ele>903.0</ele><time>2026-04-19T09:11:20.998Z</time></trkpt><trkpt lat="38.10696246833381" lon="14.930128349155508"><ele>903.0</ele><time>2026-04-19T09:11:21.998Z</time></trkpt><trkpt lat="38.106975733193025" lon="14.930037367333659"><ele>903.0</ele><time>2026-04-19T09:11:22.998Z</time></trkpt><trkpt lat="38.106975173732266" lon="14.929941224390845"><ele>903.0</ele><time>2026-04-19T09:11:23.998Z</time></trkpt><trkpt lat="38.10697143915139" lon="14.929841504054389"><ele>903.0</ele><time>2026-04-19T09:11:24.998Z</time></trkpt><trkpt lat="38.1069919690771" lon="14.929742225810058"><ele>899.5</ele><time>2026-04-19T09:11:25.998Z</time></trkpt><trkpt lat="38.10702761686607" lon="14.929649341492116"><ele>896.0</ele><time>2026-04-19T09:11:26.997Z</time></trkpt><trkpt lat="38.1070464993584" lon="14.929550311679186"><ele>892.5</ele><time>2026-04-19T09:11:27.997Z</time></trkpt><trkpt lat="38.107023451441066" lon="14.929452306106304"><ele>889.0</ele><time>2026-04-19T09:11:28.997Z</time></trkpt><trkpt lat="38.1069934841045" lon="14.929334002018383"><ele>885.5</ele><time>2026-04-19T09:11:29.997Z</time></trkpt><trkpt lat="38.10694964358512" lon="14.929238989352248"><ele>882.0</ele><time>2026-04-19T09:11:30.997Z</time></trkpt><trkpt lat="38.106894806297284" lon="14.929166127393763"><ele>883.3333333333334</ele><time>2026-04-19T09:11:31.997Z</time></trkpt><trkpt lat="38.106829945527636" lon="14.929115046151372"><ele>884.6666666666667</ele><time>2026-04-19T09:11:32.997Z</time></trkpt><trkpt lat="38.10675039065387" lon="14.92907321556506"><ele>886.0</ele><time>2026-04-19T09:11:33.997Z</time></trkpt><trkpt lat="38.106685639139094" lon="14.929018477925773"><ele>887.3333333333334</ele><time>2026-04-19T09:11:34.997Z</time></trkpt><trkpt lat="38.10663661982676" lon="14.928941645792051"><ele>888.6666666666667</ele><time>2026-04-19T09:11:35.997Z</time></trkpt><trkpt lat="38.10659661853246" lon="14.928838748900336"><ele>890.0</ele><time>2026-04-19T09:11:36.997Z</time></trkpt><trkpt lat="38.10656217116398" lon="14.928710532664262"><ele>890.0</ele><time>2026-04-19T09:11:37.997Z</time></trkpt><trkpt lat="38.10652526170275" lon="14.92858945322953"><ele>890.0</ele><time>2026-04-19T09:11:38.997Z</time></trkpt><trkpt lat="38.106476044967465" lon="14.928502928118755"><ele>890.0</ele><time>2026-04-19T09:11:39.997Z</time></trkpt><trkpt lat="38.10641316784482" lon="14.928434734816474"><ele>890.0</ele><time>2026-04-19T09:11:40.997Z</time></trkpt><trkpt lat="38.1063360443188" lon="14.928375901535562"><ele>890.0</ele><time>2026-04-19T09:11:41.997Z</time></trkpt><trkpt lat="38.106263682802556" lon="14.928305704539117"><ele>886.8</ele><time>2026-04-19T09:11:42.997Z</time></trkpt><trkpt lat="38.10620012977101" lon="14.928220809658237"><ele>883.6</ele><time>2026-04-19T09:11:43.997Z</time></trkpt><trkpt lat="38.1061377871391" lon="14.928126850755085"><ele>880.4000000000001</ele><time>2026-04-19T09:11:44.997Z</time></trkpt><trkpt lat="38.1060707513646" lon="14.928038775977603"><ele>877.2</ele><time>2026-04-19T09:11:45.997Z</time></trkpt><trkpt lat="38.10599685408034" lon="14.927954166460564"><ele>874.0</ele><time>2026-04-19T09:11:46.997Z</time></trkpt><trkpt lat="38.105925835547225" lon="14.927855956245855"><ele>874.0</ele><time>2026-04-19T09:11:47.997Z</time></trkpt><trkpt lat="38.105865755480245" lon="14.927732636979057"><ele>874.0</ele><time>2026-04-19T09:11:48.999Z</time></trkpt><trkpt lat="38.10580037753568" lon="14.927589946713264"><ele>874.0</ele><time>2026-04-19T09:11:49.999Z</time></trkpt><trkpt lat="38.10573170547171" lon="14.927455651024758"><ele>874.0</ele><time>2026-04-19T09:11:50.999Z</time></trkpt><trkpt lat="38.1056843346442" lon="14.92734169889181"><ele>871.6666666666666</ele><time>2026-04-19T09:11:51.999Z</time></trkpt><trkpt lat="38.10566567822943" lon="14.927235440957245"><ele>869.3333333333333</ele><time>2026-04-19T09:11:52.999Z</time></trkpt><trkpt lat="38.1056713038303" lon="14.927136782383414"><ele>867.0</ele><time>2026-04-19T09:11:53.999Z</time></trkpt><trkpt lat="38.105702855952295" lon="14.927022932880236"><ele>864.6666666666667</ele><time>2026-04-19T09:11:54.999Z</time></trkpt><trkpt lat="38.105743646374606" lon="14.926904476911155"><ele>862.3333333333334</ele><time>2026-04-19T09:11:55.999Z</time></trkpt><trkpt lat="38.105771660680595" lon="14.926805616163003"><ele>860.0</ele><time>2026-04-19T09:11:56.999Z</time></trkpt><trkpt lat="38.10577345234991" lon="14.92671805047949"><ele>865.5</ele><time>2026-04-19T09:11:57.999Z</time></trkpt><trkpt lat="38.10568434519583" lon="14.926574768700986"><ele>871.0</ele><time>2026-04-19T09:11:59.999Z</time></trkpt><trkpt lat="38.10559769446551" lon="14.926504507428731"><ele>876.5</ele><time>2026-04-19T09:12:00.999Z</time></trkpt><trkpt lat="38.105524821109256" lon="14.926401369204223"><ele>882.0</ele><time>2026-04-19T09:12:01.999Z</time></trkpt><trkpt lat="38.10548200126945" lon="14.92627880868325"><ele>882.0</ele><time>2026-04-19T09:12:02.999Z</time></trkpt><trkpt lat="38.105448326506185" lon="14.92620762643268"><ele>882.0</ele><time>2026-04-19T09:12:03.999Z</time></trkpt><trkpt lat="38.105327884655246" lon="14.926184210239835"><ele>882.0</ele><time>2026-04-19T09:12:05.999Z</time></trkpt><trkpt lat="38.10521215281426" lon="14.92619640990907"><ele>882.0</ele><time>2026-04-19T09:12:06.999Z</time></trkpt><trkpt lat="38.10507120096892" lon="14.926199957773964"><ele>882.0</ele><time>2026-04-19T09:12:07.999Z</time></trkpt><trkpt lat="38.10494931027903" lon="14.92620355623628"><ele>882.6</ele><time>2026-04-19T09:12:08.999Z</time></trkpt><trkpt lat="38.10487857061747" lon="14.926202109942086"><ele>883.2</ele><time>2026-04-19T09:12:09.999Z</time></trkpt><trkpt lat="38.10479387422839" lon="14.926139587980064"><ele>883.8</ele><time>2026-04-19T09:12:11.999Z</time></trkpt><trkpt lat="38.1047682175787" lon="14.926057582493225"><ele>884.4</ele><time>2026-04-19T09:12:13.999Z</time></trkpt><trkpt lat="38.10474620426355" lon="14.925908262942103"><ele>885.0</ele><time>2026-04-19T09:12:15.999Z</time></trkpt><trkpt lat="38.104794082831134" lon="14.925751908797805"><ele>885.0</ele><time>2026-04-19T09:12:17.999Z</time></trkpt><trkpt lat="38.10483568122829" lon="14.92564171894014"><ele>885.0</ele><time>2026-04-19T09:12:18.999Z</time></trkpt><trkpt lat="38.10486610436477" lon="14.925501332812818"><ele>885.0</ele><time>2026-04-19T09:12:19.999Z</time></trkpt><trkpt lat="38.10489834147812" lon="14.925364041557946"><ele>885.0</ele><time>2026-04-19T09:12:20.999Z</time></trkpt><trkpt lat="38.10494639550587" lon="14.925230364561834"><ele>885.0</ele><time>2026-04-19T09:12:21.999Z</time></trkpt><trkpt lat="38.10499415932351" lon="14.92510091403598"><ele>885.2</ele><time>2026-04-19T09:12:22.999Z</time></trkpt><trkpt lat="38.10504333737823" lon="14.924988279689426"><ele>885.4</ele><time>2026-04-19T09:12:23.999Z</time></trkpt><trkpt lat="38.10510735149216" lon="14.924885431868526"><ele>885.5999999999999</ele><time>2026-04-19T09:12:24.999Z</time></trkpt><trkpt lat="38.10517812729865" lon="14.924788289871348"><ele>885.8</ele><time>2026-04-19T09:12:25.999Z</time></trkpt><trkpt lat="38.10524807373011" lon="14.92469926535861"><ele>886.0</ele><time>2026-04-19T09:12:26.999Z</time></trkpt><trkpt lat="38.105302915296" lon="14.924612609506795"><ele>886.0</ele><time>2026-04-19T09:12:27.999Z</time></trkpt><trkpt lat="38.10534213000843" lon="14.924511938811419"><ele>885.9999999999999</ele><time>2026-04-19T09:12:28.999Z</time></trkpt><trkpt lat="38.105369184384536" lon="14.924397373998481"><ele>885.9999999999999</ele><time>2026-04-19T09:12:29.999Z</time></trkpt><trkpt lat="38.10538709392529" lon="14.92426279881958"><ele>886.0</ele><time>2026-04-19T09:12:30.999Z</time></trkpt><trkpt lat="38.105415664031284" lon="14.924132314819495"><ele>886.0</ele><time>2026-04-19T09:12:31.999Z</time></trkpt><trkpt lat="38.105457611005164" lon="14.92401510202247"><ele>890.1999999999999</ele><time>2026-04-19T09:12:32.999Z</time></trkpt><trkpt lat="38.10550348298509" lon="14.923902849234544"><ele>894.3999999999999</ele><time>2026-04-19T09:12:33.999Z</time></trkpt><trkpt lat="38.10553967971478" lon="14.923785885009654"><ele>898.6</ele><time>2026-04-19T09:12:34.999Z</time></trkpt><trkpt lat="38.105554623270486" lon="14.923665972821931"><ele>902.8</ele><time>2026-04-19T09:12:35.999Z</time></trkpt><trkpt lat="38.10554709377396" lon="14.92354893278097"><ele>907.0</ele><time>2026-04-19T09:12:36.999Z</time></trkpt><trkpt lat="38.10552002802441" lon="14.923435503622992"><ele>906.75</ele><time>2026-04-19T09:12:37.999Z</time></trkpt><trkpt lat="38.105474126947534" lon="14.923307834967568"><ele>906.5</ele><time>2026-04-19T09:12:38.999Z</time></trkpt><trkpt lat="38.105418640136534" lon="14.923150907942622"><ele>906.25</ele><time>2026-04-19T09:12:39.999Z</time></trkpt><trkpt lat="38.10537708911029" lon="14.922978106108195"><ele>906.0</ele><time>2026-04-19T09:12:40.999Z</time></trkpt><trkpt lat="38.10534508578469" lon="14.922816213068987"><ele>906.0</ele><time>2026-04-19T09:12:41.999Z</time></trkpt><trkpt lat="38.10532439663621" lon="14.922673687062087"><ele>905.9999999999999</ele><time>2026-04-19T09:12:42.999Z</time></trkpt><trkpt lat="38.105310040507376" lon="14.922532889301412"><ele>905.9999999999999</ele><time>2026-04-19T09:12:43.999Z</time></trkpt><trkpt lat="38.10528472792245" lon="14.922399205091194"><ele>906.0</ele><time>2026-04-19T09:12:44.999Z</time></trkpt><trkpt lat="38.10525378311902" lon="14.922272532964662"><ele>906.0</ele><time>2026-04-19T09:12:45.999Z</time></trkpt><trkpt lat="38.105211691705634" lon="14.922176701963199"><ele>903.5</ele><time>2026-04-19T09:12:46.999Z</time></trkpt><trkpt lat="38.105190620471056" lon="14.92209805396445"><ele>901.0</ele><time>2026-04-19T09:12:47.999Z</time></trkpt><trkpt lat="38.10523496887943" lon="14.922021928246346"><ele>898.5</ele><time>2026-04-19T09:12:49.999Z</time></trkpt><trkpt lat="38.10530666659626" lon="14.922005973628858"><ele>896.0</ele><time>2026-04-19T09:12:50.999Z</time></trkpt><trkpt lat="38.10538843770892" lon="14.92202136646921"><ele>893.5</ele><time>2026-04-19T09:12:51.999Z</time></trkpt><trkpt lat="38.105473581727374" lon="14.922087584274106"><ele>891.0</ele><time>2026-04-19T09:12:52.999Z</time></trkpt><trkpt lat="38.10554214377489" lon="14.922183493563622"><ele>891.0</ele><time>2026-04-19T09:12:53.999Z</time></trkpt><trkpt lat="38.105619443116105" lon="14.922293001811624"><ele>891.0</ele><time>2026-04-19T09:12:54.999Z</time></trkpt><trkpt lat="38.105710830408505" lon="14.92236849362485"><ele>891.0</ele><time>2026-04-19T09:12:55.999Z</time></trkpt><trkpt lat="38.105824700903256" lon="14.922427674812106"><ele>891.0</ele><time>2026-04-19T09:12:56.999Z</time></trkpt><trkpt lat="38.10593803718553" lon="14.922468223003346"><ele>886.4</ele><time>2026-04-19T09:12:57.999Z</time></trkpt><trkpt lat="38.10603748402256" lon="14.922480918904881"><ele>881.8</ele><time>2026-04-19T09:12:58.999Z</time></trkpt><trkpt lat="38.10612508857073" lon="14.922454785780607"><ele>877.1999999999999</ele><time>2026-04-19T09:12:59.999Z</time></trkpt><trkpt lat="38.106208475966376" lon="14.92240784359655"><ele>872.5999999999999</ele><time>2026-04-19T09:13:00.999Z</time></trkpt><trkpt lat="38.10629513072428" lon="14.922329895092526"><ele>868.0</ele><time>2026-04-19T09:13:01.999Z</time></trkpt><trkpt lat="38.10637710322685" lon="14.922244094133541"><ele>868.0</ele><time>2026-04-19T09:13:02.999Z</time></trkpt><trkpt lat="38.106458036766334" lon="14.922192857784804"><ele>868.0</ele><time>2026-04-19T09:13:03.999Z</time></trkpt><trkpt lat="38.10655028186993" lon="14.922167289522738"><ele>868.0</ele><time>2026-04-19T09:13:04.999Z</time></trkpt><trkpt lat="38.106662845030286" lon="14.922157321937538"><ele>868.0</ele><time>2026-04-19T09:13:05.999Z</time></trkpt><trkpt lat="38.10678938601991" lon="14.922162941959986"><ele>868.0</ele><time>2026-04-19T09:13:06.999Z</time></trkpt><trkpt lat="38.106921827186696" lon="14.922182248285358"><ele>868.0</ele><time>2026-04-19T09:13:07.999Z</time></trkpt><trkpt lat="38.10705178073603" lon="14.922218784736378"><ele>868.0</ele><time>2026-04-19T09:13:08.999Z</time></trkpt><trkpt lat="38.10715244454682" lon="14.922261409422484"><ele>868.0</ele><time>2026-04-19T09:13:09.999Z</time></trkpt><trkpt lat="38.10723697224536" lon="14.922279775930422"><ele>868.0</ele><time>2026-04-19T09:13:10.999Z</time></trkpt><trkpt lat="38.1073254684334" lon="14.922244918043939"><ele>868.0</ele><time>2026-04-19T09:13:11.999Z</time></trkpt><trkpt lat="38.107410980233254" lon="14.92219654462661"><ele>866.8</ele><time>2026-04-19T09:13:12.999Z</time></trkpt><trkpt lat="38.10747508351095" lon="14.922130890412301"><ele>865.5999999999999</ele><time>2026-04-19T09:13:13.999Z</time></trkpt><trkpt lat="38.10752014594382" lon="14.92204418142344"><ele>864.4000000000001</ele><time>2026-04-19T09:13:14.999Z</time></trkpt><trkpt lat="38.10755855196574" lon="14.92193261102329"><ele>863.2</ele><time>2026-04-19T09:13:15.999Z</time></trkpt><trkpt lat="38.10758505224685" lon="14.921818913371581"><ele>862.0</ele><time>2026-04-19T09:13:16.999Z</time></trkpt><trkpt lat="38.10759352388097" lon="14.921683771865004"><ele>868.75</ele><time>2026-04-19T09:13:17.999Z</time></trkpt><trkpt lat="38.10759481190769" lon="14.921496662342237"><ele>875.5</ele><time>2026-04-19T09:13:18.999Z</time></trkpt><trkpt lat="38.1076036607057" lon="14.921305302659244"><ele>882.25</ele><time>2026-04-19T09:13:19.999Z</time></trkpt><trkpt lat="38.107601622324495" lon="14.921155675773086"><ele>889.0</ele><time>2026-04-19T09:13:20.999Z</time></trkpt><trkpt lat="38.107579392307755" lon="14.92103035379752"><ele>889.0</ele><time>2026-04-19T09:13:21.999Z</time></trkpt><trkpt lat="38.10754824746373" lon="14.920905368179243"><ele>889.0000000000001</ele><time>2026-04-19T09:13:22.999Z</time></trkpt><trkpt lat="38.10750937631747" lon="14.920782415996023"><ele>889.0000000000001</ele><time>2026-04-19T09:13:23.998Z</time></trkpt><trkpt lat="38.10746857055662" lon="14.920669576045235"><ele>889.0</ele><time>2026-04-19T09:13:24.998Z</time></trkpt><trkpt lat="38.107435381132" lon="14.920570979834189"><ele>889.0</ele><time>2026-04-19T09:13:25.998Z</time></trkpt><trkpt lat="38.107412392212126" lon="14.92046994011017"><ele>898.0</ele><time>2026-04-19T09:13:26.998Z</time></trkpt><trkpt lat="38.107396703065376" lon="14.920376824136056"><ele>907.0000000000001</ele><time>2026-04-19T09:13:27.998Z</time></trkpt><trkpt lat="38.107322430206054" lon="14.920253227907342"><ele>916.0000000000001</ele><time>2026-04-19T09:13:29.998Z</time></trkpt><trkpt lat="38.10724835926077" lon="14.920177819924632"><ele>925.0</ele><time>2026-04-19T09:13:30.998Z</time></trkpt><trkpt lat="38.107179250824665" lon="14.920079022516687"><ele>934.0</ele><time>2026-04-19T09:13:31.998Z</time></trkpt><trkpt lat="38.10710273621526" lon="14.919959228985912"><ele>934.0</ele><time>2026-04-19T09:13:32.998Z</time></trkpt><trkpt lat="38.10702830491821" lon="14.919820341237502"><ele>934.0000000000001</ele><time>2026-04-19T09:13:33.998Z</time></trkpt><trkpt lat="38.1069702421955" lon="14.919714127502921"><ele>934.0000000000001</ele><time>2026-04-19T09:13:34.998Z</time></trkpt><trkpt lat="38.10691869816251" lon="14.919639020907358"><ele>934.0</ele><time>2026-04-19T09:13:35.998Z</time></trkpt><trkpt lat="38.10687995752072" lon="14.9195731247944"><ele>934.0</ele><time>2026-04-19T09:13:36.998Z</time></trkpt><trkpt lat="38.1067946172006" lon="14.919466900101789"><ele>934.0</ele><time>2026-04-19T09:13:39.998Z</time></trkpt><trkpt lat="38.106752545037494" lon="14.919385763060289"><ele>934.0000000000001</ele><time>2026-04-19T09:13:40.998Z</time></trkpt><trkpt lat="38.1066997207607" lon="14.919276631330325"><ele>934.0000000000001</ele><time>2026-04-19T09:13:41.998Z</time></trkpt><trkpt lat="38.106646809539974" lon="14.91917312312078"><ele>934.0</ele><time>2026-04-19T09:13:42.998Z</time></trkpt><trkpt lat="38.1066042654767" lon="14.919106876362019"><ele>934.0</ele><time>2026-04-19T09:13:43.998Z</time></trkpt><trkpt lat="38.10657559980681" lon="14.91896653527396"><ele>931.6666666666666</ele><time>2026-04-19T09:13:45.998Z</time></trkpt><trkpt lat="38.10661405497797" lon="14.918899141644653"><ele>929.3333333333333</ele><time>2026-04-19T09:13:46.998Z</time></trkpt><trkpt lat="38.10667939321562" lon="14.91883903726978"><ele>927.0</ele><time>2026-04-19T09:13:47.998Z</time></trkpt><trkpt lat="38.106746413130246" lon="14.918813903923992"><ele>924.6666666666667</ele><time>2026-04-19T09:13:48.998Z</time></trkpt><trkpt lat="38.106824947866215" lon="14.9188296512856"><ele>922.3333333333334</ele><time>2026-04-19T09:13:49.998Z</time></trkpt><trkpt lat="38.10694097573151" lon="14.918857296497956"><ele>920.0</ele><time>2026-04-19T09:13:50.998Z</time></trkpt><trkpt lat="38.107043985434984" lon="14.918871825453643"><ele>920.0000000000001</ele><time>2026-04-19T09:13:51.998Z</time></trkpt><trkpt lat="38.10714092171005" lon="14.918866182949568"><ele>920.0</ele><time>2026-04-19T09:13:52.998Z</time></trkpt><trkpt lat="38.10722482721949" lon="14.918836036750767"><ele>920.0</ele><time>2026-04-19T09:13:53.998Z</time></trkpt><trkpt lat="38.10730325291275" lon="14.918807861570386"><ele>920.0</ele><time>2026-04-19T09:13:55Z</time></trkpt><trkpt lat="38.107377900743636" lon="14.918808630296041"><ele>920.0000000000001</ele><time>2026-04-19T09:13:56Z</time></trkpt><trkpt lat="38.10747052701401" lon="14.918830238823041"><ele>920.0</ele><time>2026-04-19T09:13:57Z</time></trkpt><trkpt lat="38.10756265454408" lon="14.918842771709972"><ele>914.1666666666667</ele><time>2026-04-19T09:13:58Z</time></trkpt><trkpt lat="38.10766374691865" lon="14.918851934056487"><ele>908.3333333333334</ele><time>2026-04-19T09:13:59Z</time></trkpt><trkpt lat="38.107763824588936" lon="14.918863808459465"><ele>902.5</ele><time>2026-04-19T09:14:00Z</time></trkpt><trkpt lat="38.10784883618291" lon="14.918871299642692"><ele>896.6666666666667</ele><time>2026-04-19T09:14:01Z</time></trkpt><trkpt lat="38.10792570286571" lon="14.918867344072497"><ele>890.8333333333334</ele><time>2026-04-19T09:14:02Z</time></trkpt><trkpt lat="38.10798811976967" lon="14.918839791478984"><ele>885.0</ele><time>2026-04-19T09:14:03Z</time></trkpt><trkpt lat="38.10806843286824" lon="14.91875864984261"><ele>885.0</ele><time>2026-04-19T09:14:04Z</time></trkpt><trkpt lat="38.108177793013205" lon="14.918682834049184"><ele>885.0</ele><time>2026-04-19T09:14:05Z</time></trkpt><trkpt lat="38.10826418542421" lon="14.918608492479564"><ele>885.0</ele><time>2026-04-19T09:14:06Z</time></trkpt><trkpt lat="38.10833787873822" lon="14.91859568859149"><ele>885.0</ele><time>2026-04-19T09:14:08Z</time></trkpt><trkpt lat="38.10843046440457" lon="14.918757226200452"><ele>881.2</ele><time>2026-04-19T09:14:10Z</time></trkpt><trkpt lat="38.108479891876904" lon="14.918845621713574"><ele>877.4</ele><time>2026-04-19T09:14:11Z</time></trkpt><trkpt lat="38.108559140433236" lon="14.918856410362674"><ele>873.5999999999999</ele><time>2026-04-19T09:14:13Z</time></trkpt><trkpt lat="38.10869281532898" lon="14.918782419290062"><ele>869.8</ele><time>2026-04-19T09:14:15Z</time></trkpt><trkpt lat="38.108809385299914" lon="14.918774154776855"><ele>866.0</ele><time>2026-04-19T09:14:16Z</time></trkpt><trkpt lat="38.1089183424695" lon="14.918772884472927"><ele>866.0</ele><time>2026-04-19T09:14:17Z</time></trkpt><trkpt lat="38.10902165273043" lon="14.918741278966511"><ele>865.9999999999999</ele><time>2026-04-19T09:14:18Z</time></trkpt><trkpt lat="38.10912480167771" lon="14.918689868182604"><ele>865.9999999999999</ele><time>2026-04-19T09:14:19Z</time></trkpt><trkpt lat="38.10923229215617" lon="14.918652651579288"><ele>866.0</ele><time>2026-04-19T09:14:20Z</time></trkpt><trkpt lat="38.10933101192976" lon="14.918633065803121"><ele>866.0</ele><time>2026-04-19T09:14:21Z</time></trkpt><trkpt lat="38.10939934325064" lon="14.918604229170358"><ele>869.8333333333334</ele><time>2026-04-19T09:14:22Z</time></trkpt><trkpt lat="38.109468672573556" lon="14.918590577846057"><ele>873.6666666666667</ele><time>2026-04-19T09:14:23Z</time></trkpt><trkpt lat="38.10953488968067" lon="14.918527097210168"><ele>877.5</ele><time>2026-04-19T09:14:24Z</time></trkpt><trkpt lat="38.109612455892055" lon="14.918450182890842"><ele>881.3333333333333</ele><time>2026-04-19T09:14:25Z</time></trkpt><trkpt lat="38.10968520950314" lon="14.9183440887634"><ele>885.1666666666666</ele><time>2026-04-19T09:14:25.999Z</time></trkpt><trkpt lat="38.109755478671055" lon="14.918281100778408"><ele>889.0</ele><time>2026-04-19T09:14:26.999Z</time></trkpt><trkpt lat="38.10982436166018" lon="14.918242112145393"><ele>889.0</ele><time>2026-04-19T09:14:27.999Z</time></trkpt><trkpt lat="38.10989173037122" lon="14.918270470226167"><ele>889.0000000000001</ele><time>2026-04-19T09:14:28.999Z</time></trkpt><trkpt lat="38.10998591628639" lon="14.918302693100914"><ele>889.0000000000001</ele><time>2026-04-19T09:14:29.999Z</time></trkpt><trkpt lat="38.11008542488806" lon="14.918338140178825"><ele>889.0</ele><time>2026-04-19T09:14:30.999Z</time></trkpt><trkpt lat="38.11017710840307" lon="14.918340252079965"><ele>889.0</ele><time>2026-04-19T09:14:31.999Z</time></trkpt><trkpt lat="38.11027767696555" lon="14.918311835040404"><ele>883.6</ele><time>2026-04-19T09:14:32.999Z</time></trkpt><trkpt lat="38.11037340667017" lon="14.918310741846115"><ele>878.2</ele><time>2026-04-19T09:14:33.999Z</time></trkpt><trkpt lat="38.11048171301061" lon="14.918338498769968"><ele>872.8000000000001</ele><time>2026-04-19T09:14:34.999Z</time></trkpt><trkpt lat="38.110595488785094" lon="14.918383671422411"><ele>867.4000000000001</ele><time>2026-04-19T09:14:35.999Z</time></trkpt><trkpt lat="38.1107037537927" lon="14.918412024654696"><ele>862.0</ele><time>2026-04-19T09:14:36.999Z</time></trkpt><trkpt lat="38.11080430314754" lon="14.918459407165367"><ele>852.4000000000001</ele><time>2026-04-19T09:14:37.999Z</time></trkpt><trkpt lat="38.110896348898514" lon="14.91854370013612"><ele>842.8000000000001</ele><time>2026-04-19T09:14:38.999Z</time></trkpt><trkpt lat="38.110989805125946" lon="14.918619641649896"><ele>833.2</ele><time>2026-04-19T09:14:39.999Z</time></trkpt><trkpt lat="38.111071144469236" lon="14.918690418862385"><ele>823.6</ele><time>2026-04-19T09:14:40.999Z</time></trkpt><trkpt lat="38.111157958407254" lon="14.918714741859773"><ele>814.0</ele><time>2026-04-19T09:14:41.999Z</time></trkpt><trkpt lat="38.11124609695446" lon="14.918700746787792"><ele>814.0</ele><time>2026-04-19T09:14:42.999Z</time></trkpt><trkpt lat="38.11132399455387" lon="14.918661774678831"><ele>814.0</ele><time>2026-04-19T09:14:43.999Z</time></trkpt><trkpt lat="38.11139975342913" lon="14.918595866895245"><ele>814.0</ele><time>2026-04-19T09:14:44.999Z</time></trkpt><trkpt lat="38.11147835782181" lon="14.918545400924007"><ele>814.0</ele><time>2026-04-19T09:14:45.999Z</time></trkpt><trkpt lat="38.11155932535022" lon="14.918560142586365"><ele>814.0</ele><time>2026-04-19T09:14:46.999Z</time></trkpt><trkpt lat="38.111650812158395" lon="14.918639693354367"><ele>819.3333333333333</ele><time>2026-04-19T09:14:47.999Z</time></trkpt><trkpt lat="38.11176144607706" lon="14.918751361104977"><ele>824.6666666666667</ele><time>2026-04-19T09:14:48.999Z</time></trkpt><trkpt lat="38.111893351482266" lon="14.918871158629802"><ele>830.0</ele><time>2026-04-19T09:14:49.999Z</time></trkpt><trkpt lat="38.11202685195195" lon="14.9189929541392"><ele>830.0</ele><time>2026-04-19T09:14:50.999Z</time></trkpt><trkpt lat="38.11211914678652" lon="14.919118598947627"><ele>830.0</ele><time>2026-04-19T09:14:51.999Z</time></trkpt><trkpt lat="38.11218013640664" lon="14.919239805518542"><ele>830.0</ele><time>2026-04-19T09:14:52.999Z</time></trkpt><trkpt lat="38.112240645512266" lon="14.919346627267347"><ele>830.0</ele><time>2026-04-19T09:14:53.999Z</time></trkpt><trkpt lat="38.112322232188724" lon="14.919434594231376"><ele>827.4</ele><time>2026-04-19T09:14:54.999Z</time></trkpt><trkpt lat="38.11241351865069" lon="14.919501599974415"><ele>824.8</ele><time>2026-04-19T09:14:55.999Z</time></trkpt><trkpt lat="38.1124866401598" lon="14.919547018741438"><ele>822.2</ele><time>2026-04-19T09:14:56.999Z</time></trkpt><trkpt lat="38.11263298790999" lon="14.919512696069235"><ele>819.6</ele><time>2026-04-19T09:14:58.999Z</time></trkpt><trkpt lat="38.1127330266405" lon="14.919469913131152"><ele>817.0</ele><time>2026-04-19T09:14:59.999Z</time></trkpt><trkpt lat="38.11284273859406" lon="14.919395831778642"><ele>817.0</ele><time>2026-04-19T09:15:00.999Z</time></trkpt><trkpt lat="38.112942863801436" lon="14.919313251013364"><ele>817.0</ele><time>2026-04-19T09:15:01.999Z</time></trkpt><trkpt lat="38.11303668985611" lon="14.919249295624825"><ele>817.0</ele><time>2026-04-19T09:15:02.999Z</time></trkpt><trkpt lat="38.1131328584859" lon="14.919202205843025"><ele>817.0</ele><time>2026-04-19T09:15:03.999Z</time></trkpt><trkpt lat="38.11323267259083" lon="14.919152287795919"><ele>817.0</ele><time>2026-04-19T09:15:04.999Z</time></trkpt><trkpt lat="38.11331384966419" lon="14.919099890747235"><ele>822.8333333333333</ele><time>2026-04-19T09:15:05.999Z</time></trkpt><trkpt lat="38.11337844977119" lon="14.919042730959795"><ele>828.6666666666666</ele><time>2026-04-19T09:15:06.999Z</time></trkpt><trkpt lat="38.11344253408316" lon="14.918979628479939"><ele>834.5</ele><time>2026-04-19T09:15:07.999Z</time></trkpt><trkpt lat="38.11350060054448" lon="14.91890934896565"><ele>840.3333333333333</ele><time>2026-04-19T09:15:08.999Z</time></trkpt><trkpt lat="38.1135713147599" lon="14.918864028620726"><ele>846.1666666666666</ele><time>2026-04-19T09:15:09.999Z</time></trkpt><trkpt lat="38.113672188105106" lon="14.918785210129512"><ele>852.0</ele><time>2026-04-19T09:15:10.999Z</time></trkpt><trkpt lat="38.11376912896853" lon="14.918720730912177"><ele>852.0</ele><time>2026-04-19T09:15:11.999Z</time></trkpt><trkpt lat="38.11385386342844" lon="14.918684837987511"><ele>852.0</ele><time>2026-04-19T09:15:12.999Z</time></trkpt><trkpt lat="38.11392814039064" lon="14.918651656444334"><ele>852.0</ele><time>2026-04-19T09:15:13.999Z</time></trkpt><trkpt lat="38.1140126197846" lon="14.918582019826358"><ele>852.0</ele><time>2026-04-19T09:15:14.999Z</time></trkpt><trkpt lat="38.11409391927221" lon="14.918526740044838"><ele>852.0</ele><time>2026-04-19T09:15:15.999Z</time></trkpt><trkpt lat="38.11419916887281" lon="14.91845701889634"><ele>853.8</ele><time>2026-04-19T09:15:16.999Z</time></trkpt><trkpt lat="38.11428420178873" lon="14.918402452068882"><ele>855.6</ele><time>2026-04-19T09:15:17.999Z</time></trkpt><trkpt lat="38.11436169837773" lon="14.91835638745848"><ele>857.3999999999999</ele><time>2026-04-19T09:15:18.999Z</time></trkpt><trkpt lat="38.11443573869234" lon="14.91832004693845"><ele>859.1999999999999</ele><time>2026-04-19T09:15:19.999Z</time></trkpt><trkpt lat="38.11450581521758" lon="14.918291721148712"><ele>861.0</ele><time>2026-04-19T09:15:20.999Z</time></trkpt><trkpt lat="38.114604685722135" lon="14.918200420511736"><ele>861.0</ele><time>2026-04-19T09:15:22.999Z</time></trkpt><trkpt lat="38.11467575924245" lon="14.918101537873644"><ele>860.9999999999999</ele><time>2026-04-19T09:15:24.999Z</time></trkpt><trkpt lat="38.114757608973186" lon="14.918009371243858"><ele>860.9999999999999</ele><time>2026-04-19T09:15:26.998Z</time></trkpt><trkpt lat="38.114854770790906" lon="14.917946793990293"><ele>861.0</ele><time>2026-04-19T09:15:28.998Z</time></trkpt><trkpt lat="38.114918308017685" lon="14.91792564917833"><ele>861.0</ele><time>2026-04-19T09:15:32.998Z</time></trkpt><trkpt lat="38.11508428790642" lon="14.91777097001646"><ele>858.6666666666666</ele><time>2026-04-19T09:15:33.998Z</time></trkpt><trkpt lat="38.115139244689836" lon="14.917702062391752"><ele>856.3333333333333</ele><time>2026-04-19T09:15:34.998Z</time></trkpt><trkpt lat="38.11519333097218" lon="14.917623913017342"><ele>854.0</ele><time>2026-04-19T09:15:35.998Z</time></trkpt><trkpt lat="38.115252161172904" lon="14.917554445272057"><ele>851.6666666666666</ele><time>2026-04-19T09:15:36.998Z</time></trkpt><trkpt lat="38.115315093919776" lon="14.917493039155447"><ele>849.3333333333333</ele><time>2026-04-19T09:15:37.998Z</time></trkpt><trkpt lat="38.1153827120952" lon="14.917435007496254"><ele>847.0</ele><time>2026-04-19T09:15:38.998Z</time></trkpt><trkpt lat="38.11545351398548" lon="14.917372658682986"><ele>846.9999999999999</ele><time>2026-04-19T09:15:39.998Z</time></trkpt><trkpt lat="38.11552506283319" lon="14.917310251178403"><ele>847.0</ele><time>2026-04-19T09:15:40.998Z</time></trkpt><trkpt lat="38.11559284450057" lon="14.917252488510506"><ele>847.0</ele><time>2026-04-19T09:15:41.998Z</time></trkpt><trkpt lat="38.115657637554314" lon="14.917194193458856"><ele>847.0</ele><time>2026-04-19T09:15:42.998Z</time></trkpt><trkpt lat="38.11571014496707" lon="14.91713986601601"><ele>846.9999999999999</ele><time>2026-04-19T09:15:43.998Z</time></trkpt><trkpt lat="38.11575707085931" lon="14.91707729852798"><ele>847.0</ele><time>2026-04-19T09:15:44.998Z</time></trkpt><trkpt lat="38.115811336801606" lon="14.916958503813479"><ele>839.8333333333333</ele><time>2026-04-19T09:15:46.998Z</time></trkpt><trkpt lat="38.115813297248216" lon="14.916842223273498"><ele>832.6666666666666</ele><time>2026-04-19T09:15:48.998Z</time></trkpt><trkpt lat="38.115889426115416" lon="14.91681292279561"><ele>825.5</ele><time>2026-04-19T09:15:51.998Z</time></trkpt><trkpt lat="38.11592278492245" lon="14.91691845109231"><ele>818.3333333333333</ele><time>2026-04-19T09:15:53.998Z</time></trkpt><trkpt lat="38.115921791661805" lon="14.917007231750505"><ele>811.1666666666666</ele><time>2026-04-19T09:15:54.998Z</time></trkpt><trkpt lat="38.11589622105069" lon="14.917114842588356"><ele>804.0</ele><time>2026-04-19T09:15:55.998Z</time></trkpt><trkpt lat="38.115875397713125" lon="14.917206689251417"><ele>804.0</ele><time>2026-04-19T09:15:56.998Z</time></trkpt><trkpt lat="38.11582922246993" lon="14.917292310511185"><ele>804.0</ele><time>2026-04-19T09:15:57.998Z</time></trkpt><trkpt lat="38.115765026423325" lon="14.917369844810269"><ele>804.0</ele><time>2026-04-19T09:15:58.998Z</time></trkpt><trkpt lat="38.1157008961356" lon="14.917448452396282"><ele>804.0</ele><time>2026-04-19T09:15:59.998Z</time></trkpt><trkpt lat="38.115651003235314" lon="14.917539374005075"><ele>804.0</ele><time>2026-04-19T09:16:01Z</time></trkpt><trkpt lat="38.11561087642753" lon="14.917641447528236"><ele>804.0</ele><time>2026-04-19T09:16:02Z</time></trkpt><trkpt lat="38.11557784134875" lon="14.917744548421414"><ele>807.0</ele><time>2026-04-19T09:16:03Z</time></trkpt><trkpt lat="38.115544896276546" lon="14.917851271239607"><ele>810.0</ele><time>2026-04-19T09:16:04Z</time></trkpt><trkpt lat="38.11550984389026" lon="14.917957696898776"><ele>813.0</ele><time>2026-04-19T09:16:05Z</time></trkpt><trkpt lat="38.11546074261417" lon="14.918054923899374"><ele>816.0</ele><time>2026-04-19T09:16:06Z</time></trkpt><trkpt lat="38.11539682540656" lon="14.918137081415852"><ele>819.0</ele><time>2026-04-19T09:16:07Z</time></trkpt><trkpt lat="38.1153293193921" lon="14.918215989130125"><ele>819.0</ele><time>2026-04-19T09:16:08Z</time></trkpt><trkpt lat="38.115272580166156" lon="14.918297613816094"><ele>819.0</ele><time>2026-04-19T09:16:09Z</time></trkpt><trkpt lat="38.11522363447899" lon="14.918387769476391"><ele>819.0</ele><time>2026-04-19T09:16:10Z</time></trkpt><trkpt lat="38.11519408275554" lon="14.918493088109761"><ele>819.0</ele><time>2026-04-19T09:16:11Z</time></trkpt><trkpt lat="38.11517692283652" lon="14.918597894582119"><ele>819.0</ele><time>2026-04-19T09:16:12Z</time></trkpt><trkpt lat="38.115132945120834" lon="14.918687246302774"><ele>819.0</ele><time>2026-04-19T09:16:13Z</time></trkpt><trkpt lat="38.11506275115454" lon="14.918744551323378"><ele>820.2857142857143</ele><time>2026-04-19T09:16:14Z</time></trkpt><trkpt lat="38.11499133051643" lon="14.91878839111205"><ele>821.5714285714286</ele><time>2026-04-19T09:16:15Z</time></trkpt><trkpt lat="38.114941691081825" lon="14.918849327472449"><ele>822.8571428571429</ele><time>2026-04-19T09:16:16Z</time></trkpt><trkpt lat="38.1149164139886" lon="14.918929993753267"><ele>824.1428571428571</ele><time>2026-04-19T09:16:17Z</time></trkpt><trkpt lat="38.11491071383312" lon="14.919018665296866"><ele>825.4285714285714</ele><time>2026-04-19T09:16:18Z</time></trkpt><trkpt lat="38.11490221150912" lon="14.91910081745143"><ele>826.7142857142858</ele><time>2026-04-19T09:16:19Z</time></trkpt><trkpt lat="38.11488518138686" lon="14.919186580356657"><ele>828.0</ele><time>2026-04-19T09:16:20Z</time></trkpt><trkpt lat="38.11486096827455" lon="14.919277063342609"><ele>820.2</ele><time>2026-04-19T09:16:21Z</time></trkpt><trkpt lat="38.11482789153493" lon="14.91938073333637"><ele>812.4</ele><time>2026-04-19T09:16:22Z</time></trkpt><trkpt lat="38.114778653874836" lon="14.91948224547344"><ele>804.6</ele><time>2026-04-19T09:16:23Z</time></trkpt><trkpt lat="38.11472067643033" lon="14.919570385626205"><ele>796.8000000000001</ele><time>2026-04-19T09:16:24Z</time></trkpt><trkpt lat="38.11464542034885" lon="14.919638834305568"><ele>789.0</ele><time>2026-04-19T09:16:25Z</time></trkpt><trkpt lat="38.1145641904395" lon="14.919687086291484"><ele>789.0</ele><time>2026-04-19T09:16:26Z</time></trkpt><trkpt lat="38.11447844600866" lon="14.919725721142209"><ele>789.0</ele><time>2026-04-19T09:16:27Z</time></trkpt><trkpt lat="38.11439139806095" lon="14.919764816497816"><ele>789.0</ele><time>2026-04-19T09:16:28Z</time></trkpt><trkpt lat="38.11431723448403" lon="14.919832227115236"><ele>789.0</ele><time>2026-04-19T09:16:29Z</time></trkpt><trkpt lat="38.114248805055645" lon="14.919911260167511"><ele>789.0</ele><time>2026-04-19T09:16:29.999Z</time></trkpt><trkpt lat="38.11418473618318" lon="14.919992016121643"><ele>787.1666666666666</ele><time>2026-04-19T09:16:30.999Z</time></trkpt><trkpt lat="38.1141250142094" lon="14.920070468768426"><ele>785.3333333333333</ele><time>2026-04-19T09:16:31.999Z</time></trkpt><trkpt lat="38.1140675370085" lon="14.920142865226321"><ele>783.5</ele><time>2026-04-19T09:16:32.999Z</time></trkpt><trkpt lat="38.1140049726835" lon="14.92021129568312"><ele>781.6666666666666</ele><time>2026-04-19T09:16:33.999Z</time></trkpt><trkpt lat="38.11393508972675" lon="14.920264148022149"><ele>779.8333333333333</ele><time>2026-04-19T09:16:34.999Z</time></trkpt><trkpt lat="38.11386117110523" lon="14.920311252556473"><ele>778.0</ele><time>2026-04-19T09:16:35.999Z</time></trkpt><trkpt lat="38.113788598983525" lon="14.920350354190248"><ele>778.0</ele><time>2026-04-19T09:16:36.999Z</time></trkpt><trkpt lat="38.11372702151696" lon="14.92037828501626"><ele>778.0</ele><time>2026-04-19T09:16:37.999Z</time></trkpt><trkpt lat="38.11365439403836" lon="14.920422907333426"><ele>778.0</ele><time>2026-04-19T09:16:39.999Z</time></trkpt><trkpt lat="38.113695570090776" lon="14.920489847908666"><ele>778.0</ele><time>2026-04-19T09:16:45.999Z</time></trkpt><trkpt lat="38.11376826655714" lon="14.920484269833988"><ele>778.0</ele><time>2026-04-19T09:16:46.999Z</time></trkpt><trkpt lat="38.11384203258635" lon="14.920470744422259"><ele>778.0</ele><time>2026-04-19T09:16:47.999Z</time></trkpt><trkpt lat="38.11392120680373" lon="14.920438177373818"><ele>778.0</ele><time>2026-04-19T09:16:48.999Z</time></trkpt><trkpt lat="38.11400910108284" lon="14.920397773014637"><ele>775.3333333333333</ele><time>2026-04-19T09:16:49.999Z</time></trkpt><trkpt lat="38.11409616823263" lon="14.920349553309038"><ele>772.6666666666666</ele><time>2026-04-19T09:16:50.999Z</time></trkpt><trkpt lat="38.11417720353071" lon="14.920297488322905"><ele>770.0</ele><time>2026-04-19T09:16:51.999Z</time></trkpt><trkpt lat="38.114248967049406" lon="14.920235122630405"><ele>767.3333333333333</ele><time>2026-04-19T09:16:52.999Z</time></trkpt><trkpt lat="38.11430893580132" lon="14.920175535198974"><ele>764.6666666666666</ele><time>2026-04-19T09:16:53.999Z</time></trkpt><trkpt lat="38.114368133794535" lon="14.920117967888475"><ele>762.0</ele><time>2026-04-19T09:16:54.999Z</time></trkpt><trkpt lat="38.114423854340245" lon="14.920067507155705"><ele>762.5</ele><time>2026-04-19T09:16:55.999Z</time></trkpt><trkpt lat="38.11447794973533" lon="14.920016704970289"><ele>763.0</ele><time>2026-04-19T09:16:56.999Z</time></trkpt><trkpt lat="38.1146002667812" lon="14.919991104997797"><ele>763.5</ele><time>2026-04-19T09:16:58.999Z</time></trkpt><trkpt lat="38.11466734490389" lon="14.919986463559702"><ele>764.0</ele><time>2026-04-19T09:16:59.999Z</time></trkpt><trkpt lat="38.11473808588778" lon="14.919955203631377"><ele>764.5</ele><time>2026-04-19T09:17:00.999Z</time></trkpt><trkpt lat="38.11479741682806" lon="14.919902723183819"><ele>765.0</ele><time>2026-04-19T09:17:01.999Z</time></trkpt><trkpt lat="38.114911981724234" lon="14.919824511834898"><ele>765.0000000000001</ele><time>2026-04-19T09:17:03.999Z</time></trkpt><trkpt lat="38.114970482904376" lon="14.919780051992516"><ele>765.0</ele><time>2026-04-19T09:17:04.999Z</time></trkpt><trkpt lat="38.115024369207035" lon="14.919717224656932"><ele>765.0</ele><time>2026-04-19T09:17:05.999Z</time></trkpt><trkpt lat="38.11507549380558" lon="14.919658959290663"><ele>765.0</ele><time>2026-04-19T09:17:06.999Z</time></trkpt><trkpt lat="38.115134727491444" lon="14.91959671332744"><ele>765.0</ele><time>2026-04-19T09:17:07.999Z</time></trkpt><trkpt lat="38.11518516734763" lon="14.919515280580532"><ele>765.0000000000001</ele><time>2026-04-19T09:17:08.999Z</time></trkpt><trkpt lat="38.11522841486001" lon="14.919431335650382"><ele>765.0</ele><time>2026-04-19T09:17:09.999Z</time></trkpt><trkpt lat="38.11526992007857" lon="14.919352929020283"><ele>765.0</ele><time>2026-04-19T09:17:10.999Z</time></trkpt><trkpt lat="38.115317408119374" lon="14.919279819432926"><ele>765.0</ele><time>2026-04-19T09:17:11.999Z</time></trkpt><trkpt lat="38.11543340268643" lon="14.919265366147126"><ele>765.0</ele><time>2026-04-19T09:17:13.999Z</time></trkpt><trkpt lat="38.115501505517486" lon="14.919269255050157"><ele>765.0</ele><time>2026-04-19T09:17:32.999Z</time></trkpt><trkpt lat="38.11561620751329" lon="14.91920048727145"><ele>765.0</ele><time>2026-04-19T09:17:34.999Z</time></trkpt><trkpt lat="38.115685013837805" lon="14.919143307812613"><ele>764.1666666666666</ele><time>2026-04-19T09:17:35.999Z</time></trkpt><trkpt lat="38.11576472634122" lon="14.919089640529355"><ele>763.3333333333334</ele><time>2026-04-19T09:17:36.999Z</time></trkpt><trkpt lat="38.11583982545639" lon="14.919040621018425"><ele>762.5</ele><time>2026-04-19T09:17:37.999Z</time></trkpt><trkpt lat="38.11590352867279" lon="14.918985228908646"><ele>761.6666666666667</ele><time>2026-04-19T09:17:38.999Z</time></trkpt><trkpt lat="38.115976608281294" lon="14.91894002407009"><ele>760.8333333333334</ele><time>2026-04-19T09:17:39.999Z</time></trkpt><trkpt lat="38.116070077961616" lon="14.918893007072594"><ele>760.0</ele><time>2026-04-19T09:17:40.999Z</time></trkpt><trkpt lat="38.11614493209752" lon="14.918857384347763"><ele>760.0</ele><time>2026-04-19T09:17:41.999Z</time></trkpt><trkpt lat="38.116222959351376" lon="14.91882889398651"><ele>760.0</ele><time>2026-04-19T09:17:42.999Z</time></trkpt><trkpt lat="38.11628763436611" lon="14.918806315686073"><ele>760.0</ele><time>2026-04-19T09:17:43.999Z</time></trkpt><trkpt lat="38.11634784939353" lon="14.91876315554077"><ele>760.0</ele><time>2026-04-19T09:17:44.999Z</time></trkpt><trkpt lat="38.11639867799631" lon="14.918684558119642"><ele>760.0</ele><time>2026-04-19T09:17:45.999Z</time></trkpt><trkpt lat="38.11645124902834" lon="14.918613933174731"><ele>760.0</ele><time>2026-04-19T09:17:46.999Z</time></trkpt><trkpt lat="38.116546796491654" lon="14.918535926573407"><ele>760.0</ele><time>2026-04-19T09:17:48.999Z</time></trkpt><trkpt lat="38.11660913373982" lon="14.918615096157422"><ele>760.0</ele><time>2026-04-19T09:17:51.999Z</time></trkpt><trkpt lat="38.116567602223384" lon="14.918770438814892"><ele>760.0</ele><time>2026-04-19T09:17:53.999Z</time></trkpt><trkpt lat="38.11652225308086" lon="14.91885516180653"><ele>760.0</ele><time>2026-04-19T09:17:54.999Z</time></trkpt><trkpt lat="38.1164645888716" lon="14.918935417417368"><ele>760.0</ele><time>2026-04-19T09:17:55.999Z</time></trkpt><trkpt lat="38.116403834270535" lon="14.91900209374944"><ele>760.0</ele><time>2026-04-19T09:17:56.999Z</time></trkpt><trkpt lat="38.11634818424246" lon="14.919047588887837"><ele>760.0</ele><time>2026-04-19T09:17:57.999Z</time></trkpt><trkpt lat="38.11635609873046" lon="14.91917428646198"><ele>760.0</ele><time>2026-04-19T09:18:00.999Z</time></trkpt><trkpt lat="38.116473092720526" lon="14.919193362042508"><ele>760.0</ele><time>2026-04-19T09:18:02.999Z</time></trkpt><trkpt lat="38.11654232339138" lon="14.919139204002125"><ele>760.0</ele><time>2026-04-19T09:18:03.999Z</time></trkpt><trkpt lat="38.11661330178891" lon="14.919077779796606"><ele>755.2</ele><time>2026-04-19T09:18:04.999Z</time></trkpt><trkpt lat="38.11669152050045" lon="14.919012478057631"><ele>750.4</ele><time>2026-04-19T09:18:05.999Z</time></trkpt><trkpt lat="38.116767973732706" lon="14.918953814893198"><ele>745.5999999999999</ele><time>2026-04-19T09:18:07.001Z</time></trkpt><trkpt lat="38.116814412005446" lon="14.91889366535807"><ele>740.8</ele><time>2026-04-19T09:18:08.001Z</time></trkpt><trkpt lat="38.116868864390064" lon="14.918750311161805"><ele>736.0</ele><time>2026-04-19T09:18:10.001Z</time></trkpt><trkpt lat="38.11689877964559" lon="14.918585906109099"><ele>736.0</ele><time>2026-04-19T09:18:12.001Z</time></trkpt><trkpt lat="38.11693030065921" lon="14.918494480051807"><ele>736.0</ele><time>2026-04-19T09:18:14.001Z</time></trkpt><trkpt lat="38.116897595294546" lon="14.918417866279878"><ele>736.0</ele><time>2026-04-19T09:18:16.001Z</time></trkpt><trkpt lat="38.116835762651355" lon="14.918278091073645"><ele>736.0</ele><time>2026-04-19T09:18:18.001Z</time></trkpt><trkpt lat="38.11682546265771" lon="14.91819479114461"><ele>736.0</ele><time>2026-04-19T09:18:19.001Z</time></trkpt><trkpt lat="38.116898791231705" lon="14.918090523240645"><ele>738.8333333333334</ele><time>2026-04-19T09:18:21.001Z</time></trkpt><trkpt lat="38.11697637945462" lon="14.918070565608938"><ele>741.6666666666667</ele><time>2026-04-19T09:18:22.001Z</time></trkpt><trkpt lat="38.11705511521668" lon="14.918062723155625"><ele>744.5</ele><time>2026-04-19T09:18:23.001Z</time></trkpt><trkpt lat="38.11712027265457" lon="14.918046985098034"><ele>747.3333333333334</ele><time>2026-04-19T09:18:24.001Z</time></trkpt><trkpt lat="38.11717733336296" lon="14.917956376013269"><ele>750.1666666666666</ele><time>2026-04-19T09:18:26.001Z</time></trkpt><trkpt lat="38.11717427694605" lon="14.917870480507862"><ele>753.0</ele><time>2026-04-19T09:18:27.001Z</time></trkpt><trkpt lat="38.117169176014194" lon="14.917777182318153"><ele>753.0</ele><time>2026-04-19T09:18:28.001Z</time></trkpt><trkpt lat="38.117161185315005" lon="14.91768522659716"><ele>753.0</ele><time>2026-04-19T09:18:29.001Z</time></trkpt><trkpt lat="38.117151056255096" lon="14.917572665743215"><ele>753.0</ele><time>2026-04-19T09:18:30.001Z</time></trkpt><trkpt lat="38.11713907773657" lon="14.917470739384237"><ele>753.0</ele><time>2026-04-19T09:18:31.001Z</time></trkpt><trkpt lat="38.11711751749483" lon="14.917390790324196"><ele>753.0</ele><time>2026-04-19T09:18:32.001Z</time></trkpt><trkpt lat="38.117130311209806" lon="14.917290293207852"><ele>753.0</ele><time>2026-04-19T09:18:34.001Z</time></trkpt><trkpt lat="38.11722931655566" lon="14.91717766162189"><ele>755.8</ele><time>2026-04-19T09:18:36Z</time></trkpt><trkpt lat="38.11728858241295" lon="14.917113963800649"><ele>758.5999999999999</ele><time>2026-04-19T09:18:37Z</time></trkpt><trkpt lat="38.11735159001333" lon="14.917058816043355"><ele>761.4000000000001</ele><time>2026-04-19T09:18:38Z</time></trkpt><trkpt lat="38.11745900152931" lon="14.91699370350351"><ele>764.2</ele><time>2026-04-19T09:18:40Z</time></trkpt><trkpt lat="38.11752104594675" lon="14.91696270598928"><ele>767.0</ele><time>2026-04-19T09:18:41Z</time></trkpt><trkpt lat="38.11762340451712" lon="14.916893461752275"><ele>760.3333333333333</ele><time>2026-04-19T09:18:43Z</time></trkpt><trkpt lat="38.11772140020409" lon="14.916927404036487"><ele>753.6666666666666</ele><time>2026-04-19T09:18:45Z</time></trkpt><trkpt lat="38.117791580416714" lon="14.916953712055713"><ele>747.0</ele><time>2026-04-19T09:18:46Z</time></trkpt><trkpt lat="38.11786894247375" lon="14.91696143125633"><ele>740.3333333333334</ele><time>2026-04-19T09:18:47Z</time></trkpt><trkpt lat="38.11794158235007" lon="14.916961903248215"><ele>733.6666666666667</ele><time>2026-04-19T09:18:48Z</time></trkpt><trkpt lat="38.11800706502241" lon="14.916945578168454"><ele>727.0</ele><time>2026-04-19T09:18:49Z</time></trkpt><trkpt lat="38.118077912641596" lon="14.916922932366942"><ele>727.0</ele><time>2026-04-19T09:18:50Z</time></trkpt><trkpt lat="38.11813968714636" lon="14.9168899173213"><ele>727.0</ele><time>2026-04-19T09:18:51Z</time></trkpt><trkpt lat="38.1181900632216" lon="14.916836760075366"><ele>727.0</ele><time>2026-04-19T09:18:52Z</time></trkpt><trkpt lat="38.1182343123691" lon="14.916767326850003"><ele>727.0</ele><time>2026-04-19T09:18:53Z</time></trkpt><trkpt lat="38.11827697479674" lon="14.916699234879422"><ele>727.0</ele><time>2026-04-19T09:18:54Z</time></trkpt><trkpt lat="38.118348846749164" lon="14.916585125413636"><ele>727.0</ele><time>2026-04-19T09:18:56Z</time></trkpt><trkpt lat="38.11840384063863" lon="14.916528665669334"><ele>728.6</ele><time>2026-04-19T09:18:58Z</time></trkpt><trkpt lat="38.118465152090884" lon="14.916577999365133"><ele>730.2</ele><time>2026-04-19T09:19:00Z</time></trkpt><trkpt lat="38.11856442375798" lon="14.91668393154576"><ele>731.8</ele><time>2026-04-19T09:19:02Z</time></trkpt><trkpt lat="38.11861719002665" lon="14.916733811630193"><ele>733.4</ele><time>2026-04-19T09:19:03Z</time></trkpt><trkpt lat="38.11871481582752" lon="14.916782352827848"><ele>735.0</ele><time>2026-04-19T09:19:05Z</time></trkpt><trkpt lat="38.118819373500145" lon="14.916788822093901"><ele>731.4</ele><time>2026-04-19T09:19:07Z</time></trkpt><trkpt lat="38.118953486265774" lon="14.916774287789792"><ele>727.8</ele><time>2026-04-19T09:19:09Z</time></trkpt><trkpt lat="38.1190193490544" lon="14.91677547020448"><ele>724.2</ele><time>2026-04-19T09:19:10Z</time></trkpt><trkpt lat="38.1191223775341" lon="14.916741508138866"><ele>720.6</ele><time>2026-04-19T09:19:12Z</time></trkpt><trkpt lat="38.119226671212616" lon="14.916686713305378"><ele>717.0</ele><time>2026-04-19T09:19:14Z</time></trkpt><trkpt lat="38.119288730530194" lon="14.916650567386581"><ele>717.0</ele><time>2026-04-19T09:19:15Z</time></trkpt><trkpt lat="38.11939743985723" lon="14.916573468623639"><ele>717.0</ele><time>2026-04-19T09:19:17Z</time></trkpt><trkpt lat="38.11944823285653" lon="14.916521385406284"><ele>717.0</ele><time>2026-04-19T09:19:18Z</time></trkpt><trkpt lat="38.119506549890076" lon="14.916476744363877"><ele>717.0</ele><time>2026-04-19T09:19:19Z</time></trkpt><trkpt lat="38.119565644279206" lon="14.916434243796001"><ele>717.0</ele><time>2026-04-19T09:19:20Z</time></trkpt><trkpt lat="38.119621778401566" lon="14.916394950129591"><ele>717.0</ele><time>2026-04-19T09:19:21Z</time></trkpt><trkpt lat="38.119723534596595" lon="14.916322400096943"><ele>717.0</ele><time>2026-04-19T09:19:23Z</time></trkpt><trkpt lat="38.11980766866457" lon="14.916268805318044"><ele>717.0</ele><time>2026-04-19T09:19:25Z</time></trkpt><trkpt lat="38.119909203374284" lon="14.916274271816189"><ele>717.0</ele><time>2026-04-19T09:19:27Z</time></trkpt><trkpt lat="38.11997400970335" lon="14.91628280859783"><ele>717.0</ele><time>2026-04-19T09:19:28Z</time></trkpt><trkpt lat="38.12004384287494" lon="14.916286806472447"><ele>717.0</ele><time>2026-04-19T09:19:29Z</time></trkpt><trkpt lat="38.12010926323597" lon="14.916294841366494"><ele>717.0</ele><time>2026-04-19T09:19:30Z</time></trkpt><trkpt lat="38.120223307344844" lon="14.91631436647188"><ele>710.25</ele><time>2026-04-19T09:19:31.999Z</time></trkpt><trkpt lat="38.12032081836158" lon="14.91631348545283"><ele>703.5</ele><time>2026-04-19T09:19:33.999Z</time></trkpt><trkpt lat="38.120432567808805" lon="14.916315778884398"><ele>696.75</ele><time>2026-04-19T09:19:35.999Z</time></trkpt><trkpt lat="38.1205592758641" lon="14.91634043158539"><ele>690.0</ele><time>2026-04-19T09:19:37.999Z</time></trkpt><trkpt lat="38.120671712600014" lon="14.916355502793763"><ele>689.0</ele><time>2026-04-19T09:19:39.999Z</time></trkpt><trkpt lat="38.12077040372616" lon="14.916329157488436"><ele>688.0</ele><time>2026-04-19T09:19:41.999Z</time></trkpt><trkpt lat="38.12087674195087" lon="14.916260339661335"><ele>687.0</ele><time>2026-04-19T09:19:43.999Z</time></trkpt><trkpt lat="38.120947168557066" lon="14.916228046346289"><ele>686.0</ele><time>2026-04-19T09:19:45.999Z</time></trkpt><trkpt lat="38.121013744933315" lon="14.916250334872926"><ele>685.0</ele><time>2026-04-19T09:19:47.999Z</time></trkpt><trkpt lat="38.12106666272361" lon="14.916301588793687"><ele>684.0</ele><time>2026-04-19T09:19:48.999Z</time></trkpt><trkpt lat="38.12113139130503" lon="14.916418156459246"><ele>684.0</ele><time>2026-04-19T09:19:50.999Z</time></trkpt><trkpt lat="38.12123455315147" lon="14.916486564618996"><ele>684.0</ele><time>2026-04-19T09:19:52.999Z</time></trkpt><trkpt lat="38.12129917052001" lon="14.916495096779304"><ele>684.0</ele><time>2026-04-19T09:19:53.999Z</time></trkpt><trkpt lat="38.121368385718014" lon="14.916500832740216"><ele>684.0</ele><time>2026-04-19T09:19:54.999Z</time></trkpt><trkpt lat="38.121429524739185" lon="14.916539617473768"><ele>684.0</ele><time>2026-04-19T09:19:55.999Z</time></trkpt><trkpt lat="38.12147468481209" lon="14.916610129663717"><ele>684.0</ele><time>2026-04-19T09:19:56.999Z</time></trkpt><trkpt lat="38.121504128053054" lon="14.916705742185005"><ele>682.7142857142857</ele><time>2026-04-19T09:19:57.999Z</time></trkpt><trkpt lat="38.121521291382635" lon="14.916802644205866"><ele>681.4285714285714</ele><time>2026-04-19T09:19:58.999Z</time></trkpt><trkpt lat="38.12154829142779" lon="14.916886945901819"><ele>680.1428571428571</ele><time>2026-04-19T09:19:59.999Z</time></trkpt><trkpt lat="38.121592041805094" lon="14.916960722583402"><ele>678.8571428571429</ele><time>2026-04-19T09:20:00.999Z</time></trkpt><trkpt lat="38.121641082736296" lon="14.917011665165901"><ele>677.5714285714286</ele><time>2026-04-19T09:20:01.999Z</time></trkpt><trkpt lat="38.121699549623436" lon="14.917053246669443"><ele>676.2857142857142</ele><time>2026-04-19T09:20:02.999Z</time></trkpt><trkpt lat="38.12176579867573" lon="14.917101829327802"><ele>675.0</ele><time>2026-04-19T09:20:03.999Z</time></trkpt><trkpt lat="38.121823165749184" lon="14.91716426944331"><ele>675.0</ele><time>2026-04-19T09:20:04.999Z</time></trkpt><trkpt lat="38.12185853417922" lon="14.917239495011616"><ele>675.0</ele><time>2026-04-19T09:20:05.999Z</time></trkpt><trkpt lat="38.12187501765968" lon="14.917339381572793"><ele>675.0</ele><time>2026-04-19T09:20:06.999Z</time></trkpt><trkpt lat="38.121888167763174" lon="14.917440188852122"><ele>675.0</ele><time>2026-04-19T09:20:07.999Z</time></trkpt><trkpt lat="38.12191698374956" lon="14.91752054591295"><ele>675.0</ele><time>2026-04-19T09:20:08.999Z</time></trkpt><trkpt lat="38.12196527046076" lon="14.917589530749586"><ele>675.0</ele><time>2026-04-19T09:20:09.999Z</time></trkpt><trkpt lat="38.122016025452645" lon="14.917643324599718"><ele>675.0</ele><time>2026-04-19T09:20:10.999Z</time></trkpt><trkpt lat="38.122076597799136" lon="14.91768588100965"><ele>672.8333333333334</ele><time>2026-04-19T09:20:11.999Z</time></trkpt><trkpt lat="38.12213684778181" lon="14.917709183263533"><ele>670.6666666666666</ele><time>2026-04-19T09:20:13.001Z</time></trkpt><trkpt lat="38.12225889320921" lon="14.917736584803986"><ele>668.5</ele><time>2026-04-19T09:20:15.001Z</time></trkpt><trkpt lat="38.12233248565611" lon="14.91775378086386"><ele>666.3333333333333</ele><time>2026-04-19T09:20:16.001Z</time></trkpt><trkpt lat="38.12241566560551" lon="14.917778386116263"><ele>664.1666666666666</ele><time>2026-04-19T09:20:17.001Z</time></trkpt><trkpt lat="38.12250039764852" lon="14.91780946853346"><ele>662.0</ele><time>2026-04-19T09:20:18.001Z</time></trkpt><trkpt lat="38.12258483654896" lon="14.917829605793385"><ele>662.0</ele><time>2026-04-19T09:20:19.001Z</time></trkpt><trkpt lat="38.122669133189675" lon="14.91782942565704"><ele>662.0</ele><time>2026-04-19T09:20:20.001Z</time></trkpt><trkpt lat="38.12274880193625" lon="14.917823069428318"><ele>662.0</ele><time>2026-04-19T09:20:21.001Z</time></trkpt><trkpt lat="38.12283132974655" lon="14.917827832721217"><ele>662.0</ele><time>2026-04-19T09:20:22.001Z</time></trkpt><trkpt lat="38.12291379739406" lon="14.917847234266988"><ele>662.0</ele><time>2026-04-19T09:20:23.001Z</time></trkpt><trkpt lat="38.12299907025129" lon="14.91786893471381"><ele>662.0</ele><time>2026-04-19T09:20:24.001Z</time></trkpt><trkpt lat="38.12307754158969" lon="14.917873514197893"><ele>662.0</ele><time>2026-04-19T09:20:25.001Z</time></trkpt><trkpt lat="38.12315696748449" lon="14.917879201905833"><ele>662.0</ele><time>2026-04-19T09:20:26.001Z</time></trkpt><trkpt lat="38.12324499078936" lon="14.917891883630592"><ele>662.0</ele><time>2026-04-19T09:20:27.001Z</time></trkpt><trkpt lat="38.12333704294414" lon="14.917905278058834"><ele>662.0</ele><time>2026-04-19T09:20:28.001Z</time></trkpt><trkpt lat="38.12343109093132" lon="14.917906287232293"><ele>662.0</ele><time>2026-04-19T09:20:29.001Z</time></trkpt><trkpt lat="38.12353176032103" lon="14.917900411755861"><ele>662.1666666666666</ele><time>2026-04-19T09:20:30.001Z</time></trkpt><trkpt lat="38.123633679957194" lon="14.917889233630973"><ele>662.3333333333333</ele><time>2026-04-19T09:20:31.001Z</time></trkpt><trkpt lat="38.12372937657443" lon="14.917879296110682"><ele>662.5</ele><time>2026-04-19T09:20:32.001Z</time></trkpt><trkpt lat="38.1238160539169" lon="14.917865254637361"><ele>662.6666666666666</ele><time>2026-04-19T09:20:33.001Z</time></trkpt><trkpt lat="38.12389773672557" lon="14.917854193171515"><ele>662.8333333333334</ele><time>2026-04-19T09:20:34.001Z</time></trkpt><trkpt lat="38.12397786898016" lon="14.917857786552643"><ele>663.0</ele><time>2026-04-19T09:20:35.001Z</time></trkpt><trkpt lat="38.12406074580187" lon="14.917879973476845"><ele>663.4</ele><time>2026-04-19T09:20:36.001Z</time></trkpt><trkpt lat="38.124148641983474" lon="14.917923541847282"><ele>663.8</ele><time>2026-04-19T09:20:37Z</time></trkpt><trkpt lat="38.12423739976884" lon="14.917969550350112"><ele>664.2</ele><time>2026-04-19T09:20:38Z</time></trkpt><trkpt lat="38.124332421265336" lon="14.917992407150225"><ele>664.6</ele><time>2026-04-19T09:20:39Z</time></trkpt><trkpt lat="38.12443178768974" lon="14.918001916184748"><ele>665.0</ele><time>2026-04-19T09:20:40Z</time></trkpt><trkpt lat="38.12451964284023" lon="14.918013490302366"><ele>665.0</ele><time>2026-04-19T09:20:41Z</time></trkpt><trkpt lat="38.12463856486791" lon="14.918082002078195"><ele>665.0</ele><time>2026-04-19T09:20:43Z</time></trkpt><trkpt lat="38.12467791219576" lon="14.918227584667573"><ele>665.0</ele><time>2026-04-19T09:20:45Z</time></trkpt><trkpt lat="38.124693243161865" lon="14.918339546724221"><ele>665.0</ele><time>2026-04-19T09:20:46Z</time></trkpt><trkpt lat="38.1247200431819" lon="14.918442918722365"><ele>665.0</ele><time>2026-04-19T09:20:47Z</time></trkpt><trkpt lat="38.12474502741839" lon="14.918548914507776"><ele>659.8</ele><time>2026-04-19T09:20:48Z</time></trkpt><trkpt lat="38.12476574427927" lon="14.918654618198236"><ele>654.6</ele><time>2026-04-19T09:20:49Z</time></trkpt><trkpt lat="38.12477930861625" lon="14.918770755512645"><ele>649.4</ele><time>2026-04-19T09:20:50Z</time></trkpt><trkpt lat="38.12477890953393" lon="14.918895247204983"><ele>644.2</ele><time>2026-04-19T09:20:51Z</time></trkpt><trkpt lat="38.124779481189705" lon="14.919019588938006"><ele>639.0</ele><time>2026-04-19T09:20:52Z</time></trkpt><trkpt lat="38.12479059497019" lon="14.919140295103606"><ele>640.4</ele><time>2026-04-19T09:20:53Z</time></trkpt><trkpt lat="38.12480492523955" lon="14.919253670767416"><ele>641.8</ele><time>2026-04-19T09:20:54Z</time></trkpt><trkpt lat="38.12482446601276" lon="14.919363936450948"><ele>643.1999999999999</ele><time>2026-04-19T09:20:55Z</time></trkpt><trkpt lat="38.124854131085854" lon="14.919471190284952"><ele>644.5999999999999</ele><time>2026-04-19T09:20:56Z</time></trkpt><trkpt lat="38.12490310056951" lon="14.919570779475446"><ele>646.0</ele><time>2026-04-19T09:20:57Z</time></trkpt><trkpt lat="38.12495520076046" lon="14.919668103159099"><ele>646.0</ele><time>2026-04-19T09:20:58Z</time></trkpt><trkpt lat="38.125004307535164" lon="14.919765801574659"><ele>646.0</ele><time>2026-04-19T09:20:59Z</time></trkpt><trkpt lat="38.125044904660996" lon="14.919869501888664"><ele>646.0</ele><time>2026-04-19T09:21:00Z</time></trkpt><trkpt lat="38.12506816843212" lon="14.919983522559308"><ele>646.0</ele><time>2026-04-19T09:21:01Z</time></trkpt><trkpt lat="38.12507991036666" lon="14.920094332154912"><ele>646.0</ele><time>2026-04-19T09:21:02Z</time></trkpt><trkpt lat="38.125098022298054" lon="14.920199473771591"><ele>646.0</ele><time>2026-04-19T09:21:03Z</time></trkpt><trkpt lat="38.125121412437665" lon="14.92030658192174"><ele>642.5999999999999</ele><time>2026-04-19T09:21:04Z</time></trkpt><trkpt lat="38.125146282290345" lon="14.920394284348315"><ele>639.1999999999999</ele><time>2026-04-19T09:21:05Z</time></trkpt><trkpt lat="38.12517760214114" lon="14.920499539332905"><ele>635.8</ele><time>2026-04-19T09:21:07Z</time></trkpt><trkpt lat="38.12525943982565" lon="14.920489947656831"><ele>632.4</ele><time>2026-04-19T09:21:10Z</time></trkpt><trkpt lat="38.125342106447285" lon="14.920401984615106"><ele>629.0</ele><time>2026-04-19T09:21:12Z</time></trkpt><trkpt lat="38.12543415603499" lon="14.920317620152332"><ele>629.0</ele><time>2026-04-19T09:21:14Z</time></trkpt><trkpt lat="38.12548820868823" lon="14.920247501222951"><ele>629.0</ele><time>2026-04-19T09:21:16Z</time></trkpt><trkpt lat="38.12553203381107" lon="14.920178677741914"><ele>629.0</ele><time>2026-04-19T09:21:59.999Z</time></trkpt><trkpt lat="38.1254619849944" lon="14.920157430639915"><ele>629.0</ele><time>2026-04-19T09:22:09.999Z</time></trkpt><trkpt lat="38.12539108122804" lon="14.920160662317441"><ele>629.0</ele><time>2026-04-19T09:22:19.001Z</time></trkpt><trkpt lat="38.125327443345746" lon="14.920175965382795"><ele>629.0</ele><time>2026-04-19T09:22:21.001Z</time></trkpt><trkpt lat="38.12528549426261" lon="14.92006881494496"><ele>629.0</ele><time>2026-04-19T09:22:24.001Z</time></trkpt><trkpt lat="38.12530515020973" lon="14.919970142592078"><ele>631.4285714285714</ele><time>2026-04-19T09:22:27.001Z</time></trkpt><trkpt lat="38.125310237125426" lon="14.91987947437114"><ele>633.8571428571429</ele><time>2026-04-19T09:22:30.001Z</time></trkpt><trkpt lat="38.1253484013426" lon="14.919805228549185"><ele>636.2857142857143</ele><time>2026-04-19T09:22:32.001Z</time></trkpt><trkpt lat="38.1253942414984" lon="14.919724942799647"><ele>638.7142857142858</ele><time>2026-04-19T09:22:34.001Z</time></trkpt><trkpt lat="38.12534366632875" lon="14.919660650922781"><ele>641.1428571428571</ele><time>2026-04-19T09:22:38.001Z</time></trkpt><trkpt lat="38.12528557941028" lon="14.919590840781929"><ele>643.5714285714287</ele><time>2026-04-19T09:22:42Z</time></trkpt><trkpt lat="38.12534662680611" lon="14.919532801751588"><ele>646.0</ele><time>2026-04-19T09:22:47Z</time></trkpt><trkpt lat="38.125404159232026" lon="14.919457475388212"><ele>646.0000000000001</ele><time>2026-04-19T09:22:55Z</time></trkpt><trkpt lat="38.12545616603816" lon="14.919389923066602"><ele>646.0</ele><time>2026-04-19T09:22:58Z</time></trkpt><trkpt lat="38.1255015568981" lon="14.919331132796735"><ele>646.0</ele><time>2026-04-19T09:23:02Z</time></trkpt><trkpt lat="38.125460900410665" lon="14.91925699591407"><ele>646.0</ele><time>2026-04-19T09:24:01.999Z</time></trkpt><trkpt lat="38.125444324308994" lon="14.919179073651156"><ele>646.0</ele><time>2026-04-19T09:24:15.999Z</time></trkpt><trkpt lat="38.12544613596821" lon="14.91909139619569"><ele>646.0000000000001</ele><time>2026-04-19T09:24:32.001Z</time></trkpt><trkpt lat="38.12550170287507" lon="14.919036530687256"><ele>646.0</ele><time>2026-04-19T09:24:38.001Z</time></trkpt><trkpt lat="38.12549920701189" lon="14.91895081746753"><ele>649.4285714285714</ele><time>2026-04-19T09:25:38.999Z</time></trkpt><trkpt lat="38.125511315840114" lon="14.918863562503505"><ele>652.8571428571429</ele><time>2026-04-19T09:25:43.999Z</time></trkpt><trkpt lat="38.12552376985121" lon="14.91878033898221"><ele>656.2857142857142</ele><time>2026-04-19T09:25:47.999Z</time></trkpt><trkpt lat="38.125519289404295" lon="14.918696011921773"><ele>659.7142857142858</ele><time>2026-04-19T09:25:54.999Z</time></trkpt><trkpt lat="38.125484780323205" lon="14.918617845389951"><ele>663.1428571428571</ele><time>2026-04-19T09:25:58.999Z</time></trkpt><trkpt lat="38.1254856538093" lon="14.918527403608152"><ele>666.5714285714286</ele><time>2026-04-19T09:26:04.999Z</time></trkpt><trkpt lat="38.12551235396344" lon="14.918423820615768"><ele>670.0</ele><time>2026-04-19T09:26:07.999Z</time></trkpt><trkpt lat="38.12553134696346" lon="14.9183337700522"><ele>673.3333333333334</ele><time>2026-04-19T09:26:10.999Z</time></trkpt><trkpt lat="38.12555995293017" lon="14.91825016507252"><ele>676.6666666666667</ele><time>2026-04-19T09:26:13.999Z</time></trkpt><trkpt lat="38.12557736493126" lon="14.91815592515353"><ele>680.0</ele><time>2026-04-19T09:26:16.999Z</time></trkpt><trkpt lat="38.12559948414537" lon="14.918079266025357"><ele>683.3333333333334</ele><time>2026-04-19T09:26:18.999Z</time></trkpt><trkpt lat="38.12562346293071" lon="14.917948150872258"><ele>686.6666666666666</ele><time>2026-04-19T09:29:15Z</time></trkpt><trkpt lat="38.12560188725232" lon="14.91783920987992"><ele>690.0</ele><time>2026-04-19T09:30:56Z</time></trkpt><trkpt lat="38.125589943064405" lon="14.917749927100965"><ele>690.0</ele><time>2026-04-19T09:30:57Z</time></trkpt><trkpt lat="38.125588108205534" lon="14.91763369331652"><ele>690.0</ele><time>2026-04-19T09:30:58Z</time></trkpt><trkpt lat="38.12558345366781" lon="14.917516277761598"><ele>690.0</ele><time>2026-04-19T09:30:59Z</time></trkpt><trkpt lat="38.12559079677135" lon="14.917433824261025"><ele>690.0</ele><time>2026-04-19T09:31:00Z</time></trkpt><trkpt lat="38.125596130142014" lon="14.917350907069823"><ele>690.0</ele><time>2026-04-19T09:31:01Z</time></trkpt><trkpt lat="38.125596180597185" lon="14.9171787359954"><ele>694.8</ele><time>2026-04-19T09:31:03Z</time></trkpt><trkpt lat="38.125585624522344" lon="14.917059311165623"><ele>699.6</ele><time>2026-04-19T09:31:04Z</time></trkpt><trkpt lat="38.12556425065429" lon="14.916922916501903"><ele>704.4000000000001</ele><time>2026-04-19T09:31:05Z</time></trkpt><trkpt lat="38.12553957254827" lon="14.91679974522361"><ele>709.2</ele><time>2026-04-19T09:31:06Z</time></trkpt><trkpt lat="38.12552484103145" lon="14.916692180515192"><ele>714.0</ele><time>2026-04-19T09:31:07Z</time></trkpt><trkpt lat="38.12552141534411" lon="14.916603390833913"><ele>718.0</ele><time>2026-04-19T09:31:08Z</time></trkpt><trkpt lat="38.1255324738827" lon="14.916511517734163"><ele>722.0</ele><time>2026-04-19T09:31:09Z</time></trkpt><trkpt lat="38.12555910915541" lon="14.916408609649713"><ele>726.0</ele><time>2026-04-19T09:31:10Z</time></trkpt><trkpt lat="38.12560398879836" lon="14.916301286472171"><ele>730.0</ele><time>2026-04-19T09:31:11Z</time></trkpt><trkpt lat="38.12566629789145" lon="14.916195669584432"><ele>734.0</ele><time>2026-04-19T09:31:12Z</time></trkpt><trkpt lat="38.12574333536707" lon="14.916091296145948"><ele>734.3333333333333</ele><time>2026-04-19T09:31:13Z</time></trkpt><trkpt lat="38.12582666082409" lon="14.915994472164805"><ele>734.6666666666666</ele><time>2026-04-19T09:31:14Z</time></trkpt><trkpt lat="38.125900433766255" lon="14.915915784267241"><ele>735.0</ele><time>2026-04-19T09:31:15Z</time></trkpt><trkpt lat="38.12595398636987" lon="14.915859685891073"><ele>735.3333333333334</ele><time>2026-04-19T09:31:16Z</time></trkpt><trkpt lat="38.12601114249175" lon="14.915815004329707"><ele>735.6666666666667</ele><time>2026-04-19T09:31:18Z</time></trkpt><trkpt lat="38.12591097873795" lon="14.915805329653852"><ele>736.0</ele><time>2026-04-19T09:31:22Z</time></trkpt><trkpt lat="38.12584416236411" lon="14.915853492115883"><ele>735.5999999999999</ele><time>2026-04-19T09:31:23Z</time></trkpt><trkpt lat="38.12576294370739" lon="14.915893553868326"><ele>735.2</ele><time>2026-04-19T09:31:24Z</time></trkpt><trkpt lat="38.125660884039085" lon="14.915931865722651"><ele>734.8</ele><time>2026-04-19T09:31:25Z</time></trkpt><trkpt lat="38.125545984697155" lon="14.915948848418322"><ele>734.4000000000001</ele><time>2026-04-19T09:31:26Z</time></trkpt><trkpt lat="38.12542859999229" lon="14.915941724423325"><ele>734.0</ele><time>2026-04-19T09:31:27Z</time></trkpt><trkpt lat="38.12531287460515" lon="14.915938380068175"><ele>734.0</ele><time>2026-04-19T09:31:28Z</time></trkpt><trkpt lat="38.12519380068924" lon="14.915953714460068"><ele>734.0</ele><time>2026-04-19T09:31:29Z</time></trkpt><trkpt lat="38.125066152599416" lon="14.915984205112293"><ele>734.0</ele><time>2026-04-19T09:31:30Z</time></trkpt><trkpt lat="38.12495314579334" lon="14.916013212107842"><ele>734.0</ele><time>2026-04-19T09:31:31Z</time></trkpt><trkpt lat="38.12486995178527" lon="14.916031883010946"><ele>734.0</ele><time>2026-04-19T09:31:32Z</time></trkpt><trkpt lat="38.12480273969606" lon="14.916041838618225"><ele>733.4000000000001</ele><time>2026-04-19T09:31:33Z</time></trkpt><trkpt lat="38.12466212133078" lon="14.916036408821842"><ele>732.8</ele><time>2026-04-19T09:31:35Z</time></trkpt><trkpt lat="38.12457307738604" lon="14.916021117228327"><ele>732.2</ele><time>2026-04-19T09:31:36Z</time></trkpt><trkpt lat="38.12447428091098" lon="14.915989144035041"><ele>731.5999999999999</ele><time>2026-04-19T09:31:37Z</time></trkpt><trkpt lat="38.12436970097828" lon="14.915961563224798"><ele>731.0</ele><time>2026-04-19T09:31:38Z</time></trkpt><trkpt lat="38.12426204285455" lon="14.915931824896209"><ele>734.8</ele><time>2026-04-19T09:31:39Z</time></trkpt><trkpt lat="38.1241566585506" lon="14.915893865913326"><ele>738.5999999999999</ele><time>2026-04-19T09:31:40Z</time></trkpt><trkpt lat="38.124056022126126" lon="14.915861296756443"><ele>742.4</ele><time>2026-04-19T09:31:41Z</time></trkpt><trkpt lat="38.12394408273362" lon="14.915831242171887"><ele>746.2</ele><time>2026-04-19T09:31:42Z</time></trkpt><trkpt lat="38.12382893545495" lon="14.915797121105177"><ele>750.0</ele><time>2026-04-19T09:31:43Z</time></trkpt><trkpt lat="38.123718681798564" lon="14.91576560817527"><ele>753.0</ele><time>2026-04-19T09:31:44Z</time></trkpt><trkpt lat="38.12359653640699" lon="14.915746461854107"><ele>756.0</ele><time>2026-04-19T09:31:44.999Z</time></trkpt><trkpt lat="38.12347295350812" lon="14.915739415020886"><ele>759.0</ele><time>2026-04-19T09:31:45.999Z</time></trkpt><trkpt lat="38.12335414001917" lon="14.915720187006174"><ele>762.0</ele><time>2026-04-19T09:31:46.999Z</time></trkpt><trkpt lat="38.12323519630147" lon="14.915672009896435"><ele>763.25</ele><time>2026-04-19T09:31:47.999Z</time></trkpt><trkpt lat="38.123125070384816" lon="14.915604650058455"><ele>764.5</ele><time>2026-04-19T09:31:48.999Z</time></trkpt><trkpt lat="38.123004615705064" lon="14.915543647883712"><ele>765.75</ele><time>2026-04-19T09:31:49.999Z</time></trkpt><trkpt lat="38.12287645174949" lon="14.915491944315797"><ele>767.0</ele><time>2026-04-19T09:31:50.999Z</time></trkpt><trkpt lat="38.12273786904148" lon="14.915438664415445"><ele>767.0</ele><time>2026-04-19T09:31:51.999Z</time></trkpt><trkpt lat="38.12259647825066" lon="14.915369166503774"><ele>767.0</ele><time>2026-04-19T09:31:52.999Z</time></trkpt><trkpt lat="38.12246537927089" lon="14.915280180711004"><ele>767.0</ele><time>2026-04-19T09:31:53.999Z</time></trkpt><trkpt lat="38.122339759770846" lon="14.915178396051287"><ele>767.0</ele><time>2026-04-19T09:31:54.999Z</time></trkpt><trkpt lat="38.12221306860284" lon="14.915083410726494"><ele>769.0</ele><time>2026-04-19T09:31:55.999Z</time></trkpt><trkpt lat="38.122082150172574" lon="14.915003332722037"><ele>771.0</ele><time>2026-04-19T09:31:56.999Z</time></trkpt><trkpt lat="38.121950459652915" lon="14.914926348535982"><ele>773.0</ele><time>2026-04-19T09:31:57.999Z</time></trkpt><trkpt lat="38.121826845601724" lon="14.914852563567603"><ele>775.0</ele><time>2026-04-19T09:31:58.999Z</time></trkpt><trkpt lat="38.12172104218478" lon="14.914785767989013"><ele>775.0</ele><time>2026-04-19T09:31:59.999Z</time></trkpt><trkpt lat="38.121625300937446" lon="14.91471978389934"><ele>775.0</ele><time>2026-04-19T09:32:00.999Z</time></trkpt><trkpt lat="38.121529341694306" lon="14.914653689128581"><ele>775.0</ele><time>2026-04-19T09:32:01.999Z</time></trkpt><trkpt lat="38.121431929472514" lon="14.914594068774685"><ele>775.0</ele><time>2026-04-19T09:32:02.999Z</time></trkpt><trkpt lat="38.121355913000386" lon="14.914520068224501"><ele>775.0</ele><time>2026-04-19T09:32:03.999Z</time></trkpt><trkpt lat="38.121255511237365" lon="14.914514160071036"><ele>774.6666666666666</ele><time>2026-04-19T09:32:04.999Z</time></trkpt><trkpt lat="38.12118113121455" lon="14.914492937740254"><ele>774.3333333333333</ele><time>2026-04-19T09:32:05.999Z</time></trkpt><trkpt lat="38.12111393341633" lon="14.914483276657228"><ele>774.0</ele><time>2026-04-19T09:32:06.999Z</time></trkpt><trkpt lat="38.12103937252255" lon="14.914469808830258"><ele>773.6666666666667</ele><time>2026-04-19T09:32:07.999Z</time></trkpt><trkpt lat="38.120960142853505" lon="14.914452338943866"><ele>773.3333333333334</ele><time>2026-04-19T09:32:08.999Z</time></trkpt><trkpt lat="38.12088495588155" lon="14.91442751881774"><ele>773.0</ele><time>2026-04-19T09:32:09.999Z</time></trkpt><trkpt lat="38.120813335007185" lon="14.914396007869298"><ele>773.0</ele><time>2026-04-19T09:32:10.999Z</time></trkpt><trkpt lat="38.12074237548988" lon="14.914362981632435"><ele>773.0</ele><time>2026-04-19T09:32:11.999Z</time></trkpt><trkpt lat="38.12068033728982" lon="14.914320522596816"><ele>773.0</ele><time>2026-04-19T09:32:12.999Z</time></trkpt><trkpt lat="38.120583404810475" lon="14.91423804046316"><ele>773.0</ele><time>2026-04-19T09:32:14.999Z</time></trkpt><trkpt lat="38.120459537357874" lon="14.914206789235502"><ele>773.0</ele><time>2026-04-19T09:32:16.999Z</time></trkpt><trkpt lat="38.120377648232314" lon="14.914172593571475"><ele>778.5000000000001</ele><time>2026-04-19T09:32:17.999Z</time></trkpt><trkpt lat="38.12029748504893" lon="14.914132377848015"><ele>784.0</ele><time>2026-04-19T09:32:18.999Z</time></trkpt><trkpt lat="38.120214265123906" lon="14.914088009764358"><ele>789.5</ele><time>2026-04-19T09:32:19.999Z</time></trkpt><trkpt lat="38.120137660939456" lon="14.914045534494763"><ele>795.0</ele><time>2026-04-19T09:32:20.999Z</time></trkpt><trkpt lat="38.12006107608876" lon="14.913996656291816"><ele>800.5000000000001</ele><time>2026-04-19T09:32:21.999Z</time></trkpt><trkpt lat="38.11998065910837" lon="14.913954140710564"><ele>806.0</ele><time>2026-04-19T09:32:22.999Z</time></trkpt><trkpt lat="38.11989995585346" lon="14.913931769325671"><ele>807.5000000000001</ele><time>2026-04-19T09:32:23.999Z</time></trkpt><trkpt lat="38.119828614184485" lon="14.913925576876633"><ele>809.0</ele><time>2026-04-19T09:32:24.999Z</time></trkpt><trkpt lat="38.11975241308496" lon="14.913944037220437"><ele>810.5</ele><time>2026-04-19T09:32:25.999Z</time></trkpt><trkpt lat="38.119672312541006" lon="14.913982856986932"><ele>812.0</ele><time>2026-04-19T09:32:26.999Z</time></trkpt><trkpt lat="38.119597403385356" lon="14.91402532896038"><ele>813.5000000000001</ele><time>2026-04-19T09:32:27.999Z</time></trkpt><trkpt lat="38.1195343835561" lon="14.914081372896318"><ele>815.0</ele><time>2026-04-19T09:32:28.999Z</time></trkpt><trkpt lat="38.11947422662957" lon="14.914141546513452"><ele>815.0000000000001</ele><time>2026-04-19T09:32:29.999Z</time></trkpt><trkpt lat="38.11941269030055" lon="14.914192567256475"><ele>815.0</ele><time>2026-04-19T09:32:30.999Z</time></trkpt><trkpt lat="38.119344717617246" lon="14.9142145605156"><ele>815.0</ele><time>2026-04-19T09:32:31.999Z</time></trkpt><trkpt lat="38.11926815814305" lon="14.914195436386713"><ele>815.0</ele><time>2026-04-19T09:32:32.999Z</time></trkpt><trkpt lat="38.11918254300455" lon="14.914170814325743"><ele>815.0000000000001</ele><time>2026-04-19T09:32:33.999Z</time></trkpt><trkpt lat="38.11908516717062" lon="14.914173433324518"><ele>815.0</ele><time>2026-04-19T09:32:34.999Z</time></trkpt><trkpt lat="38.11898844807731" lon="14.914190363011302"><ele>814.4</ele><time>2026-04-19T09:32:35.999Z</time></trkpt><trkpt lat="38.11890494885064" lon="14.914191145573175"><ele>813.8</ele><time>2026-04-19T09:32:36.999Z</time></trkpt><trkpt lat="38.11881750303261" lon="14.914165688450218"><ele>813.2</ele><time>2026-04-19T09:32:37.999Z</time></trkpt><trkpt lat="38.11872033818784" lon="14.914136609659867"><ele>812.6</ele><time>2026-04-19T09:32:38.999Z</time></trkpt><trkpt lat="38.11861886998358" lon="14.914116178464432"><ele>812.0</ele><time>2026-04-19T09:32:39.998Z</time></trkpt><trkpt lat="38.11852637921596" lon="14.914125749107214"><ele>812.0</ele><time>2026-04-19T09:32:40.998Z</time></trkpt><trkpt lat="38.118443233366335" lon="14.914139371623534"><ele>812.0</ele><time>2026-04-19T09:32:41.998Z</time></trkpt><trkpt lat="38.11836366753249" lon="14.914173836004393"><ele>812.0</ele><time>2026-04-19T09:32:42.998Z</time></trkpt><trkpt lat="38.11828001112198" lon="14.914221111589773"><ele>812.0</ele><time>2026-04-19T09:32:43.998Z</time></trkpt><trkpt lat="38.11818522325464" lon="14.914265339118526"><ele>812.0</ele><time>2026-04-19T09:32:44.998Z</time></trkpt><trkpt lat="38.11808301978412" lon="14.914300748301262"><ele>813.0</ele><time>2026-04-19T09:32:45.998Z</time></trkpt><trkpt lat="38.11796413867152" lon="14.914338167158416"><ele>814.0</ele><time>2026-04-19T09:32:46.998Z</time></trkpt><trkpt lat="38.11784067148165" lon="14.91437600444871"><ele>815.0</ele><time>2026-04-19T09:32:47.998Z</time></trkpt><trkpt lat="38.11772783415442" lon="14.914400924853469"><ele>816.0</ele><time>2026-04-19T09:32:49Z</time></trkpt><trkpt lat="38.117619243851536" lon="14.914427916592661"><ele>816.0</ele><time>2026-04-19T09:32:50Z</time></trkpt><trkpt lat="38.1175123858845" lon="14.91446220937151"><ele>816.0</ele><time>2026-04-19T09:32:51Z</time></trkpt><trkpt lat="38.117418749813524" lon="14.914505210705066"><ele>816.0</ele><time>2026-04-19T09:32:52Z</time></trkpt><trkpt lat="38.117339096663926" lon="14.91454172807278"><ele>816.0</ele><time>2026-04-19T09:32:53Z</time></trkpt><trkpt lat="38.117275703436945" lon="14.914553678937787"><ele>816.0</ele><time>2026-04-19T09:32:54Z</time></trkpt><trkpt lat="38.11716350224005" lon="14.914535988820562"><ele>819.4</ele><time>2026-04-19T09:32:56Z</time></trkpt><trkpt lat="38.11704764765977" lon="14.914553050277918"><ele>822.8</ele><time>2026-04-19T09:32:58Z</time></trkpt><trkpt lat="38.11696463174239" lon="14.914548870419386"><ele>826.1999999999999</ele><time>2026-04-19T09:32:59Z</time></trkpt><trkpt lat="38.11687414773307" lon="14.914556954171069"><ele>829.5999999999999</ele><time>2026-04-19T09:33:00Z</time></trkpt><trkpt lat="38.11677618756033" lon="14.914570458460032"><ele>833.0</ele><time>2026-04-19T09:33:01Z</time></trkpt><trkpt lat="38.11667493632404" lon="14.914599286115132"><ele>833.0</ele><time>2026-04-19T09:33:02Z</time></trkpt><trkpt lat="38.11657605950753" lon="14.91462542847011"><ele>833.0</ele><time>2026-04-19T09:33:03Z</time></trkpt><trkpt lat="38.11647812296686" lon="14.914630155702389"><ele>833.0</ele><time>2026-04-19T09:33:04Z</time></trkpt><trkpt lat="38.116383105361805" lon="14.914616814550495"><ele>833.0</ele><time>2026-04-19T09:33:05Z</time></trkpt><trkpt lat="38.11628353649337" lon="14.91460285244486"><ele>833.0</ele><time>2026-04-19T09:33:06Z</time></trkpt><trkpt lat="38.116186195867655" lon="14.914612007219214"><ele>836.5999999999999</ele><time>2026-04-19T09:33:07Z</time></trkpt><trkpt lat="38.11608069078048" lon="14.914635134177566"><ele>840.1999999999999</ele><time>2026-04-19T09:33:08Z</time></trkpt><trkpt lat="38.11597067045733" lon="14.914650573235152"><ele>843.8</ele><time>2026-04-19T09:33:09Z</time></trkpt><trkpt lat="38.115854973684506" lon="14.914656772394169"><ele>847.4</ele><time>2026-04-19T09:33:10Z</time></trkpt><trkpt lat="38.11574065076936" lon="14.914662310223893"><ele>851.0</ele><time>2026-04-19T09:33:11Z</time></trkpt><trkpt lat="38.11564321287583" lon="14.914668992827881"><ele>853.8333333333334</ele><time>2026-04-19T09:33:12Z</time></trkpt><trkpt lat="38.11557737450795" lon="14.91468508219769"><ele>856.6666666666667</ele><time>2026-04-19T09:33:13Z</time></trkpt><trkpt lat="38.11548359106863" lon="14.914720447734714"><ele>859.5</ele><time>2026-04-19T09:33:15Z</time></trkpt><trkpt lat="38.115378819761894" lon="14.914734079977867"><ele>862.3333333333333</ele><time>2026-04-19T09:33:17Z</time></trkpt><trkpt lat="38.115316004958295" lon="14.914763700267725"><ele>865.1666666666666</ele><time>2026-04-19T09:33:18Z</time></trkpt><trkpt lat="38.11523969032992" lon="14.914793756999345"><ele>868.0</ele><time>2026-04-19T09:33:19Z</time></trkpt><trkpt lat="38.11515565176437" lon="14.914826226431085"><ele>868.0</ele><time>2026-04-19T09:33:20Z</time></trkpt><trkpt lat="38.1150862178534" lon="14.914856281475242"><ele>868.0</ele><time>2026-04-19T09:33:21Z</time></trkpt><trkpt lat="38.11501232897496" lon="14.91496007370122"><ele>868.0</ele><time>2026-04-19T09:33:23Z</time></trkpt><trkpt lat="38.11491660448565" lon="14.915059226922315"><ele>868.0</ele><time>2026-04-19T09:33:25Z</time></trkpt><trkpt lat="38.11483427169976" lon="14.915148705553438"><ele>868.0</ele><time>2026-04-19T09:33:27Z</time></trkpt><trkpt lat="38.11478276104837" lon="14.91520506826639"><ele>873.2</ele><time>2026-04-19T09:33:28Z</time></trkpt><trkpt lat="38.11472834703799" lon="14.915251577537333"><ele>878.4</ele><time>2026-04-19T09:33:29Z</time></trkpt><trkpt lat="38.114668351511085" lon="14.915325321845037"><ele>883.6000000000001</ele><time>2026-04-19T09:33:30Z</time></trkpt><trkpt lat="38.11457801796474" lon="14.915401087644348"><ele>888.8000000000001</ele><time>2026-04-19T09:33:35Z</time></trkpt><trkpt lat="38.11446749162044" lon="14.915461004008508"><ele>894.0</ele><time>2026-04-19T09:33:37Z</time></trkpt><trkpt lat="38.11438158122111" lon="14.915504207756646"><ele>894.0</ele><time>2026-04-19T09:33:39Z</time></trkpt><trkpt lat="38.11431352246992" lon="14.915483141806412"><ele>894.0</ele><time>2026-04-19T09:33:41Z</time></trkpt><trkpt lat="38.114239896081585" lon="14.915517828230564"><ele>894.0</ele><time>2026-04-19T09:33:44Z</time></trkpt><trkpt lat="38.114168234217196" lon="14.915550788775985"><ele>894.0</ele><time>2026-04-19T09:33:46Z</time></trkpt><trkpt lat="38.11411907407353" lon="14.91561732856526"><ele>894.0</ele><time>2026-04-19T09:33:49Z</time></trkpt><trkpt lat="38.11401188677808" lon="14.91567445013491"><ele>894.0</ele><time>2026-04-19T09:33:50.999Z</time></trkpt><trkpt lat="38.11392542220627" lon="14.915722585580625"><ele>898.1666666666666</ele><time>2026-04-19T09:33:52.999Z</time></trkpt><trkpt lat="38.11386479938557" lon="14.91574591929036"><ele>902.3333333333333</ele><time>2026-04-19T09:33:54.999Z</time></trkpt><trkpt lat="38.11379944149371" lon="14.915793347144376"><ele>906.5</ele><time>2026-04-19T09:33:56.999Z</time></trkpt><trkpt lat="38.11370668761388" lon="14.915839313406401"><ele>910.6666666666666</ele><time>2026-04-19T09:33:58.999Z</time></trkpt><trkpt lat="38.113627912252205" lon="14.915861419041587"><ele>914.8333333333333</ele><time>2026-04-19T09:34:00.999Z</time></trkpt><trkpt lat="38.11355638969687" lon="14.915864682155359"><ele>919.0</ele><time>2026-04-19T09:34:11.999Z</time></trkpt><trkpt lat="38.1134984872222" lon="14.915914992785744"><ele>920.0</ele><time>2026-04-19T09:34:37.999Z</time></trkpt><trkpt lat="38.113439667956946" lon="14.915949025675124"><ele>921.0000000000001</ele><time>2026-04-19T09:34:41.999Z</time></trkpt><trkpt lat="38.11336691499532" lon="14.91598417336489"><ele>922.0000000000001</ele><time>2026-04-19T09:34:46.998Z</time></trkpt><trkpt lat="38.113197770466606" lon="14.916078334035744"><ele>923.0</ele><time>2026-04-19T09:35:14Z</time></trkpt><trkpt lat="38.113119374366605" lon="14.916104725094831"><ele>924.0</ele><time>2026-04-19T09:35:34Z</time></trkpt><trkpt lat="38.11305152859864" lon="14.916115850834402"><ele>930.0</ele><time>2026-04-19T09:35:36Z</time></trkpt><trkpt lat="38.11295905189981" lon="14.916158218502655"><ele>936.0000000000001</ele><time>2026-04-19T09:35:38Z</time></trkpt><trkpt lat="38.112873913701634" lon="14.916202940853504"><ele>942.0000000000001</ele><time>2026-04-19T09:35:40Z</time></trkpt><trkpt lat="38.11275887641794" lon="14.9162401271574"><ele>948.0</ele><time>2026-04-19T09:35:42Z</time></trkpt><trkpt lat="38.112682059188955" lon="14.916198168350753"><ele>954.0</ele><time>2026-04-19T09:35:43Z</time></trkpt><trkpt lat="38.112606742887856" lon="14.91622158245633"><ele>954.0</ele><time>2026-04-19T09:35:44Z</time></trkpt><trkpt lat="38.11254024739733" lon="14.916239545115985"><ele>954.0</ele><time>2026-04-19T09:35:45Z</time></trkpt><trkpt lat="38.11244903103205" lon="14.916284962767227"><ele>954.0</ele><time>2026-04-19T09:35:47Z</time></trkpt><trkpt lat="38.11237552785152" lon="14.916281248876894"><ele>954.0</ele><time>2026-04-19T09:35:49Z</time></trkpt><trkpt lat="38.11228022239712" lon="14.916304209367128"><ele>954.0</ele><time>2026-04-19T09:35:51Z</time></trkpt><trkpt lat="38.11219036842461" lon="14.91632212391489"><ele>954.0</ele><time>2026-04-19T09:35:53Z</time></trkpt><trkpt lat="38.11211142792093" lon="14.91636839870997"><ele>955.75</ele><time>2026-04-19T09:39:03.998Z</time></trkpt><trkpt lat="38.111984542064434" lon="14.916404022096359"><ele>957.5</ele><time>2026-04-19T09:39:06Z</time></trkpt><trkpt lat="38.11188843125317" lon="14.916412694926205"><ele>959.25</ele><time>2026-04-19T09:39:07Z</time></trkpt><trkpt lat="38.11174656409986" lon="14.916421329111113"><ele>961.0</ele><time>2026-04-19T09:39:08Z</time></trkpt><trkpt lat="38.111619264935" lon="14.916404465324936"><ele>961.8</ele><time>2026-04-19T09:39:09Z</time></trkpt><trkpt lat="38.11154860521645" lon="14.916419916094771"><ele>962.5999999999999</ele><time>2026-04-19T09:39:10Z</time></trkpt><trkpt lat="38.11147133526256" lon="14.916408926597892"><ele>963.4</ele><time>2026-04-19T09:39:11Z</time></trkpt><trkpt lat="38.111373937360675" lon="14.916437501549492"><ele>964.2</ele><time>2026-04-19T09:39:12Z</time></trkpt><trkpt lat="38.1112514521564" lon="14.916462872487523"><ele>965.0</ele><time>2026-04-19T09:39:13Z</time></trkpt><trkpt lat="38.111142581074624" lon="14.916473209114146"><ele>965.0</ele><time>2026-04-19T09:39:14Z</time></trkpt><trkpt lat="38.11106119481362" lon="14.916479019963775"><ele>965.0</ele><time>2026-04-19T09:39:15Z</time></trkpt><trkpt lat="38.110979631409464" lon="14.916479085672789"><ele>965.0</ele><time>2026-04-19T09:39:16Z</time></trkpt><trkpt lat="38.11088893921698" lon="14.916468300612763"><ele>965.0</ele><time>2026-04-19T09:39:17Z</time></trkpt><trkpt lat="38.110787684603686" lon="14.916452605192807"><ele>965.0</ele><time>2026-04-19T09:39:18Z</time></trkpt><trkpt lat="38.11067739632672" lon="14.916436881423053"><ele>965.8</ele><time>2026-04-19T09:39:19Z</time></trkpt><trkpt lat="38.110560087678245" lon="14.916422672856623"><ele>966.6</ele><time>2026-04-19T09:39:20Z</time></trkpt><trkpt lat="38.11044152969951" lon="14.916414259826329"><ele>967.4000000000001</ele><time>2026-04-19T09:39:21Z</time></trkpt><trkpt lat="38.110328461560705" lon="14.916406858730983"><ele>968.2</ele><time>2026-04-19T09:39:22Z</time></trkpt><trkpt lat="38.110230792347735" lon="14.916403319186214"><ele>969.0</ele><time>2026-04-19T09:39:23Z</time></trkpt><trkpt lat="38.11014795970652" lon="14.916398154176113"><ele>969.0</ele><time>2026-04-19T09:39:24Z</time></trkpt><trkpt lat="38.11007673951033" lon="14.916376966197339"><ele>969.0000000000001</ele><time>2026-04-19T09:39:25Z</time></trkpt><trkpt lat="38.11000126504706" lon="14.91634225788683"><ele>969.0000000000001</ele><time>2026-04-19T09:39:26Z</time></trkpt><trkpt lat="38.109922264063364" lon="14.916316698208751"><ele>969.0</ele><time>2026-04-19T09:39:27Z</time></trkpt><trkpt lat="38.10983286812119" lon="14.91629956321097"><ele>969.0</ele><time>2026-04-19T09:39:28Z</time></trkpt><trkpt lat="38.109709117477976" lon="14.916281617834613"><ele>970.5</ele><time>2026-04-19T09:39:29Z</time></trkpt><trkpt lat="38.10955565538186" lon="14.916262751306242"><ele>972.0</ele><time>2026-04-19T09:39:30Z</time></trkpt><trkpt lat="38.109416619337324" lon="14.916245034154008"><ele>973.5</ele><time>2026-04-19T09:39:31Z</time></trkpt><trkpt lat="38.109311688526226" lon="14.91623119322589"><ele>975.0</ele><time>2026-04-19T09:39:32Z</time></trkpt><trkpt lat="38.10922025049243" lon="14.916217513102259"><ele>975.0</ele><time>2026-04-19T09:39:33Z</time></trkpt><trkpt lat="38.10913787965971" lon="14.916207496123466"><ele>975.0</ele><time>2026-04-19T09:39:34Z</time></trkpt><trkpt lat="38.109057807829565" lon="14.916210607522306"><ele>975.0</ele><time>2026-04-19T09:39:35Z</time></trkpt><trkpt lat="38.10897831876732" lon="14.91622496015918"><ele>975.0</ele><time>2026-04-19T09:39:36Z</time></trkpt><trkpt lat="38.108899734390675" lon="14.916237705714204"><ele>975.0</ele><time>2026-04-19T09:39:37Z</time></trkpt><trkpt lat="38.10882685301083" lon="14.916236496830123"><ele>975.0</ele><time>2026-04-19T09:39:38Z</time></trkpt><trkpt lat="38.1087445196177" lon="14.916208141408136"><ele>976.0</ele><time>2026-04-19T09:39:39Z</time></trkpt><trkpt lat="38.108641426069056" lon="14.916165657474194"><ele>977.0</ele><time>2026-04-19T09:39:40Z</time></trkpt><trkpt lat="38.108542582808504" lon="14.916119547580497"><ele>978.0</ele><time>2026-04-19T09:39:41Z</time></trkpt><trkpt lat="38.108451106226" lon="14.916070858016225"><ele>979.0</ele><time>2026-04-19T09:39:42Z</time></trkpt><trkpt lat="38.10836662103297" lon="14.916041384240414"><ele>980.0</ele><time>2026-04-19T09:39:43Z</time></trkpt><trkpt lat="38.10827918570706" lon="14.916042898645467"><ele>983.3333333333334</ele><time>2026-04-19T09:39:44Z</time></trkpt><trkpt lat="38.10819336207219" lon="14.916063249721477"><ele>986.6666666666667</ele><time>2026-04-19T09:39:45Z</time></trkpt><trkpt lat="38.10811245154664" lon="14.916069868379797"><ele>990.0</ele><time>2026-04-19T09:39:46Z</time></trkpt><trkpt lat="38.10802375923117" lon="14.916052356322181"><ele>993.3333333333333</ele><time>2026-04-19T09:39:47Z</time></trkpt><trkpt lat="38.107942369507896" lon="14.916014532467642"><ele>996.6666666666666</ele><time>2026-04-19T09:39:48Z</time></trkpt><trkpt lat="38.107861901016335" lon="14.915981536956139"><ele>1000.0</ele><time>2026-04-19T09:39:50Z</time></trkpt><trkpt lat="38.10790040149084" lon="14.915909492119527"><ele>1000.0</ele><time>2026-04-19T09:39:53Z</time></trkpt><trkpt lat="38.10796742781313" lon="14.915883163302826"><ele>1000.0</ele><time>2026-04-19T09:40:02Z</time></trkpt><trkpt lat="38.1080275925895" lon="14.915854882839241"><ele>1000.0</ele><time>2026-04-19T09:40:03Z</time></trkpt><trkpt lat="38.10808904801011" lon="14.915821923642163"><ele>1000.0</ele><time>2026-04-19T09:40:04Z</time></trkpt><trkpt lat="38.108159715849794" lon="14.91578645340427"><ele>1000.0</ele><time>2026-04-19T09:40:05Z</time></trkpt><trkpt lat="38.10824054360026" lon="14.91574975641386"><ele>1000.0</ele><time>2026-04-19T09:40:05.999Z</time></trkpt><trkpt lat="38.10830898688203" lon="14.915707955598533"><ele>1000.0</ele><time>2026-04-19T09:40:06.999Z</time></trkpt><trkpt lat="38.10840114243845" lon="14.915636381946165"><ele>999.9999999999999</ele><time>2026-04-19T09:40:08.999Z</time></trkpt><trkpt lat="38.10847856150331" lon="14.915618417654876"><ele>1000.0</ele><time>2026-04-19T09:40:09.999Z</time></trkpt><trkpt lat="38.1085552384554" lon="14.915585485332612"><ele>1000.0</ele><time>2026-04-19T09:40:10.999Z</time></trkpt><trkpt lat="38.10862280405109" lon="14.915554341343114"><ele>1000.0</ele><time>2026-04-19T09:40:11.999Z</time></trkpt><trkpt lat="38.108696471543084" lon="14.915525948548604"><ele>999.9999999999999</ele><time>2026-04-19T09:40:12.999Z</time></trkpt><trkpt lat="38.10876984263934" lon="14.915488081095967"><ele>1000.0</ele><time>2026-04-19T09:40:13.999Z</time></trkpt><trkpt lat="38.108832878279586" lon="14.915432474279926"><ele>1000.0</ele><time>2026-04-19T09:40:14.999Z</time></trkpt><trkpt lat="38.108896620822726" lon="14.915380156620277"><ele>1000.0</ele><time>2026-04-19T09:40:15.999Z</time></trkpt><trkpt lat="38.108957867035414" lon="14.91532467354806"><ele>1000.0</ele><time>2026-04-19T09:40:16.999Z</time></trkpt><trkpt lat="38.109006029323595" lon="14.915268273725593"><ele>1000.0</ele><time>2026-04-19T09:40:17.999Z</time></trkpt><trkpt lat="38.10903869049601" lon="14.91519923220916"><ele>1000.0</ele><time>2026-04-19T09:40:18.999Z</time></trkpt><trkpt lat="38.109067802291264" lon="14.915108361521764"><ele>1000.0</ele><time>2026-04-19T09:40:19.999Z</time></trkpt><trkpt lat="38.109104954084266" lon="14.915015040039364"><ele>1000.0</ele><time>2026-04-19T09:40:20.999Z</time></trkpt><trkpt lat="38.10915230220202" lon="14.91490635105237"><ele>999.9999999999999</ele><time>2026-04-19T09:40:21.999Z</time></trkpt><trkpt lat="38.10919619173074" lon="14.914797531527679"><ele>1000.0</ele><time>2026-04-19T09:40:22.999Z</time></trkpt><trkpt lat="38.10923774673328" lon="14.91470132318782"><ele>1000.0</ele><time>2026-04-19T09:40:23.999Z</time></trkpt><trkpt lat="38.10927835288462" lon="14.914619751594353"><ele>1000.0</ele><time>2026-04-19T09:40:24.999Z</time></trkpt><trkpt lat="38.109321828400766" lon="14.914539078389186"><ele>999.9999999999999</ele><time>2026-04-19T09:40:25.999Z</time></trkpt><trkpt lat="38.109361938908215" lon="14.914456198606846"><ele>1000.0</ele><time>2026-04-19T09:40:26.999Z</time></trkpt><trkpt lat="38.10939666603153" lon="14.914364417240247"><ele>1000.0</ele><time>2026-04-19T09:40:27.999Z</time></trkpt><trkpt lat="38.10941829285784" lon="14.914242934840056"><ele>1000.0</ele><time>2026-04-19T09:40:29.999Z</time></trkpt><trkpt lat="38.10938339078793" lon="14.914125412836123"><ele>1000.0</ele><time>2026-04-19T09:40:32.999Z</time></trkpt><trkpt lat="38.109373092758595" lon="14.913983369060904"><ele>1000.0</ele><time>2026-04-19T09:40:34.999Z</time></trkpt><trkpt lat="38.10937400274021" lon="14.91383759008263"><ele>1000.0</ele><time>2026-04-19T09:40:36.999Z</time></trkpt><trkpt lat="38.10938512570525" lon="14.913754491877093"><ele>999.4</ele><time>2026-04-19T09:40:37.999Z</time></trkpt><trkpt lat="38.10943184584995" lon="14.913614435695742"><ele>998.8</ele><time>2026-04-19T09:40:39.999Z</time></trkpt><trkpt lat="38.10946517807842" lon="14.913495715879208"><ele>998.2</ele><time>2026-04-19T09:40:41.999Z</time></trkpt><trkpt lat="38.10948812645035" lon="14.913390140396311"><ele>997.6</ele><time>2026-04-19T09:40:43.999Z</time></trkpt><trkpt lat="38.10951365928732" lon="14.913255045569827"><ele>997.0</ele><time>2026-04-19T09:40:45.999Z</time></trkpt><trkpt lat="38.10950916700716" lon="14.913139016880455"><ele>994.0</ele><time>2026-04-19T09:40:47.999Z</time></trkpt><trkpt lat="38.10954932197069" lon="14.913014955900548"><ele>991.0</ele><time>2026-04-19T09:40:49.999Z</time></trkpt><trkpt lat="38.109571466224224" lon="14.912933302937574"><ele>988.0</ele><time>2026-04-19T09:40:50.999Z</time></trkpt><trkpt lat="38.1096025448264" lon="14.91280360030372"><ele>985.0</ele><time>2026-04-19T09:40:52.999Z</time></trkpt><trkpt lat="38.1096737016399" lon="14.91275430404619"><ele>982.0</ele><time>2026-04-19T09:40:55.999Z</time></trkpt><trkpt lat="38.10973599239995" lon="14.912665468370234"><ele>982.0</ele><time>2026-04-19T09:40:57.999Z</time></trkpt><trkpt lat="38.10978628621578" lon="14.912586326512418"><ele>981.9999999999999</ele><time>2026-04-19T09:40:58.999Z</time></trkpt><trkpt lat="38.10983543166572" lon="14.912524920530306"><ele>982.0</ele><time>2026-04-19T09:40:59.999Z</time></trkpt><trkpt lat="38.10989022371018" lon="14.912466252920002"><ele>982.0</ele><time>2026-04-19T09:41:00.998Z</time></trkpt><trkpt lat="38.1099433979197" lon="14.912416984192523"><ele>981.9999999999999</ele><time>2026-04-19T09:41:01.998Z</time></trkpt><trkpt lat="38.10999903370945" lon="14.9123611315729"><ele>982.0</ele><time>2026-04-19T09:41:02.998Z</time></trkpt><trkpt lat="38.110054956635594" lon="14.912318477689633"><ele>982.0</ele><time>2026-04-19T09:41:03.998Z</time></trkpt><trkpt lat="38.110153463997236" lon="14.91224524590597"><ele>978.8</ele><time>2026-04-19T09:41:05.998Z</time></trkpt><trkpt lat="38.1102576723261" lon="14.912198889189147"><ele>975.6</ele><time>2026-04-19T09:41:07.998Z</time></trkpt><trkpt lat="38.11029250887027" lon="14.912085285499751"><ele>972.3999999999999</ele><time>2026-04-19T09:41:09.998Z</time></trkpt><trkpt lat="38.11034919670092" lon="14.911965831558977"><ele>969.1999999999999</ele><time>2026-04-19T09:41:12Z</time></trkpt><trkpt lat="38.11044147672708" lon="14.911914853174636"><ele>966.0</ele><time>2026-04-19T09:41:14Z</time></trkpt><trkpt lat="38.110438002436204" lon="14.911831560919506"><ele>966.0</ele><time>2026-04-19T09:41:16Z</time></trkpt><trkpt lat="38.11052315657164" lon="14.911756471679377"><ele>965.9999999999999</ele><time>2026-04-19T09:41:18Z</time></trkpt><trkpt lat="38.11061730835768" lon="14.911685151398475"><ele>965.9999999999999</ele><time>2026-04-19T09:41:20Z</time></trkpt><trkpt lat="38.110698215499035" lon="14.9116235863643"><ele>966.0</ele><time>2026-04-19T09:41:22Z</time></trkpt><trkpt lat="38.110757002312845" lon="14.911567711339007"><ele>966.0</ele><time>2026-04-19T09:41:24Z</time></trkpt><trkpt lat="38.110767676096614" lon="14.91145156601602"><ele>964.0</ele><time>2026-04-19T09:41:26Z</time></trkpt><trkpt lat="38.11082796588641" lon="14.911389744662873"><ele>962.0</ele><time>2026-04-19T09:41:28Z</time></trkpt><trkpt lat="38.11089285351445" lon="14.911380036825115"><ele>960.0</ele><time>2026-04-19T09:41:29Z</time></trkpt><trkpt lat="38.11095151081081" lon="14.911284120267334"><ele>958.0</ele><time>2026-04-19T09:41:31Z</time></trkpt><trkpt lat="38.110987390212706" lon="14.911207062698862"><ele>956.0</ele><time>2026-04-19T09:41:32Z</time></trkpt><trkpt lat="38.111032939920825" lon="14.911144489907764"><ele>954.0</ele><time>2026-04-19T09:41:33Z</time></trkpt><trkpt lat="38.1110738188594" lon="14.911079272572426"><ele>952.0</ele><time>2026-04-19T09:41:34Z</time></trkpt><trkpt lat="38.11111688770505" lon="14.911010306855426"><ele>951.9999999999999</ele><time>2026-04-19T09:41:35Z</time></trkpt><trkpt lat="38.11116109965696" lon="14.91094693790028"><ele>952.0</ele><time>2026-04-19T09:41:36Z</time></trkpt><trkpt lat="38.111200286274325" lon="14.910882610918433"><ele>952.0</ele><time>2026-04-19T09:41:37Z</time></trkpt><trkpt lat="38.111260269683754" lon="14.910782601063502"><ele>952.0</ele><time>2026-04-19T09:41:39Z</time></trkpt><trkpt lat="38.111291918202696" lon="14.910701002492676"><ele>951.9999999999999</ele><time>2026-04-19T09:41:41Z</time></trkpt><trkpt lat="38.11133385849295" lon="14.910607964339581"><ele>952.0</ele><time>2026-04-19T09:41:43Z</time></trkpt><trkpt lat="38.111386282926595" lon="14.910534144611798"><ele>950.9999999999999</ele><time>2026-04-19T09:41:45Z</time></trkpt><trkpt lat="38.11146448379909" lon="14.91046758664737"><ele>950.0</ele><time>2026-04-19T09:41:47Z</time></trkpt><trkpt lat="38.11151924898567" lon="14.910367384623529"><ele>949.0</ele><time>2026-04-19T09:41:50Z</time></trkpt><trkpt lat="38.11157835390382" lon="14.910288043169718"><ele>948.0</ele><time>2026-04-19T09:41:52Z</time></trkpt><trkpt lat="38.11165303136149" lon="14.91023336812663"><ele>946.9999999999999</ele><time>2026-04-19T09:41:54Z</time></trkpt><trkpt lat="38.111724463334255" lon="14.910193557229501"><ele>946.0</ele><time>2026-04-19T09:41:55Z</time></trkpt><trkpt lat="38.11180199829609" lon="14.910144745613085"><ele>944.1428571428571</ele><time>2026-04-19T09:41:56Z</time></trkpt><trkpt lat="38.111873413938824" lon="14.910098543244526"><ele>942.2857142857142</ele><time>2026-04-19T09:41:57Z</time></trkpt><trkpt lat="38.11195232329909" lon="14.910047812009433"><ele>940.4285714285713</ele><time>2026-04-19T09:41:59Z</time></trkpt><trkpt lat="38.11199552331588" lon="14.909984929697037"><ele>938.5714285714286</ele><time>2026-04-19T09:42:26.999Z</time></trkpt><trkpt lat="38.11203674765502" lon="14.909918155373106"><ele>936.7142857142856</ele><time>2026-04-19T09:44:03Z</time></trkpt><trkpt lat="38.11206798493815" lon="14.909848652518475"><ele>934.8571428571428</ele><time>2026-04-19T09:44:27.999Z</time></trkpt><trkpt lat="38.11213965179826" lon="14.909818026585567"><ele>933.0</ele><time>2026-04-19T09:44:48.999Z</time></trkpt><trkpt lat="38.11218444487975" lon="14.909756688484839"><ele>932.5714285714286</ele><time>2026-04-19T09:44:52.999Z</time></trkpt><trkpt lat="38.11223333349574" lon="14.909681216611736"><ele>932.1428571428571</ele><time>2026-04-19T09:45:16.998Z</time></trkpt><trkpt lat="38.112257831058955" lon="14.909591249269438"><ele>931.7142857142857</ele><time>2026-04-19T09:45:24Z</time></trkpt><trkpt lat="38.11231041657749" lon="14.909543738556323"><ele>931.2857142857142</ele><time>2026-04-19T09:45:37Z</time></trkpt><trkpt lat="38.11236115061898" lon="14.90949141804228"><ele>930.8571428571429</ele><time>2026-04-19T09:45:40Z</time></trkpt><trkpt lat="38.112425840310244" lon="14.909410582058493"><ele>930.4285714285713</ele><time>2026-04-19T09:45:42.999Z</time></trkpt><trkpt lat="38.11247801080875" lon="14.909347330618553"><ele>930.0</ele><time>2026-04-19T09:45:44.999Z</time></trkpt><trkpt lat="38.11253920462345" lon="14.909262883629914"><ele>926.0</ele><time>2026-04-19T09:45:48.999Z</time></trkpt><trkpt lat="38.112607611523124" lon="14.909237657567587"><ele>922.0</ele><time>2026-04-19T09:45:51.998Z</time></trkpt><trkpt lat="38.11268407556261" lon="14.90921060588519"><ele>918.0</ele><time>2026-04-19T09:46:03.998Z</time></trkpt><trkpt lat="38.112785339840116" lon="14.909186013300872"><ele>914.0</ele><time>2026-04-19T09:46:05.998Z</time></trkpt><trkpt lat="38.11285455872715" lon="14.909174027073599"><ele>910.0</ele><time>2026-04-19T09:46:06.998Z</time></trkpt><trkpt lat="38.11292947266876" lon="14.909167921597762"><ele>906.0</ele><time>2026-04-19T09:46:07.998Z</time></trkpt><trkpt lat="38.113017061715375" lon="14.90915216355229"><ele>906.0</ele><time>2026-04-19T09:46:08.997Z</time></trkpt><trkpt lat="38.11311108937378" lon="14.909120003943816"><ele>905.9999999999999</ele><time>2026-04-19T09:46:09.997Z</time></trkpt><trkpt lat="38.11321044769286" lon="14.909079676481964"><ele>905.9999999999999</ele><time>2026-04-19T09:46:10.997Z</time></trkpt><trkpt lat="38.11331244090213" lon="14.909032034749908"><ele>906.0</ele><time>2026-04-19T09:46:11.997Z</time></trkpt><trkpt lat="38.11341682956413" lon="14.908976717875918"><ele>906.0</ele><time>2026-04-19T09:46:12.997Z</time></trkpt><trkpt lat="38.11352241609635" lon="14.908929844299683"><ele>905.75</ele><time>2026-04-19T09:46:13.997Z</time></trkpt><trkpt lat="38.113650132956195" lon="14.908869508665742"><ele>905.5</ele><time>2026-04-19T09:46:14.997Z</time></trkpt><trkpt lat="38.1137688177238" lon="14.908782650147453"><ele>905.25</ele><time>2026-04-19T09:46:15.997Z</time></trkpt><trkpt lat="38.11385908658165" lon="14.908689035880373"><ele>905.0</ele><time>2026-04-19T09:46:16.997Z</time></trkpt><trkpt lat="38.113925880312756" lon="14.908615240827793"><ele>905.0000000000001</ele><time>2026-04-19T09:46:17.997Z</time></trkpt><trkpt lat="38.11396982671788" lon="14.908553653867829"><ele>905.0</ele><time>2026-04-19T09:46:18.997Z</time></trkpt><trkpt lat="38.11401581713958" lon="14.908480744420384"><ele>905.0</ele><time>2026-04-19T09:46:19.997Z</time></trkpt><trkpt lat="38.11407640005061" lon="14.908403490998205"><ele>905.0</ele><time>2026-04-19T09:46:20.997Z</time></trkpt><trkpt lat="38.114146183646945" lon="14.908331194082791"><ele>905.0000000000001</ele><time>2026-04-19T09:46:21.997Z</time></trkpt><trkpt lat="38.11420947701477" lon="14.908263872729956"><ele>905.0</ele><time>2026-04-19T09:46:22.997Z</time></trkpt><trkpt lat="38.114258611982464" lon="14.908203541116325"><ele>905.8</ele><time>2026-04-19T09:46:23.997Z</time></trkpt><trkpt lat="38.11434939180821" lon="14.908096055711189"><ele>906.6</ele><time>2026-04-19T09:46:25.997Z</time></trkpt><trkpt lat="38.11445412873055" lon="14.908038976995854"><ele>907.4000000000001</ele><time>2026-04-19T09:46:27.997Z</time></trkpt><trkpt lat="38.11452647947565" lon="14.908022302947195"><ele>908.2</ele><time>2026-04-19T09:46:28.997Z</time></trkpt><trkpt lat="38.11460268080201" lon="14.908007691280195"><ele>909.0</ele><time>2026-04-19T09:46:29.997Z</time></trkpt><trkpt lat="38.11466618506334" lon="14.908001354265213"><ele>909.0</ele><time>2026-04-19T09:46:30.997Z</time></trkpt><trkpt lat="38.1147726056376" lon="14.907980738227467"><ele>909.0</ele><time>2026-04-19T09:46:32.997Z</time></trkpt><trkpt lat="38.11487838304012" lon="14.907969714495804"><ele>909.0</ele><time>2026-04-19T09:46:34.997Z</time></trkpt><trkpt lat="38.11494460101317" lon="14.907973408656142"><ele>909.0</ele><time>2026-04-19T09:46:35.997Z</time></trkpt><trkpt lat="38.11501579531307" lon="14.907984519230775"><ele>909.0</ele><time>2026-04-19T09:46:36.997Z</time></trkpt><trkpt lat="38.11509397848851" lon="14.907998732601788"><ele>909.0</ele><time>2026-04-19T09:46:37.997Z</time></trkpt><trkpt lat="38.115168128118874" lon="14.908013079683812"><ele>908.1666666666666</ele><time>2026-04-19T09:46:38.997Z</time></trkpt><trkpt lat="38.115250733873054" lon="14.908022477290842"><ele>907.3333333333333</ele><time>2026-04-19T09:46:39.997Z</time></trkpt><trkpt lat="38.11533471747806" lon="14.90802518984931"><ele>906.5</ele><time>2026-04-19T09:46:40.997Z</time></trkpt><trkpt lat="38.11541104897767" lon="14.908009604176211"><ele>905.6666666666666</ele><time>2026-04-19T09:46:41.997Z</time></trkpt><trkpt lat="38.11548624546623" lon="14.907976827011499"><ele>904.8333333333333</ele><time>2026-04-19T09:46:42.997Z</time></trkpt><trkpt lat="38.11555995169945" lon="14.907927837457825"><ele>904.0</ele><time>2026-04-19T09:46:43.997Z</time></trkpt><trkpt lat="38.11563722440489" lon="14.907878236533184"><ele>904.0</ele><time>2026-04-19T09:46:44.997Z</time></trkpt><trkpt lat="38.11571098403889" lon="14.907820882075406"><ele>904.0000000000001</ele><time>2026-04-19T09:46:45.997Z</time></trkpt><trkpt lat="38.11580929755899" lon="14.907748226904804"><ele>904.0000000000001</ele><time>2026-04-19T09:46:46.997Z</time></trkpt><trkpt lat="38.115922525179634" lon="14.907678690667868"><ele>904.0</ele><time>2026-04-19T09:46:47.996Z</time></trkpt><trkpt lat="38.11601925485878" lon="14.907618192610082"><ele>904.0</ele><time>2026-04-19T09:46:48.996Z</time></trkpt><trkpt lat="38.11611181919008" lon="14.907560079033253"><ele>901.6</ele><time>2026-04-19T09:46:49.996Z</time></trkpt><trkpt lat="38.11620797124229" lon="14.90750180591396"><ele>899.2</ele><time>2026-04-19T09:46:50.996Z</time></trkpt><trkpt lat="38.11630072466709" lon="14.907446287101777"><ele>896.8000000000001</ele><time>2026-04-19T09:46:51.996Z</time></trkpt><trkpt lat="38.116375352843924" lon="14.907385030432353"><ele>894.4000000000001</ele><time>2026-04-19T09:46:52.996Z</time></trkpt><trkpt lat="38.11642853619088" lon="14.907318452106848"><ele>892.0</ele><time>2026-04-19T09:46:53.996Z</time></trkpt><trkpt lat="38.11647169299518" lon="14.907227071073677"><ele>892.0</ele><time>2026-04-19T09:46:54.996Z</time></trkpt><trkpt lat="38.11651649566768" lon="14.907126913122807"><ele>892.0</ele><time>2026-04-19T09:46:55.996Z</time></trkpt><trkpt lat="38.11664349460701" lon="14.907042936873324"><ele>892.0</ele><time>2026-04-19T09:46:57.996Z</time></trkpt><trkpt lat="38.11672712886915" lon="14.906976623107786"><ele>892.0</ele><time>2026-04-19T09:46:58.996Z</time></trkpt><trkpt lat="38.11679095619665" lon="14.906916461256872"><ele>892.0</ele><time>2026-04-19T09:46:59.996Z</time></trkpt><trkpt lat="38.11685375465603" lon="14.906871964058379"><ele>892.4999999999999</ele><time>2026-04-19T09:47:00.996Z</time></trkpt><trkpt lat="38.1169209197674" lon="14.90682645441633"><ele>893.0</ele><time>2026-04-19T09:47:01.996Z</time></trkpt><trkpt lat="38.11697848592448" lon="14.90678301054753"><ele>893.5</ele><time>2026-04-19T09:47:02.996Z</time></trkpt><trkpt lat="38.117092828811046" lon="14.906735757163354"><ele>894.0</ele><time>2026-04-19T09:47:04.996Z</time></trkpt><trkpt lat="38.11716416992918" lon="14.906730238883616"><ele>894.4999999999999</ele><time>2026-04-19T09:47:05.996Z</time></trkpt><trkpt lat="38.11724396039241" lon="14.906729125614188"><ele>895.0</ele><time>2026-04-19T09:47:06.996Z</time></trkpt><trkpt lat="38.1173202359205" lon="14.906730435230536"><ele>894.9999999999999</ele><time>2026-04-19T09:47:07.996Z</time></trkpt><trkpt lat="38.11738711542665" lon="14.906722191505388"><ele>895.0</ele><time>2026-04-19T09:47:08.996Z</time></trkpt><trkpt lat="38.11751154508334" lon="14.906704106590498"><ele>895.0</ele><time>2026-04-19T09:47:10.996Z</time></trkpt><trkpt lat="38.11758020785845" lon="14.906713514842112"><ele>895.0</ele><time>2026-04-19T09:47:11.996Z</time></trkpt><trkpt lat="38.11765719649125" lon="14.906721025829587"><ele>894.9999999999999</ele><time>2026-04-19T09:47:12.996Z</time></trkpt><trkpt lat="38.11773652003771" lon="14.90670303153516"><ele>895.0</ele><time>2026-04-19T09:47:13.996Z</time></trkpt><trkpt lat="38.1178112311948" lon="14.906668665809628"><ele>894.0</ele><time>2026-04-19T09:47:14.996Z</time></trkpt><trkpt lat="38.11788688976619" lon="14.906636075111097"><ele>893.0</ele><time>2026-04-19T09:47:15.996Z</time></trkpt><trkpt lat="38.11795571122511" lon="14.906587885725855"><ele>892.0</ele><time>2026-04-19T09:47:16.996Z</time></trkpt><trkpt lat="38.118026058804745" lon="14.906524629638053"><ele>891.0</ele><time>2026-04-19T09:47:17.996Z</time></trkpt><trkpt lat="38.11812161499698" lon="14.90644247723265"><ele>890.0</ele><time>2026-04-19T09:47:18.996Z</time></trkpt><trkpt lat="38.11823361273322" lon="14.906348063078736"><ele>887.1666666666667</ele><time>2026-04-19T09:47:19.996Z</time></trkpt><trkpt lat="38.11832992890579" lon="14.906271196381057"><ele>884.3333333333334</ele><time>2026-04-19T09:47:20.996Z</time></trkpt><trkpt lat="38.11841370297968" lon="14.906190288657877"><ele>881.5</ele><time>2026-04-19T09:47:21.996Z</time></trkpt><trkpt lat="38.11848051664446" lon="14.906127782505713"><ele>878.6666666666667</ele><time>2026-04-19T09:47:22.996Z</time></trkpt><trkpt lat="38.1185428324388" lon="14.906070127472976"><ele>875.8333333333334</ele><time>2026-04-19T09:47:24.996Z</time></trkpt><trkpt lat="38.11858621886163" lon="14.906009002201493"><ele>873.0</ele><time>2026-04-19T09:47:26.996Z</time></trkpt><trkpt lat="38.11865078898969" lon="14.905919755077637"><ele>874.0</ele><time>2026-04-19T09:47:28.998Z</time></trkpt><trkpt lat="38.11870170903636" lon="14.905840066284307"><ele>875.0</ele><time>2026-04-19T09:47:30.998Z</time></trkpt><trkpt lat="38.11875291914478" lon="14.905750141661901"><ele>876.0</ele><time>2026-04-19T09:47:32.998Z</time></trkpt><trkpt lat="38.11882072246543" lon="14.905682615017817"><ele>877.0</ele><time>2026-04-19T09:47:34.998Z</time></trkpt><trkpt lat="38.11889173905002" lon="14.905629592415927"><ele>878.0</ele><time>2026-04-19T09:47:36.999Z</time></trkpt><trkpt lat="38.11894735164872" lon="14.905577094214912"><ele>879.0</ele><time>2026-04-19T09:47:38.999Z</time></trkpt><trkpt lat="38.11901652107399" lon="14.905620352806842"><ele>879.0</ele><time>2026-04-19T09:47:41.999Z</time></trkpt><trkpt lat="38.11907479193508" lon="14.905706604141121"><ele>879.0000000000001</ele><time>2026-04-19T09:47:44.999Z</time></trkpt><trkpt lat="38.11909285105067" lon="14.90562219170518"><ele>879.0000000000001</ele><time>2026-04-19T09:47:47.999Z</time></trkpt><trkpt lat="38.11901774062251" lon="14.905502500859654"><ele>879.0</ele><time>2026-04-19T09:47:50Z</time></trkpt><trkpt lat="38.11896806647733" lon="14.905388261147918"><ele>879.0</ele><time>2026-04-19T09:47:52Z</time></trkpt><trkpt lat="38.11892156239529" lon="14.905284803626879"><ele>879.0</ele><time>2026-04-19T09:47:54Z</time></trkpt><trkpt lat="38.11888183134086" lon="14.905214819245591"><ele>879.0</ele><time>2026-04-19T09:47:55Z</time></trkpt><trkpt lat="38.11883327379916" lon="14.905145226227997"><ele>879.0</ele><time>2026-04-19T09:47:56Z</time></trkpt><trkpt lat="38.118780245414214" lon="14.905079000433785"><ele>879.0</ele><time>2026-04-19T09:47:57Z</time></trkpt><trkpt lat="38.1187293263188" lon="14.905016537842386"><ele>879.0</ele><time>2026-04-19T09:47:58Z</time></trkpt><trkpt lat="38.11867451467689" lon="14.90495796362781"><ele>879.0</ele><time>2026-04-19T09:47:59Z</time></trkpt><trkpt lat="38.118621414810534" lon="14.904905799898719"><ele>879.0</ele><time>2026-04-19T09:48:00Z</time></trkpt><trkpt lat="38.11856722983936" lon="14.904856743902764"><ele>875.5</ele><time>2026-04-19T09:48:01Z</time></trkpt><trkpt lat="38.11851353502343" lon="14.904811451124798"><ele>872.0</ele><time>2026-04-19T09:48:02Z</time></trkpt><trkpt lat="38.118408759383826" lon="14.90476495458417"><ele>868.5</ele><time>2026-04-19T09:48:04Z</time></trkpt><trkpt lat="38.11849033259477" lon="14.904706352692774"><ele>865.0</ele><time>2026-04-19T09:49:12.999Z</time></trkpt><trkpt lat="38.118568336749924" lon="14.904721819455524"><ele>861.5</ele><time>2026-04-19T09:49:13.999Z</time></trkpt><trkpt lat="38.118648012387574" lon="14.904753181395934"><ele>858.0</ele><time>2026-04-19T09:49:14.999Z</time></trkpt><trkpt lat="38.118729959001264" lon="14.9047932742034"><ele>858.0</ele><time>2026-04-19T09:49:15.999Z</time></trkpt><trkpt lat="38.118809579985005" lon="14.904831667850514"><ele>858.0</ele><time>2026-04-19T09:49:16.999Z</time></trkpt><trkpt lat="38.11889057135175" lon="14.904874977881075"><ele>858.0</ele><time>2026-04-19T09:49:17.999Z</time></trkpt><trkpt lat="38.1189677055876" lon="14.904918126519386"><ele>858.0</ele><time>2026-04-19T09:49:18.999Z</time></trkpt><trkpt lat="38.11904113120802" lon="14.90496541765922"><ele>858.0</ele><time>2026-04-19T09:49:19.999Z</time></trkpt><trkpt lat="38.11911750743398" lon="14.905011024883363"><ele>858.0</ele><time>2026-04-19T09:49:20.999Z</time></trkpt><trkpt lat="38.11919888063748" lon="14.905044122028979"><ele>856.8333333333334</ele><time>2026-04-19T09:49:21.999Z</time></trkpt><trkpt lat="38.119270630657496" lon="14.905057879587261"><ele>855.6666666666667</ele><time>2026-04-19T09:49:22.999Z</time></trkpt><trkpt lat="38.119336505334566" lon="14.90504982117377"><ele>854.5</ele><time>2026-04-19T09:49:23.999Z</time></trkpt><trkpt lat="38.11939883089829" lon="14.905013285905985"><ele>853.3333333333334</ele><time>2026-04-19T09:49:24.998Z</time></trkpt><trkpt lat="38.11947056384224" lon="14.904954630741312"><ele>852.1666666666667</ele><time>2026-04-19T09:49:25.998Z</time></trkpt><trkpt lat="38.119542763822885" lon="14.904893784909087"><ele>851.0</ele><time>2026-04-19T09:49:26.998Z</time></trkpt><trkpt lat="38.11961342812581" lon="14.904848202154152"><ele>851.0000000000001</ele><time>2026-04-19T09:49:27.998Z</time></trkpt><trkpt lat="38.119676146415976" lon="14.904810141404349"><ele>851.0</ele><time>2026-04-19T09:49:28.998Z</time></trkpt><trkpt lat="38.119799202129066" lon="14.904766197446063"><ele>851.0</ele><time>2026-04-19T09:49:30.998Z</time></trkpt><trkpt lat="38.11987449265469" lon="14.904738808449896"><ele>851.0</ele><time>2026-04-19T09:49:31.998Z</time></trkpt><trkpt lat="38.11993691433106" lon="14.90470619951701"><ele>851.0000000000001</ele><time>2026-04-19T09:49:32.998Z</time></trkpt><trkpt lat="38.11999736384901" lon="14.90465937307371"><ele>851.0</ele><time>2026-04-19T09:49:34Z</time></trkpt><trkpt lat="38.12005583650866" lon="14.904601586244327"><ele>848.8333333333334</ele><time>2026-04-19T09:49:35Z</time></trkpt><trkpt lat="38.12011286121991" lon="14.90453910055243"><ele>846.6666666666667</ele><time>2026-04-19T09:49:36Z</time></trkpt><trkpt lat="38.12016526462341" lon="14.904488562891158"><ele>844.5</ele><time>2026-04-19T09:49:37Z</time></trkpt><trkpt lat="38.12026782977201" lon="14.904391553704261"><ele>842.3333333333333</ele><time>2026-04-19T09:49:39Z</time></trkpt><trkpt lat="38.120327498601306" lon="14.904342549919123"><ele>840.1666666666666</ele><time>2026-04-19T09:49:40Z</time></trkpt><trkpt lat="38.120400825950526" lon="14.904293840899708"><ele>838.0</ele><time>2026-04-19T09:49:41Z</time></trkpt><trkpt lat="38.12047378943086" lon="14.90424354628243"><ele>837.6666666666666</ele><time>2026-04-19T09:49:42Z</time></trkpt><trkpt lat="38.12053678247414" lon="14.90418412657375"><ele>837.3333333333333</ele><time>2026-04-19T09:49:43Z</time></trkpt><trkpt lat="38.12059497597808" lon="14.904118020762951"><ele>837.0</ele><time>2026-04-19T09:49:44Z</time></trkpt><trkpt lat="38.12064825463066" lon="14.90403473561545"><ele>836.6666666666667</ele><time>2026-04-19T09:49:45Z</time></trkpt><trkpt lat="38.12069231432736" lon="14.903946578981595"><ele>836.3333333333334</ele><time>2026-04-19T09:49:46Z</time></trkpt><trkpt lat="38.12073784467997" lon="14.903849012466027"><ele>836.0</ele><time>2026-04-19T09:49:47Z</time></trkpt><trkpt lat="38.120789148266034" lon="14.90375329948518"><ele>836.0</ele><time>2026-04-19T09:49:48Z</time></trkpt><trkpt lat="38.120844792623934" lon="14.903654768722358"><ele>836.0</ele><time>2026-04-19T09:49:49Z</time></trkpt><trkpt lat="38.12090056315759" lon="14.903567396855262"><ele>836.0</ele><time>2026-04-19T09:49:50Z</time></trkpt><trkpt lat="38.12096060257799" lon="14.903482493976819"><ele>836.0</ele><time>2026-04-19T09:49:51Z</time></trkpt><trkpt lat="38.121026632084515" lon="14.903407748906993"><ele>836.0</ele><time>2026-04-19T09:49:52Z</time></trkpt><trkpt lat="38.12109598939104" lon="14.903339948639083"><ele>831.1666666666667</ele><time>2026-04-19T09:49:53Z</time></trkpt><trkpt lat="38.12116740507411" lon="14.903272446223394"><ele>826.3333333333334</ele><time>2026-04-19T09:49:54Z</time></trkpt><trkpt lat="38.12123713643785" lon="14.90320535908717"><ele>821.5</ele><time>2026-04-19T09:49:55Z</time></trkpt><trkpt lat="38.12130549967054" lon="14.90313738781977"><ele>816.6666666666667</ele><time>2026-04-19T09:49:56Z</time></trkpt><trkpt lat="38.121369133574326" lon="14.903067552669983"><ele>811.8333333333334</ele><time>2026-04-19T09:49:57Z</time></trkpt><trkpt lat="38.12143465502241" lon="14.902995251896245"><ele>807.0</ele><time>2026-04-19T09:49:58Z</time></trkpt><trkpt lat="38.12150271679056" lon="14.902934050086998"><ele>809.0</ele><time>2026-04-19T09:49:59Z</time></trkpt><trkpt lat="38.12157353310997" lon="14.902875566013861"><ele>811.0</ele><time>2026-04-19T09:50:00Z</time></trkpt><trkpt lat="38.121651149242496" lon="14.902813423988977"><ele>813.0</ele><time>2026-04-19T09:50:01Z</time></trkpt><trkpt lat="38.12172400221197" lon="14.902748868646734"><ele>815.0</ele><time>2026-04-19T09:50:02Z</time></trkpt><trkpt lat="38.12177527073098" lon="14.902695933410353"><ele>817.0</ele><time>2026-04-19T09:50:03Z</time></trkpt><trkpt lat="38.12182878878377" lon="14.9026494482746"><ele>819.0</ele><time>2026-04-19T09:50:04Z</time></trkpt><trkpt lat="38.121922486408636" lon="14.902636197386416"><ele>819.0</ele><time>2026-04-19T09:50:06Z</time></trkpt><trkpt lat="38.121999976868835" lon="14.90265138169244"><ele>819.0</ele><time>2026-04-19T09:50:07Z</time></trkpt><trkpt lat="38.12207539427532" lon="14.902663471171325"><ele>819.0</ele><time>2026-04-19T09:50:08Z</time></trkpt><trkpt lat="38.122140285952526" lon="14.902651563576889"><ele>819.0</ele><time>2026-04-19T09:50:09Z</time></trkpt><trkpt lat="38.122221199337346" lon="14.902554000347841"><ele>819.0</ele><time>2026-04-19T09:50:11Z</time></trkpt><trkpt lat="38.122279792326765" lon="14.902461331064634"><ele>819.0</ele><time>2026-04-19T09:50:12Z</time></trkpt><trkpt lat="38.122357087518374" lon="14.902351021412894"><ele>814.1666666666666</ele><time>2026-04-19T09:50:13Z</time></trkpt><trkpt lat="38.12243549755407" lon="14.902249418227765"><ele>809.3333333333333</ele><time>2026-04-19T09:50:14Z</time></trkpt><trkpt lat="38.12250283164897" lon="14.902174800723124"><ele>804.5</ele><time>2026-04-19T09:50:15Z</time></trkpt><trkpt lat="38.122566616721414" lon="14.902127352155285"><ele>799.6666666666666</ele><time>2026-04-19T09:50:16Z</time></trkpt><trkpt lat="38.122631815725626" lon="14.902089153956815"><ele>794.8333333333333</ele><time>2026-04-19T09:50:17Z</time></trkpt><trkpt lat="38.1226951888809" lon="14.902040292443726"><ele>790.0</ele><time>2026-04-19T09:50:18Z</time></trkpt><trkpt lat="38.122756080289705" lon="14.901977947162516"><ele>789.9999999999999</ele><time>2026-04-19T09:50:19Z</time></trkpt><trkpt lat="38.1228131208948" lon="14.901906945730051"><ele>790.0</ele><time>2026-04-19T09:50:20Z</time></trkpt><trkpt lat="38.12286172079597" lon="14.901831150099103"><ele>790.0</ele><time>2026-04-19T09:50:21Z</time></trkpt><trkpt lat="38.12290428819072" lon="14.901746290800535"><ele>790.0</ele><time>2026-04-19T09:50:22Z</time></trkpt><trkpt lat="38.12294261322036" lon="14.901654569177692"><ele>789.9999999999999</ele><time>2026-04-19T09:50:23Z</time></trkpt><trkpt lat="38.12298289052884" lon="14.901560258511216"><ele>790.0</ele><time>2026-04-19T09:50:24Z</time></trkpt><trkpt lat="38.1230268723524" lon="14.901466905576594"><ele>788.8333333333333</ele><time>2026-04-19T09:50:25Z</time></trkpt><trkpt lat="38.12308231445669" lon="14.901377767927872"><ele>787.6666666666666</ele><time>2026-04-19T09:50:26Z</time></trkpt><trkpt lat="38.123134188551006" lon="14.901294484780044"><ele>786.5</ele><time>2026-04-19T09:50:27Z</time></trkpt><trkpt lat="38.12318763544222" lon="14.901213070975537"><ele>785.3333333333333</ele><time>2026-04-19T09:50:27.999Z</time></trkpt><trkpt lat="38.12325070435368" lon="14.901129180246201"><ele>784.1666666666666</ele><time>2026-04-19T09:50:28.999Z</time></trkpt><trkpt lat="38.12330838300724" lon="14.901043879977635"><ele>783.0</ele><time>2026-04-19T09:50:29.999Z</time></trkpt><trkpt lat="38.123369276228885" lon="14.900967049964407"><ele>782.2</ele><time>2026-04-19T09:50:30.999Z</time></trkpt><trkpt lat="38.1234285553345" lon="14.900892161112115"><ele>781.4</ele><time>2026-04-19T09:50:31.999Z</time></trkpt><trkpt lat="38.123485936848255" lon="14.900823008421762"><ele>780.6</ele><time>2026-04-19T09:50:32.999Z</time></trkpt><trkpt lat="38.12354358092486" lon="14.900746080486341"><ele>779.8000000000001</ele><time>2026-04-19T09:50:33.999Z</time></trkpt><trkpt lat="38.12360948898033" lon="14.900631057733015"><ele>779.0</ele><time>2026-04-19T09:50:35.999Z</time></trkpt><trkpt lat="38.12364350404118" lon="14.90050304785999"><ele>779.0000000000001</ele><time>2026-04-19T09:50:37.999Z</time></trkpt><trkpt lat="38.12370372866102" lon="14.90043675452998"><ele>779.0</ele><time>2026-04-19T09:50:38.999Z</time></trkpt><trkpt lat="38.12377744283535" lon="14.900357410435214"><ele>779.0</ele><time>2026-04-19T09:50:39.999Z</time></trkpt><trkpt lat="38.12383539313427" lon="14.900279843492521"><ele>779.0</ele><time>2026-04-19T09:50:40.999Z</time></trkpt><trkpt lat="38.12388421367854" lon="14.900212709567743"><ele>779.0000000000001</ele><time>2026-04-19T09:50:41.999Z</time></trkpt><trkpt lat="38.123928303618335" lon="14.900147357377474"><ele>779.0</ele><time>2026-04-19T09:50:42.999Z</time></trkpt><trkpt lat="38.12399860721558" lon="14.900017384307793"><ele>779.0</ele><time>2026-04-19T09:50:44.999Z</time></trkpt><trkpt lat="38.12404725753345" lon="14.899865348175066"><ele>779.0</ele><time>2026-04-19T09:50:46.999Z</time></trkpt><trkpt lat="38.124055878128296" lon="14.89970993701123"><ele>779.0</ele><time>2026-04-19T09:50:48.999Z</time></trkpt><trkpt lat="38.124051595032505" lon="14.899620784707476"><ele>779.0</ele><time>2026-04-19T09:50:49.999Z</time></trkpt><trkpt lat="38.12402844849306" lon="14.899511746146356"><ele>779.0</ele><time>2026-04-19T09:50:50.999Z</time></trkpt><trkpt lat="38.12400191929494" lon="14.899412065346327"><ele>779.0000000000001</ele><time>2026-04-19T09:50:51.999Z</time></trkpt><trkpt lat="38.12399536313548" lon="14.89931552467583"><ele>779.0</ele><time>2026-04-19T09:50:52.999Z</time></trkpt><trkpt lat="38.123949910971" lon="14.899208788488478"><ele>779.0</ele><time>2026-04-19T09:50:54.999Z</time></trkpt><trkpt lat="38.12388919117461" lon="14.899146213625002"><ele>779.0</ele><time>2026-04-19T09:50:56.999Z</time></trkpt><trkpt lat="38.12397364026381" lon="14.899095395045498"><ele>779.0000000000001</ele><time>2026-04-19T09:50:58.999Z</time></trkpt><trkpt lat="38.124047013738654" lon="14.899061672535355"><ele>779.0</ele><time>2026-04-19T09:50:59.999Z</time></trkpt><trkpt lat="38.12410699984105" lon="14.89899904306132"><ele>774.5000000000001</ele><time>2026-04-19T09:51:00.999Z</time></trkpt><trkpt lat="38.12415570823342" lon="14.898921285260858"><ele>770.0</ele><time>2026-04-19T09:51:01.999Z</time></trkpt><trkpt lat="38.12420639736143" lon="14.898863357654834"><ele>765.5</ele><time>2026-04-19T09:51:02.999Z</time></trkpt><trkpt lat="38.124317189466865" lon="14.898850877306337"><ele>761.0</ele><time>2026-04-19T09:51:04.999Z</time></trkpt><trkpt lat="38.12432840328756" lon="14.898940689576813"><ele>756.5</ele><time>2026-04-19T09:51:07.999Z</time></trkpt><trkpt lat="38.12423547094819" lon="14.8989922208275"><ele>752.0</ele><time>2026-04-19T09:51:09.999Z</time></trkpt><trkpt lat="38.12420378102905" lon="14.899110529751642"><ele>752.0</ele><time>2026-04-19T09:51:11.999Z</time></trkpt><trkpt lat="38.124222220744066" lon="14.899198561509857"><ele>752.0</ele><time>2026-04-19T09:51:12.999Z</time></trkpt><trkpt lat="38.12424676199525" lon="14.899304122509694"><ele>752.0</ele><time>2026-04-19T09:51:13.999Z</time></trkpt><trkpt lat="38.12425983658124" lon="14.89940377516975"><ele>752.0</ele><time>2026-04-19T09:51:14.999Z</time></trkpt><trkpt lat="38.124308995208544" lon="14.899540982019637"><ele>752.0</ele><time>2026-04-19T09:51:16.999Z</time></trkpt><trkpt lat="38.124370347191885" lon="14.89966990221905"><ele>752.2</ele><time>2026-04-19T09:51:18.999Z</time></trkpt><trkpt lat="38.12436738837585" lon="14.899770379653104"><ele>752.4000000000001</ele><time>2026-04-19T09:51:19.999Z</time></trkpt><trkpt lat="38.12435696111128" lon="14.899894871750071"><ele>752.5999999999999</ele><time>2026-04-19T09:51:20.999Z</time></trkpt><trkpt lat="38.124352516709195" lon="14.900005027445161"><ele>752.8</ele><time>2026-04-19T09:51:21.999Z</time></trkpt><trkpt lat="38.124279456761435" lon="14.900116860463797"><ele>753.0</ele><time>2026-04-19T09:51:23.998Z</time></trkpt><trkpt lat="38.12421276019653" lon="14.900177322621417"><ele>749.5999999999999</ele><time>2026-04-19T09:51:24.998Z</time></trkpt><trkpt lat="38.12415487053088" lon="14.900257932057094"><ele>746.1999999999999</ele><time>2026-04-19T09:51:25.998Z</time></trkpt><trkpt lat="38.12411238124595" lon="14.90035988460512"><ele>742.8</ele><time>2026-04-19T09:51:26.998Z</time></trkpt><trkpt lat="38.12407139013061" lon="14.90046401965006"><ele>739.4</ele><time>2026-04-19T09:51:27.998Z</time></trkpt><trkpt lat="38.1240303461809" lon="14.900574359414534"><ele>736.0</ele><time>2026-04-19T09:51:28.998Z</time></trkpt><trkpt lat="38.12399051437194" lon="14.900683865645851"><ele>741.0</ele><time>2026-04-19T09:51:29.998Z</time></trkpt><trkpt lat="38.123958048459045" lon="14.900789466716724"><ele>746.0</ele><time>2026-04-19T09:51:30.998Z</time></trkpt><trkpt lat="38.123929295662904" lon="14.90088154575195"><ele>751.0</ele><time>2026-04-19T09:51:31.998Z</time></trkpt><trkpt lat="38.12389443358712" lon="14.900969672475428"><ele>756.0</ele><time>2026-04-19T09:51:32.998Z</time></trkpt><trkpt lat="38.123851339151784" lon="14.901050362837456"><ele>761.0</ele><time>2026-04-19T09:51:33.998Z</time></trkpt><trkpt lat="38.123807752122495" lon="14.901132670340727"><ele>766.0</ele><time>2026-04-19T09:51:34.998Z</time></trkpt><trkpt lat="38.12377000640918" lon="14.901214833331315"><ele>766.0</ele><time>2026-04-19T09:51:35.998Z</time></trkpt><trkpt lat="38.12373596500343" lon="14.90129599015464"><ele>766.0</ele><time>2026-04-19T09:51:36.998Z</time></trkpt><trkpt lat="38.12370637084479" lon="14.901375950234799"><ele>766.0</ele><time>2026-04-19T09:51:37.998Z</time></trkpt><trkpt lat="38.12368545173501" lon="14.901460380508063"><ele>766.0</ele><time>2026-04-19T09:51:38.998Z</time></trkpt><trkpt lat="38.12367452817325" lon="14.901545419352857"><ele>766.0</ele><time>2026-04-19T09:51:40Z</time></trkpt><trkpt lat="38.123655734963805" lon="14.901625461192216"><ele>766.0</ele><time>2026-04-19T09:51:41Z</time></trkpt><trkpt lat="38.12362804058242" lon="14.901716009023723"><ele>766.0</ele><time>2026-04-19T09:51:42Z</time></trkpt><trkpt lat="38.12360602983966" lon="14.901797665428987"><ele>761.8</ele><time>2026-04-19T09:51:43Z</time></trkpt><trkpt lat="38.12356599770004" lon="14.901935750025746"><ele>757.5999999999999</ele><time>2026-04-19T09:51:45Z</time></trkpt><trkpt lat="38.12357720546973" lon="14.902060400822393"><ele>753.4</ele><time>2026-04-19T09:51:47Z</time></trkpt><trkpt lat="38.12359158561264" lon="14.9021396291479"><ele>749.2</ele><time>2026-04-19T09:51:48Z</time></trkpt><trkpt lat="38.12357431904766" lon="14.902294122172203"><ele>745.0</ele><time>2026-04-19T09:51:50Z</time></trkpt><trkpt lat="38.123551809432364" lon="14.902376616200682"><ele>745.0</ele><time>2026-04-19T09:51:51Z</time></trkpt><trkpt lat="38.123535668139525" lon="14.902454465225297"><ele>745.0</ele><time>2026-04-19T09:51:52Z</time></trkpt><trkpt lat="38.123506465936124" lon="14.90259118792036"><ele>745.0</ele><time>2026-04-19T09:51:54Z</time></trkpt><trkpt lat="38.12344061846809" lon="14.902691076542759"><ele>745.0</ele><time>2026-04-19T09:51:56Z</time></trkpt><trkpt lat="38.12339745349815" lon="14.902771786611554"><ele>745.0</ele><time>2026-04-19T09:51:57Z</time></trkpt><trkpt lat="38.12337073018606" lon="14.902887605549713"><ele>745.0</ele><time>2026-04-19T09:51:59Z</time></trkpt><trkpt lat="38.123405041359405" lon="14.903013107381659"><ele>743.8</ele><time>2026-04-19T09:52:01Z</time></trkpt><trkpt lat="38.12345173971702" lon="14.903154848931948"><ele>742.6</ele><time>2026-04-19T09:52:03Z</time></trkpt><trkpt lat="38.12346664990634" lon="14.903239685776821"><ele>741.4000000000001</ele><time>2026-04-19T09:52:04Z</time></trkpt><trkpt lat="38.12346255713361" lon="14.903350637378018"><ele>740.2</ele><time>2026-04-19T09:52:05Z</time></trkpt><trkpt lat="38.12346822631585" lon="14.903453544667363"><ele>739.0</ele><time>2026-04-19T09:52:06Z</time></trkpt><trkpt lat="38.12348864480277" lon="14.90357089846978"><ele>739.0</ele><time>2026-04-19T09:52:07Z</time></trkpt><trkpt lat="38.12351935795007" lon="14.903683439884409"><ele>739.0</ele><time>2026-04-19T09:52:08Z</time></trkpt><trkpt lat="38.123528708674804" lon="14.903792296244381"><ele>739.0</ele><time>2026-04-19T09:52:09Z</time></trkpt><trkpt lat="38.12353842829486" lon="14.90388876082575"><ele>739.0</ele><time>2026-04-19T09:52:10Z</time></trkpt><trkpt lat="38.123561068319404" lon="14.903976349422434"><ele>739.0</ele><time>2026-04-19T09:52:11Z</time></trkpt><trkpt lat="38.123599960438696" lon="14.904057377829437"><ele>739.0</ele><time>2026-04-19T09:52:12Z</time></trkpt><trkpt lat="38.12364347559952" lon="14.904154983898527"><ele>736.6666666666667</ele><time>2026-04-19T09:52:13Z</time></trkpt><trkpt lat="38.12367926527274" lon="14.90426156052431"><ele>734.3333333333334</ele><time>2026-04-19T09:52:14Z</time></trkpt><trkpt lat="38.12371719084329" lon="14.904354634311074"><ele>732.0</ele><time>2026-04-19T09:52:15Z</time></trkpt><trkpt lat="38.12374300179432" lon="14.904451284919352"><ele>729.6666666666666</ele><time>2026-04-19T09:52:16Z</time></trkpt><trkpt lat="38.123758782540605" lon="14.904554450805291"><ele>727.3333333333333</ele><time>2026-04-19T09:52:17Z</time></trkpt><trkpt lat="38.12376542035573" lon="14.904666947415077"><ele>725.0</ele><time>2026-04-19T09:52:18Z</time></trkpt><trkpt lat="38.12376793345951" lon="14.904786371866772"><ele>725.0</ele><time>2026-04-19T09:52:19Z</time></trkpt><trkpt lat="38.123771999843214" lon="14.904906079007134"><ele>725.0</ele><time>2026-04-19T09:52:20Z</time></trkpt><trkpt lat="38.123790671637494" lon="14.90500858290368"><ele>725.0</ele><time>2026-04-19T09:52:21Z</time></trkpt><trkpt lat="38.12381212456379" lon="14.905103148045058"><ele>725.0</ele><time>2026-04-19T09:52:22Z</time></trkpt><trkpt lat="38.123821929372355" lon="14.905192926038989"><ele>725.0</ele><time>2026-04-19T09:52:23Z</time></trkpt><trkpt lat="38.123838417416216" lon="14.905271655400462"><ele>725.0</ele><time>2026-04-19T09:52:24Z</time></trkpt><trkpt lat="38.12385517179555" lon="14.905359428542912"><ele>718.6</ele><time>2026-04-19T09:52:25Z</time></trkpt><trkpt lat="38.12385202665142" lon="14.905444009247184"><ele>712.2</ele><time>2026-04-19T09:52:26Z</time></trkpt><trkpt lat="38.12380457137995" lon="14.90554333475661"><ele>705.8</ele><time>2026-04-19T09:52:28Z</time></trkpt><trkpt lat="38.123720148799976" lon="14.905548055600077"><ele>699.4</ele><time>2026-04-19T09:52:30Z</time></trkpt><trkpt lat="38.12364846032067" lon="14.905627156509597"><ele>693.0</ele><time>2026-04-19T09:52:32Z</time></trkpt><trkpt lat="38.123549201444646" lon="14.905696622359349"><ele>693.0</ele><time>2026-04-19T09:52:33.999Z</time></trkpt><trkpt lat="38.12343272365587" lon="14.905744942241569"><ele>693.0</ele><time>2026-04-19T09:52:35.999Z</time></trkpt><trkpt lat="38.123371194029176" lon="14.905779396872472"><ele>693.0</ele><time>2026-04-19T09:52:36.999Z</time></trkpt><trkpt lat="38.123303627731865" lon="14.905825826539148"><ele>693.0</ele><time>2026-04-19T09:52:37.999Z</time></trkpt><trkpt lat="38.12323863125054" lon="14.905875170317925"><ele>693.0</ele><time>2026-04-19T09:52:38.999Z</time></trkpt><trkpt lat="38.12317942241117" lon="14.905915816217686"><ele>693.0</ele><time>2026-04-19T09:52:39.999Z</time></trkpt><trkpt lat="38.12311600315914" lon="14.905956598572532"><ele>690.5999999999999</ele><time>2026-04-19T09:52:40.999Z</time></trkpt><trkpt lat="38.12300601029077" lon="14.906008384619305"><ele>688.1999999999999</ele><time>2026-04-19T09:52:42.999Z</time></trkpt><trkpt lat="38.122890118974475" lon="14.906031555865631"><ele>685.8</ele><time>2026-04-19T09:52:44.999Z</time></trkpt><trkpt lat="38.12280467101627" lon="14.906066424037792"><ele>683.4</ele><time>2026-04-19T09:52:46.999Z</time></trkpt><trkpt lat="38.12278209299407" lon="14.90615342976785"><ele>681.0</ele><time>2026-04-19T09:52:48.999Z</time></trkpt><trkpt lat="38.122728456367284" lon="14.906283927909909"><ele>681.0</ele><time>2026-04-19T09:52:50.999Z</time></trkpt><trkpt lat="38.12267495703732" lon="14.906374796490955"><ele>681.0</ele><time>2026-04-19T09:52:51.999Z</time></trkpt><trkpt lat="38.122599925186854" lon="14.90644989226462"><ele>681.0</ele><time>2026-04-19T09:52:52.999Z</time></trkpt><trkpt lat="38.12251361949774" lon="14.90653562553796"><ele>681.0</ele><time>2026-04-19T09:52:53.999Z</time></trkpt><trkpt lat="38.12245385688084" lon="14.906618293471007"><ele>681.0</ele><time>2026-04-19T09:52:54.999Z</time></trkpt><trkpt lat="38.12239554043012" lon="14.906678100790693"><ele>685.1666666666666</ele><time>2026-04-19T09:52:55.999Z</time></trkpt><trkpt lat="38.12232330532885" lon="14.906733999607685"><ele>689.3333333333334</ele><time>2026-04-19T09:52:56.999Z</time></trkpt><trkpt lat="38.12227371421905" lon="14.906808420979315"><ele>693.5</ele><time>2026-04-19T09:52:57.999Z</time></trkpt><trkpt lat="38.12224461248323" lon="14.906893839975343"><ele>697.6666666666667</ele><time>2026-04-19T09:52:58.999Z</time></trkpt><trkpt lat="38.122222470663075" lon="14.906989742116789"><ele>701.8333333333334</ele><time>2026-04-19T09:52:59.999Z</time></trkpt><trkpt lat="38.122210469946715" lon="14.907105514868062"><ele>706.0</ele><time>2026-04-19T09:53:00.999Z</time></trkpt><trkpt lat="38.122176960616954" lon="14.907222444720212"><ele>706.0</ele><time>2026-04-19T09:53:01.999Z</time></trkpt><trkpt lat="38.122140871452174" lon="14.907328602556952"><ele>706.0</ele><time>2026-04-19T09:53:02.999Z</time></trkpt><trkpt lat="38.12213378793991" lon="14.907422407147052"><ele>706.0</ele><time>2026-04-19T09:53:03.999Z</time></trkpt><trkpt lat="38.12213385940758" lon="14.907525266687127"><ele>706.0</ele><time>2026-04-19T09:53:04.999Z</time></trkpt><trkpt lat="38.122157430266526" lon="14.907668743103121"><ele>706.0</ele><time>2026-04-19T09:53:06.999Z</time></trkpt><trkpt lat="38.12215322586029" lon="14.907817207415013"><ele>701.3333333333334</ele><time>2026-04-19T09:53:08.999Z</time></trkpt><trkpt lat="38.122059087319826" lon="14.90791843381854"><ele>696.6666666666667</ele><time>2026-04-19T09:53:10.999Z</time></trkpt><trkpt lat="38.12201917966476" lon="14.907994505110889"><ele>692.0</ele><time>2026-04-19T09:53:11.999Z</time></trkpt><trkpt lat="38.12199057533505" lon="14.90809418495193"><ele>687.3333333333334</ele><time>2026-04-19T09:53:12.999Z</time></trkpt><trkpt lat="38.12194553979551" lon="14.90817559174686"><ele>682.6666666666666</ele><time>2026-04-19T09:53:13.999Z</time></trkpt><trkpt lat="38.12188496442674" lon="14.908230269407287"><ele>678.0</ele><time>2026-04-19T09:53:14.999Z</time></trkpt><trkpt lat="38.121826438193644" lon="14.908271446699633"><ele>678.0</ele><time>2026-04-19T09:53:15.999Z</time></trkpt><trkpt lat="38.12176433472033" lon="14.908315026513707"><ele>678.0</ele><time>2026-04-19T09:53:16.999Z</time></trkpt><trkpt lat="38.12169939753133" lon="14.908342631211255"><ele>678.0</ele><time>2026-04-19T09:53:17.999Z</time></trkpt><trkpt lat="38.12162465203421" lon="14.908366783901478"><ele>678.0</ele><time>2026-04-19T09:53:18.999Z</time></trkpt><trkpt lat="38.12153756661521" lon="14.9084000117702"><ele>678.0</ele><time>2026-04-19T09:53:19.999Z</time></trkpt><trkpt lat="38.12144750355585" lon="14.908457709945882"><ele>678.0</ele><time>2026-04-19T09:53:20.999Z</time></trkpt><trkpt lat="38.1213669912745" lon="14.908545343173087"><ele>676.0</ele><time>2026-04-19T09:53:21.999Z</time></trkpt><trkpt lat="38.121304183625675" lon="14.908635074799781"><ele>674.0</ele><time>2026-04-19T09:53:22.999Z</time></trkpt><trkpt lat="38.12125560706674" lon="14.9087130641087"><ele>672.0</ele><time>2026-04-19T09:53:23.999Z</time></trkpt><trkpt lat="38.12120182050131" lon="14.908770939840176"><ele>670.0</ele><time>2026-04-19T09:53:24.999Z</time></trkpt><trkpt lat="38.12112303017653" lon="14.908797417809522"><ele>668.0</ele><time>2026-04-19T09:53:25.999Z</time></trkpt><trkpt lat="38.12104058755972" lon="14.908824145232996"><ele>666.0</ele><time>2026-04-19T09:53:26.999Z</time></trkpt><trkpt lat="38.1209737996804" lon="14.908864842631843"><ele>666.0</ele><time>2026-04-19T09:53:27.999Z</time></trkpt><trkpt lat="38.12090511943279" lon="14.908914627135612"><ele>666.0</ele><time>2026-04-19T09:53:28.998Z</time></trkpt><trkpt lat="38.12084265543974" lon="14.908978069804215"><ele>666.0</ele><time>2026-04-19T09:53:29.998Z</time></trkpt><trkpt lat="38.12079453856708" lon="14.909062440490464"><ele>666.0</ele><time>2026-04-19T09:53:30.998Z</time></trkpt><trkpt lat="38.12074811710679" lon="14.909127262762476"><ele>666.0</ele><time>2026-04-19T09:53:31.998Z</time></trkpt><trkpt lat="38.12064597750248" lon="14.909120411382155"><ele>666.0</ele><time>2026-04-19T09:53:33.998Z</time></trkpt><trkpt lat="38.12058024470032" lon="14.909145326066072"><ele>667.0</ele><time>2026-04-19T09:53:34.998Z</time></trkpt><trkpt lat="38.120532326401275" lon="14.909203730583341"><ele>668.0</ele><time>2026-04-19T09:53:35.998Z</time></trkpt><trkpt lat="38.12049938804724" lon="14.909282232656057"><ele>669.0</ele><time>2026-04-19T09:53:36.998Z</time></trkpt><trkpt lat="38.12046133045173" lon="14.909358241534447"><ele>670.0</ele><time>2026-04-19T09:53:37.998Z</time></trkpt><trkpt lat="38.12040495299917" lon="14.909402333788078"><ele>671.0</ele><time>2026-04-19T09:53:38.998Z</time></trkpt><trkpt lat="38.12033533396708" lon="14.909428583205067"><ele>672.0</ele><time>2026-04-19T09:53:39.998Z</time></trkpt><trkpt lat="38.120254342884415" lon="14.9094668983709"><ele>673.0</ele><time>2026-04-19T09:53:40.998Z</time></trkpt><trkpt lat="38.12017638171558" lon="14.909515820965138"><ele>673.0</ele><time>2026-04-19T09:53:41.998Z</time></trkpt><trkpt lat="38.12011137923182" lon="14.909564918470624"><ele>673.0</ele><time>2026-04-19T09:53:42.998Z</time></trkpt><trkpt lat="38.120047677252465" lon="14.90968856013056"><ele>673.0</ele><time>2026-04-19T09:53:44.998Z</time></trkpt><trkpt lat="38.120041313273525" lon="14.909780319249677"><ele>673.0</ele><time>2026-04-19T09:53:46Z</time></trkpt><trkpt lat="38.12004861798055" lon="14.909885114367"><ele>673.0</ele><time>2026-04-19T09:53:47Z</time></trkpt><trkpt lat="38.120042757901345" lon="14.909976067830438"><ele>673.0</ele><time>2026-04-19T09:53:48Z</time></trkpt><trkpt lat="38.120009624861154" lon="14.910054340003457"><ele>672.1666666666667</ele><time>2026-04-19T09:53:49Z</time></trkpt><trkpt lat="38.119972792418686" lon="14.910138491537529"><ele>671.3333333333334</ele><time>2026-04-19T09:53:50Z</time></trkpt><trkpt lat="38.119950852589334" lon="14.910236182467823"><ele>670.5</ele><time>2026-04-19T09:53:51Z</time></trkpt><trkpt lat="38.119944517425374" lon="14.910337444420456"><ele>669.6666666666666</ele><time>2026-04-19T09:53:52Z</time></trkpt><trkpt lat="38.11994256789484" lon="14.910432357776667"><ele>668.8333333333333</ele><time>2026-04-19T09:53:53Z</time></trkpt><trkpt lat="38.11989393102652" lon="14.910528150416324"><ele>668.0</ele><time>2026-04-19T09:53:55Z</time></trkpt><trkpt lat="38.11983123460891" lon="14.9105553440321"><ele>669.8333333333333</ele><time>2026-04-19T09:53:56Z</time></trkpt><trkpt lat="38.11975500410414" lon="14.910581478531705"><ele>671.6666666666666</ele><time>2026-04-19T09:53:57Z</time></trkpt><trkpt lat="38.11967623353599" lon="14.910597314787717"><ele>673.5</ele><time>2026-04-19T09:53:58Z</time></trkpt><trkpt lat="38.11960046806652" lon="14.91059619447682"><ele>675.3333333333334</ele><time>2026-04-19T09:53:59Z</time></trkpt><trkpt lat="38.11953203944186" lon="14.910579353947261"><ele>677.1666666666667</ele><time>2026-04-19T09:54:00Z</time></trkpt><trkpt lat="38.11945393931697" lon="14.91056034723246"><ele>679.0</ele><time>2026-04-19T09:54:01Z</time></trkpt><trkpt lat="38.11936943714964" lon="14.910551012676779"><ele>679.0</ele><time>2026-04-19T09:54:02Z</time></trkpt><trkpt lat="38.11929439678907" lon="14.910541218669769"><ele>679.0</ele><time>2026-04-19T09:54:03Z</time></trkpt><trkpt lat="38.11922372679736" lon="14.910527906004148"><ele>679.0</ele><time>2026-04-19T09:54:04Z</time></trkpt><trkpt lat="38.11911060989052" lon="14.910555813458192"><ele>679.0</ele><time>2026-04-19T09:54:06Z</time></trkpt><trkpt lat="38.11903778353935" lon="14.910644325070646"><ele>679.0</ele><time>2026-04-19T09:54:08Z</time></trkpt><trkpt lat="38.11904866692184" lon="14.910735619034488"><ele>679.0</ele><time>2026-04-19T09:54:10Z</time></trkpt><trkpt lat="38.11915512510924" lon="14.910826392076762"><ele>679.0</ele><time>2026-04-19T09:54:12Z</time></trkpt><trkpt lat="38.11922610298068" lon="14.91090079569736"><ele>679.0</ele><time>2026-04-19T09:54:13Z</time></trkpt><trkpt lat="38.11930218091369" lon="14.910973433474584"><ele>679.0</ele><time>2026-04-19T09:54:14Z</time></trkpt><trkpt lat="38.11937599196095" lon="14.911037901542699"><ele>679.0</ele><time>2026-04-19T09:54:16Z</time></trkpt><trkpt lat="38.119307249129776" lon="14.911098980067136"><ele>679.0</ele><time>2026-04-19T09:54:18Z</time></trkpt><trkpt lat="38.1192153404516" lon="14.911039471304452"><ele>684.6</ele><time>2026-04-19T09:54:20Z</time></trkpt><trkpt lat="38.11909466779201" lon="14.910947419919225"><ele>690.2</ele><time>2026-04-19T09:54:22Z</time></trkpt><trkpt lat="38.119020497334056" lon="14.910915368774358"><ele>695.8000000000001</ele><time>2026-04-19T09:54:23Z</time></trkpt><trkpt lat="38.11895061534233" lon="14.910919932678684"><ele>701.4000000000001</ele><time>2026-04-19T09:54:24Z</time></trkpt><trkpt lat="38.118877670014356" lon="14.910965525902297"><ele>707.0</ele><time>2026-04-19T09:54:25Z</time></trkpt><trkpt lat="38.11878823266454" lon="14.91102172150568"><ele>708.1666666666666</ele><time>2026-04-19T09:54:26Z</time></trkpt><trkpt lat="38.11872582830054" lon="14.91106427957291"><ele>709.3333333333333</ele><time>2026-04-19T09:54:27Z</time></trkpt><trkpt lat="38.11870056394236" lon="14.911207360203761"><ele>710.5</ele><time>2026-04-19T09:54:29Z</time></trkpt><trkpt lat="38.1186807987136" lon="14.911283536087431"><ele>711.6666666666666</ele><time>2026-04-19T09:54:30Z</time></trkpt><trkpt lat="38.11858414940099" lon="14.911354717491598"><ele>712.8333333333334</ele><time>2026-04-19T09:54:32Z</time></trkpt><trkpt lat="38.11851446166242" lon="14.911358196546383"><ele>714.0</ele><time>2026-04-19T09:54:33Z</time></trkpt><trkpt lat="38.1184278551943" lon="14.911357447575487"><ele>714.0</ele><time>2026-04-19T09:54:34Z</time></trkpt><trkpt lat="38.118343047118834" lon="14.911354234229442"><ele>714.0</ele><time>2026-04-19T09:54:35Z</time></trkpt><trkpt lat="38.11828369121898" lon="14.911395721547796"><ele>714.0</ele><time>2026-04-19T09:54:37Z</time></trkpt><trkpt lat="38.11833909050447" lon="14.911479439658105"><ele>714.0</ele><time>2026-04-19T09:54:38.999Z</time></trkpt><trkpt lat="38.11841044830456" lon="14.911478428243514"><ele>714.0</ele><time>2026-04-19T09:54:39.999Z</time></trkpt><trkpt lat="38.118514409097955" lon="14.9114778931576"><ele>714.0</ele><time>2026-04-19T09:54:40.999Z</time></trkpt><trkpt lat="38.11862204027407" lon="14.911492226122617"><ele>714.0</ele><time>2026-04-19T09:54:41.999Z</time></trkpt><trkpt lat="38.1187199719199" lon="14.911508509170202"><ele>714.0</ele><time>2026-04-19T09:54:42.999Z</time></trkpt><trkpt lat="38.11878310821031" lon="14.911506583791164"><ele>714.0</ele><time>2026-04-19T09:54:43.999Z</time></trkpt><trkpt lat="38.11884997843757" lon="14.911473031142485"><ele>714.0</ele><time>2026-04-19T09:54:44.999Z</time></trkpt><trkpt lat="38.11893840982351" lon="14.911479308869241"><ele>714.0</ele><time>2026-04-19T09:54:46.999Z</time></trkpt><trkpt lat="38.118980055346526" lon="14.911543689728179"><ele>714.0</ele><time>2026-04-19T09:54:47.999Z</time></trkpt><trkpt lat="38.11903238559635" lon="14.911624506966499"><ele>712.8333333333334</ele><time>2026-04-19T09:54:48.999Z</time></trkpt><trkpt lat="38.11910266856287" lon="14.911705231687426"><ele>711.6666666666666</ele><time>2026-04-19T09:54:49.999Z</time></trkpt><trkpt lat="38.11917329201026" lon="14.911766602650333"><ele>710.5</ele><time>2026-04-19T09:54:50.999Z</time></trkpt><trkpt lat="38.11922921948881" lon="14.911810325424094"><ele>709.3333333333333</ele><time>2026-04-19T09:54:51.999Z</time></trkpt><trkpt lat="38.11928896098301" lon="14.911844511397216"><ele>708.1666666666666</ele><time>2026-04-19T09:54:52.999Z</time></trkpt><trkpt lat="38.11936600154063" lon="14.911893530785381"><ele>707.0</ele><time>2026-04-19T09:54:53.999Z</time></trkpt><trkpt lat="38.11944668082174" lon="14.911942175843224"><ele>707.0</ele><time>2026-04-19T09:54:54.999Z</time></trkpt><trkpt lat="38.119543460919644" lon="14.911928985558404"><ele>707.0</ele><time>2026-04-19T09:54:56.999Z</time></trkpt><trkpt lat="38.11957425748773" lon="14.9118556367366"><ele>707.0</ele><time>2026-04-19T09:54:57.999Z</time></trkpt><trkpt lat="38.11963361525748" lon="14.911787931183385"><ele>707.0</ele><time>2026-04-19T09:54:58.999Z</time></trkpt><trkpt lat="38.119719764554965" lon="14.911746561144168"><ele>707.0</ele><time>2026-04-19T09:54:59.999Z</time></trkpt><trkpt lat="38.11981935991865" lon="14.911698968221334"><ele>707.0</ele><time>2026-04-19T09:55:00.999Z</time></trkpt><trkpt lat="38.11991406589807" lon="14.911638203406007"><ele>706.25</ele><time>2026-04-19T09:55:01.999Z</time></trkpt><trkpt lat="38.12000187454999" lon="14.911584338508826"><ele>705.5</ele><time>2026-04-19T09:55:02.999Z</time></trkpt><trkpt lat="38.12007100867253" lon="14.91153990580135"><ele>704.75</ele><time>2026-04-19T09:55:03.999Z</time></trkpt><trkpt lat="38.12022488226796" lon="14.91149417980775"><ele>704.0</ele><time>2026-04-19T09:55:05.999Z</time></trkpt><trkpt lat="38.12034096607227" lon="14.91145893777919"><ele>704.0</ele><time>2026-04-19T09:55:06.999Z</time></trkpt><trkpt lat="38.120425368429316" lon="14.911419120982123"><ele>704.0</ele><time>2026-04-19T09:55:07.999Z</time></trkpt><trkpt lat="38.12049877076054" lon="14.911386726917797"><ele>704.0</ele><time>2026-04-19T09:55:08.999Z</time></trkpt><trkpt lat="38.120590167140776" lon="14.911381584870236"><ele>704.0</ele><time>2026-04-19T09:55:09.999Z</time></trkpt><trkpt lat="38.12068521889847" lon="14.911372410545349"><ele>704.0</ele><time>2026-04-19T09:55:10.999Z</time></trkpt><trkpt lat="38.120785614502196" lon="14.911336208733262"><ele>704.0</ele><time>2026-04-19T09:55:11.999Z</time></trkpt><trkpt lat="38.12087743389632" lon="14.91129012786879"><ele>704.0</ele><time>2026-04-19T09:55:12.999Z</time></trkpt><trkpt lat="38.12095874871495" lon="14.911259410512578"><ele>704.0</ele><time>2026-04-19T09:55:13.999Z</time></trkpt><trkpt lat="38.12103729322823" lon="14.911250242721723"><ele>704.0</ele><time>2026-04-19T09:55:14.999Z</time></trkpt><trkpt lat="38.121122356515365" lon="14.911278738706061"><ele>704.0</ele><time>2026-04-19T09:55:15.999Z</time></trkpt><trkpt lat="38.12121934358499" lon="14.91131218630958"><ele>704.0</ele><time>2026-04-19T09:55:16.999Z</time></trkpt><trkpt lat="38.121302845875434" lon="14.911345236146005"><ele>704.0</ele><time>2026-04-19T09:55:17.999Z</time></trkpt><trkpt lat="38.12139519355469" lon="14.911364123012133"><ele>704.0</ele><time>2026-04-19T09:55:18.999Z</time></trkpt><trkpt lat="38.12148991695063" lon="14.911371738952047"><ele>704.0</ele><time>2026-04-19T09:55:19.999Z</time></trkpt><trkpt lat="38.12157397382664" lon="14.911369705366322"><ele>704.0</ele><time>2026-04-19T09:55:20.999Z</time></trkpt><trkpt lat="38.121647076788804" lon="14.911343138420818"><ele>704.0</ele><time>2026-04-19T09:55:21.999Z</time></trkpt><trkpt lat="38.121734234645636" lon="14.911306432720195"><ele>702.2</ele><time>2026-04-19T09:55:22.999Z</time></trkpt><trkpt lat="38.121815837436806" lon="14.911241031707227"><ele>700.4000000000001</ele><time>2026-04-19T09:55:23.999Z</time></trkpt><trkpt lat="38.12189237335653" lon="14.911167813355632"><ele>698.6</ele><time>2026-04-19T09:55:24.999Z</time></trkpt><trkpt lat="38.12197322408729" lon="14.91109321049297"><ele>696.8</ele><time>2026-04-19T09:55:25.999Z</time></trkpt><trkpt lat="38.122062647226265" lon="14.911023301777663"><ele>695.0</ele><time>2026-04-19T09:55:26.999Z</time></trkpt><trkpt lat="38.122159619633514" lon="14.910988350618988"><ele>695.0</ele><time>2026-04-19T09:55:27.999Z</time></trkpt><trkpt lat="38.12224341990213" lon="14.910988717251932"><ele>695.0</ele><time>2026-04-19T09:55:28.999Z</time></trkpt><trkpt lat="38.12230465017917" lon="14.911025868941797"><ele>695.0</ele><time>2026-04-19T09:55:29.999Z</time></trkpt><trkpt lat="38.12236737247477" lon="14.911101663401473"><ele>695.0</ele><time>2026-04-19T09:55:30.999Z</time></trkpt><trkpt lat="38.12243564961177" lon="14.91119760684534"><ele>695.0</ele><time>2026-04-19T09:55:31.999Z</time></trkpt><trkpt lat="38.12249909926877" lon="14.91130008977519"><ele>695.0</ele><time>2026-04-19T09:55:32.999Z</time></trkpt><trkpt lat="38.12254902949528" lon="14.91139604226654"><ele>692.8</ele><time>2026-04-19T09:55:33.998Z</time></trkpt><trkpt lat="38.122601335438176" lon="14.911477448171192"><ele>690.6</ele><time>2026-04-19T09:55:34.998Z</time></trkpt><trkpt lat="38.12264836010504" lon="14.911533431615762"><ele>688.4000000000001</ele><time>2026-04-19T09:55:35.998Z</time></trkpt><trkpt lat="38.122733343883006" lon="14.911518274641576"><ele>686.2</ele><time>2026-04-19T09:55:37.998Z</time></trkpt><trkpt lat="38.122851278186424" lon="14.911454532341534"><ele>684.0</ele><time>2026-04-19T09:55:39.998Z</time></trkpt><trkpt lat="38.122982801320475" lon="14.911453154609198"><ele>684.0</ele><time>2026-04-19T09:55:41.998Z</time></trkpt><trkpt lat="38.1230627315108" lon="14.911432987012411"><ele>684.0</ele><time>2026-04-19T09:55:42.998Z</time></trkpt><trkpt lat="38.12315261037038" lon="14.911439600420945"><ele>684.0</ele><time>2026-04-19T09:55:43.998Z</time></trkpt><trkpt lat="38.12322000738775" lon="14.911473171784326"><ele>684.0</ele><time>2026-04-19T09:55:44.998Z</time></trkpt><trkpt lat="38.12328082421797" lon="14.911516679506185"><ele>684.0</ele><time>2026-04-19T09:55:45.998Z</time></trkpt><trkpt lat="38.12332268366065" lon="14.911589189621248"><ele>684.0</ele><time>2026-04-19T09:55:46.998Z</time></trkpt><trkpt lat="38.12333570684501" lon="14.911724225115524"><ele>680.8000000000001</ele><time>2026-04-19T09:55:48.998Z</time></trkpt><trkpt lat="38.123319227248125" lon="14.911828649182487"><ele>677.6</ele><time>2026-04-19T09:55:49.998Z</time></trkpt><trkpt lat="38.123304467795826" lon="14.911954891672123"><ele>674.4</ele><time>2026-04-19T09:55:50.998Z</time></trkpt><trkpt lat="38.12329126296356" lon="14.912088334935328"><ele>671.2</ele><time>2026-04-19T09:55:52Z</time></trkpt><trkpt lat="38.123280896826536" lon="14.912205199035622"><ele>668.0</ele><time>2026-04-19T09:55:53Z</time></trkpt><trkpt lat="38.12329108418185" lon="14.912292263469729"><ele>668.0</ele><time>2026-04-19T09:55:54Z</time></trkpt><trkpt lat="38.12337867261234" lon="14.912415151003222"><ele>668.0</ele><time>2026-04-19T09:55:56Z</time></trkpt><trkpt lat="38.1234632008176" lon="14.912474076544205"><ele>668.0</ele><time>2026-04-19T09:55:57Z</time></trkpt><trkpt lat="38.123560429355834" lon="14.912541402274588"><ele>668.0</ele><time>2026-04-19T09:55:58Z</time></trkpt><trkpt lat="38.12363055418586" lon="14.912616622878632"><ele>668.0</ele><time>2026-04-19T09:55:59Z</time></trkpt><trkpt lat="38.123667293045635" lon="14.912693106130645"><ele>670.5999999999999</ele><time>2026-04-19T09:56:00Z</time></trkpt><trkpt lat="38.12367769583615" lon="14.912790621068572"><ele>673.1999999999999</ele><time>2026-04-19T09:56:01Z</time></trkpt><trkpt lat="38.12368331879656" lon="14.9129231455084"><ele>675.8</ele><time>2026-04-19T09:56:02Z</time></trkpt><trkpt lat="38.123680206107224" lon="14.91306212633139"><ele>678.4</ele><time>2026-04-19T09:56:03Z</time></trkpt><trkpt lat="38.12366010420513" lon="14.91316815781168"><ele>681.0</ele><time>2026-04-19T09:56:04Z</time></trkpt><trkpt lat="38.12363535723532" lon="14.91326888240777"><ele>681.0</ele><time>2026-04-19T09:56:05Z</time></trkpt><trkpt lat="38.12361551951179" lon="14.913364196975671"><ele>681.0</ele><time>2026-04-19T09:56:06Z</time></trkpt><trkpt lat="38.1236053990117" lon="14.913450082207522"><ele>681.0</ele><time>2026-04-19T09:56:07Z</time></trkpt><trkpt lat="38.12366099466806" lon="14.913524604610393"><ele>681.0</ele><time>2026-04-19T09:56:09Z</time></trkpt><trkpt lat="38.123773538907564" lon="14.91350540406608"><ele>681.0</ele><time>2026-04-19T09:56:11Z</time></trkpt><trkpt lat="38.1238932186503" lon="14.913431675542794"><ele>681.0</ele><time>2026-04-19T09:56:12Z</time></trkpt><trkpt lat="38.12399613827001" lon="14.913385229932645"><ele>681.0</ele><time>2026-04-19T09:56:13Z</time></trkpt><trkpt lat="38.124083648485474" lon="14.913360580743603"><ele>681.0</ele><time>2026-04-19T09:56:14Z</time></trkpt><trkpt lat="38.12418892694754" lon="14.913394454615947"><ele>681.0</ele><time>2026-04-19T09:56:16Z</time></trkpt><trkpt lat="38.12426341823289" lon="14.913368611647059"><ele>681.0</ele><time>2026-04-19T09:56:18Z</time></trkpt><trkpt lat="38.12434231397279" lon="14.913279125370572"><ele>674.75</ele><time>2026-04-19T09:56:19Z</time></trkpt><trkpt lat="38.12443628536681" lon="14.913168200809857"><ele>668.5</ele><time>2026-04-19T09:56:20Z</time></trkpt><trkpt lat="38.124542347402034" lon="14.913016767888301"><ele>662.25</ele><time>2026-04-19T09:56:21Z</time></trkpt><trkpt lat="38.12462852772654" lon="14.912878361141928"><ele>656.0</ele><time>2026-04-19T09:56:22Z</time></trkpt><trkpt lat="38.1246948235961" lon="14.912791336582076"><ele>656.0</ele><time>2026-04-19T09:56:23Z</time></trkpt><trkpt lat="38.12476638365819" lon="14.912742909841525"><ele>656.0</ele><time>2026-04-19T09:56:24Z</time></trkpt><trkpt lat="38.124876370932704" lon="14.912696564844852"><ele>656.0</ele><time>2026-04-19T09:56:25Z</time></trkpt><trkpt lat="38.124985521561086" lon="14.912642771383437"><ele>656.0</ele><time>2026-04-19T09:56:26Z</time></trkpt><trkpt lat="38.125054181679985" lon="14.91256876640601"><ele>656.0</ele><time>2026-04-19T09:56:27Z</time></trkpt><trkpt lat="38.12511656663798" lon="14.912471680210754"><ele>652.0</ele><time>2026-04-19T09:56:28Z</time></trkpt><trkpt lat="38.12519701210189" lon="14.912337251975147"><ele>648.0</ele><time>2026-04-19T09:56:29Z</time></trkpt><trkpt lat="38.125281982008914" lon="14.912205950473375"><ele>644.0</ele><time>2026-04-19T09:56:30Z</time></trkpt><trkpt lat="38.12534849294011" lon="14.912123742272934"><ele>640.0</ele><time>2026-04-19T09:56:31Z</time></trkpt><trkpt lat="38.12543259362266" lon="14.912064783012921"><ele>640.0</ele><time>2026-04-19T09:56:32Z</time></trkpt><trkpt lat="38.12553067307316" lon="14.912018134586322"><ele>640.0</ele><time>2026-04-19T09:56:33Z</time></trkpt><trkpt lat="38.125616444525846" lon="14.911982265465303"><ele>640.0</ele><time>2026-04-19T09:56:34Z</time></trkpt><trkpt lat="38.12569900080385" lon="14.911941862096997"><ele>640.0</ele><time>2026-04-19T09:56:35Z</time></trkpt><trkpt lat="38.125793710581014" lon="14.911885765229439"><ele>640.0</ele><time>2026-04-19T09:56:36Z</time></trkpt><trkpt lat="38.125904302113014" lon="14.91183440703664"><ele>637.8</ele><time>2026-04-19T09:56:37Z</time></trkpt><trkpt lat="38.12600982690407" lon="14.911772696036378"><ele>635.6</ele><time>2026-04-19T09:56:38Z</time></trkpt><trkpt lat="38.12609659025753" lon="14.911699927182516"><ele>633.4</ele><time>2026-04-19T09:56:39Z</time></trkpt><trkpt lat="38.12617527079342" lon="14.911604952734447"><ele>631.2</ele><time>2026-04-19T09:56:40Z</time></trkpt><trkpt lat="38.126246154958636" lon="14.911501337557906"><ele>629.0</ele><time>2026-04-19T09:56:41Z</time></trkpt><trkpt lat="38.126320248363065" lon="14.911394923073463"><ele>629.0</ele><time>2026-04-19T09:56:42Z</time></trkpt><trkpt lat="38.12641329457699" lon="14.911305173282134"><ele>629.0</ele><time>2026-04-19T09:56:42.999Z</time></trkpt><trkpt lat="38.126512168086485" lon="14.911227614609722"><ele>629.0</ele><time>2026-04-19T09:56:43.999Z</time></trkpt><trkpt lat="38.12660891017853" lon="14.911151638648235"><ele>629.0</ele><time>2026-04-19T09:56:44.999Z</time></trkpt><trkpt lat="38.12669839347455" lon="14.911081047873754"><ele>631.6</ele><time>2026-04-19T09:56:45.999Z</time></trkpt><trkpt lat="38.12679043845707" lon="14.91102935679987"><ele>634.2</ele><time>2026-04-19T09:56:46.999Z</time></trkpt><trkpt lat="38.12688891752727" lon="14.910986735287027"><ele>636.8000000000001</ele><time>2026-04-19T09:56:47.999Z</time></trkpt><trkpt lat="38.12698571416567" lon="14.91095447711622"><ele>639.4</ele><time>2026-04-19T09:56:48.999Z</time></trkpt><trkpt lat="38.12707908417473" lon="14.910934009719682"><ele>642.0</ele><time>2026-04-19T09:56:49.999Z</time></trkpt><trkpt lat="38.12718285295416" lon="14.910917543795337"><ele>639.0</ele><time>2026-04-19T09:56:50.999Z</time></trkpt><trkpt lat="38.12729960070415" lon="14.910902257442975"><ele>636.0</ele><time>2026-04-19T09:56:51.999Z</time></trkpt><trkpt lat="38.127417923243605" lon="14.910889309667663"><ele>633.0</ele><time>2026-04-19T09:56:52.999Z</time></trkpt><trkpt lat="38.12751061667077" lon="14.91087161924171"><ele>630.0</ele><time>2026-04-19T09:56:53.999Z</time></trkpt><trkpt lat="38.127572197875416" lon="14.91083817510565"><ele>627.0</ele><time>2026-04-19T09:56:54.999Z</time></trkpt><trkpt lat="38.12763573490583" lon="14.910772618114846"><ele>627.0</ele><time>2026-04-19T09:56:55.999Z</time></trkpt><trkpt lat="38.127692581091516" lon="14.910719538658201"><ele>627.0</ele><time>2026-04-19T09:56:56.999Z</time></trkpt><trkpt lat="38.12776236052605" lon="14.910702047727824"><ele>627.0</ele><time>2026-04-19T09:57:02.999Z</time></trkpt><trkpt lat="38.12775459644214" lon="14.910801000757383"><ele>627.0</ele><time>2026-04-19T09:57:06.999Z</time></trkpt><trkpt lat="38.12775417889791" lon="14.910901682247886"><ele>627.0</ele><time>2026-04-19T09:57:09.999Z</time></trkpt><trkpt lat="38.12773484176995" lon="14.911000206618302"><ele>627.0</ele><time>2026-04-19T09:57:12.999Z</time></trkpt><trkpt lat="38.1277193440164" lon="14.911128539372895"><ele>629.8333333333334</ele><time>2026-04-19T09:57:15.999Z</time></trkpt><trkpt lat="38.12772426746214" lon="14.911216345833761"><ele>632.6666666666666</ele><time>2026-04-19T09:57:17.999Z</time></trkpt><trkpt lat="38.12768746695295" lon="14.91133768646785"><ele>635.5</ele><time>2026-04-19T09:57:19.999Z</time></trkpt><trkpt lat="38.127670729626466" lon="14.911415244596075"><ele>638.3333333333333</ele><time>2026-04-19T09:57:23.999Z</time></trkpt><trkpt lat="38.12766056086033" lon="14.911503974611293"><ele>641.1666666666666</ele><time>2026-04-19T09:57:40.998Z</time></trkpt><trkpt lat="38.12765248627965" lon="14.911590296260192"><ele>644.0</ele><time>2026-04-19T09:57:43.998Z</time></trkpt><trkpt lat="38.127706241685416" lon="14.911671485417797"><ele>647.8333333333333</ele><time>2026-04-19T09:57:46.998Z</time></trkpt><trkpt lat="38.12776178064627" lon="14.911746980442093"><ele>651.6666666666666</ele><time>2026-04-19T09:57:49.998Z</time></trkpt><trkpt lat="38.1278208113681" lon="14.91184201047441"><ele>655.5</ele><time>2026-04-19T09:57:52.998Z</time></trkpt><trkpt lat="38.12789999651151" lon="14.911944672975986"><ele>659.3333333333334</ele><time>2026-04-19T09:57:54.998Z</time></trkpt><trkpt lat="38.127944747153684" lon="14.912018664450734"><ele>663.1666666666667</ele><time>2026-04-19T09:57:55.998Z</time></trkpt><trkpt lat="38.127977863644965" lon="14.912106859808793"><ele>667.0</ele><time>2026-04-19T09:57:56.998Z</time></trkpt><trkpt lat="38.128015109724124" lon="14.912225228595721"><ele>667.0000000000001</ele><time>2026-04-19T09:57:58Z</time></trkpt><trkpt lat="38.128031920404794" lon="14.912314332537669"><ele>667.0</ele><time>2026-04-19T09:57:59Z</time></trkpt><trkpt lat="38.12803875503333" lon="14.912406792357448"><ele>667.0</ele><time>2026-04-19T09:58:00Z</time></trkpt><trkpt lat="38.12804962151581" lon="14.91251454464652"><ele>667.0</ele><time>2026-04-19T09:58:01Z</time></trkpt><trkpt lat="38.12798365793545" lon="14.9125064393476"><ele>667.0</ele><time>2026-04-19T09:58:06Z</time></trkpt><trkpt lat="38.12791917020441" lon="14.912494903223761"><ele>667.0000000000001</ele><time>2026-04-19T09:58:08Z</time></trkpt><trkpt lat="38.12785330851294" lon="14.912534100517025"><ele>667.0</ele><time>2026-04-19T09:58:09Z</time></trkpt><trkpt lat="38.127749240095206" lon="14.912598639994824"><ele>669.3333333333334</ele><time>2026-04-19T09:58:10Z</time></trkpt><trkpt lat="38.12767985379759" lon="14.912629270570921"><ele>671.6666666666667</ele><time>2026-04-19T09:58:11Z</time></trkpt><trkpt lat="38.12760948972916" lon="14.912665846076314"><ele>674.0</ele><time>2026-04-19T09:58:12Z</time></trkpt><trkpt lat="38.1275489651092" lon="14.91269932871594"><ele>676.3333333333334</ele><time>2026-04-19T09:58:13Z</time></trkpt><trkpt lat="38.12745820016141" lon="14.912765770038536"><ele>678.6666666666666</ele><time>2026-04-19T09:58:15Z</time></trkpt><trkpt lat="38.12740045559843" lon="14.912869157733144"><ele>681.0</ele><time>2026-04-19T09:58:17Z</time></trkpt><trkpt lat="38.12736570504118" lon="14.91301862231533"><ele>681.0</ele><time>2026-04-19T09:58:19Z</time></trkpt><trkpt lat="38.1273515859098" lon="14.913101889819393"><ele>681.0</ele><time>2026-04-19T09:58:20Z</time></trkpt><trkpt lat="38.127309134086694" lon="14.91322602538485"><ele>681.0</ele><time>2026-04-19T09:58:22Z</time></trkpt><trkpt lat="38.12726767938284" lon="14.913353942292579"><ele>681.0</ele><time>2026-04-19T09:58:25Z</time></trkpt><trkpt lat="38.127243196489296" lon="14.91342776900542"><ele>681.0</ele><time>2026-04-19T09:58:27Z</time></trkpt><trkpt lat="38.12726109367862" lon="14.913522918273717"><ele>681.0</ele><time>2026-04-19T09:58:45Z</time></trkpt><trkpt lat="38.12727343851672" lon="14.913606341781781"><ele>685.4</ele><time>2026-04-19T09:58:47Z</time></trkpt><trkpt lat="38.127277499298195" lon="14.913723132357452"><ele>689.8</ele><time>2026-04-19T09:58:49.999Z</time></trkpt><trkpt lat="38.1272740039897" lon="14.913853770435132"><ele>694.1999999999999</ele><time>2026-04-19T09:58:52.999Z</time></trkpt><trkpt lat="38.12724360857381" lon="14.913988734830603"><ele>698.5999999999999</ele><time>2026-04-19T09:58:54.999Z</time></trkpt><trkpt lat="38.127224736532334" lon="14.91415237443608"><ele>703.0</ele><time>2026-04-19T09:58:56.999Z</time></trkpt><trkpt lat="38.127212295698314" lon="14.9142429931129"><ele>707.5</ele><time>2026-04-19T09:58:57.999Z</time></trkpt><trkpt lat="38.127196744824445" lon="14.914328908662819"><ele>712.0</ele><time>2026-04-19T09:58:58.999Z</time></trkpt><trkpt lat="38.12716225122194" lon="14.914461105599361"><ele>716.5</ele><time>2026-04-19T09:59:00.999Z</time></trkpt><trkpt lat="38.1271394481548" lon="14.914569788083076"><ele>721.0</ele><time>2026-04-19T09:59:02.999Z</time></trkpt><trkpt lat="38.127090676589745" lon="14.914650685074596"><ele>725.5</ele><time>2026-04-19T09:59:04.999Z</time></trkpt><trkpt lat="38.12701884689841" lon="14.914690747247112"><ele>730.0</ele><time>2026-04-19T09:59:06.999Z</time></trkpt><trkpt lat="38.126964629308084" lon="14.914750478125933"><ele>730.0</ele><time>2026-04-19T09:59:08.999Z</time></trkpt><trkpt lat="38.12692093676843" lon="14.9148103495159"><ele>730.0</ele><time>2026-04-19T09:59:09.999Z</time></trkpt><trkpt lat="38.12688012712648" lon="14.914872212945804"><ele>730.0</ele><time>2026-04-19T09:59:10.999Z</time></trkpt><trkpt lat="38.12682758839131" lon="14.914946093079887"><ele>730.0</ele><time>2026-04-19T09:59:11.999Z</time></trkpt><trkpt lat="38.12676140703946" lon="14.915030112869358"><ele>730.0</ele><time>2026-04-19T09:59:12.999Z</time></trkpt><trkpt lat="38.12669398973844" lon="14.915092191132013"><ele>730.0</ele><time>2026-04-19T09:59:13.999Z</time></trkpt><trkpt lat="38.12662696033356" lon="14.915135679020588"><ele>731.5</ele><time>2026-04-19T09:59:14.999Z</time></trkpt><trkpt lat="38.12656631476224" lon="14.915174927237379"><ele>733.0</ele><time>2026-04-19T09:59:15.999Z</time></trkpt><trkpt lat="38.12651412895222" lon="14.91524715771813"><ele>734.5</ele><time>2026-04-19T09:59:16.999Z</time></trkpt><trkpt lat="38.126450246807295" lon="14.915343484164277"><ele>736.0</ele><time>2026-04-19T09:59:17.999Z</time></trkpt><trkpt lat="38.1263813865886" lon="14.915430594063427"><ele>737.5</ele><time>2026-04-19T09:59:18.999Z</time></trkpt><trkpt lat="38.12632007558709" lon="14.915492012664888"><ele>739.0</ele><time>2026-04-19T09:59:19.999Z</time></trkpt><trkpt lat="38.12626033460718" lon="14.915544615671479"><ele>739.4285714285714</ele><time>2026-04-19T09:59:20.999Z</time></trkpt><trkpt lat="38.126202230766395" lon="14.915578982238161"><ele>739.8571428571429</ele><time>2026-04-19T09:59:21.999Z</time></trkpt><trkpt lat="38.12616954802546" lon="14.915693518151093"><ele>740.2857142857142</ele><time>2026-04-19T09:59:22.999Z</time></trkpt><trkpt lat="38.126102365737886" lon="14.915691491295375"><ele>740.7142857142858</ele><time>2026-04-19T09:59:25.999Z</time></trkpt><trkpt lat="38.12616758683904" lon="14.915738427768574"><ele>741.1428571428571</ele><time>2026-04-19T09:59:28.999Z</time></trkpt><trkpt lat="38.126231077086196" lon="14.91572600671554"><ele>741.5714285714286</ele><time>2026-04-19T09:59:29.999Z</time></trkpt><trkpt lat="38.12630372899942" lon="14.915691398146283"><ele>742.0</ele><time>2026-04-19T09:59:30.999Z</time></trkpt><trkpt lat="38.12637480259844" lon="14.915665272158401"><ele>742.0</ele><time>2026-04-19T09:59:31.999Z</time></trkpt><trkpt lat="38.12647075176888" lon="14.915647321120952"><ele>742.0</ele><time>2026-04-19T09:59:32.999Z</time></trkpt><trkpt lat="38.126576226317795" lon="14.915636810501052"><ele>742.0</ele><time>2026-04-19T09:59:33.999Z</time></trkpt><trkpt lat="38.12667021084128" lon="14.91557754001835"><ele>742.0</ele><time>2026-04-19T09:59:34.999Z</time></trkpt><trkpt lat="38.12679213811662" lon="14.915678337706634"><ele>741.4000000000001</ele><time>2026-04-19T09:59:35.999Z</time></trkpt><trkpt lat="38.12689387261504" lon="14.915716595484158"><ele>740.8000000000001</ele><time>2026-04-19T09:59:36.999Z</time></trkpt><trkpt lat="38.12697791855337" lon="14.915759759459077"><ele>740.2</ele><time>2026-04-19T09:59:37.999Z</time></trkpt><trkpt lat="38.12706078326414" lon="14.915813557228843"><ele>739.6</ele><time>2026-04-19T09:59:38.999Z</time></trkpt><trkpt lat="38.12714527711948" lon="14.915861471800328"><ele>739.0</ele><time>2026-04-19T09:59:39.999Z</time></trkpt><trkpt lat="38.12723306580094" lon="14.915907874447766"><ele>738.0</ele><time>2026-04-19T09:59:40.999Z</time></trkpt><trkpt lat="38.12731345112867" lon="14.915961528601734"><ele>737.0</ele><time>2026-04-19T09:59:41.999Z</time></trkpt><trkpt lat="38.1273835970147" lon="14.916016440231875"><ele>736.0</ele><time>2026-04-19T09:59:42.999Z</time></trkpt><trkpt lat="38.12745211762092" lon="14.916058021557722"><ele>735.0</ele><time>2026-04-19T09:59:43.999Z</time></trkpt><trkpt lat="38.12752231552794" lon="14.91609408873646"><ele>734.0</ele><time>2026-04-19T09:59:44.998Z</time></trkpt><trkpt lat="38.12758952462788" lon="14.916126781149108"><ele>733.0</ele><time>2026-04-19T09:59:45.998Z</time></trkpt><trkpt lat="38.127648368108666" lon="14.916162413910477"><ele>733.0</ele><time>2026-04-19T09:59:46.998Z</time></trkpt><trkpt lat="38.127728973078895" lon="14.916250362315006"><ele>733.0</ele><time>2026-04-19T09:59:48.998Z</time></trkpt><trkpt lat="38.127776751687435" lon="14.916354686504746"><ele>733.0</ele><time>2026-04-19T09:59:50.998Z</time></trkpt><trkpt lat="38.127819879526626" lon="14.916435940859659"><ele>733.0</ele><time>2026-04-19T09:59:52.998Z</time></trkpt><trkpt lat="38.12790680915012" lon="14.916489984835483"><ele>733.0</ele><time>2026-04-19T09:59:54.998Z</time></trkpt><trkpt lat="38.1280139304674" lon="14.916556210371997"><ele>733.0</ele><time>2026-04-19T09:59:56.998Z</time></trkpt><trkpt lat="38.12807370445144" lon="14.916599779251793"><ele>733.0</ele><time>2026-04-19T09:59:57.998Z</time></trkpt><trkpt lat="38.12814186860458" lon="14.916642251002635"><ele>733.0</ele><time>2026-04-19T09:59:58.998Z</time></trkpt><trkpt lat="38.12822001937153" lon="14.916691210993148"><ele>733.0</ele><time>2026-04-19T09:59:59.998Z</time></trkpt><trkpt lat="38.12830356088749" lon="14.916751986447242"><ele>733.0</ele><time>2026-04-19T10:00:00.998Z</time></trkpt><trkpt lat="38.12838756693659" lon="14.916827071361402"><ele>733.0</ele><time>2026-04-19T10:00:01.998Z</time></trkpt><trkpt lat="38.128460906433475" lon="14.916901839176035"><ele>731.7142857142857</ele><time>2026-04-19T10:00:02.998Z</time></trkpt><trkpt lat="38.12853335558355" lon="14.916954648006547"><ele>730.4285714285714</ele><time>2026-04-19T10:00:04Z</time></trkpt><trkpt lat="38.12860389884077" lon="14.916982975759016"><ele>729.1428571428571</ele><time>2026-04-19T10:00:05Z</time></trkpt><trkpt lat="38.128671903703705" lon="14.917005577758832"><ele>727.8571428571429</ele><time>2026-04-19T10:00:06Z</time></trkpt><trkpt lat="38.12873716949694" lon="14.917018908939573"><ele>726.5714285714286</ele><time>2026-04-19T10:00:07Z</time></trkpt><trkpt lat="38.1288104520731" lon="14.917025286633525"><ele>725.2857142857142</ele><time>2026-04-19T10:00:08Z</time></trkpt><trkpt lat="38.12888412714623" lon="14.91702142274375"><ele>724.0</ele><time>2026-04-19T10:00:09Z</time></trkpt><trkpt lat="38.12895996129202" lon="14.917017161277958"><ele>724.0</ele><time>2026-04-19T10:00:10Z</time></trkpt><trkpt lat="38.129040800080766" lon="14.917023905337869"><ele>724.0</ele><time>2026-04-19T10:00:11Z</time></trkpt><trkpt lat="38.129124511378876" lon="14.91704001227258"><ele>724.0</ele><time>2026-04-19T10:00:12Z</time></trkpt><trkpt lat="38.12920321672163" lon="14.917062695117725"><ele>724.0</ele><time>2026-04-19T10:00:13Z</time></trkpt><trkpt lat="38.129274894093584" lon="14.917085944698972"><ele>724.0</ele><time>2026-04-19T10:00:14Z</time></trkpt><trkpt lat="38.12934848241382" lon="14.917124847287623"><ele>724.0</ele><time>2026-04-19T10:00:15Z</time></trkpt><trkpt lat="38.12942990010054" lon="14.917168763187775"><ele>725.8000000000001</ele><time>2026-04-19T10:00:16Z</time></trkpt><trkpt lat="38.12951057257312" lon="14.917213907850787"><ele>727.6</ele><time>2026-04-19T10:00:17Z</time></trkpt><trkpt lat="38.1295940600003" lon="14.917246052144765"><ele>729.4</ele><time>2026-04-19T10:00:18Z</time></trkpt><trkpt lat="38.12968076807288" lon="14.91727335785346"><ele>731.2</ele><time>2026-04-19T10:00:19Z</time></trkpt><trkpt lat="38.12976881218564" lon="14.917317407443717"><ele>733.0</ele><time>2026-04-19T10:00:20Z</time></trkpt><trkpt lat="38.12985427596413" lon="14.91737161378657"><ele>733.6666666666667</ele><time>2026-04-19T10:00:21Z</time></trkpt><trkpt lat="38.12993067344521" lon="14.917412099912886"><ele>734.3333333333334</ele><time>2026-04-19T10:00:22Z</time></trkpt><trkpt lat="38.12999943447018" lon="14.917430185582818"><ele>735.0</ele><time>2026-04-19T10:00:23Z</time></trkpt><trkpt lat="38.13008133494844" lon="14.917439112545125"><ele>735.6666666666666</ele><time>2026-04-19T10:00:24Z</time></trkpt><trkpt lat="38.1301668638402" lon="14.917459325404304"><ele>736.3333333333333</ele><time>2026-04-19T10:00:25Z</time></trkpt><trkpt lat="38.130251381717706" lon="14.917499470893338"><ele>737.0</ele><time>2026-04-19T10:00:26Z</time></trkpt><trkpt lat="38.13033329786036" lon="14.917541794878636"><ele>737.0</ele><time>2026-04-19T10:00:27Z</time></trkpt><trkpt lat="38.13041218857437" lon="14.917571139344037"><ele>737.0</ele><time>2026-04-19T10:00:28Z</time></trkpt><trkpt lat="38.13048892990649" lon="14.917593734372744"><ele>737.0</ele><time>2026-04-19T10:00:29Z</time></trkpt><trkpt lat="38.13056890804259" lon="14.917623844175795"><ele>737.0</ele><time>2026-04-19T10:00:30Z</time></trkpt><trkpt lat="38.1306578417869" lon="14.917664738073821"><ele>737.0</ele><time>2026-04-19T10:00:31Z</time></trkpt><trkpt lat="38.13075884882346" lon="14.917697778324891"><ele>737.0</ele><time>2026-04-19T10:00:32Z</time></trkpt><trkpt lat="38.13087132144068" lon="14.917735893562027"><ele>737.0</ele><time>2026-04-19T10:00:33Z</time></trkpt><trkpt lat="38.13097962645739" lon="14.917790024788884"><ele>737.0</ele><time>2026-04-19T10:00:34Z</time></trkpt><trkpt lat="38.13110425006901" lon="14.917872616495856"><ele>737.0</ele><time>2026-04-19T10:00:35Z</time></trkpt><trkpt lat="38.131241637572096" lon="14.917971692945763"><ele>737.0</ele><time>2026-04-19T10:00:36Z</time></trkpt><trkpt lat="38.1313406363053" lon="14.91804162425279"><ele>737.0</ele><time>2026-04-19T10:00:37Z</time></trkpt><trkpt lat="38.13141792057245" lon="14.918082462831215"><ele>737.0</ele><time>2026-04-19T10:00:38Z</time></trkpt><trkpt lat="38.13150442200248" lon="14.918105370264271"><ele>737.0</ele><time>2026-04-19T10:00:39Z</time></trkpt><trkpt lat="38.13159382912286" lon="14.918143855277643"><ele>737.0</ele><time>2026-04-19T10:00:40Z</time></trkpt><trkpt lat="38.13166715498165" lon="14.918203169337662"><ele>737.0</ele><time>2026-04-19T10:00:41Z</time></trkpt><trkpt lat="38.13173891073186" lon="14.918271528672197"><ele>737.0</ele><time>2026-04-19T10:00:42Z</time></trkpt><trkpt lat="38.13179591775022" lon="14.91831026799224"><ele>736.0</ele><time>2026-04-19T10:00:43Z</time></trkpt><trkpt lat="38.1318862477634" lon="14.918351833663467"><ele>735.0</ele><time>2026-04-19T10:00:45Z</time></trkpt><trkpt lat="38.1319015313919" lon="14.918472525807374"><ele>734.0</ele><time>2026-04-19T10:00:48Z</time></trkpt><trkpt lat="38.131937604849746" lon="14.918560190457804"><ele>733.0</ele><time>2026-04-19T10:00:50Z</time></trkpt><trkpt lat="38.131871511954266" lon="14.918464196023999"><ele>732.0</ele><time>2026-04-19T10:01:52.998Z</time></trkpt><trkpt lat="38.1318394823043" lon="14.918330200472155"><ele>735.0</ele><time>2026-04-19T10:01:54.998Z</time></trkpt><trkpt lat="38.13174999416818" lon="14.918289302138847"><ele>738.0</ele><time>2026-04-19T10:01:57.998Z</time></trkpt><trkpt lat="38.131663294156056" lon="14.918252905161799"><ele>741.0</ele><time>2026-04-19T10:01:59.998Z</time></trkpt><trkpt lat="38.131610790776385" lon="14.918199860625688"><ele>744.0</ele><time>2026-04-19T10:02:01.998Z</time></trkpt><trkpt lat="38.13170698464345" lon="14.9182803756077"><ele>747.0</ele><time>2026-04-19T10:04:42Z</time></trkpt><trkpt lat="38.131772794816534" lon="14.918321025093647"><ele>750.0</ele><time>2026-04-19T10:04:43Z</time></trkpt><trkpt lat="38.13183934967385" lon="14.918349819936081"><ele>746.4</ele><time>2026-04-19T10:04:44Z</time></trkpt><trkpt lat="38.131881254411915" lon="14.918432664461207"><ele>742.8</ele><time>2026-04-19T10:04:46Z</time></trkpt><trkpt lat="38.1319153523356" lon="14.918557931565065"><ele>739.2</ele><time>2026-04-19T10:04:48Z</time></trkpt><trkpt lat="38.13201552571876" lon="14.918666193767784"><ele>735.6</ele><time>2026-04-19T10:04:50Z</time></trkpt><trkpt lat="38.13210774852527" lon="14.918740409268002"><ele>732.0</ele><time>2026-04-19T10:04:52Z</time></trkpt><trkpt lat="38.13217769723955" lon="14.91881532588448"><ele>732.0</ele><time>2026-04-19T10:04:54Z</time></trkpt><trkpt lat="38.13229024071002" lon="14.918907492445966"><ele>732.0</ele><time>2026-04-19T10:04:56Z</time></trkpt><trkpt lat="38.13234351133313" lon="14.918987832214787"><ele>732.0</ele><time>2026-04-19T10:04:57Z</time></trkpt><trkpt lat="38.132392277399696" lon="14.919082301419767"><ele>732.0</ele><time>2026-04-19T10:04:58Z</time></trkpt><trkpt lat="38.132430299009684" lon="14.919193704626455"><ele>732.0</ele><time>2026-04-19T10:05:00Z</time></trkpt><trkpt lat="38.13249543530672" lon="14.919284213053995"><ele>729.8</ele><time>2026-04-19T10:05:02Z</time></trkpt><trkpt lat="38.13254654984039" lon="14.919389931848926"><ele>727.6</ele><time>2026-04-19T10:05:03.999Z</time></trkpt><trkpt lat="38.13260496740858" lon="14.919507723976794"><ele>725.4</ele><time>2026-04-19T10:05:05.999Z</time></trkpt><trkpt lat="38.132651672981744" lon="14.919636397118538"><ele>723.1999999999999</ele><time>2026-04-19T10:05:07.999Z</time></trkpt><trkpt lat="38.132680060573335" lon="14.919754125252"><ele>721.0</ele><time>2026-04-19T10:05:09.999Z</time></trkpt><trkpt lat="38.132721759932814" lon="14.919843602707502"><ele>721.0</ele><time>2026-04-19T10:05:12.999Z</time></trkpt><trkpt lat="38.1327746112423" lon="14.919919292411768"><ele>721.0</ele><time>2026-04-19T10:05:15.999Z</time></trkpt><trkpt lat="38.13283255917469" lon="14.919997467556408"><ele>721.0</ele><time>2026-04-19T10:05:18.999Z</time></trkpt><trkpt lat="38.132904645052136" lon="14.92008787542186"><ele>721.0</ele><time>2026-04-19T10:05:20.999Z</time></trkpt><trkpt lat="38.13299828792652" lon="14.920116159900585"><ele>721.0</ele><time>2026-04-19T10:05:22.999Z</time></trkpt><trkpt lat="38.133063321672665" lon="14.920138978510236"><ele>721.0</ele><time>2026-04-19T10:05:23.999Z</time></trkpt><trkpt lat="38.13316054993009" lon="14.920157507995068"><ele>716.1666666666667</ele><time>2026-04-19T10:05:25.999Z</time></trkpt><trkpt lat="38.13323910567016" lon="14.920150837899461"><ele>711.3333333333334</ele><time>2026-04-19T10:05:26.999Z</time></trkpt><trkpt lat="38.1333179657806" lon="14.920160776852876"><ele>706.5</ele><time>2026-04-19T10:05:27.999Z</time></trkpt><trkpt lat="38.1333827586672" lon="14.920159591793478"><ele>701.6666666666666</ele><time>2026-04-19T10:05:28.999Z</time></trkpt><trkpt lat="38.13345062490804" lon="14.920145509099134"><ele>696.8333333333333</ele><time>2026-04-19T10:05:29.999Z</time></trkpt><trkpt lat="38.133514064328985" lon="14.920140934929078"><ele>692.0</ele><time>2026-04-19T10:05:30.999Z</time></trkpt><trkpt lat="38.13361636259869" lon="14.920144870514187"><ele>692.0</ele><time>2026-04-19T10:05:32.999Z</time></trkpt><trkpt lat="38.133719209711316" lon="14.920128853877735"><ele>692.0</ele><time>2026-04-19T10:05:34.999Z</time></trkpt><trkpt lat="38.13379367422556" lon="14.92009324733555"><ele>692.0</ele><time>2026-04-19T10:05:36.999Z</time></trkpt><trkpt lat="38.13376042038279" lon="14.920216779566696"><ele>692.0</ele><time>2026-04-19T10:05:39.999Z</time></trkpt><trkpt lat="38.13373743816685" lon="14.920342222251861"><ele>692.0</ele><time>2026-04-19T10:05:41.999Z</time></trkpt><trkpt lat="38.13382678626762" lon="14.920353240928582"><ele>692.0</ele><time>2026-04-19T10:05:43.999Z</time></trkpt><trkpt lat="38.133882227218436" lon="14.920312618929357"><ele>692.0</ele><time>2026-04-19T10:05:44.999Z</time></trkpt><trkpt lat="38.133953500050374" lon="14.920264560995347"><ele>692.0</ele><time>2026-04-19T10:05:45.999Z</time></trkpt><trkpt lat="38.134042618264935" lon="14.920216655764474"><ele>692.0</ele><time>2026-04-19T10:05:46.999Z</time></trkpt><trkpt lat="38.13414992988087" lon="14.92018875636588"><ele>692.0</ele><time>2026-04-19T10:05:47.999Z</time></trkpt><trkpt lat="38.13424971797572" lon="14.92017612411401"><ele>689.5</ele><time>2026-04-19T10:05:48.999Z</time></trkpt><trkpt lat="38.134354741757825" lon="14.920186373172676"><ele>687.0</ele><time>2026-04-19T10:05:49.999Z</time></trkpt><trkpt lat="38.13447174650659" lon="14.920205873077164"><ele>684.5</ele><time>2026-04-19T10:05:50.999Z</time></trkpt><trkpt lat="38.134585955595064" lon="14.920226874447103"><ele>682.0</ele><time>2026-04-19T10:05:51.999Z</time></trkpt><trkpt lat="38.134697292593486" lon="14.920251657041936"><ele>682.0</ele><time>2026-04-19T10:05:52.999Z</time></trkpt><trkpt lat="38.13481075674333" lon="14.920285910250257"><ele>682.0</ele><time>2026-04-19T10:05:53.999Z</time></trkpt><trkpt lat="38.13492106345699" lon="14.920326831031689"><ele>682.0</ele><time>2026-04-19T10:05:54.999Z</time></trkpt><trkpt lat="38.13502497874948" lon="14.920371897926827"><ele>682.0</ele><time>2026-04-19T10:05:55.999Z</time></trkpt><trkpt lat="38.13511286624472" lon="14.920415783077852"><ele>682.0</ele><time>2026-04-19T10:05:56.999Z</time></trkpt><trkpt lat="38.13518383416523" lon="14.920449931636984"><ele>681.0</ele><time>2026-04-19T10:05:57.998Z</time></trkpt><trkpt lat="38.13523621616344" lon="14.920524962815584"><ele>680.0</ele><time>2026-04-19T10:05:58.998Z</time></trkpt><trkpt lat="38.13535926620767" lon="14.920542621670961"><ele>679.0</ele><time>2026-04-19T10:06:00.998Z</time></trkpt><trkpt lat="38.1354509451192" lon="14.920611578007962"><ele>678.0</ele><time>2026-04-19T10:06:02.998Z</time></trkpt><trkpt lat="38.135492965437315" lon="14.920691652905822"><ele>677.0</ele><time>2026-04-19T10:06:04.998Z</time></trkpt><trkpt lat="38.13556354853493" lon="14.920662762349242"><ele>676.9999999999999</ele><time>2026-04-19T10:06:08.998Z</time></trkpt><trkpt lat="38.135504221261776" lon="14.920631899344942"><ele>677.0</ele><time>2026-04-19T10:07:02Z</time></trkpt><trkpt lat="38.13544114008103" lon="14.920591443091643"><ele>677.0</ele><time>2026-04-19T10:08:13.998Z</time></trkpt><trkpt lat="38.13538531140179" lon="14.920553743442806"><ele>677.0</ele><time>2026-04-19T10:08:14.998Z</time></trkpt><trkpt lat="38.13532365659534" lon="14.920506191196202"><ele>677.0</ele><time>2026-04-19T10:08:15.998Z</time></trkpt><trkpt lat="38.13526315878221" lon="14.920467039149898"><ele>676.9999999999999</ele><time>2026-04-19T10:08:16.998Z</time></trkpt><trkpt lat="38.13516275272814" lon="14.920438744829505"><ele>677.0</ele><time>2026-04-19T10:08:18.998Z</time></trkpt><trkpt lat="38.135040592046884" lon="14.920387793546183"><ele>677.0</ele><time>2026-04-19T10:08:20.998Z</time></trkpt><trkpt lat="38.134951867739645" lon="14.92034749340869"><ele>677.0</ele><time>2026-04-19T10:08:21.998Z</time></trkpt><trkpt lat="38.13484989152898" lon="14.92030176322408"><ele>677.0</ele><time>2026-04-19T10:08:22.998Z</time></trkpt><trkpt lat="38.13473340897363" lon="14.920258104784637"><ele>677.0</ele><time>2026-04-19T10:08:23.998Z</time></trkpt><trkpt lat="38.134599192936975" lon="14.920219963763154"><ele>678.25</ele><time>2026-04-19T10:08:24.998Z</time></trkpt><trkpt lat="38.13445591312619" lon="14.92019848242081"><ele>679.5</ele><time>2026-04-19T10:08:25.998Z</time></trkpt><trkpt lat="38.1343139436868" lon="14.920191503084446"><ele>680.75</ele><time>2026-04-19T10:08:27Z</time></trkpt><trkpt lat="38.134197417912425" lon="14.920190768958813"><ele>682.0</ele><time>2026-04-19T10:08:28Z</time></trkpt><trkpt lat="38.134097353370386" lon="14.920204749414857"><ele>683.6666666666667</ele><time>2026-04-19T10:08:29Z</time></trkpt><trkpt lat="38.134009999122746" lon="14.92024113068327"><ele>685.3333333333334</ele><time>2026-04-19T10:08:30Z</time></trkpt><trkpt lat="38.13394322072245" lon="14.920282173342438"><ele>687.0</ele><time>2026-04-19T10:08:31Z</time></trkpt><trkpt lat="38.13387706770383" lon="14.920320592212912"><ele>688.6666666666666</ele><time>2026-04-19T10:08:32Z</time></trkpt><trkpt lat="38.133783855335366" lon="14.9203593029954"><ele>690.3333333333333</ele><time>2026-04-19T10:08:34Z</time></trkpt><trkpt lat="38.13387607224797" lon="14.920341393823765"><ele>692.0</ele><time>2026-04-19T10:10:19.998Z</time></trkpt><trkpt lat="38.13396660530641" lon="14.920287321156534"><ele>690.0</ele><time>2026-04-19T10:10:20.998Z</time></trkpt><trkpt lat="38.13405523082686" lon="14.920237937848944"><ele>688.0</ele><time>2026-04-19T10:10:21.998Z</time></trkpt><trkpt lat="38.134145573478555" lon="14.920207200858378"><ele>686.0</ele><time>2026-04-19T10:10:22.998Z</time></trkpt><trkpt lat="38.134248016360125" lon="14.920190877541373"><ele>684.0</ele><time>2026-04-19T10:10:23.998Z</time></trkpt><trkpt lat="38.1343532910737" lon="14.920192993754148"><ele>682.0</ele><time>2026-04-19T10:10:24.998Z</time></trkpt><trkpt lat="38.13447817377143" lon="14.920211607744013"><ele>682.0</ele><time>2026-04-19T10:10:25.998Z</time></trkpt><trkpt lat="38.13460258405505" lon="14.920237532593525"><ele>682.0</ele><time>2026-04-19T10:10:26.998Z</time></trkpt><trkpt lat="38.13472774474097" lon="14.920267490066315"><ele>682.0</ele><time>2026-04-19T10:10:27.998Z</time></trkpt><trkpt lat="38.13485060747013" lon="14.920313119124707"><ele>682.0</ele><time>2026-04-19T10:10:28.998Z</time></trkpt><trkpt lat="38.13497350812162" lon="14.920366059872423"><ele>680.75</ele><time>2026-04-19T10:10:29.998Z</time></trkpt><trkpt lat="38.135095524200764" lon="14.920418640374113"><ele>679.5</ele><time>2026-04-19T10:10:30.998Z</time></trkpt><trkpt lat="38.13522166064366" lon="14.920478183995945"><ele>678.25</ele><time>2026-04-19T10:10:31.998Z</time></trkpt><trkpt lat="38.135347606250875" lon="14.92054141215048"><ele>677.0</ele><time>2026-04-19T10:10:33Z</time></trkpt><trkpt lat="38.13547600027545" lon="14.920607805302746"><ele>677.0</ele><time>2026-04-19T10:10:34Z</time></trkpt><trkpt lat="38.13561016796101" lon="14.920679519633492"><ele>677.0</ele><time>2026-04-19T10:10:35Z</time></trkpt><trkpt lat="38.135750820923406" lon="14.92074491425721"><ele>677.0</ele><time>2026-04-19T10:10:36Z</time></trkpt><trkpt lat="38.13589541847139" lon="14.920798395789998"><ele>677.0</ele><time>2026-04-19T10:10:37Z</time></trkpt><trkpt lat="38.1360380254125" lon="14.920848327487114"><ele>676.25</ele><time>2026-04-19T10:10:38Z</time></trkpt><trkpt lat="38.1361800721279" lon="14.92089617272926"><ele>675.5</ele><time>2026-04-19T10:10:39Z</time></trkpt><trkpt lat="38.13632260782748" lon="14.920934561612443"><ele>674.75</ele><time>2026-04-19T10:10:40Z</time></trkpt><trkpt lat="38.13646516366976" lon="14.920972254796123"><ele>674.0</ele><time>2026-04-19T10:10:41Z</time></trkpt><trkpt lat="38.13660505021423" lon="14.92101691882598"><ele>671.5</ele><time>2026-04-19T10:10:42Z</time></trkpt><trkpt lat="38.136737163364664" lon="14.921077233943976"><ele>669.0</ele><time>2026-04-19T10:10:43Z</time></trkpt><trkpt lat="38.13686610917523" lon="14.92114516683123"><ele>666.5</ele><time>2026-04-19T10:10:44Z</time></trkpt><trkpt lat="38.13700279059848" lon="14.921216924424067"><ele>664.0</ele><time>2026-04-19T10:10:45Z</time></trkpt><trkpt lat="38.13712411601565" lon="14.921317861025907"><ele>664.0</ele><time>2026-04-19T10:10:46Z</time></trkpt><trkpt lat="38.13725668684962" lon="14.921387788305323"><ele>664.0</ele><time>2026-04-19T10:10:47Z</time></trkpt><trkpt lat="38.13738067695608" lon="14.92145882121717"><ele>664.0</ele><time>2026-04-19T10:10:48Z</time></trkpt><trkpt lat="38.13752079675345" lon="14.921441072857245"><ele>664.0</ele><time>2026-04-19T10:10:49Z</time></trkpt><trkpt lat="38.13763203989346" lon="14.921420784374773"><ele>664.8000000000001</ele><time>2026-04-19T10:10:50Z</time></trkpt><trkpt lat="38.137731155253746" lon="14.92138697081236"><ele>665.6</ele><time>2026-04-19T10:10:51Z</time></trkpt><trkpt lat="38.13783220673387" lon="14.921355017009004"><ele>666.4</ele><time>2026-04-19T10:10:52Z</time></trkpt><trkpt lat="38.13793049086368" lon="14.92132905278443"><ele>667.2</ele><time>2026-04-19T10:10:53Z</time></trkpt><trkpt lat="38.138024817259264" lon="14.92130613081824"><ele>668.0</ele><time>2026-04-19T10:10:54Z</time></trkpt><trkpt lat="38.13811627103645" lon="14.921294005841798"><ele>668.0</ele><time>2026-04-19T10:10:55Z</time></trkpt><trkpt lat="38.13820519941405" lon="14.921346133892513"><ele>668.0</ele><time>2026-04-19T10:10:56Z</time></trkpt><trkpt lat="38.13831969508508" lon="14.921396696889458"><ele>668.0</ele><time>2026-04-19T10:10:58Z</time></trkpt><trkpt lat="38.13842848151946" lon="14.921479830164635"><ele>668.0</ele><time>2026-04-19T10:11:00Z</time></trkpt><trkpt lat="38.13848599905969" lon="14.92152486394782"><ele>668.0</ele><time>2026-04-19T10:11:01Z</time></trkpt><trkpt lat="38.13857714203004" lon="14.921544149275121"><ele>667.4</ele><time>2026-04-19T10:11:02Z</time></trkpt><trkpt lat="38.13865267142343" lon="14.921591058087005"><ele>666.8</ele><time>2026-04-19T10:11:03Z</time></trkpt><trkpt lat="38.13872542495537" lon="14.921643413054118"><ele>666.2</ele><time>2026-04-19T10:11:04Z</time></trkpt><trkpt lat="38.13880550202301" lon="14.921699050153729"><ele>665.6</ele><time>2026-04-19T10:11:05Z</time></trkpt><trkpt lat="38.138905969209276" lon="14.921766619502352"><ele>665.0</ele><time>2026-04-19T10:11:06Z</time></trkpt><trkpt lat="38.13902480303442" lon="14.921843666960104"><ele>670.4</ele><time>2026-04-19T10:11:07Z</time></trkpt><trkpt lat="38.139136432017935" lon="14.921916752569338"><ele>675.8</ele><time>2026-04-19T10:11:08Z</time></trkpt><trkpt lat="38.139211305966626" lon="14.92198680012678"><ele>681.2</ele><time>2026-04-19T10:11:09Z</time></trkpt><trkpt lat="38.139278432878484" lon="14.922057737997758"><ele>686.6</ele><time>2026-04-19T10:11:10Z</time></trkpt><trkpt lat="38.13936409140611" lon="14.92210875269635"><ele>692.0</ele><time>2026-04-19T10:11:11Z</time></trkpt><trkpt lat="38.13945698206761" lon="14.922154649704185"><ele>692.0</ele><time>2026-04-19T10:11:12Z</time></trkpt><trkpt lat="38.139545339500835" lon="14.922211420952413"><ele>692.0</ele><time>2026-04-19T10:11:13Z</time></trkpt><trkpt lat="38.13962171760059" lon="14.922271916497115"><ele>692.0</ele><time>2026-04-19T10:11:14Z</time></trkpt><trkpt lat="38.13967766336291" lon="14.92232595107949"><ele>692.0</ele><time>2026-04-19T10:11:15Z</time></trkpt><trkpt lat="38.13975389126595" lon="14.922432392099187"><ele>692.0</ele><time>2026-04-19T10:11:17Z</time></trkpt><trkpt lat="38.13979558607681" lon="14.922510357011873"><ele>692.0</ele><time>2026-04-19T10:11:17.999Z</time></trkpt><trkpt lat="38.1398422104787" lon="14.922614217833909"><ele>692.2</ele><time>2026-04-19T10:11:18.999Z</time></trkpt><trkpt lat="38.13989542427603" lon="14.922729092830687"><ele>692.4000000000001</ele><time>2026-04-19T10:11:19.999Z</time></trkpt><trkpt lat="38.13995335988082" lon="14.922849889222178"><ele>692.5999999999999</ele><time>2026-04-19T10:11:20.999Z</time></trkpt><trkpt lat="38.139998377902295" lon="14.922974761472354"><ele>692.8</ele><time>2026-04-19T10:11:21.999Z</time></trkpt><trkpt lat="38.140032061005684" lon="14.923094748247017"><ele>693.0</ele><time>2026-04-19T10:11:22.999Z</time></trkpt><trkpt lat="38.14006625744091" lon="14.92320677865933"><ele>693.0</ele><time>2026-04-19T10:11:23.999Z</time></trkpt><trkpt lat="38.14012317114413" lon="14.923315146008694"><ele>693.0</ele><time>2026-04-19T10:11:24.999Z</time></trkpt><trkpt lat="38.14019890442308" lon="14.923425334955855"><ele>693.0</ele><time>2026-04-19T10:11:25.999Z</time></trkpt><trkpt lat="38.14027401286288" lon="14.92353357387872"><ele>693.0</ele><time>2026-04-19T10:11:26.999Z</time></trkpt><trkpt lat="38.14033809984493" lon="14.923651837155795"><ele>693.0</ele><time>2026-04-19T10:11:27.999Z</time></trkpt><trkpt lat="38.14040305306723" lon="14.923758372531106"><ele>689.8</ele><time>2026-04-19T10:11:28.999Z</time></trkpt><trkpt lat="38.14047234788833" lon="14.92384934886533"><ele>686.5999999999999</ele><time>2026-04-19T10:11:29.999Z</time></trkpt><trkpt lat="38.14054261466777" lon="14.923934950997658"><ele>683.4000000000001</ele><time>2026-04-19T10:11:30.999Z</time></trkpt><trkpt lat="38.14060422116596" lon="14.924014510645002"><ele>680.2</ele><time>2026-04-19T10:11:31.999Z</time></trkpt><trkpt lat="38.14064756091668" lon="14.924084553427667"><ele>677.0</ele><time>2026-04-19T10:11:32.999Z</time></trkpt><trkpt lat="38.140664065957445" lon="14.924221910222384"><ele>673.8</ele><time>2026-04-19T10:11:34.999Z</time></trkpt><trkpt lat="38.14068017039724" lon="14.924361219358193"><ele>670.6</ele><time>2026-04-19T10:11:36.999Z</time></trkpt><trkpt lat="38.14070283113828" lon="14.924475156196243"><ele>667.4</ele><time>2026-04-19T10:11:38.999Z</time></trkpt><trkpt lat="38.140772068599766" lon="14.92460499661651"><ele>664.1999999999999</ele><time>2026-04-19T10:11:40.999Z</time></trkpt><trkpt lat="38.14082023586604" lon="14.924665465892035"><ele>661.0</ele><time>2026-04-19T10:11:41.999Z</time></trkpt><trkpt lat="38.14087407236692" lon="14.924721392012055"><ele>666.0</ele><time>2026-04-19T10:11:42.999Z</time></trkpt><trkpt lat="38.14092108914672" lon="14.924787092275869"><ele>671.0</ele><time>2026-04-19T10:11:43.999Z</time></trkpt><trkpt lat="38.14095993851186" lon="14.924852824512222"><ele>676.0</ele><time>2026-04-19T10:11:44.999Z</time></trkpt><trkpt lat="38.14100837447618" lon="14.924937668952179"><ele>681.0</ele><time>2026-04-19T10:11:46.999Z</time></trkpt><trkpt lat="38.141049006532945" lon="14.92502248855184"><ele>686.0</ele><time>2026-04-19T10:11:49.999Z</time></trkpt><trkpt lat="38.14111325920072" lon="14.925121348330356"><ele>691.0</ele><time>2026-04-19T10:12:50Z</time></trkpt><trkpt lat="38.14115420270072" lon="14.925191195248162"><ele>691.0</ele><time>2026-04-19T10:12:53Z</time></trkpt><trkpt lat="38.14123581143757" lon="14.925216040521356"><ele>691.0</ele><time>2026-04-19T10:12:55Z</time></trkpt><trkpt lat="38.141311548281536" lon="14.925285344845765"><ele>691.0</ele><time>2026-04-19T10:12:57Z</time></trkpt><trkpt lat="38.141390672826184" lon="14.925381478123708"><ele>691.0</ele><time>2026-04-19T10:12:59Z</time></trkpt><trkpt lat="38.14143274351008" lon="14.92544501052133"><ele>691.0</ele><time>2026-04-19T10:13:00Z</time></trkpt><trkpt lat="38.14148107506235" lon="14.925506031411187"><ele>691.0</ele><time>2026-04-19T10:13:01Z</time></trkpt><trkpt lat="38.14155983175226" lon="14.925596114912661"><ele>695.4</ele><time>2026-04-19T10:13:03Z</time></trkpt><trkpt lat="38.14161259819283" lon="14.925689014967674"><ele>699.8</ele><time>2026-04-19T10:13:05Z</time></trkpt><trkpt lat="38.14168645341469" lon="14.925773467400159"><ele>704.1999999999999</ele><time>2026-04-19T10:14:51Z</time></trkpt><trkpt lat="38.14173863839228" lon="14.92586514755892"><ele>708.5999999999999</ele><time>2026-04-19T10:14:53Z</time></trkpt><trkpt lat="38.14180072501371" lon="14.925983600542715"><ele>713.0</ele><time>2026-04-19T10:14:55Z</time></trkpt><trkpt lat="38.141853808629236" lon="14.926091364232327"><ele>713.0</ele><time>2026-04-19T10:14:57Z</time></trkpt><trkpt lat="38.14190923167747" lon="14.92621085490106"><ele>713.0</ele><time>2026-04-19T10:14:59Z</time></trkpt><trkpt lat="38.14197054889662" lon="14.926306057396712"><ele>713.0</ele><time>2026-04-19T10:15:01Z</time></trkpt><trkpt lat="38.14206826078367" lon="14.92641384759411"><ele>713.0</ele><time>2026-04-19T10:15:03Z</time></trkpt><trkpt lat="38.142118107825034" lon="14.926470299873902"><ele>713.0</ele><time>2026-04-19T10:15:04Z</time></trkpt><trkpt lat="38.14216650092244" lon="14.926521927685291"><ele>713.0</ele><time>2026-04-19T10:15:05Z</time></trkpt><trkpt lat="38.14224600777791" lon="14.926594637705191"><ele>713.0</ele><time>2026-04-19T10:15:07Z</time></trkpt><trkpt lat="38.14233738792853" lon="14.926621908780142"><ele>713.0</ele><time>2026-04-19T10:15:09Z</time></trkpt><trkpt lat="38.14242872848461" lon="14.926655828743248"><ele>713.0</ele><time>2026-04-19T10:15:11Z</time></trkpt><trkpt lat="38.14249320142419" lon="14.926710109312086"><ele>713.0</ele><time>2026-04-19T10:15:13Z</time></trkpt><trkpt lat="38.14255115179905" lon="14.926794098011662"><ele>713.6666666666666</ele><time>2026-04-19T10:15:16Z</time></trkpt><trkpt lat="38.142617396020974" lon="14.926860448830992"><ele>714.3333333333333</ele><time>2026-04-19T10:15:18Z</time></trkpt><trkpt lat="38.142696337053714" lon="14.92693778907106"><ele>715.0</ele><time>2026-04-19T10:15:20Z</time></trkpt><trkpt lat="38.142753571124295" lon="14.927071159677345"><ele>715.6666666666666</ele><time>2026-04-19T10:15:22Z</time></trkpt><trkpt lat="38.14276939925591" lon="14.92715333307126"><ele>716.3333333333334</ele><time>2026-04-19T10:15:23Z</time></trkpt><trkpt lat="38.14279454507931" lon="14.927233529790467"><ele>717.0</ele><time>2026-04-19T10:15:24Z</time></trkpt><trkpt lat="38.142823784322246" lon="14.927304926310828"><ele>717.0</ele><time>2026-04-19T10:15:24.999Z</time></trkpt><trkpt lat="38.142882511479904" lon="14.927445737535297"><ele>717.0</ele><time>2026-04-19T10:15:26.999Z</time></trkpt><trkpt lat="38.14292967651503" lon="14.927541369565915"><ele>717.0</ele><time>2026-04-19T10:15:27.999Z</time></trkpt><trkpt lat="38.1429860190296" lon="14.927645030249156"><ele>717.0</ele><time>2026-04-19T10:15:28.999Z</time></trkpt><trkpt lat="38.14305051292071" lon="14.92775698979627"><ele>717.0</ele><time>2026-04-19T10:15:29.999Z</time></trkpt><trkpt lat="38.143117492777186" lon="14.927870279789754"><ele>714.4000000000001</ele><time>2026-04-19T10:15:30.999Z</time></trkpt><trkpt lat="38.14318269408178" lon="14.927962974718263"><ele>711.8000000000001</ele><time>2026-04-19T10:15:31.999Z</time></trkpt><trkpt lat="38.14325299633037" lon="14.92805686492096"><ele>709.2</ele><time>2026-04-19T10:15:32.999Z</time></trkpt><trkpt lat="38.14332197181247" lon="14.92814279436796"><ele>706.6</ele><time>2026-04-19T10:15:33.999Z</time></trkpt><trkpt lat="38.14337909990478" lon="14.928239542736081"><ele>704.0</ele><time>2026-04-19T10:15:34.999Z</time></trkpt><trkpt lat="38.14342421090947" lon="14.92832088634021"><ele>708.6666666666666</ele><time>2026-04-19T10:15:35.999Z</time></trkpt><trkpt lat="38.14347130461537" lon="14.928385535840999"><ele>713.3333333333333</ele><time>2026-04-19T10:15:36.999Z</time></trkpt><trkpt lat="38.143523973802935" lon="14.928453404504344"><ele>718.0</ele><time>2026-04-19T10:15:37.999Z</time></trkpt><trkpt lat="38.14357121819966" lon="14.92850749031676"><ele>722.6666666666666</ele><time>2026-04-19T10:15:38.999Z</time></trkpt><trkpt lat="38.14369480554563" lon="14.928578369441773"><ele>727.3333333333334</ele><time>2026-04-19T10:15:40.999Z</time></trkpt><trkpt lat="38.14377718285248" lon="14.928596268342472"><ele>732.0</ele><time>2026-04-19T10:15:41.999Z</time></trkpt><trkpt lat="38.143858460886335" lon="14.928609821748122"><ele>732.1666666666666</ele><time>2026-04-19T10:15:42.999Z</time></trkpt><trkpt lat="38.143945824857965" lon="14.928614478910498"><ele>732.3333333333334</ele><time>2026-04-19T10:15:43.999Z</time></trkpt><trkpt lat="38.1440271360612" lon="14.928636130021506"><ele>732.5</ele><time>2026-04-19T10:15:44.999Z</time></trkpt><trkpt lat="38.14410477950744" lon="14.928678252869508"><ele>732.6666666666667</ele><time>2026-04-19T10:15:45.999Z</time></trkpt><trkpt lat="38.144169126239824" lon="14.928710295435481"><ele>732.8333333333334</ele><time>2026-04-19T10:15:46.999Z</time></trkpt><trkpt lat="38.14428938137738" lon="14.928743689695361"><ele>733.0</ele><time>2026-04-19T10:15:48.999Z</time></trkpt><trkpt lat="38.14434199240294" lon="14.928801243636437"><ele>738.5</ele><time>2026-04-19T10:15:50.999Z</time></trkpt><trkpt lat="38.14430416868501" lon="14.928881957790649"><ele>744.0</ele><time>2026-04-19T10:15:52.999Z</time></trkpt><trkpt lat="38.144239688367605" lon="14.928890987481822"><ele>749.5</ele><time>2026-04-19T10:15:53.999Z</time></trkpt><trkpt lat="38.14416394166139" lon="14.928892548529486"><ele>755.0</ele><time>2026-04-19T10:15:54.999Z</time></trkpt><trkpt lat="38.14411046007968" lon="14.928980177098271"><ele>760.5</ele><time>2026-04-19T10:15:56.999Z</time></trkpt><trkpt lat="38.14416169204827" lon="14.929101282314836"><ele>766.0</ele><time>2026-04-19T10:15:58.999Z</time></trkpt><trkpt lat="38.14421730355362" lon="14.929153737850813"><ele>766.0</ele><time>2026-04-19T10:15:59.999Z</time></trkpt><trkpt lat="38.14426813586589" lon="14.929207855877717"><ele>766.0</ele><time>2026-04-19T10:16:00.999Z</time></trkpt><trkpt lat="38.14431342897289" lon="14.929271976775425"><ele>766.0</ele><time>2026-04-19T10:16:01.999Z</time></trkpt><trkpt lat="38.144373663846416" lon="14.929347220394705"><ele>766.0</ele><time>2026-04-19T10:16:02.999Z</time></trkpt><trkpt lat="38.14443708492601" lon="14.929414109177168"><ele>766.0</ele><time>2026-04-19T10:16:03.999Z</time></trkpt><trkpt lat="38.1444811294936" lon="14.929485545074485"><ele>766.0</ele><time>2026-04-19T10:16:04.999Z</time></trkpt><trkpt lat="38.144497553991606" lon="14.929564783911319"><ele>766.0</ele><time>2026-04-19T10:16:05.999Z</time></trkpt><trkpt lat="38.14449895620454" lon="14.929658523775904"><ele>766.1999999999999</ele><time>2026-04-19T10:16:06.999Z</time></trkpt><trkpt lat="38.14448862293634" lon="14.929772022901929"><ele>766.4</ele><time>2026-04-19T10:16:07.999Z</time></trkpt><trkpt lat="38.144486681823096" lon="14.929907142466034"><ele>766.6</ele><time>2026-04-19T10:16:08.999Z</time></trkpt><trkpt lat="38.14449859584842" lon="14.93005349973543"><ele>766.8</ele><time>2026-04-19T10:16:09.999Z</time></trkpt><trkpt lat="38.14451108485598" lon="14.93017560873496"><ele>767.0</ele><time>2026-04-19T10:16:10.999Z</time></trkpt><trkpt lat="38.14452008014723" lon="14.930297950243885"><ele>767.0</ele><time>2026-04-19T10:16:11.999Z</time></trkpt><trkpt lat="38.144529219768906" lon="14.930416179275674"><ele>767.0</ele><time>2026-04-19T10:16:12.999Z</time></trkpt><trkpt lat="38.14454246090374" lon="14.930510361092432"><ele>767.0</ele><time>2026-04-19T10:16:13.999Z</time></trkpt><trkpt lat="38.14456137718729" lon="14.93059640665687"><ele>767.0</ele><time>2026-04-19T10:16:14.999Z</time></trkpt><trkpt lat="38.14458692740371" lon="14.93068093415266"><ele>767.0</ele><time>2026-04-19T10:16:15.999Z</time></trkpt><trkpt lat="38.144620110611335" lon="14.930768902308738"><ele>767.0</ele><time>2026-04-19T10:16:16.999Z</time></trkpt><trkpt lat="38.1446584732333" lon="14.930869791591071"><ele>766.5</ele><time>2026-04-19T10:16:17.999Z</time></trkpt><trkpt lat="38.144694111414324" lon="14.930980576241993"><ele>766.0</ele><time>2026-04-19T10:16:18.999Z</time></trkpt><trkpt lat="38.14472918813396" lon="14.931068841553808"><ele>765.5</ele><time>2026-04-19T10:16:19.999Z</time></trkpt><trkpt lat="38.14477027262534" lon="14.931149892178954"><ele>765.0</ele><time>2026-04-19T10:16:20.998Z</time></trkpt><trkpt lat="38.144802143678184" lon="14.931238297634902"><ele>764.5</ele><time>2026-04-19T10:16:21.998Z</time></trkpt><trkpt lat="38.14481672258758" lon="14.931329323888225"><ele>764.0</ele><time>2026-04-19T10:16:22.998Z</time></trkpt><trkpt lat="38.14483915784573" lon="14.931413144273145"><ele>764.0</ele><time>2026-04-19T10:16:23.998Z</time></trkpt><trkpt lat="38.14485874284393" lon="14.931530854811779"><ele>764.0</ele><time>2026-04-19T10:16:25.998Z</time></trkpt><trkpt lat="38.14490431045347" lon="14.931601858963171"><ele>764.0</ele><time>2026-04-19T10:16:26.998Z</time></trkpt><trkpt lat="38.144950862170845" lon="14.931691009808471"><ele>764.0</ele><time>2026-04-19T10:16:27.998Z</time></trkpt><trkpt lat="38.14499507034289" lon="14.931778857762502"><ele>764.0</ele><time>2026-04-19T10:16:28.998Z</time></trkpt><trkpt lat="38.14504441848796" lon="14.931843036651422"><ele>764.0</ele><time>2026-04-19T10:16:29.998Z</time></trkpt><trkpt lat="38.14511102785673" lon="14.931883585422932"><ele>769.0</ele><time>2026-04-19T10:16:30.998Z</time></trkpt><trkpt lat="38.14523158571015" lon="14.931919103944297"><ele>774.0</ele><time>2026-04-19T10:16:32.998Z</time></trkpt><trkpt lat="38.14530583578871" lon="14.9319441107358"><ele>779.0</ele><time>2026-04-19T10:16:33.998Z</time></trkpt><trkpt lat="38.14537423827297" lon="14.931993797030266"><ele>784.0</ele><time>2026-04-19T10:16:34.998Z</time></trkpt><trkpt lat="38.14543242476715" lon="14.932054952408167"><ele>789.0000000000001</ele><time>2026-04-19T10:16:35.998Z</time></trkpt><trkpt lat="38.145490433338765" lon="14.932101276838958"><ele>794.0</ele><time>2026-04-19T10:16:36.998Z</time></trkpt><trkpt lat="38.14558786650321" lon="14.932122919995377"><ele>794.0000000000001</ele><time>2026-04-19T10:16:38.998Z</time></trkpt><trkpt lat="38.14565989121866" lon="14.932146179446997"><ele>794.0</ele><time>2026-04-19T10:16:39.998Z</time></trkpt><trkpt lat="38.14574492797461" lon="14.932171811496215"><ele>794.0</ele><time>2026-04-19T10:16:40.998Z</time></trkpt><trkpt lat="38.14582450061209" lon="14.932188659321474"><ele>794.0</ele><time>2026-04-19T10:16:41.998Z</time></trkpt><trkpt lat="38.14589755718251" lon="14.932196120509529"><ele>794.0000000000001</ele><time>2026-04-19T10:16:42.998Z</time></trkpt><trkpt lat="38.14598516311937" lon="14.932234140662555"><ele>794.0</ele><time>2026-04-19T10:16:44.998Z</time></trkpt><trkpt lat="38.146030402172016" lon="14.932315880349487"><ele>795.8000000000001</ele><time>2026-04-19T10:16:46.998Z</time></trkpt><trkpt lat="38.14611093442777" lon="14.932370101291177"><ele>797.6</ele><time>2026-04-19T10:16:48.998Z</time></trkpt><trkpt lat="38.14621205836139" lon="14.93242476769546"><ele>799.4</ele><time>2026-04-19T10:16:51Z</time></trkpt><trkpt lat="38.14627378215422" lon="14.932470070160278"><ele>801.2</ele><time>2026-04-19T10:16:52Z</time></trkpt><trkpt lat="38.1463504982164" lon="14.932495624358321"><ele>803.0</ele><time>2026-04-19T10:16:53Z</time></trkpt><trkpt lat="38.14646814218021" lon="14.932521173850226"><ele>803.0000000000001</ele><time>2026-04-19T10:16:55Z</time></trkpt><trkpt lat="38.14653227681118" lon="14.9325238314738"><ele>803.0</ele><time>2026-04-19T10:16:56Z</time></trkpt><trkpt lat="38.14663554607738" lon="14.932502968156095"><ele>803.0</ele><time>2026-04-19T10:16:58Z</time></trkpt><trkpt lat="38.14672563435003" lon="14.9324341154609"><ele>803.0</ele><time>2026-04-19T10:17:00Z</time></trkpt><trkpt lat="38.14681768076935" lon="14.932454817646402"><ele>803.0000000000001</ele><time>2026-04-19T10:17:03Z</time></trkpt><trkpt lat="38.14686893805079" lon="14.93250949205141"><ele>803.0</ele><time>2026-04-19T10:17:06Z</time></trkpt><trkpt lat="38.14694072509017" lon="14.932502734925693"><ele>803.6666666666667</ele><time>2026-04-19T10:17:16Z</time></trkpt><trkpt lat="38.147014874146" lon="14.932501023489033"><ele>804.3333333333334</ele><time>2026-04-19T10:17:21Z</time></trkpt><trkpt lat="38.147086699699145" lon="14.932430167930043"><ele>805.0</ele><time>2026-04-19T10:17:24Z</time></trkpt><trkpt lat="38.14713476903996" lon="14.93237134544107"><ele>805.6666666666667</ele><time>2026-04-19T10:17:38.999Z</time></trkpt><trkpt lat="38.14709588018625" lon="14.93229475682749"><ele>806.3333333333334</ele><time>2026-04-19T10:18:27.998Z</time></trkpt><trkpt lat="38.14715376277312" lon="14.932257362535907"><ele>807.0</ele><time>2026-04-19T10:18:32.998Z</time></trkpt><trkpt lat="38.14725208207814" lon="14.932213274931069"><ele>807.0000000000001</ele><time>2026-04-19T10:18:34.998Z</time></trkpt><trkpt lat="38.14731962953683" lon="14.932198205802067"><ele>807.0</ele><time>2026-04-19T10:18:37.998Z</time></trkpt><trkpt lat="38.147382650627" lon="14.932184523425077"><ele>807.0</ele><time>2026-04-19T10:18:48.998Z</time></trkpt><trkpt lat="38.14744566320586" lon="14.932136436555336"><ele>807.0</ele><time>2026-04-19T10:19:16Z</time></trkpt><trkpt lat="38.14738491570314" lon="14.932174607972819"><ele>807.0</ele><time>2026-04-19T10:22:12.999Z</time></trkpt><trkpt lat="38.1473089040764" lon="14.932204751003475"><ele>807.0000000000001</ele><time>2026-04-19T10:22:20.999Z</time></trkpt><trkpt lat="38.14723639559699" lon="14.932211041193867"><ele>807.0</ele><time>2026-04-19T10:22:23.999Z</time></trkpt><trkpt lat="38.14715627163443" lon="14.932253082848144"><ele>807.0000000000001</ele><time>2026-04-19T10:22:25.999Z</time></trkpt><trkpt lat="38.14707576441445" lon="14.932257861622231"><ele>807.0</ele><time>2026-04-19T10:22:28.999Z</time></trkpt><trkpt lat="38.14701340601555" lon="14.932271999649648"><ele>807.0</ele><time>2026-04-19T10:22:31.999Z</time></trkpt><trkpt lat="38.14694293290407" lon="14.932277272193517"><ele>807.0</ele><time>2026-04-19T10:22:35.998Z</time></trkpt><trkpt lat="38.14687975873896" lon="14.932320688844893"><ele>807.0</ele><time>2026-04-19T10:22:38.998Z</time></trkpt><trkpt lat="38.14681884341269" lon="14.932356883219803"><ele>807.0000000000001</ele><time>2026-04-19T10:22:44.998Z</time></trkpt><trkpt lat="38.14675157680539" lon="14.9323597272723"><ele>807.0</ele><time>2026-04-19T10:22:49.998Z</time></trkpt><trkpt lat="38.14669160280581" lon="14.932413557132502"><ele>807.0</ele><time>2026-04-19T10:22:52.998Z</time></trkpt><trkpt lat="38.14661929003965" lon="14.932474432408217"><ele>807.0</ele><time>2026-04-19T10:22:54.998Z</time></trkpt><trkpt lat="38.146550860223876" lon="14.9325221965306"><ele>807.0</ele><time>2026-04-19T10:22:55.998Z</time></trkpt><trkpt lat="38.146407611096315" lon="14.932540701537391"><ele>807.0</ele><time>2026-04-19T10:22:57.998Z</time></trkpt><trkpt lat="38.146293422580015" lon="14.932503872321636"><ele>807.0</ele><time>2026-04-19T10:22:59.998Z</time></trkpt><trkpt lat="38.14616549582059" lon="14.932451026896333"><ele>806.3333333333334</ele><time>2026-04-19T10:23:01.998Z</time></trkpt><trkpt lat="38.14610570042736" lon="14.932408602636876"><ele>805.6666666666667</ele><time>2026-04-19T10:23:02.998Z</time></trkpt><trkpt lat="38.14604534171309" lon="14.932364031745914"><ele>805.0</ele><time>2026-04-19T10:23:03.998Z</time></trkpt><trkpt lat="38.14595897080036" lon="14.932304701235037"><ele>804.3333333333334</ele><time>2026-04-19T10:23:05.998Z</time></trkpt><trkpt lat="38.14589685915301" lon="14.932242068708245"><ele>803.6666666666667</ele><time>2026-04-19T10:23:08Z</time></trkpt><trkpt lat="38.14579999317624" lon="14.932193216074918"><ele>803.0</ele><time>2026-04-19T10:23:11Z</time></trkpt><trkpt lat="38.14567113633483" lon="14.932190122390198"><ele>801.5000000000001</ele><time>2026-04-19T10:23:13Z</time></trkpt><trkpt lat="38.1455799794982" lon="14.932171020793856"><ele>800.0</ele><time>2026-04-19T10:23:14Z</time></trkpt><trkpt lat="38.14550769336872" lon="14.932160589724242"><ele>798.5</ele><time>2026-04-19T10:23:15Z</time></trkpt><trkpt lat="38.14539944931289" lon="14.932181529827757"><ele>797.0</ele><time>2026-04-19T10:23:17Z</time></trkpt><trkpt lat="38.145329412056164" lon="14.932222337244472"><ele>795.5000000000001</ele><time>2026-04-19T10:23:19Z</time></trkpt><trkpt lat="38.14528401148906" lon="14.932295164164598"><ele>794.0</ele><time>2026-04-19T10:23:25Z</time></trkpt><trkpt lat="38.14522131566335" lon="14.93230917800492"><ele>794.0</ele><time>2026-04-19T10:23:27Z</time></trkpt><trkpt lat="38.145193703375476" lon="14.932382598881654"><ele>794.0</ele><time>2026-04-19T10:23:29Z</time></trkpt><trkpt lat="38.14515566372775" lon="14.932450470657116"><ele>794.0</ele><time>2026-04-19T10:23:31Z</time></trkpt><trkpt lat="38.14513693079" lon="14.932539014762085"><ele>794.0</ele><time>2026-04-19T10:23:34Z</time></trkpt><trkpt lat="38.145126398649495" lon="14.932638317392998"><ele>794.0</ele><time>2026-04-19T10:23:39Z</time></trkpt><trkpt lat="38.14510517256351" lon="14.932723034647854"><ele>794.0</ele><time>2026-04-19T10:23:43Z</time></trkpt><trkpt lat="38.14508264188347" lon="14.932802670593395"><ele>794.0</ele><time>2026-04-19T10:23:47.999Z</time></trkpt><trkpt lat="38.14505608054344" lon="14.932880148045847"><ele>790.5000000000001</ele><time>2026-04-19T10:23:51.999Z</time></trkpt><trkpt lat="38.14503363208078" lon="14.93298206557309"><ele>787.0</ele><time>2026-04-19T10:23:56.999Z</time></trkpt><trkpt lat="38.14499666557895" lon="14.93306171564435"><ele>783.5</ele><time>2026-04-19T10:23:59.999Z</time></trkpt><trkpt lat="38.14492681893315" lon="14.93310041896133"><ele>780.0</ele><time>2026-04-19T10:24:02.999Z</time></trkpt><trkpt lat="38.14483940219994" lon="14.933103755548359"><ele>776.5000000000001</ele><time>2026-04-19T10:24:05.999Z</time></trkpt><trkpt lat="38.14476453687566" lon="14.933122064378558"><ele>773.0</ele><time>2026-04-19T10:24:08.999Z</time></trkpt><trkpt lat="38.14470459531997" lon="14.933206003913954"><ele>770.0000000000001</ele><time>2026-04-19T10:24:10.999Z</time></trkpt><trkpt lat="38.144620402876676" lon="14.933253592539513"><ele>767.0</ele><time>2026-04-19T10:24:12.999Z</time></trkpt><trkpt lat="38.14454503647889" lon="14.93327690328165"><ele>764.0</ele><time>2026-04-19T10:24:14.999Z</time></trkpt><trkpt lat="38.14446961700097" lon="14.93331128035603"><ele>761.0</ele><time>2026-04-19T10:24:16.999Z</time></trkpt><trkpt lat="38.14439793317055" lon="14.933332960749533"><ele>758.0</ele><time>2026-04-19T10:24:18.999Z</time></trkpt><trkpt lat="38.144332302351195" lon="14.93336830011359"><ele>755.0</ele><time>2026-04-19T10:24:20.999Z</time></trkpt><trkpt lat="38.14427576774021" lon="14.933408956991846"><ele>752.7142857142857</ele><time>2026-04-19T10:24:22.999Z</time></trkpt><trkpt lat="38.144207728054546" lon="14.933450631483156"><ele>750.4285714285714</ele><time>2026-04-19T10:24:24.999Z</time></trkpt><trkpt lat="38.14414849536716" lon="14.933490169364882"><ele>748.1428571428571</ele><time>2026-04-19T10:24:26.999Z</time></trkpt><trkpt lat="38.144101011761386" lon="14.933552581408023"><ele>745.8571428571429</ele><time>2026-04-19T10:24:28.999Z</time></trkpt><trkpt lat="38.14404368604333" lon="14.933628091598456"><ele>743.5714285714287</ele><time>2026-04-19T10:24:30.999Z</time></trkpt><trkpt lat="38.14397361472154" lon="14.933642075730212"><ele>741.2857142857143</ele><time>2026-04-19T10:24:32.999Z</time></trkpt><trkpt lat="38.14389284639703" lon="14.933609269028928"><ele>739.0</ele><time>2026-04-19T10:24:34.999Z</time></trkpt><trkpt lat="38.14382719422762" lon="14.933541505778393"><ele>737.4000000000001</ele><time>2026-04-19T10:24:36.999Z</time></trkpt><trkpt lat="38.14373062442335" lon="14.93350178225159"><ele>735.8</ele><time>2026-04-19T10:24:38.999Z</time></trkpt><trkpt lat="38.14365407034614" lon="14.933590372084359"><ele>734.2</ele><time>2026-04-19T10:24:40.998Z</time></trkpt><trkpt lat="38.14358150720736" lon="14.933722270732648"><ele>732.5999999999999</ele><time>2026-04-19T10:24:42.998Z</time></trkpt><trkpt lat="38.143534677402435" lon="14.933786602225709"><ele>731.0</ele><time>2026-04-19T10:24:43.998Z</time></trkpt><trkpt lat="38.14347932811557" lon="14.933851820866487"><ele>731.0</ele><time>2026-04-19T10:24:44.998Z</time></trkpt><trkpt lat="38.14341887482492" lon="14.933919846868323"><ele>731.0</ele><time>2026-04-19T10:24:45.998Z</time></trkpt><trkpt lat="38.143349791699805" lon="14.933980257064732"><ele>731.0</ele><time>2026-04-19T10:24:46.998Z</time></trkpt><trkpt lat="38.14327896890958" lon="14.934036080069024"><ele>731.0</ele><time>2026-04-19T10:24:47.998Z</time></trkpt><trkpt lat="38.14321162534474" lon="14.934094946154852"><ele>731.0</ele><time>2026-04-19T10:24:48.998Z</time></trkpt><trkpt lat="38.14314509853713" lon="14.934151968892728"><ele>731.0</ele><time>2026-04-19T10:24:49.998Z</time></trkpt><trkpt lat="38.143079617654486" lon="14.934197922129027"><ele>728.8333333333333</ele><time>2026-04-19T10:24:50.998Z</time></trkpt><trkpt lat="38.143016115267926" lon="14.934233266950521"><ele>726.6666666666666</ele><time>2026-04-19T10:24:51.998Z</time></trkpt><trkpt lat="38.142956787302616" lon="14.934275183669707"><ele>724.5</ele><time>2026-04-19T10:24:52.998Z</time></trkpt><trkpt lat="38.14289646537806" lon="14.934321155980832"><ele>722.3333333333334</ele><time>2026-04-19T10:24:53.998Z</time></trkpt><trkpt lat="38.1428437248708" lon="14.934267692719692"><ele>720.1666666666667</ele><time>2026-04-19T10:24:56.998Z</time></trkpt><trkpt lat="38.14291726116338" lon="14.93411683195078"><ele>718.0</ele><time>2026-04-19T10:24:58.998Z</time></trkpt><trkpt lat="38.14295704755477" lon="14.934016366713024"><ele>718.0</ele><time>2026-04-19T10:24:59.998Z</time></trkpt><trkpt lat="38.142993674227704" lon="14.933917028866961"><ele>718.0</ele><time>2026-04-19T10:25:00.998Z</time></trkpt><trkpt lat="38.14303731869131" lon="14.933831112528361"><ele>718.0</ele><time>2026-04-19T10:25:01.998Z</time></trkpt><trkpt lat="38.14309577425903" lon="14.933755434204075"><ele>718.0</ele><time>2026-04-19T10:25:02.998Z</time></trkpt><trkpt lat="38.14314886902582" lon="14.93367310413774"><ele>718.0</ele><time>2026-04-19T10:25:03.998Z</time></trkpt><trkpt lat="38.143186271693764" lon="14.933577368018772"><ele>718.0</ele><time>2026-04-19T10:25:04.998Z</time></trkpt><trkpt lat="38.14322006590692" lon="14.933487499367683"><ele>718.0</ele><time>2026-04-19T10:25:05.998Z</time></trkpt><trkpt lat="38.143253923764995" lon="14.933413399449158"><ele>718.0</ele><time>2026-04-19T10:25:06.998Z</time></trkpt><trkpt lat="38.14326028094921" lon="14.933308159560761"><ele>718.0</ele><time>2026-04-19T10:25:08.998Z</time></trkpt><trkpt lat="38.14318981617921" lon="14.933310648607447"><ele>718.0</ele><time>2026-04-19T10:25:11.998Z</time></trkpt><trkpt lat="38.14313838873647" lon="14.933472487519582"><ele>718.0</ele><time>2026-04-19T10:25:14Z</time></trkpt><trkpt lat="38.14308740210141" lon="14.933569668291693"><ele>718.0</ele><time>2026-04-19T10:25:15Z</time></trkpt><trkpt lat="38.14302506479176" lon="14.933653498720718"><ele>718.0</ele><time>2026-04-19T10:25:16Z</time></trkpt><trkpt lat="38.14295850322484" lon="14.933698318583613"><ele>718.0</ele><time>2026-04-19T10:25:17Z</time></trkpt><trkpt lat="38.14288094896726" lon="14.93372834198818"><ele>718.0</ele><time>2026-04-19T10:25:18Z</time></trkpt><trkpt lat="38.14279802074564" lon="14.933754015164773"><ele>718.0</ele><time>2026-04-19T10:25:19Z</time></trkpt><trkpt lat="38.14271704156859" lon="14.933802685263526"><ele>718.0</ele><time>2026-04-19T10:25:20Z</time></trkpt><trkpt lat="38.142639919246776" lon="14.933880778203001"><ele>718.0</ele><time>2026-04-19T10:25:21Z</time></trkpt><trkpt lat="38.142567143744785" lon="14.933963277143105"><ele>718.0</ele><time>2026-04-19T10:25:22Z</time></trkpt><trkpt lat="38.142491331192154" lon="14.934030456413442"><ele>718.0</ele><time>2026-04-19T10:25:23Z</time></trkpt><trkpt lat="38.14241776484692" lon="14.934084041707981"><ele>718.0</ele><time>2026-04-19T10:25:24Z</time></trkpt><trkpt lat="38.142352996083815" lon="14.934143417393095"><ele>718.0</ele><time>2026-04-19T10:25:25Z</time></trkpt><trkpt lat="38.14230086064691" lon="14.93421949229368"><ele>718.0</ele><time>2026-04-19T10:25:26Z</time></trkpt><trkpt lat="38.14225455070787" lon="14.934311714035617"><ele>715.6666666666667</ele><time>2026-04-19T10:25:27Z</time></trkpt><trkpt lat="38.14221858034437" lon="14.934410137687053"><ele>713.3333333333334</ele><time>2026-04-19T10:25:28Z</time></trkpt><trkpt lat="38.14219453023279" lon="14.934511230970939"><ele>711.0</ele><time>2026-04-19T10:25:29Z</time></trkpt><trkpt lat="38.14218051889236" lon="14.934595908760693"><ele>708.6666666666666</ele><time>2026-04-19T10:25:30Z</time></trkpt><trkpt lat="38.142190294260296" lon="14.93468012827115"><ele>706.3333333333333</ele><time>2026-04-19T10:25:31Z</time></trkpt><trkpt lat="38.142215588748996" lon="14.93477253460578"><ele>704.0</ele><time>2026-04-19T10:25:32Z</time></trkpt><trkpt lat="38.14223715085473" lon="14.934865245596072"><ele>704.0</ele><time>2026-04-19T10:25:33Z</time></trkpt><trkpt lat="38.14223915250729" lon="14.93494609724349"><ele>704.0</ele><time>2026-04-19T10:25:34Z</time></trkpt><trkpt lat="38.142174512424724" lon="14.935020949325441"><ele>704.0</ele><time>2026-04-19T10:25:36Z</time></trkpt><trkpt lat="38.1420910345785" lon="14.934972044233376"><ele>704.0</ele><time>2026-04-19T10:25:38Z</time></trkpt><trkpt lat="38.14206442677154" lon="14.934810116480168"><ele>704.0</ele><time>2026-04-19T10:25:40Z</time></trkpt><trkpt lat="38.14203154029055" lon="14.934736797878434"><ele>704.0</ele><time>2026-04-19T10:25:41Z</time></trkpt><trkpt lat="38.141986318922555" lon="14.93466018092353"><ele>704.0</ele><time>2026-04-19T10:25:42Z</time></trkpt><trkpt lat="38.14195124465236" lon="14.934586940504227"><ele>704.0</ele><time>2026-04-19T10:25:43Z</time></trkpt><trkpt lat="38.14191349836166" lon="14.934453754518856"><ele>704.0</ele><time>2026-04-19T10:25:45Z</time></trkpt><trkpt lat="38.14193589171127" lon="14.934338598310216"><ele>704.0</ele><time>2026-04-19T10:25:47Z</time></trkpt><trkpt lat="38.1419251300156" lon="14.93425557365641"><ele>704.0</ele><time>2026-04-19T10:25:49Z</time></trkpt><trkpt lat="38.14186006527865" lon="14.934275404982122"><ele>704.0</ele><time>2026-04-19T10:25:50.999Z</time></trkpt><trkpt lat="38.14181246986855" lon="14.934385838331803"><ele>704.0</ele><time>2026-04-19T10:25:52.999Z</time></trkpt><trkpt lat="38.141795983189894" lon="14.934514893588656"><ele>704.0</ele><time>2026-04-19T10:25:54.999Z</time></trkpt><trkpt lat="38.14175487805529" lon="14.934642971315027"><ele>704.0</ele><time>2026-04-19T10:25:56.999Z</time></trkpt><trkpt lat="38.14173223114134" lon="14.934720358577458"><ele>704.0</ele><time>2026-04-19T10:25:57.999Z</time></trkpt><trkpt lat="38.14170395555617" lon="14.934799146592267"><ele>704.0</ele><time>2026-04-19T10:25:58.999Z</time></trkpt><trkpt lat="38.14166108994315" lon="14.934865405571989"><ele>704.0</ele><time>2026-04-19T10:25:59.999Z</time></trkpt><trkpt lat="38.141609433093926" lon="14.93492198448402"><ele>704.0</ele><time>2026-04-19T10:26:00.999Z</time></trkpt><trkpt lat="38.14155016008884" lon="14.934961836224648"><ele>704.0</ele><time>2026-04-19T10:26:01.999Z</time></trkpt><trkpt lat="38.14148550551407" lon="14.934993030882136"><ele>704.0</ele><time>2026-04-19T10:26:02.999Z</time></trkpt><trkpt lat="38.14141596397239" lon="14.935024497673467"><ele>704.0</ele><time>2026-04-19T10:26:03.999Z</time></trkpt><trkpt lat="38.141343622180166" lon="14.935036903644061"><ele>704.0</ele><time>2026-04-19T10:26:04.999Z</time></trkpt><trkpt lat="38.141271052240256" lon="14.935043802424985"><ele>704.0</ele><time>2026-04-19T10:26:05.999Z</time></trkpt><trkpt lat="38.14119647718983" lon="14.935053893688735"><ele>704.0</ele><time>2026-04-19T10:26:06.999Z</time></trkpt><trkpt lat="38.141123063061784" lon="14.93505923897383"><ele>699.2</ele><time>2026-04-19T10:26:07.999Z</time></trkpt><trkpt lat="38.14105232782617" lon="14.935059144322473"><ele>694.4000000000001</ele><time>2026-04-19T10:26:08.999Z</time></trkpt><trkpt lat="38.14098713345588" lon="14.935070962066375"><ele>689.6</ele><time>2026-04-19T10:26:09.999Z</time></trkpt><trkpt lat="38.1409064515197" lon="14.935168971212523"><ele>684.8</ele><time>2026-04-19T10:26:11.999Z</time></trkpt><trkpt lat="38.140867245967385" lon="14.935316547956258"><ele>680.0</ele><time>2026-04-19T10:26:13.999Z</time></trkpt><trkpt lat="38.14090351835649" lon="14.935462656403045"><ele>680.0</ele><time>2026-04-19T10:26:15.999Z</time></trkpt><trkpt lat="38.14094117341318" lon="14.935529432490187"><ele>680.0</ele><time>2026-04-19T10:26:16.999Z</time></trkpt><trkpt lat="38.14100985049417" lon="14.93562570425146"><ele>680.0</ele><time>2026-04-19T10:26:18.999Z</time></trkpt><trkpt lat="38.14111935014613" lon="14.935674893611754"><ele>680.0</ele><time>2026-04-19T10:26:20.999Z</time></trkpt><trkpt lat="38.141192636100364" lon="14.935674665554943"><ele>680.0</ele><time>2026-04-19T10:26:21.999Z</time></trkpt><trkpt lat="38.14127760331381" lon="14.93566288419146"><ele>680.0</ele><time>2026-04-19T10:26:22.999Z</time></trkpt><trkpt lat="38.141375288746254" lon="14.935653240156794"><ele>680.0</ele><time>2026-04-19T10:26:23.999Z</time></trkpt><trkpt lat="38.14149227279115" lon="14.935635591814767"><ele>680.0</ele><time>2026-04-19T10:26:24.999Z</time></trkpt><trkpt lat="38.14160379319448" lon="14.93562405332337"><ele>680.0</ele><time>2026-04-19T10:26:25.999Z</time></trkpt><trkpt lat="38.1416985389471" lon="14.935611344078094"><ele>680.0</ele><time>2026-04-19T10:26:26.999Z</time></trkpt><trkpt lat="38.141798045810745" lon="14.935584004420484"><ele>680.0</ele><time>2026-04-19T10:26:27.999Z</time></trkpt><trkpt lat="38.14191250358982" lon="14.935544587986902"><ele>682.25</ele><time>2026-04-19T10:26:28.999Z</time></trkpt><trkpt lat="38.14202647665798" lon="14.935497726191562"><ele>684.5</ele><time>2026-04-19T10:26:29.999Z</time></trkpt><trkpt lat="38.1421420347395" lon="14.935446065473993"><ele>686.75</ele><time>2026-04-19T10:26:30.999Z</time></trkpt><trkpt lat="38.14225210738921" lon="14.935400917625067"><ele>689.0</ele><time>2026-04-19T10:26:31.999Z</time></trkpt><trkpt lat="38.14234458553188" lon="14.935370137155402"><ele>687.0</ele><time>2026-04-19T10:26:32.999Z</time></trkpt><trkpt lat="38.14242953201321" lon="14.935336231320541"><ele>685.0</ele><time>2026-04-19T10:26:33.999Z</time></trkpt><trkpt lat="38.142516473638" lon="14.935308058552417"><ele>683.0</ele><time>2026-04-19T10:26:34.999Z</time></trkpt><trkpt lat="38.14260496048461" lon="14.935298047374427"><ele>681.0</ele><time>2026-04-19T10:26:35.999Z</time></trkpt><trkpt lat="38.14269796929726" lon="14.935298976547076"><ele>679.0</ele><time>2026-04-19T10:26:36.999Z</time></trkpt><trkpt lat="38.14279454210029" lon="14.935292677603705"><ele>679.0</ele><time>2026-04-19T10:26:37.999Z</time></trkpt><trkpt lat="38.14289076535158" lon="14.935281261126189"><ele>679.0</ele><time>2026-04-19T10:26:38.999Z</time></trkpt><trkpt lat="38.14298754356861" lon="14.935280354173857"><ele>679.0</ele><time>2026-04-19T10:26:39.999Z</time></trkpt><trkpt lat="38.14306992483174" lon="14.935291241505075"><ele>679.0</ele><time>2026-04-19T10:26:40.999Z</time></trkpt><trkpt lat="38.14315062771308" lon="14.935277765353652"><ele>679.0</ele><time>2026-04-19T10:26:41.999Z</time></trkpt><trkpt lat="38.14323143709616" lon="14.935246474969121"><ele>679.0</ele><time>2026-04-19T10:26:42.999Z</time></trkpt><trkpt lat="38.143308351524894" lon="14.935237740558494"><ele>677.8333333333334</ele><time>2026-04-19T10:26:43.999Z</time></trkpt><trkpt lat="38.143384064635754" lon="14.935224289053696"><ele>676.6666666666667</ele><time>2026-04-19T10:26:44.999Z</time></trkpt><trkpt lat="38.14344907683997" lon="14.93521359845666"><ele>675.5</ele><time>2026-04-19T10:26:45.999Z</time></trkpt><trkpt lat="38.14355048410143" lon="14.935258103694023"><ele>674.3333333333334</ele><time>2026-04-19T10:26:47.998Z</time></trkpt><trkpt lat="38.14361245258756" lon="14.935375531477469"><ele>673.1666666666666</ele><time>2026-04-19T10:26:49.998Z</time></trkpt><trkpt lat="38.14362913710191" lon="14.935466287713101"><ele>672.0</ele><time>2026-04-19T10:26:50.998Z</time></trkpt><trkpt lat="38.14366006544581" lon="14.935553114931711"><ele>672.0</ele><time>2026-04-19T10:26:51.998Z</time></trkpt><trkpt lat="38.14370399767238" lon="14.935621209967685"><ele>672.0</ele><time>2026-04-19T10:26:52.998Z</time></trkpt><trkpt lat="38.14376653790145" lon="14.935671184808896"><ele>672.0</ele><time>2026-04-19T10:26:53.998Z</time></trkpt><trkpt lat="38.143837688988114" lon="14.935688816132677"><ele>672.0</ele><time>2026-04-19T10:26:54.998Z</time></trkpt><trkpt lat="38.14395764966946" lon="14.935649078483399"><ele>672.0</ele><time>2026-04-19T10:26:56.998Z</time></trkpt><trkpt lat="38.14407305126091" lon="14.935558330531428"><ele>672.6666666666666</ele><time>2026-04-19T10:26:58.998Z</time></trkpt><trkpt lat="38.14414426459346" lon="14.935516998158718"><ele>673.3333333333334</ele><time>2026-04-19T10:26:59.998Z</time></trkpt><trkpt lat="38.14422320834164" lon="14.935512609172294"><ele>674.0</ele><time>2026-04-19T10:27:00.998Z</time></trkpt><trkpt lat="38.1443049727691" lon="14.93553461145531"><ele>674.6666666666667</ele><time>2026-04-19T10:27:01.998Z</time></trkpt><trkpt lat="38.14438706628444" lon="14.935568454225036"><ele>675.3333333333334</ele><time>2026-04-19T10:27:02.998Z</time></trkpt><trkpt lat="38.144469385615345" lon="14.935592527715931"><ele>676.0</ele><time>2026-04-19T10:27:03.998Z</time></trkpt><trkpt lat="38.14454107417788" lon="14.935589947113906"><ele>676.0</ele><time>2026-04-19T10:27:04.998Z</time></trkpt><trkpt lat="38.14463687525745" lon="14.935482259960525"><ele>676.0</ele><time>2026-04-19T10:27:06.998Z</time></trkpt><trkpt lat="38.14468817344061" lon="14.935402915064069"><ele>676.0</ele><time>2026-04-19T10:27:07.998Z</time></trkpt><trkpt lat="38.14474237839827" lon="14.935328167319096"><ele>676.0</ele><time>2026-04-19T10:27:08.998Z</time></trkpt><trkpt lat="38.1448010959867" lon="14.935270971789997"><ele>676.0</ele><time>2026-04-19T10:27:09.998Z</time></trkpt><trkpt lat="38.14486992266828" lon="14.935221757906362"><ele>676.0</ele><time>2026-04-19T10:27:10.998Z</time></trkpt><trkpt lat="38.14494639485683" lon="14.935184783661063"><ele>674.0</ele><time>2026-04-19T10:27:11.998Z</time></trkpt><trkpt lat="38.14503024507066" lon="14.93517292089611"><ele>672.0</ele><time>2026-04-19T10:27:12.998Z</time></trkpt><trkpt lat="38.14510334001479" lon="14.935175904862414"><ele>670.0</ele><time>2026-04-19T10:27:13.998Z</time></trkpt><trkpt lat="38.14517018772214" lon="14.935204239522827"><ele>668.0</ele><time>2026-04-19T10:27:14.998Z</time></trkpt><trkpt lat="38.145238785304336" lon="14.935242176828035"><ele>666.0</ele><time>2026-04-19T10:27:15.998Z</time></trkpt><trkpt lat="38.145315076171244" lon="14.935263777131276"><ele>664.0</ele><time>2026-04-19T10:27:16.998Z</time></trkpt><trkpt lat="38.145401456097254" lon="14.935276372015736"><ele>664.0</ele><time>2026-04-19T10:27:18Z</time></trkpt><trkpt lat="38.14550500067312" lon="14.93527354860079"><ele>664.0</ele><time>2026-04-19T10:27:19Z</time></trkpt><trkpt lat="38.14562103649472" lon="14.935259708182107"><ele>664.0</ele><time>2026-04-19T10:27:20Z</time></trkpt><trkpt lat="38.14574657426773" lon="14.93522981278483"><ele>664.0</ele><time>2026-04-19T10:27:21Z</time></trkpt><trkpt lat="38.14586146976572" lon="14.935195214566203"><ele>662.6</ele><time>2026-04-19T10:27:22Z</time></trkpt><trkpt lat="38.14596834595877" lon="14.935164812435124"><ele>661.2</ele><time>2026-04-19T10:27:23Z</time></trkpt><trkpt lat="38.14606598611492" lon="14.935157174064935"><ele>659.8000000000001</ele><time>2026-04-19T10:27:24Z</time></trkpt><trkpt lat="38.146158443627776" lon="14.935189912594016"><ele>658.4000000000001</ele><time>2026-04-19T10:27:25Z</time></trkpt><trkpt lat="38.14625561215476" lon="14.935248926076111"><ele>657.0</ele><time>2026-04-19T10:27:26Z</time></trkpt><trkpt lat="38.146355288111714" lon="14.93529960688253"><ele>657.0</ele><time>2026-04-19T10:27:27Z</time></trkpt><trkpt lat="38.14646198916716" lon="14.93533755772623"><ele>657.0</ele><time>2026-04-19T10:27:28Z</time></trkpt><trkpt lat="38.14656736131965" lon="14.935374717062643"><ele>657.0</ele><time>2026-04-19T10:27:29Z</time></trkpt><trkpt lat="38.14667111141798" lon="14.935434537216619"><ele>657.0</ele><time>2026-04-19T10:27:30Z</time></trkpt><trkpt lat="38.14676316926463" lon="14.935497844411893"><ele>657.0</ele><time>2026-04-19T10:27:31Z</time></trkpt><trkpt lat="38.14685291333474" lon="14.935562018983687"><ele>658.5</ele><time>2026-04-19T10:27:32Z</time></trkpt><trkpt lat="38.146924371468614" lon="14.935640183065344"><ele>660.0</ele><time>2026-04-19T10:27:33Z</time></trkpt><trkpt lat="38.14698268346893" lon="14.935719640263398"><ele>661.5</ele><time>2026-04-19T10:27:34Z</time></trkpt><trkpt lat="38.147042298708996" lon="14.935769865108337"><ele>663.0</ele><time>2026-04-19T10:27:35Z</time></trkpt><trkpt lat="38.14711571504724" lon="14.935808038122596"><ele>664.5</ele><time>2026-04-19T10:27:36Z</time></trkpt><trkpt lat="38.14720177680237" lon="14.935816945625465"><ele>666.0</ele><time>2026-04-19T10:27:37Z</time></trkpt><trkpt lat="38.14727650699877" lon="14.935809148826737"><ele>666.0</ele><time>2026-04-19T10:27:38Z</time></trkpt><trkpt lat="38.14734085655023" lon="14.93578363208155"><ele>666.0</ele><time>2026-04-19T10:27:41Z</time></trkpt><trkpt lat="38.147311758804555" lon="14.935859234148062"><ele>666.0</ele><time>2026-04-19T10:28:06.999Z</time></trkpt><trkpt lat="38.14725322364284" lon="14.935895594710756"><ele>666.0</ele><time>2026-04-19T10:28:08.999Z</time></trkpt><trkpt lat="38.14718426825084" lon="14.935959428897087"><ele>666.0</ele><time>2026-04-19T10:28:13.999Z</time></trkpt><trkpt lat="38.14711738240985" lon="14.9360280049787"><ele>666.0</ele><time>2026-04-19T10:28:16.999Z</time></trkpt><trkpt lat="38.147057254336396" lon="14.936055075466234"><ele>666.0</ele><time>2026-04-19T10:28:18.999Z</time></trkpt><trkpt lat="38.14697525665997" lon="14.936069784067156"><ele>662.4</ele><time>2026-04-19T10:28:20.999Z</time></trkpt><trkpt lat="38.146882918982506" lon="14.93607153908827"><ele>658.8</ele><time>2026-04-19T10:28:22.999Z</time></trkpt><trkpt lat="38.146793274458695" lon="14.936092805812741"><ele>655.1999999999999</ele><time>2026-04-19T10:28:24.999Z</time></trkpt><trkpt lat="38.146653348597944" lon="14.936139059373891"><ele>651.5999999999999</ele><time>2026-04-19T10:28:28.999Z</time></trkpt><trkpt lat="38.14657946578264" lon="14.936133448043817"><ele>648.0</ele><time>2026-04-19T10:28:30.999Z</time></trkpt><trkpt lat="38.14649426650675" lon="14.936131451192466"><ele>648.0</ele><time>2026-04-19T10:28:33.999Z</time></trkpt><trkpt lat="38.1464746965666" lon="14.936208255490147"><ele>648.0</ele><time>2026-04-19T10:28:36.999Z</time></trkpt><trkpt lat="38.14652781361835" lon="14.936251844658925"><ele>648.0</ele><time>2026-04-19T10:28:40.999Z</time></trkpt><trkpt lat="38.146644628767355" lon="14.936246511536169"><ele>648.0</ele><time>2026-04-19T10:29:05.998Z</time></trkpt><trkpt lat="38.14671272402366" lon="14.936248496422687"><ele>648.0</ele><time>2026-04-19T10:29:06.998Z</time></trkpt><trkpt lat="38.146807875096215" lon="14.936287486138346"><ele>648.0</ele><time>2026-04-19T10:29:08.998Z</time></trkpt><trkpt lat="38.14680856967195" lon="14.936380378896933"><ele>648.0</ele><time>2026-04-19T10:29:10.998Z</time></trkpt><trkpt lat="38.146728153197174" lon="14.936436251578074"><ele>648.0</ele><time>2026-04-19T10:29:12.998Z</time></trkpt><trkpt lat="38.1466555007844" lon="14.936427318897891"><ele>648.0</ele><time>2026-04-19T10:29:13.998Z</time></trkpt><trkpt lat="38.14657858797378" lon="14.936419723168411"><ele>648.0</ele><time>2026-04-19T10:29:14.998Z</time></trkpt><trkpt lat="38.146506180908176" lon="14.936415816170928"><ele>648.0</ele><time>2026-04-19T10:29:15.998Z</time></trkpt><trkpt lat="38.146434481209" lon="14.936412993158784"><ele>648.0</ele><time>2026-04-19T10:29:16.998Z</time></trkpt><trkpt lat="38.14636096167557" lon="14.936416403420905"><ele>646.8</ele><time>2026-04-19T10:29:17.998Z</time></trkpt><trkpt lat="38.14627925006483" lon="14.936414709466778"><ele>645.5999999999999</ele><time>2026-04-19T10:29:18.998Z</time></trkpt><trkpt lat="38.146211909690365" lon="14.936409124657946"><ele>644.4000000000001</ele><time>2026-04-19T10:29:19.998Z</time></trkpt><trkpt lat="38.146098118867336" lon="14.936383117129665"><ele>643.2</ele><time>2026-04-19T10:29:21.998Z</time></trkpt><trkpt lat="38.14604015492495" lon="14.936283837329793"><ele>642.0</ele><time>2026-04-19T10:29:24Z</time></trkpt><trkpt lat="38.14595304336553" lon="14.936246422496758"><ele>642.0</ele><time>2026-04-19T10:29:26Z</time></trkpt><trkpt lat="38.14583830698338" lon="14.936297735801487"><ele>642.0</ele><time>2026-04-19T10:29:28Z</time></trkpt><trkpt lat="38.14579223273812" lon="14.936398583974691"><ele>642.0</ele><time>2026-04-19T10:29:30Z</time></trkpt><trkpt lat="38.14575775428211" lon="14.936512566698585"><ele>642.0</ele><time>2026-04-19T10:29:32Z</time></trkpt><trkpt lat="38.145652979460515" lon="14.936567838986592"><ele>642.0</ele><time>2026-04-19T10:29:34Z</time></trkpt><trkpt lat="38.145585690431915" lon="14.936671417062215"><ele>637.4</ele><time>2026-04-19T10:29:36Z</time></trkpt><trkpt lat="38.14557363998972" lon="14.936755472426563"><ele>632.8000000000001</ele><time>2026-04-19T10:29:37Z</time></trkpt><trkpt lat="38.145571840470275" lon="14.93690850705187"><ele>628.2</ele><time>2026-04-19T10:29:39Z</time></trkpt><trkpt lat="38.145606876735016" lon="14.937020719599126"><ele>623.6</ele><time>2026-04-19T10:29:41Z</time></trkpt><trkpt lat="38.145720178483685" lon="14.937078330541993"><ele>619.0</ele><time>2026-04-19T10:29:43Z</time></trkpt><trkpt lat="38.14579954112125" lon="14.937094685097096"><ele>619.0</ele><time>2026-04-19T10:29:44Z</time></trkpt><trkpt lat="38.1458629774595" lon="14.937103084774877"><ele>619.0</ele><time>2026-04-19T10:29:45Z</time></trkpt><trkpt lat="38.14598972091098" lon="14.937100444143086"><ele>619.0</ele><time>2026-04-19T10:29:47Z</time></trkpt><trkpt lat="38.14605516011141" lon="14.937083507252861"><ele>619.0</ele><time>2026-04-19T10:29:48Z</time></trkpt><trkpt lat="38.146161513416985" lon="14.937034563028575"><ele>619.0</ele><time>2026-04-19T10:29:50Z</time></trkpt><trkpt lat="38.14622083856683" lon="14.937069446721068"><ele>619.0</ele><time>2026-04-19T10:29:52Z</time></trkpt><trkpt lat="38.14619560776807" lon="14.937151955678294"><ele>619.0</ele><time>2026-04-19T10:29:54Z</time></trkpt><trkpt lat="38.146113850480056" lon="14.937209107525232"><ele>619.0</ele><time>2026-04-19T10:29:56.999Z</time></trkpt><trkpt lat="38.146035277366025" lon="14.937243066786662"><ele>619.0</ele><time>2026-04-19T10:29:58.999Z</time></trkpt><trkpt lat="38.14597059082252" lon="14.937293192964468"><ele>619.0</ele><time>2026-04-19T10:30:01.999Z</time></trkpt><trkpt lat="38.145899410609424" lon="14.937318963000203"><ele>619.0</ele><time>2026-04-19T10:30:05.999Z</time></trkpt><trkpt lat="38.14583711491669" lon="14.937352702914353"><ele>619.0</ele><time>2026-04-19T10:30:09.999Z</time></trkpt><trkpt lat="38.14576060235381" lon="14.937380940004186"><ele>616.2</ele><time>2026-04-19T10:30:12.999Z</time></trkpt><trkpt lat="38.14568614066373" lon="14.937392662845081"><ele>613.4</ele><time>2026-04-19T10:30:14.999Z</time></trkpt><trkpt lat="38.145621176880546" lon="14.937386996077029"><ele>610.6</ele><time>2026-04-19T10:30:16.999Z</time></trkpt><trkpt lat="38.145469981983766" lon="14.937294621238038"><ele>607.8</ele><time>2026-04-19T10:30:19.999Z</time></trkpt><trkpt lat="38.145372565189575" lon="14.937272055128211"><ele>605.0</ele><time>2026-04-19T10:30:21.999Z</time></trkpt><trkpt lat="38.14527990490779" lon="14.93724224293116"><ele>605.0</ele><time>2026-04-19T10:30:23.999Z</time></trkpt><trkpt lat="38.14519189866838" lon="14.93721313001322"><ele>605.0</ele><time>2026-04-19T10:30:25.999Z</time></trkpt><trkpt lat="38.14516129312774" lon="14.937295094996903"><ele>605.0</ele><time>2026-04-19T10:30:27.999Z</time></trkpt><trkpt lat="38.14520722472084" lon="14.937357389841129"><ele>605.0</ele><time>2026-04-19T10:30:29.999Z</time></trkpt><trkpt lat="38.14527337200699" lon="14.937414180043376"><ele>605.0</ele><time>2026-04-19T10:30:31.999Z</time></trkpt><trkpt lat="38.14533235666279" lon="14.93748218681707"><ele>605.0</ele><time>2026-04-19T10:30:33.999Z</time></trkpt><trkpt lat="38.14539735040563" lon="14.937556301752418"><ele>603.5</ele><time>2026-04-19T10:30:35.999Z</time></trkpt><trkpt lat="38.14545810951369" lon="14.937605174656008"><ele>602.0</ele><time>2026-04-19T10:30:36.999Z</time></trkpt><trkpt lat="38.14553041386505" lon="14.937648621981019"><ele>600.5</ele><time>2026-04-19T10:30:37.999Z</time></trkpt><trkpt lat="38.14561795797136" lon="14.937688576384863"><ele>599.0</ele><time>2026-04-19T10:30:38.999Z</time></trkpt><trkpt lat="38.14568958192324" lon="14.937726549436412"><ele>597.5</ele><time>2026-04-19T10:30:39.999Z</time></trkpt><trkpt lat="38.14576966497025" lon="14.937767455755493"><ele>596.0</ele><time>2026-04-19T10:30:40.999Z</time></trkpt><trkpt lat="38.1458687217543" lon="14.93781557969141"><ele>596.0</ele><time>2026-04-19T10:30:41.999Z</time></trkpt><trkpt lat="38.145932677066135" lon="14.937855426824074"><ele>596.0</ele><time>2026-04-19T10:30:42.999Z</time></trkpt><trkpt lat="38.14599603324684" lon="14.937912637283164"><ele>596.0</ele><time>2026-04-19T10:30:43.999Z</time></trkpt><trkpt lat="38.14605772247933" lon="14.937960841738464"><ele>596.0</ele><time>2026-04-19T10:30:44.999Z</time></trkpt><trkpt lat="38.146122856882855" lon="14.937980040716445"><ele>596.0</ele><time>2026-04-19T10:30:45.999Z</time></trkpt><trkpt lat="38.1462296853537" lon="14.938055253853745"><ele>596.0</ele><time>2026-04-19T10:30:47.999Z</time></trkpt><trkpt lat="38.14633081467811" lon="14.938121170607841"><ele>596.0</ele><time>2026-04-19T10:30:49.999Z</time></trkpt><trkpt lat="38.14641621129629" lon="14.938205075538466"><ele>596.0</ele><time>2026-04-19T10:30:51.999Z</time></trkpt><trkpt lat="38.1465201110088" lon="14.93829186609029"><ele>596.0</ele><time>2026-04-19T10:30:53.998Z</time></trkpt><trkpt lat="38.14658356833702" lon="14.938316172935531"><ele>596.0</ele><time>2026-04-19T10:30:54.998Z</time></trkpt><trkpt lat="38.14664088673347" lon="14.938364840939354"><ele>596.0</ele><time>2026-04-19T10:30:55.998Z</time></trkpt><trkpt lat="38.14669628687143" lon="14.938415486309795"><ele>596.0</ele><time>2026-04-19T10:30:56.998Z</time></trkpt><trkpt lat="38.146755850083835" lon="14.938465495938665"><ele>594.8333333333333</ele><time>2026-04-19T10:30:57.998Z</time></trkpt><trkpt lat="38.146813952704626" lon="14.938520338093195"><ele>593.6666666666666</ele><time>2026-04-19T10:30:58.998Z</time></trkpt><trkpt lat="38.14687255530026" lon="14.938577268467435"><ele>592.5</ele><time>2026-04-19T10:30:59.998Z</time></trkpt><trkpt lat="38.14693943327206" lon="14.938630599290166"><ele>591.3333333333334</ele><time>2026-04-19T10:31:00.998Z</time></trkpt><trkpt lat="38.14701355999638" lon="14.938674557259342"><ele>590.1666666666667</ele><time>2026-04-19T10:31:01.998Z</time></trkpt><trkpt lat="38.14709739054304" lon="14.93868800854454"><ele>589.0</ele><time>2026-04-19T10:31:02.998Z</time></trkpt><trkpt lat="38.14717908316466" lon="14.93866228592195"><ele>589.0</ele><time>2026-04-19T10:31:03.998Z</time></trkpt><trkpt lat="38.147250023928095" lon="14.938613078802035"><ele>589.0</ele><time>2026-04-19T10:31:04.998Z</time></trkpt><trkpt lat="38.1473117195022" lon="14.938553630175852"><ele>589.0</ele><time>2026-04-19T10:31:05.998Z</time></trkpt><trkpt lat="38.14736656081096" lon="14.938479133229567"><ele>589.0</ele><time>2026-04-19T10:31:06.998Z</time></trkpt><trkpt lat="38.147415284940266" lon="14.938390241614238"><ele>589.0</ele><time>2026-04-19T10:31:07.998Z</time></trkpt><trkpt lat="38.14746629163925" lon="14.938300312571169"><ele>589.0</ele><time>2026-04-19T10:31:08.998Z</time></trkpt><trkpt lat="38.1475044943501" lon="14.938224878788802"><ele>590.0</ele><time>2026-04-19T10:31:09.998Z</time></trkpt><trkpt lat="38.14757600525562" lon="14.938200343743844"><ele>591.0</ele><time>2026-04-19T10:31:11.998Z</time></trkpt><trkpt lat="38.14767951175908" lon="14.938270755335868"><ele>592.0</ele><time>2026-04-19T10:31:13.998Z</time></trkpt><trkpt lat="38.147741649869225" lon="14.938311018658348"><ele>593.0</ele><time>2026-04-19T10:31:14.998Z</time></trkpt><trkpt lat="38.14781807574548" lon="14.938347948817547"><ele>594.0</ele><time>2026-04-19T10:31:15.998Z</time></trkpt><trkpt lat="38.1479016000803" lon="14.93838790956074"><ele>595.0</ele><time>2026-04-19T10:31:16.998Z</time></trkpt><trkpt lat="38.147972262478355" lon="14.938430195191502"><ele>590.0</ele><time>2026-04-19T10:31:17.998Z</time></trkpt><trkpt lat="38.148041162560496" lon="14.938484098591337"><ele>585.0</ele><time>2026-04-19T10:31:18.998Z</time></trkpt><trkpt lat="38.148113060334744" lon="14.93856786171983"><ele>580.0</ele><time>2026-04-19T10:31:19.998Z</time></trkpt><trkpt lat="38.1481921676399" lon="14.938644008603152"><ele>575.0</ele><time>2026-04-19T10:31:20.998Z</time></trkpt><trkpt lat="38.14828072205543" lon="14.938682819682052"><ele>570.0</ele><time>2026-04-19T10:31:21.998Z</time></trkpt><trkpt lat="38.14836646479874" lon="14.938696099810343"><ele>566.4</ele><time>2026-04-19T10:31:22.998Z</time></trkpt><trkpt lat="38.14845012758053" lon="14.938714628081286"><ele>562.8</ele><time>2026-04-19T10:31:23.998Z</time></trkpt><trkpt lat="38.1485438044555" lon="14.938722713152174"><ele>559.2</ele><time>2026-04-19T10:31:24.998Z</time></trkpt><trkpt lat="38.14862464519156" lon="14.93872004220372"><ele>555.6</ele><time>2026-04-19T10:31:25.998Z</time></trkpt><trkpt lat="38.148724110663686" lon="14.938767610886902"><ele>552.0</ele><time>2026-04-19T10:31:27.998Z</time></trkpt><trkpt lat="38.148822208473014" lon="14.938902381908777"><ele>552.0</ele><time>2026-04-19T10:31:30Z</time></trkpt><trkpt lat="38.14889854741725" lon="14.938947747611822"><ele>552.0</ele><time>2026-04-19T10:31:31Z</time></trkpt><trkpt lat="38.148986284455134" lon="14.938983220445458"><ele>552.0</ele><time>2026-04-19T10:31:32Z</time></trkpt><trkpt lat="38.14908004601198" lon="14.939015120597366"><ele>552.0</ele><time>2026-04-19T10:31:33Z</time></trkpt><trkpt lat="38.14917347548349" lon="14.939044259216228"><ele>552.0</ele><time>2026-04-19T10:31:34Z</time></trkpt><trkpt lat="38.14927432959571" lon="14.93906138878995"><ele>551.3333333333334</ele><time>2026-04-19T10:31:35Z</time></trkpt><trkpt lat="38.14935701774549" lon="14.939085313375152"><ele>550.6666666666666</ele><time>2026-04-19T10:31:36Z</time></trkpt><trkpt lat="38.149433052050576" lon="14.939113985366339"><ele>550.0</ele><time>2026-04-19T10:31:37Z</time></trkpt><trkpt lat="38.14950401663923" lon="14.939132208334206"><ele>549.3333333333333</ele><time>2026-04-19T10:31:38Z</time></trkpt><trkpt lat="38.14960183945949" lon="14.939159401627968"><ele>548.6666666666666</ele><time>2026-04-19T10:31:40Z</time></trkpt><trkpt lat="38.14963249135742" lon="14.93926741625751"><ele>548.0</ele><time>2026-04-19T10:31:42Z</time></trkpt><trkpt lat="38.14958020362949" lon="14.939394348074845"><ele>543.0</ele><time>2026-04-19T10:31:44Z</time></trkpt><trkpt lat="38.14955101556825" lon="14.9395002147329"><ele>538.0</ele><time>2026-04-19T10:31:46Z</time></trkpt><trkpt lat="38.14948218756682" lon="14.939566537135358"><ele>533.0</ele><time>2026-04-19T10:31:48Z</time></trkpt><trkpt lat="38.14938924596048" lon="14.93961824287254"><ele>528.0</ele><time>2026-04-19T10:31:50Z</time></trkpt><trkpt lat="38.14938085908807" lon="14.93973474131323"><ele>523.0</ele><time>2026-04-19T10:31:52Z</time></trkpt><trkpt lat="38.14948675320198" lon="14.939816745551749"><ele>523.0</ele><time>2026-04-19T10:31:54Z</time></trkpt><trkpt lat="38.149551835251415" lon="14.939833666818563"><ele>523.0</ele><time>2026-04-19T10:31:55Z</time></trkpt><trkpt lat="38.14961842039648" lon="14.93985399826388"><ele>523.0</ele><time>2026-04-19T10:31:56Z</time></trkpt><trkpt lat="38.14972424904875" lon="14.939865653704468"><ele>523.0</ele><time>2026-04-19T10:31:58Z</time></trkpt><trkpt lat="38.149813204395706" lon="14.93986811957561"><ele>523.0</ele><time>2026-04-19T10:32:00Z</time></trkpt><trkpt lat="38.1498198001236" lon="14.93997541231822"><ele>523.0</ele><time>2026-04-19T10:32:01.999Z</time></trkpt><trkpt lat="38.14977014478506" lon="14.940029917050571"><ele>518.9999999999999</ele><time>2026-04-19T10:32:02.999Z</time></trkpt><trkpt lat="38.149715090528034" lon="14.940070239443829"><ele>515.0</ele><time>2026-04-19T10:32:03.999Z</time></trkpt><trkpt lat="38.149651989744385" lon="14.94010663189503"><ele>510.99999999999994</ele><time>2026-04-19T10:32:04.999Z</time></trkpt><trkpt lat="38.14958109210787" lon="14.940148988769591"><ele>506.99999999999994</ele><time>2026-04-19T10:32:05.999Z</time></trkpt><trkpt lat="38.14951547263236" lon="14.940180639611778"><ele>503.0</ele><time>2026-04-19T10:32:06.999Z</time></trkpt><trkpt lat="38.14945168686653" lon="14.940197030629632"><ele>498.99999999999994</ele><time>2026-04-19T10:32:07.999Z</time></trkpt><trkpt lat="38.14939007520374" lon="14.94021792021402"><ele>494.99999999999994</ele><time>2026-04-19T10:32:08.999Z</time></trkpt><trkpt lat="38.14932420275882" lon="14.940222876915584"><ele>495.0</ele><time>2026-04-19T10:32:09.999Z</time></trkpt><trkpt lat="38.149258005026084" lon="14.940214629670233"><ele>495.0</ele><time>2026-04-19T10:32:10.999Z</time></trkpt><trkpt lat="38.149149160710735" lon="14.940257543791107"><ele>495.0</ele><time>2026-04-19T10:32:12.999Z</time></trkpt><trkpt lat="38.1490874960118" lon="14.940323986877623"><ele>495.0</ele><time>2026-04-19T10:32:14.999Z</time></trkpt><trkpt lat="38.14917508818808" lon="14.940393882018373"><ele>495.0</ele><time>2026-04-19T10:32:16.999Z</time></trkpt><trkpt lat="38.14926010453638" lon="14.940368905245878"><ele>495.0</ele><time>2026-04-19T10:32:18.999Z</time></trkpt><trkpt lat="38.149319901318734" lon="14.940403920605242"><ele>495.0</ele><time>2026-04-19T10:32:20.999Z</time></trkpt><trkpt lat="38.14924498257612" lon="14.940449672254369"><ele>495.0</ele><time>2026-04-19T10:33:58Z</time></trkpt><trkpt lat="38.14918132299728" lon="14.94048558813639"><ele>495.0</ele><time>2026-04-19T10:33:59Z</time></trkpt><trkpt lat="38.14909523977778" lon="14.940496769709718"><ele>495.0</ele><time>2026-04-19T10:34:00Z</time></trkpt><trkpt lat="38.149007007932255" lon="14.94050601253801"><ele>495.0</ele><time>2026-04-19T10:34:01Z</time></trkpt><trkpt lat="38.14890989225018" lon="14.940518264183808"><ele>497.4</ele><time>2026-04-19T10:34:02Z</time></trkpt><trkpt lat="38.148798244992705" lon="14.940529359633217"><ele>499.8</ele><time>2026-04-19T10:34:03Z</time></trkpt><trkpt lat="38.14868731353733" lon="14.940545241218178"><ele>502.20000000000005</ele><time>2026-04-19T10:34:04Z</time></trkpt><trkpt lat="38.14858865538516" lon="14.940574103968373"><ele>504.6</ele><time>2026-04-19T10:34:05Z</time></trkpt><trkpt lat="38.14851159335957" lon="14.940682177186764"><ele>507.0</ele><time>2026-04-19T10:34:05.999Z</time></trkpt><trkpt lat="38.1484341277139" lon="14.940817754340259"><ele>506.66666666666663</ele><time>2026-04-19T10:34:06.999Z</time></trkpt><trkpt lat="38.148327945085235" lon="14.940975479211216"><ele>506.3333333333333</ele><time>2026-04-19T10:34:07.999Z</time></trkpt><trkpt lat="38.14821097633534" lon="14.941145529515667"><ele>506.0</ele><time>2026-04-19T10:34:08.999Z</time></trkpt><trkpt lat="38.148119126789695" lon="14.941286972248607"><ele>506.0</ele><time>2026-04-19T10:34:09.999Z</time></trkpt><trkpt lat="38.14803517219417" lon="14.941422180643357"><ele>506.0</ele><time>2026-04-19T10:34:10.999Z</time></trkpt><trkpt lat="38.147971901796936" lon="14.941569474745721"><ele>506.0</ele><time>2026-04-19T10:34:11.999Z</time></trkpt><trkpt lat="38.14792315630896" lon="14.94172395926136"><ele>506.0</ele><time>2026-04-19T10:34:12.999Z</time></trkpt><trkpt lat="38.14788041404613" lon="14.941875846861699"><ele>502.6</ele><time>2026-04-19T10:34:13.999Z</time></trkpt><trkpt lat="38.147830398028326" lon="14.942017609678746"><ele>499.20000000000005</ele><time>2026-04-19T10:34:14.999Z</time></trkpt><trkpt lat="38.14776209380897" lon="14.942110216080609"><ele>495.79999999999995</ele><time>2026-04-19T10:34:15.999Z</time></trkpt><trkpt lat="38.147687494642845" lon="14.942161108625363"><ele>492.4</ele><time>2026-04-19T10:34:16.999Z</time></trkpt><trkpt lat="38.14761423652147" lon="14.942192723928649"><ele>489.0</ele><time>2026-04-19T10:34:17.999Z</time></trkpt><trkpt lat="38.14754008373979" lon="14.942208454001287"><ele>489.0</ele><time>2026-04-19T10:34:18.999Z</time></trkpt><trkpt lat="38.14745600879271" lon="14.94222027444337"><ele>489.0</ele><time>2026-04-19T10:34:19.999Z</time></trkpt><trkpt lat="38.14736540916517" lon="14.942223555904164"><ele>489.0</ele><time>2026-04-19T10:34:20.999Z</time></trkpt><trkpt lat="38.14725222498177" lon="14.942235009599994"><ele>489.0</ele><time>2026-04-19T10:34:21.999Z</time></trkpt><trkpt lat="38.147110284957286" lon="14.942252173547104"><ele>489.0</ele><time>2026-04-19T10:34:22.999Z</time></trkpt><trkpt lat="38.1469334219988" lon="14.942273094662667"><ele>489.75</ele><time>2026-04-19T10:34:23.999Z</time></trkpt><trkpt lat="38.146803903275064" lon="14.94228357914866"><ele>490.5</ele><time>2026-04-19T10:34:24.999Z</time></trkpt><trkpt lat="38.14665610624171" lon="14.942261437473972"><ele>491.25</ele><time>2026-04-19T10:34:25.999Z</time></trkpt><trkpt lat="38.14653849139064" lon="14.942245959544163"><ele>492.0</ele><time>2026-04-19T10:34:26.999Z</time></trkpt><trkpt lat="38.14643693281169" lon="14.942194012424695"><ele>489.40000000000003</ele><time>2026-04-19T10:34:27.999Z</time></trkpt><trkpt lat="38.146348040060296" lon="14.94212145930366"><ele>486.80000000000007</ele><time>2026-04-19T10:34:28.999Z</time></trkpt><trkpt lat="38.14626539351848" lon="14.942035258036212"><ele>484.2</ele><time>2026-04-19T10:34:29.999Z</time></trkpt><trkpt lat="38.14618929800289" lon="14.941939436045546"><ele>481.6</ele><time>2026-04-19T10:34:30.999Z</time></trkpt><trkpt lat="38.14612397776123" lon="14.941830522319481"><ele>479.0</ele><time>2026-04-19T10:34:31.999Z</time></trkpt><trkpt lat="38.14605180324308" lon="14.94172918988759"><ele>482.79999999999995</ele><time>2026-04-19T10:34:32.999Z</time></trkpt><trkpt lat="38.145968169366164" lon="14.941645930455559"><ele>486.59999999999997</ele><time>2026-04-19T10:34:33.999Z</time></trkpt><trkpt lat="38.14583028207688" lon="14.941656099758129"><ele>490.4</ele><time>2026-04-19T10:34:34.999Z</time></trkpt><trkpt lat="38.14573765543335" lon="14.941667204999657"><ele>494.2</ele><time>2026-04-19T10:34:35.999Z</time></trkpt><trkpt lat="38.145637201298634" lon="14.94161238430438"><ele>498.0</ele><time>2026-04-19T10:34:36.999Z</time></trkpt><trkpt lat="38.145516925686074" lon="14.941680661953447"><ele>498.0</ele><time>2026-04-19T10:34:37.999Z</time></trkpt><trkpt lat="38.14539250924958" lon="14.941702717431411"><ele>497.99999999999994</ele><time>2026-04-19T10:34:38.999Z</time></trkpt><trkpt lat="38.14527564854798" lon="14.941721511527412"><ele>497.99999999999994</ele><time>2026-04-19T10:34:39.999Z</time></trkpt><trkpt lat="38.14517378654919" lon="14.941751136010275"><ele>498.0</ele><time>2026-04-19T10:34:40.999Z</time></trkpt><trkpt lat="38.145103681599295" lon="14.941767016257359"><ele>498.0</ele><time>2026-04-19T10:34:41.999Z</time></trkpt><trkpt lat="38.14505818283605" lon="14.941706107591035"><ele>498.0</ele><time>2026-04-19T10:34:42.999Z</time></trkpt><trkpt lat="38.14502030345327" lon="14.941637636398116"><ele>498.0</ele><time>2026-04-19T10:34:43.999Z</time></trkpt><trkpt lat="38.144961540570684" lon="14.941564423972016"><ele>498.0</ele><time>2026-04-19T10:34:44.999Z</time></trkpt><trkpt lat="38.14489977098937" lon="14.94148584093791"><ele>498.0</ele><time>2026-04-19T10:34:45.999Z</time></trkpt><trkpt lat="38.14483229340617" lon="14.941392090951174"><ele>498.0</ele><time>2026-04-19T10:34:46.999Z</time></trkpt><trkpt lat="38.144763264312346" lon="14.941280822847641"><ele>498.0</ele><time>2026-04-19T10:34:47.999Z</time></trkpt><trkpt lat="38.144689250493755" lon="14.941150337408798"><ele>497.25</ele><time>2026-04-19T10:34:48.999Z</time></trkpt><trkpt lat="38.1446120725771" lon="14.941009214684007"><ele>496.5</ele><time>2026-04-19T10:34:49.999Z</time></trkpt><trkpt lat="38.14450376941282" lon="14.940875074116114"><ele>495.75</ele><time>2026-04-19T10:34:50.999Z</time></trkpt><trkpt lat="38.14441562867262" lon="14.940722056879254"><ele>495.0</ele><time>2026-04-19T10:34:51.999Z</time></trkpt><trkpt lat="38.14432889260924" lon="14.940579775424032"><ele>495.0</ele><time>2026-04-19T10:34:52.999Z</time></trkpt><trkpt lat="38.1442310347245" lon="14.940469593854424"><ele>495.0</ele><time>2026-04-19T10:34:53.999Z</time></trkpt><trkpt lat="38.14413906347938" lon="14.940387799673129"><ele>495.0</ele><time>2026-04-19T10:34:54.999Z</time></trkpt><trkpt lat="38.14404941944133" lon="14.940338265718436"><ele>495.0</ele><time>2026-04-19T10:34:55.999Z</time></trkpt><trkpt lat="38.14395271760608" lon="14.94032393283629"><ele>495.0</ele><time>2026-04-19T10:34:56.999Z</time></trkpt><trkpt lat="38.143835853357416" lon="14.940348078926334"><ele>491.75</ele><time>2026-04-19T10:34:57.999Z</time></trkpt><trkpt lat="38.14370867519635" lon="14.940351283194886"><ele>488.5</ele><time>2026-04-19T10:34:58.999Z</time></trkpt><trkpt lat="38.14357898333666" lon="14.94036885371012"><ele>485.25</ele><time>2026-04-19T10:34:59.999Z</time></trkpt><trkpt lat="38.143446585479204" lon="14.94038683918207"><ele>482.0</ele><time>2026-04-19T10:35:00.999Z</time></trkpt><trkpt lat="38.143312943966905" lon="14.940404993597486"><ele>482.25</ele><time>2026-04-19T10:35:01.999Z</time></trkpt><trkpt lat="38.14317930984877" lon="14.940423299651956"><ele>482.5</ele><time>2026-04-19T10:35:02.998Z</time></trkpt><trkpt lat="38.1430461997002" lon="14.94044262441503"><ele>482.75</ele><time>2026-04-19T10:35:03.998Z</time></trkpt><trkpt lat="38.14291701948035" lon="14.940458740380285"><ele>483.0</ele><time>2026-04-19T10:35:04.998Z</time></trkpt><trkpt lat="38.142792679333795" lon="14.940473207354222"><ele>483.0</ele><time>2026-04-19T10:35:05.998Z</time></trkpt><trkpt lat="38.14267329457864" lon="14.940486271124694"><ele>482.99999999999994</ele><time>2026-04-19T10:35:06.998Z</time></trkpt><trkpt lat="38.1425628621278" lon="14.940496153275598"><ele>482.99999999999994</ele><time>2026-04-19T10:35:07.998Z</time></trkpt><trkpt lat="38.14245696947644" lon="14.940512342040757"><ele>483.0</ele><time>2026-04-19T10:35:08.998Z</time></trkpt><trkpt lat="38.14236333492312" lon="14.940442656737133"><ele>483.0</ele><time>2026-04-19T10:35:09.998Z</time></trkpt><trkpt lat="38.14228829492848" lon="14.940356944366114"><ele>483.8333333333333</ele><time>2026-04-19T10:35:10.998Z</time></trkpt><trkpt lat="38.1422143296622" lon="14.9402734954118"><ele>484.66666666666663</ele><time>2026-04-19T10:35:11.998Z</time></trkpt><trkpt lat="38.14215078278395" lon="14.940211153960828"><ele>485.5</ele><time>2026-04-19T10:35:12.998Z</time></trkpt><trkpt lat="38.142083376681214" lon="14.940191622039244"><ele>486.3333333333333</ele><time>2026-04-19T10:35:13.998Z</time></trkpt><trkpt lat="38.14196433577294" lon="14.940240230092481"><ele>487.16666666666663</ele><time>2026-04-19T10:35:15.998Z</time></trkpt><trkpt lat="38.14189875820315" lon="14.94028152192555"><ele>488.0</ele><time>2026-04-19T10:35:16.998Z</time></trkpt><trkpt lat="38.14183607779363" lon="14.940337032077652"><ele>488.0</ele><time>2026-04-19T10:35:17.998Z</time></trkpt><trkpt lat="38.14178063917559" lon="14.94042243389253"><ele>487.99999999999994</ele><time>2026-04-19T10:35:18.998Z</time></trkpt><trkpt lat="38.14172783053055" lon="14.940521706642254"><ele>487.99999999999994</ele><time>2026-04-19T10:35:19.998Z</time></trkpt><trkpt lat="38.14166083336707" lon="14.940613864818689"><ele>488.0</ele><time>2026-04-19T10:35:20.998Z</time></trkpt><trkpt lat="38.14155583784048" lon="14.940651225252179"><ele>488.0</ele><time>2026-04-19T10:35:21.998Z</time></trkpt><trkpt lat="38.14146927070551" lon="14.940736425788126"><ele>487.4</ele><time>2026-04-19T10:35:22.998Z</time></trkpt><trkpt lat="38.14137019206699" lon="14.940802447608524"><ele>486.79999999999995</ele><time>2026-04-19T10:35:23.998Z</time></trkpt><trkpt lat="38.14127733852595" lon="14.94088287284605"><ele>486.2</ele><time>2026-04-19T10:35:24.998Z</time></trkpt><trkpt lat="38.14118768730878" lon="14.940968149988999"><ele>485.6</ele><time>2026-04-19T10:35:25.998Z</time></trkpt><trkpt lat="38.141103588317925" lon="14.941056651175291"><ele>485.0</ele><time>2026-04-19T10:35:26.998Z</time></trkpt><trkpt lat="38.14103063499579" lon="14.941154894084146"><ele>485.0</ele><time>2026-04-19T10:35:27.998Z</time></trkpt><trkpt lat="38.14097023545846" lon="14.94127154368512"><ele>485.0</ele><time>2026-04-19T10:35:28.998Z</time></trkpt><trkpt lat="38.14091467377975" lon="14.941406269752912"><ele>485.0</ele><time>2026-04-19T10:35:29.998Z</time></trkpt><trkpt lat="38.14086628941839" lon="14.941540472080238"><ele>485.0</ele><time>2026-04-19T10:35:30.998Z</time></trkpt><trkpt lat="38.14081535462337" lon="14.941678672276234"><ele>482.4</ele><time>2026-04-19T10:35:31.998Z</time></trkpt><trkpt lat="38.140764758544485" lon="14.941813001387583"><ele>479.8</ele><time>2026-04-19T10:35:32.998Z</time></trkpt><trkpt lat="38.14071758798007" lon="14.941937291700087"><ele>477.20000000000005</ele><time>2026-04-19T10:35:33.998Z</time></trkpt><trkpt lat="38.140668821850234" lon="14.942054206812331"><ele>474.6</ele><time>2026-04-19T10:35:34.998Z</time></trkpt><trkpt lat="38.140615892355505" lon="14.942159494465336"><ele>472.0</ele><time>2026-04-19T10:35:35.998Z</time></trkpt><trkpt lat="38.14054578149211" lon="14.942226072371385"><ele>471.40000000000003</ele><time>2026-04-19T10:35:36.998Z</time></trkpt><trkpt lat="38.14046325278555" lon="14.94223878277971"><ele>470.80000000000007</ele><time>2026-04-19T10:35:37.998Z</time></trkpt><trkpt lat="38.140382803959966" lon="14.942174497707532"><ele>470.2</ele><time>2026-04-19T10:35:38.998Z</time></trkpt><trkpt lat="38.14028937647338" lon="14.942135081666462"><ele>469.6</ele><time>2026-04-19T10:35:39.998Z</time></trkpt><trkpt lat="38.140194181363135" lon="14.942068295804201"><ele>469.0</ele><time>2026-04-19T10:35:40.998Z</time></trkpt><trkpt lat="38.14009722491177" lon="14.941996186061772"><ele>469.0</ele><time>2026-04-19T10:35:42Z</time></trkpt><trkpt lat="38.13999489562911" lon="14.941937447811425"><ele>469.0</ele><time>2026-04-19T10:35:43Z</time></trkpt><trkpt lat="38.139891146461096" lon="14.941908222033296"><ele>469.0</ele><time>2026-04-19T10:35:44Z</time></trkpt><trkpt lat="38.139790711622915" lon="14.94190717409333"><ele>469.0</ele><time>2026-04-19T10:35:45Z</time></trkpt><trkpt lat="38.139698780233395" lon="14.94194154534709"><ele>469.0</ele><time>2026-04-19T10:35:46Z</time></trkpt><trkpt lat="38.13961708535032" lon="14.942001189565348"><ele>469.6</ele><time>2026-04-19T10:35:47Z</time></trkpt><trkpt lat="38.139544074098744" lon="14.942069366980665"><ele>470.2</ele><time>2026-04-19T10:35:48Z</time></trkpt><trkpt lat="38.13946763749301" lon="14.942142857249387"><ele>470.80000000000007</ele><time>2026-04-19T10:35:49Z</time></trkpt><trkpt lat="38.139400285346234" lon="14.942220263231178"><ele>471.40000000000003</ele><time>2026-04-19T10:35:50Z</time></trkpt><trkpt lat="38.13933273653507" lon="14.942304512064453"><ele>472.0</ele><time>2026-04-19T10:35:51Z</time></trkpt><trkpt lat="38.13925896375249" lon="14.942374878204676"><ele>472.00000000000006</ele><time>2026-04-19T10:35:52Z</time></trkpt><trkpt lat="38.139175851922374" lon="14.942429428723223"><ele>472.0</ele><time>2026-04-19T10:35:53Z</time></trkpt><trkpt lat="38.13909142297092" lon="14.94246659711182"><ele>472.0</ele><time>2026-04-19T10:35:54Z</time></trkpt><trkpt lat="38.13900634958265" lon="14.942504658764529"><ele>472.0</ele><time>2026-04-19T10:35:55Z</time></trkpt><trkpt lat="38.13893582781555" lon="14.942547398300277"><ele>472.00000000000006</ele><time>2026-04-19T10:35:56Z</time></trkpt><trkpt lat="38.138873024900604" lon="14.942597076213278"><ele>472.0</ele><time>2026-04-19T10:35:57Z</time></trkpt><trkpt lat="38.138853220675244" lon="14.942678543054782"><ele>466.20000000000005</ele><time>2026-04-19T10:35:58Z</time></trkpt><trkpt lat="38.13894236154721" lon="14.942787150287279"><ele>460.40000000000003</ele><time>2026-04-19T10:36:00Z</time></trkpt><trkpt lat="38.13900863494661" lon="14.942781217763702"><ele>454.59999999999997</ele><time>2026-04-19T10:36:01Z</time></trkpt><trkpt lat="38.139119705643566" lon="14.942737205951136"><ele>448.79999999999995</ele><time>2026-04-19T10:36:03Z</time></trkpt><trkpt lat="38.139231307821255" lon="14.942731168883306"><ele>443.0</ele><time>2026-04-19T10:36:05Z</time></trkpt><trkpt lat="38.13935445898231" lon="14.94276116707326"><ele>442.99999999999994</ele><time>2026-04-19T10:36:07Z</time></trkpt><trkpt lat="38.13947576574226" lon="14.942817943535204"><ele>443.0</ele><time>2026-04-19T10:36:09Z</time></trkpt><trkpt lat="38.139540453035345" lon="14.942849958008576"><ele>443.0</ele><time>2026-04-19T10:36:10Z</time></trkpt><trkpt lat="38.13960853430942" lon="14.942874556577854"><ele>443.0</ele><time>2026-04-19T10:36:11Z</time></trkpt><trkpt lat="38.139680748311285" lon="14.942893454487038"><ele>442.99999999999994</ele><time>2026-04-19T10:36:11.999Z</time></trkpt><trkpt lat="38.139754571152366" lon="14.942898775706368"><ele>443.0</ele><time>2026-04-19T10:36:12.999Z</time></trkpt><trkpt lat="38.13982893754915" lon="14.94288984004154"><ele>443.8333333333333</ele><time>2026-04-19T10:36:13.999Z</time></trkpt><trkpt lat="38.139903152565246" lon="14.942875675183695"><ele>444.66666666666663</ele><time>2026-04-19T10:36:14.999Z</time></trkpt><trkpt lat="38.139975157590676" lon="14.942859214652328"><ele>445.5</ele><time>2026-04-19T10:36:15.999Z</time></trkpt><trkpt lat="38.1400492985983" lon="14.942849682153401"><ele>446.33333333333337</ele><time>2026-04-19T10:36:16.999Z</time></trkpt><trkpt lat="38.14012343441306" lon="14.94286518915243"><ele>447.1666666666667</ele><time>2026-04-19T10:36:17.999Z</time></trkpt><trkpt lat="38.140196145143136" lon="14.94290170681353"><ele>448.0</ele><time>2026-04-19T10:36:18.999Z</time></trkpt><trkpt lat="38.14026985986734" lon="14.942950053057938"><ele>448.00000000000006</ele><time>2026-04-19T10:36:19.999Z</time></trkpt><trkpt lat="38.140343728804574" lon="14.942990307647834"><ele>448.0</ele><time>2026-04-19T10:36:20.999Z</time></trkpt><trkpt lat="38.14042218393827" lon="14.94302111390618"><ele>448.0</ele><time>2026-04-19T10:36:21.999Z</time></trkpt><trkpt lat="38.140498284980495" lon="14.943046914884187"><ele>448.0</ele><time>2026-04-19T10:36:22.999Z</time></trkpt><trkpt lat="38.140577286098335" lon="14.943065013786612"><ele>448.00000000000006</ele><time>2026-04-19T10:36:23.999Z</time></trkpt><trkpt lat="38.140655456050666" lon="14.943087898191497"><ele>448.0</ele><time>2026-04-19T10:36:24.999Z</time></trkpt><trkpt lat="38.1407261816464" lon="14.943111797532987"><ele>448.00000000000006</ele><time>2026-04-19T10:36:25.999Z</time></trkpt><trkpt lat="38.14079702628859" lon="14.943143120262746"><ele>448.0</ele><time>2026-04-19T10:36:26.999Z</time></trkpt><trkpt lat="38.14086329022429" lon="14.943250795597761"><ele>448.0</ele><time>2026-04-19T10:36:28.999Z</time></trkpt><trkpt lat="38.14078318217694" lon="14.943345647039775"><ele>448.0</ele><time>2026-04-19T10:36:30.999Z</time></trkpt><trkpt lat="38.14071434454067" lon="14.943334031132789"><ele>448.00000000000006</ele><time>2026-04-19T10:36:31.999Z</time></trkpt><trkpt lat="38.14066112367036" lon="14.94328533392009"><ele>448.0</ele><time>2026-04-19T10:36:32.999Z</time></trkpt><trkpt lat="38.14055767773984" lon="14.943234170627015"><ele>448.00000000000006</ele><time>2026-04-19T10:36:34.999Z</time></trkpt><trkpt lat="38.140432475126296" lon="14.943243994014145"><ele>448.0</ele><time>2026-04-19T10:36:36.999Z</time></trkpt><trkpt lat="38.140367325180094" lon="14.943253365923722"><ele>448.0</ele><time>2026-04-19T10:36:37.999Z</time></trkpt><trkpt lat="38.1403020568498" lon="14.9432682563241"><ele>448.0</ele><time>2026-04-19T10:36:38.999Z</time></trkpt><trkpt lat="38.14023746830366" lon="14.943302236593144"><ele>448.00000000000006</ele><time>2026-04-19T10:36:39.999Z</time></trkpt><trkpt lat="38.140177987484186" lon="14.943353684572902"><ele>448.0</ele><time>2026-04-19T10:36:40.999Z</time></trkpt><trkpt lat="38.14012226052465" lon="14.943411881022024"><ele>445.83333333333337</ele><time>2026-04-19T10:36:41.999Z</time></trkpt><trkpt lat="38.14006523730678" lon="14.94346693654782"><ele>443.6666666666667</ele><time>2026-04-19T10:36:42.999Z</time></trkpt><trkpt lat="38.139997974977554" lon="14.943509519339848"><ele>441.5</ele><time>2026-04-19T10:36:43.999Z</time></trkpt><trkpt lat="38.139921468878775" lon="14.943524814871903"><ele>439.33333333333337</ele><time>2026-04-19T10:36:44.999Z</time></trkpt><trkpt lat="38.139844161524785" lon="14.943532730831231"><ele>437.1666666666667</ele><time>2026-04-19T10:36:45.999Z</time></trkpt><trkpt lat="38.139763724824185" lon="14.943535654630042"><ele>435.0</ele><time>2026-04-19T10:36:46.999Z</time></trkpt><trkpt lat="38.13968474356378" lon="14.943550171172864"><ele>433.6666666666667</ele><time>2026-04-19T10:36:47.999Z</time></trkpt><trkpt lat="38.13960303806451" lon="14.943569375355978"><ele>432.33333333333337</ele><time>2026-04-19T10:36:48.999Z</time></trkpt><trkpt lat="38.139519185130894" lon="14.943576016538174"><ele>431.0</ele><time>2026-04-19T10:36:49.999Z</time></trkpt><trkpt lat="38.139433855066784" lon="14.943557011729895"><ele>429.6666666666667</ele><time>2026-04-19T10:36:50.999Z</time></trkpt><trkpt lat="38.13934773518961" lon="14.943524710631126"><ele>428.33333333333337</ele><time>2026-04-19T10:36:51.999Z</time></trkpt><trkpt lat="38.13926096735896" lon="14.943494840965805"><ele>427.0</ele><time>2026-04-19T10:36:52.999Z</time></trkpt><trkpt lat="38.1391709145002" lon="14.943473107568323"><ele>427.0</ele><time>2026-04-19T10:36:53.999Z</time></trkpt><trkpt lat="38.13907741735732" lon="14.943464884965534"><ele>427.00000000000006</ele><time>2026-04-19T10:36:54.999Z</time></trkpt><trkpt lat="38.13898084013104" lon="14.94346203436338"><ele>427.00000000000006</ele><time>2026-04-19T10:36:55.999Z</time></trkpt><trkpt lat="38.138883883470484" lon="14.943455032954995"><ele>427.0</ele><time>2026-04-19T10:36:56.999Z</time></trkpt><trkpt lat="38.13878473460524" lon="14.943447787403358"><ele>427.0</ele><time>2026-04-19T10:36:57.999Z</time></trkpt><trkpt lat="38.13868559532047" lon="14.943439104101842"><ele>425.40000000000003</ele><time>2026-04-19T10:36:58.999Z</time></trkpt><trkpt lat="38.13858617803664" lon="14.943438379045405"><ele>423.80000000000007</ele><time>2026-04-19T10:36:59.999Z</time></trkpt><trkpt lat="38.13848853845811" lon="14.94346958297731"><ele>422.2</ele><time>2026-04-19T10:37:00.999Z</time></trkpt><trkpt lat="38.13839498234092" lon="14.943511172330075"><ele>420.6</ele><time>2026-04-19T10:37:01.999Z</time></trkpt><trkpt lat="38.13830938731024" lon="14.943579065070667"><ele>419.0</ele><time>2026-04-19T10:37:02.999Z</time></trkpt><trkpt lat="38.13822809723159" lon="14.943657641247698"><ele>421.2</ele><time>2026-04-19T10:37:03.999Z</time></trkpt><trkpt lat="38.138150557218296" lon="14.943736427563277"><ele>423.4</ele><time>2026-04-19T10:37:04.999Z</time></trkpt><trkpt lat="38.13807073267549" lon="14.943813062716849"><ele>425.6</ele><time>2026-04-19T10:37:05.999Z</time></trkpt><trkpt lat="38.13799132697141" lon="14.943891402954247"><ele>427.8</ele><time>2026-04-19T10:37:06.999Z</time></trkpt><trkpt lat="38.1379132975405" lon="14.943974606326044"><ele>430.0</ele><time>2026-04-19T10:37:07.999Z</time></trkpt><trkpt lat="38.13783879533791" lon="14.944063983131802"><ele>430.0</ele><time>2026-04-19T10:37:08.999Z</time></trkpt><trkpt lat="38.137788996569036" lon="14.944172161340378"><ele>430.0</ele><time>2026-04-19T10:37:09.998Z</time></trkpt><trkpt lat="38.13776155401315" lon="14.944299790619771"><ele>430.0</ele><time>2026-04-19T10:37:10.998Z</time></trkpt><trkpt lat="38.137747732748295" lon="14.944431049485708"><ele>430.0</ele><time>2026-04-19T10:37:11.998Z</time></trkpt><trkpt lat="38.137736887869664" lon="14.944556694946023"><ele>430.0</ele><time>2026-04-19T10:37:12.998Z</time></trkpt><trkpt lat="38.13772051747722" lon="14.944683383343868"><ele>427.2</ele><time>2026-04-19T10:37:13.998Z</time></trkpt><trkpt lat="38.13771305788521" lon="14.944812401355989"><ele>424.4</ele><time>2026-04-19T10:37:14.998Z</time></trkpt><trkpt lat="38.137694085722686" lon="14.944935900229565"><ele>421.6</ele><time>2026-04-19T10:37:15.998Z</time></trkpt><trkpt lat="38.13766199860094" lon="14.945056496178859"><ele>418.8</ele><time>2026-04-19T10:37:16.998Z</time></trkpt><trkpt lat="38.1376081425695" lon="14.945165824732706"><ele>416.0</ele><time>2026-04-19T10:37:17.998Z</time></trkpt><trkpt lat="38.13754884799929" lon="14.945266905430193"><ele>415.0</ele><time>2026-04-19T10:37:18.998Z</time></trkpt><trkpt lat="38.13748962123055" lon="14.94536819851291"><ele>414.0</ele><time>2026-04-19T10:37:19.998Z</time></trkpt><trkpt lat="38.137424589087416" lon="14.94546370289618"><ele>413.0</ele><time>2026-04-19T10:37:20.998Z</time></trkpt><trkpt lat="38.1373459542687" lon="14.945540285084753"><ele>412.0</ele><time>2026-04-19T10:37:21.998Z</time></trkpt><trkpt lat="38.137256702848724" lon="14.9455962227792"><ele>411.0</ele><time>2026-04-19T10:37:22.998Z</time></trkpt><trkpt lat="38.13716409030871" lon="14.94563936544199"><ele>411.0</ele><time>2026-04-19T10:37:23.998Z</time></trkpt><trkpt lat="38.13707078802373" lon="14.94568146248675"><ele>411.0</ele><time>2026-04-19T10:37:24.998Z</time></trkpt><trkpt lat="38.136975926476154" lon="14.945731686851872"><ele>411.0</ele><time>2026-04-19T10:37:25.998Z</time></trkpt><trkpt lat="38.13688473925796" lon="14.945773246609496"><ele>411.0</ele><time>2026-04-19T10:37:26.998Z</time></trkpt><trkpt lat="38.136790023406796" lon="14.945813378254917"><ele>411.0</ele><time>2026-04-19T10:37:27.998Z</time></trkpt><trkpt lat="38.13669393349103" lon="14.945850727113903"><ele>405.8</ele><time>2026-04-19T10:37:28.998Z</time></trkpt><trkpt lat="38.13660025913081" lon="14.94589471883683"><ele>400.6</ele><time>2026-04-19T10:37:29.998Z</time></trkpt><trkpt lat="38.136504596258035" lon="14.945935762120486"><ele>395.4</ele><time>2026-04-19T10:37:30.998Z</time></trkpt><trkpt lat="38.136410351514975" lon="14.945979569991975"><ele>390.2</ele><time>2026-04-19T10:37:31.998Z</time></trkpt><trkpt lat="38.13632041717803" lon="14.946030388267129"><ele>385.0</ele><time>2026-04-19T10:37:32.998Z</time></trkpt><trkpt lat="38.13623765130792" lon="14.94610295050805"><ele>385.0</ele><time>2026-04-19T10:37:33.998Z</time></trkpt><trkpt lat="38.1361564337554" lon="14.946179985501097"><ele>385.0</ele><time>2026-04-19T10:37:34.998Z</time></trkpt><trkpt lat="38.136070860471236" lon="14.946249107530548"><ele>385.0</ele><time>2026-04-19T10:37:35.998Z</time></trkpt><trkpt lat="38.13597581921558" lon="14.946301232046114"><ele>385.0</ele><time>2026-04-19T10:37:36.998Z</time></trkpt><trkpt lat="38.13587351060748" lon="14.94632325332964"><ele>385.0</ele><time>2026-04-19T10:37:37.998Z</time></trkpt><trkpt lat="38.13577027385639" lon="14.946317854191125"><ele>383.2</ele><time>2026-04-19T10:37:38.998Z</time></trkpt><trkpt lat="38.13566683751863" lon="14.946298290590441"><ele>381.4</ele><time>2026-04-19T10:37:39.998Z</time></trkpt><trkpt lat="38.135565079029924" lon="14.9462556398023"><ele>379.6</ele><time>2026-04-19T10:37:40.998Z</time></trkpt><trkpt lat="38.13546895454649" lon="14.946197136023036"><ele>377.8</ele><time>2026-04-19T10:37:41.998Z</time></trkpt><trkpt lat="38.13537821166781" lon="14.946122545358822"><ele>376.0</ele><time>2026-04-19T10:37:42.998Z</time></trkpt><trkpt lat="38.13529314215371" lon="14.94604073987344"><ele>376.0</ele><time>2026-04-19T10:37:43.998Z</time></trkpt><trkpt lat="38.13520755398304" lon="14.945955638076065"><ele>376.0</ele><time>2026-04-19T10:37:44.998Z</time></trkpt><trkpt lat="38.13511983911718" lon="14.94587277175617"><ele>376.0</ele><time>2026-04-19T10:37:45.998Z</time></trkpt><trkpt lat="38.13503138567975" lon="14.945791504375144"><ele>376.0</ele><time>2026-04-19T10:37:47Z</time></trkpt><trkpt lat="38.13495434421971" lon="14.945691814421735"><ele>376.0</ele><time>2026-04-19T10:37:48Z</time></trkpt><trkpt lat="38.13486835844868" lon="14.945609071959801"><ele>376.6</ele><time>2026-04-19T10:37:49Z</time></trkpt><trkpt lat="38.13476577780854" lon="14.945555962669143"><ele>377.20000000000005</ele><time>2026-04-19T10:37:50Z</time></trkpt><trkpt lat="38.134668673806814" lon="14.945497001919206"><ele>377.79999999999995</ele><time>2026-04-19T10:37:51Z</time></trkpt><trkpt lat="38.134564353878346" lon="14.94545447391472"><ele>378.4</ele><time>2026-04-19T10:37:52Z</time></trkpt><trkpt lat="38.13446385098684" lon="14.945410362195656"><ele>379.0</ele><time>2026-04-19T10:37:53Z</time></trkpt><trkpt lat="38.13436149680082" lon="14.94535701379287"><ele>379.0</ele><time>2026-04-19T10:37:54Z</time></trkpt><trkpt lat="38.13425277708167" lon="14.945355951369097"><ele>379.0</ele><time>2026-04-19T10:37:55Z</time></trkpt><trkpt lat="38.13414397214682" lon="14.945359105287832"><ele>379.0</ele><time>2026-04-19T10:37:56Z</time></trkpt><trkpt lat="38.13403473903921" lon="14.94537536576021"><ele>379.0</ele><time>2026-04-19T10:37:57Z</time></trkpt><trkpt lat="38.1339257596104" lon="14.945367568301473"><ele>379.0</ele><time>2026-04-19T10:37:58Z</time></trkpt><trkpt lat="38.13382017468199" lon="14.945380539649003"><ele>376.6</ele><time>2026-04-19T10:37:59Z</time></trkpt><trkpt lat="38.13371896175478" lon="14.945413915239428"><ele>374.2</ele><time>2026-04-19T10:38:00Z</time></trkpt><trkpt lat="38.1336181305153" lon="14.94541821680737"><ele>371.8</ele><time>2026-04-19T10:38:01Z</time></trkpt><trkpt lat="38.13351899262459" lon="14.945423178389559"><ele>369.40000000000003</ele><time>2026-04-19T10:38:02Z</time></trkpt><trkpt lat="38.13342786569268" lon="14.9454038787626"><ele>367.0</ele><time>2026-04-19T10:38:03Z</time></trkpt><trkpt lat="38.13336089711433" lon="14.945354746115088"><ele>367.0</ele><time>2026-04-19T10:38:04Z</time></trkpt><trkpt lat="38.133278778885" lon="14.945278721789146"><ele>367.0</ele><time>2026-04-19T10:38:06Z</time></trkpt><trkpt lat="38.133218174820506" lon="14.945444990861628"><ele>367.0</ele><time>2026-04-19T10:38:09Z</time></trkpt><trkpt lat="38.133250221063584" lon="14.945567296595042"><ele>367.0</ele><time>2026-04-19T10:38:11Z</time></trkpt><trkpt lat="38.13330617495909" lon="14.945647322090654"><ele>367.0</ele><time>2026-04-19T10:38:25.999Z</time></trkpt><trkpt lat="38.133395017597415" lon="14.945685484715854"><ele>367.0</ele><time>2026-04-19T10:38:28.999Z</time></trkpt><trkpt lat="38.13346695215345" lon="14.945699364938994"><ele>367.0</ele><time>2026-04-19T10:38:30.999Z</time></trkpt><trkpt lat="38.13354498403197" lon="14.945719546334496"><ele>367.0</ele><time>2026-04-19T10:38:32.999Z</time></trkpt><trkpt lat="38.13364443987994" lon="14.945746969685063"><ele>367.0</ele><time>2026-04-19T10:38:34.999Z</time></trkpt><trkpt lat="38.13373414066249" lon="14.945847076498936"><ele>367.0</ele><time>2026-04-19T10:38:36.999Z</time></trkpt><trkpt lat="38.1337576260526" lon="14.945934088657111"><ele>367.0</ele><time>2026-04-19T10:38:37.999Z</time></trkpt><trkpt lat="38.13377027762583" lon="14.946031570041656"><ele>366.3333333333333</ele><time>2026-04-19T10:38:38.999Z</time></trkpt><trkpt lat="38.133760772265255" lon="14.946127897003366"><ele>365.66666666666663</ele><time>2026-04-19T10:38:39.999Z</time></trkpt><trkpt lat="38.13372040807741" lon="14.946216162035379"><ele>365.0</ele><time>2026-04-19T10:38:40.999Z</time></trkpt><trkpt lat="38.13366556334609" lon="14.946286632611793"><ele>364.3333333333333</ele><time>2026-04-19T10:38:41.999Z</time></trkpt><trkpt lat="38.13362069662674" lon="14.946364888961238"><ele>363.6666666666667</ele><time>2026-04-19T10:38:42.999Z</time></trkpt><trkpt lat="38.133597830949356" lon="14.94646242796986"><ele>363.0</ele><time>2026-04-19T10:38:43.999Z</time></trkpt><trkpt lat="38.13359682240514" lon="14.946570785854057"><ele>363.0</ele><time>2026-04-19T10:38:44.999Z</time></trkpt><trkpt lat="38.133601972196175" lon="14.94667340080475"><ele>363.0</ele><time>2026-04-19T10:38:45.999Z</time></trkpt><trkpt lat="38.133589422122924" lon="14.946781732738563"><ele>363.0</ele><time>2026-04-19T10:38:46.999Z</time></trkpt><trkpt lat="38.13357627808904" lon="14.94688634308715"><ele>363.0</ele><time>2026-04-19T10:38:47.999Z</time></trkpt><trkpt lat="38.1335354671677" lon="14.946981412707435"><ele>363.0</ele><time>2026-04-19T10:38:48.999Z</time></trkpt><trkpt lat="38.13347932119456" lon="14.947066387173603"><ele>363.0</ele><time>2026-04-19T10:38:49.999Z</time></trkpt><trkpt lat="38.13344316325826" lon="14.947162058386873"><ele>361.6666666666667</ele><time>2026-04-19T10:38:50.999Z</time></trkpt><trkpt lat="38.13343085276178" lon="14.947274670028898"><ele>360.3333333333333</ele><time>2026-04-19T10:38:51.999Z</time></trkpt><trkpt lat="38.13344002213224" lon="14.947386362721266"><ele>359.0</ele><time>2026-04-19T10:38:52.999Z</time></trkpt><trkpt lat="38.13345263157642" lon="14.947497168283434"><ele>357.66666666666663</ele><time>2026-04-19T10:38:53.999Z</time></trkpt><trkpt lat="38.133466549500525" lon="14.947606060244986"><ele>356.3333333333333</ele><time>2026-04-19T10:38:54.999Z</time></trkpt><trkpt lat="38.133477937792144" lon="14.947716826320965"><ele>355.0</ele><time>2026-04-19T10:38:55.999Z</time></trkpt><trkpt lat="38.13348390564076" lon="14.947829683149966"><ele>354.3333333333333</ele><time>2026-04-19T10:38:56.999Z</time></trkpt><trkpt lat="38.13348790441771" lon="14.947937894200242"><ele>353.66666666666663</ele><time>2026-04-19T10:38:57.999Z</time></trkpt><trkpt lat="38.133499790429816" lon="14.948046545113739"><ele>353.0</ele><time>2026-04-19T10:38:58.999Z</time></trkpt><trkpt lat="38.13354587733738" lon="14.948135021416824"><ele>352.3333333333333</ele><time>2026-04-19T10:38:59.999Z</time></trkpt><trkpt lat="38.133622089558855" lon="14.948187571443828"><ele>351.6666666666667</ele><time>2026-04-19T10:39:00.999Z</time></trkpt><trkpt lat="38.133705334552396" lon="14.948202316626478"><ele>351.0</ele><time>2026-04-19T10:39:01.999Z</time></trkpt><trkpt lat="38.13378447840679" lon="14.948192898729305"><ele>351.0</ele><time>2026-04-19T10:39:02.999Z</time></trkpt><trkpt lat="38.13385634792115" lon="14.948193943326077"><ele>351.0</ele><time>2026-04-19T10:39:03.999Z</time></trkpt><trkpt lat="38.13392810589563" lon="14.948214464434052"><ele>351.0</ele><time>2026-04-19T10:39:04.999Z</time></trkpt><trkpt lat="38.133995299429" lon="14.948255822611005"><ele>351.0</ele><time>2026-04-19T10:39:05.999Z</time></trkpt><trkpt lat="38.13405695631131" lon="14.948316415678377"><ele>351.0</ele><time>2026-04-19T10:39:06.999Z</time></trkpt><trkpt lat="38.134104770428785" lon="14.948393558359001"><ele>351.0</ele><time>2026-04-19T10:39:07.999Z</time></trkpt><trkpt lat="38.13412402252081" lon="14.948493157035035"><ele>348.5</ele><time>2026-04-19T10:39:08.999Z</time></trkpt><trkpt lat="38.134097566938564" lon="14.948593222470473"><ele>346.0</ele><time>2026-04-19T10:39:09.999Z</time></trkpt><trkpt lat="38.13404440175188" lon="14.948672576714063"><ele>343.5</ele><time>2026-04-19T10:39:10.999Z</time></trkpt><trkpt lat="38.13399716947132" lon="14.948746157278437"><ele>341.0</ele><time>2026-04-19T10:39:11.999Z</time></trkpt><trkpt lat="38.13394880028705" lon="14.948822043920755"><ele>338.5</ele><time>2026-04-19T10:39:12.998Z</time></trkpt><trkpt lat="38.13390665835008" lon="14.948901173608158"><ele>336.0</ele><time>2026-04-19T10:39:13.998Z</time></trkpt><trkpt lat="38.13386409818051" lon="14.948979935520379"><ele>336.0</ele><time>2026-04-19T10:39:14.998Z</time></trkpt><trkpt lat="38.13380435394379" lon="14.949045867529298"><ele>336.0</ele><time>2026-04-19T10:39:15.998Z</time></trkpt><trkpt lat="38.13372609992395" lon="14.949076765165021"><ele>336.0</ele><time>2026-04-19T10:39:16.998Z</time></trkpt><trkpt lat="38.13364066055008" lon="14.94907690658364"><ele>336.0</ele><time>2026-04-19T10:39:17.998Z</time></trkpt><trkpt lat="38.133552447761645" lon="14.949057343704435"><ele>336.0</ele><time>2026-04-19T10:39:18.998Z</time></trkpt><trkpt lat="38.13347090092128" lon="14.949035186059328"><ele>336.0</ele><time>2026-04-19T10:39:19.998Z</time></trkpt><trkpt lat="38.13339125289308" lon="14.94901592564127"><ele>336.0</ele><time>2026-04-19T10:39:20.998Z</time></trkpt><trkpt lat="38.133310367159226" lon="14.948987078991287"><ele>336.0</ele><time>2026-04-19T10:39:21.998Z</time></trkpt><trkpt lat="38.133228026073844" lon="14.948952647475057"><ele>336.0</ele><time>2026-04-19T10:39:22.998Z</time></trkpt><trkpt lat="38.133153039540396" lon="14.948911885623692"><ele>336.0</ele><time>2026-04-19T10:39:23.998Z</time></trkpt><trkpt lat="38.13307754081623" lon="14.948871193731664"><ele>336.0</ele><time>2026-04-19T10:39:24.998Z</time></trkpt><trkpt lat="38.1329985708896" lon="14.948823447761292"><ele>336.0</ele><time>2026-04-19T10:39:25.998Z</time></trkpt><trkpt lat="38.13292381678127" lon="14.948778064457619"><ele>333.0</ele><time>2026-04-19T10:39:26.998Z</time></trkpt><trkpt lat="38.13284663726255" lon="14.948728304184637"><ele>330.0</ele><time>2026-04-19T10:39:27.998Z</time></trkpt><trkpt lat="38.132764893206904" lon="14.948683264581968"><ele>327.0</ele><time>2026-04-19T10:39:28.998Z</time></trkpt><trkpt lat="38.132685312590404" lon="14.948640716021533"><ele>324.0</ele><time>2026-04-19T10:39:29.998Z</time></trkpt><trkpt lat="38.13260922058918" lon="14.948589626633636"><ele>321.0</ele><time>2026-04-19T10:39:30.998Z</time></trkpt><trkpt lat="38.1325342604584" lon="14.94852786368265"><ele>318.0</ele><time>2026-04-19T10:39:31.998Z</time></trkpt><trkpt lat="38.13246203354982" lon="14.948460324400497"><ele>316.4</ele><time>2026-04-19T10:39:32.998Z</time></trkpt><trkpt lat="38.13238732641597" lon="14.948390007090111"><ele>314.8</ele><time>2026-04-19T10:39:33.998Z</time></trkpt><trkpt lat="38.132318360482444" lon="14.948308403637398"><ele>313.2</ele><time>2026-04-19T10:39:34.998Z</time></trkpt><trkpt lat="38.13227708290892" lon="14.948198428653997"><ele>311.6</ele><time>2026-04-19T10:39:35.998Z</time></trkpt><trkpt lat="38.13230314015166" lon="14.948068750404643"><ele>310.0</ele><time>2026-04-19T10:39:36.998Z</time></trkpt><trkpt lat="38.132263189098" lon="14.947960792556742"><ele>310.0</ele><time>2026-04-19T10:39:37.998Z</time></trkpt><trkpt lat="38.132253123064025" lon="14.947845028342119"><ele>310.0</ele><time>2026-04-19T10:39:38.998Z</time></trkpt><trkpt lat="38.13223432177395" lon="14.947732111010659"><ele>310.0</ele><time>2026-04-19T10:39:39.998Z</time></trkpt><trkpt lat="38.132228363263025" lon="14.947612497041552"><ele>310.0</ele><time>2026-04-19T10:39:40.998Z</time></trkpt><trkpt lat="38.13220562542498" lon="14.947498437539382"><ele>310.0</ele><time>2026-04-19T10:39:41.998Z</time></trkpt><trkpt lat="38.132190989868036" lon="14.947385215436396"><ele>311.3333333333333</ele><time>2026-04-19T10:39:42.998Z</time></trkpt><trkpt lat="38.132176088977666" lon="14.947270811822225"><ele>312.66666666666663</ele><time>2026-04-19T10:39:43.998Z</time></trkpt><trkpt lat="38.132165869114196" lon="14.947164810177318"><ele>314.0</ele><time>2026-04-19T10:39:44.998Z</time></trkpt><trkpt lat="38.1321670853096" lon="14.947063386257325"><ele>315.3333333333333</ele><time>2026-04-19T10:39:45.998Z</time></trkpt><trkpt lat="38.132156661394546" lon="14.946966765210925"><ele>316.6666666666667</ele><time>2026-04-19T10:39:46.998Z</time></trkpt><trkpt lat="38.132130953644555" lon="14.946880736587508"><ele>318.0</ele><time>2026-04-19T10:39:47.998Z</time></trkpt><trkpt lat="38.13210638155285" lon="14.946797919910411"><ele>318.0</ele><time>2026-04-19T10:39:48.998Z</time></trkpt><trkpt lat="38.13207962839623" lon="14.946725250530667"><ele>318.0</ele><time>2026-04-19T10:39:49.998Z</time></trkpt><trkpt lat="38.13202115939979" lon="14.946618864339383"><ele>318.0</ele><time>2026-04-19T10:39:52Z</time></trkpt><trkpt lat="38.13193298536323" lon="14.94664820016011"><ele>318.0</ele><time>2026-04-19T10:39:54Z</time></trkpt><trkpt lat="38.13194977653719" lon="14.946781379395851"><ele>318.0</ele><time>2026-04-19T10:39:56Z</time></trkpt><trkpt lat="38.13198533111642" lon="14.946902401179853"><ele>318.0</ele><time>2026-04-19T10:39:58Z</time></trkpt><trkpt lat="38.13191143488358" lon="14.947021161254444"><ele>318.0</ele><time>2026-04-19T10:40:00Z</time></trkpt><trkpt lat="38.13184881506509" lon="14.947049142038388"><ele>318.0</ele><time>2026-04-19T10:40:01Z</time></trkpt><trkpt lat="38.13179413412196" lon="14.947103157443918"><ele>318.0</ele><time>2026-04-19T10:40:02Z</time></trkpt><trkpt lat="38.13176240028749" lon="14.947189952703908"><ele>318.0</ele><time>2026-04-19T10:40:03Z</time></trkpt><trkpt lat="38.131750023280055" lon="14.947291912037107"><ele>318.0</ele><time>2026-04-19T10:40:04Z</time></trkpt><trkpt lat="38.131746394720984" lon="14.947395412394092"><ele>318.0</ele><time>2026-04-19T10:40:05Z</time></trkpt><trkpt lat="38.13174196280307" lon="14.947496889731314"><ele>318.0</ele><time>2026-04-19T10:40:06Z</time></trkpt><trkpt lat="38.131753963629905" lon="14.947607075069309"><ele>318.0</ele><time>2026-04-19T10:40:07Z</time></trkpt><trkpt lat="38.131782801086885" lon="14.94771747010236"><ele>318.0</ele><time>2026-04-19T10:40:08Z</time></trkpt><trkpt lat="38.13180569792201" lon="14.947833562809114"><ele>318.0</ele><time>2026-04-19T10:40:09Z</time></trkpt><trkpt lat="38.13181568647973" lon="14.947945071348387"><ele>318.0</ele><time>2026-04-19T10:40:10Z</time></trkpt><trkpt lat="38.13180262903647" lon="14.948062241828703"><ele>316.6666666666667</ele><time>2026-04-19T10:40:11Z</time></trkpt><trkpt lat="38.131773630397994" lon="14.948172791998894"><ele>315.3333333333333</ele><time>2026-04-19T10:40:12Z</time></trkpt><trkpt lat="38.13174961645702" lon="14.94827134480493"><ele>314.0</ele><time>2026-04-19T10:40:13Z</time></trkpt><trkpt lat="38.131738067591634" lon="14.948366045550506"><ele>312.66666666666663</ele><time>2026-04-19T10:40:14Z</time></trkpt><trkpt lat="38.13174724113648" lon="14.948474730733396"><ele>311.3333333333333</ele><time>2026-04-19T10:40:15Z</time></trkpt><trkpt lat="38.13175280357285" lon="14.94856171652801"><ele>310.0</ele><time>2026-04-19T10:40:16Z</time></trkpt><trkpt lat="38.13176329724811" lon="14.948705949375547"><ele>307.0</ele><time>2026-04-19T10:40:18Z</time></trkpt><trkpt lat="38.13173536733413" lon="14.948796772485592"><ele>304.0</ele><time>2026-04-19T10:41:06.999Z</time></trkpt><trkpt lat="38.131788515382354" lon="14.948745716202234"><ele>301.0</ele><time>2026-04-19T10:45:10.999Z</time></trkpt><trkpt lat="38.13186187554387" lon="14.948874384051617"><ele>298.0</ele><time>2026-04-19T10:46:00.998Z</time></trkpt><trkpt lat="38.13191527756191" lon="14.948961365408017"><ele>295.0</ele><time>2026-04-19T10:46:04.998Z</time></trkpt><trkpt lat="38.13196410413163" lon="14.949044323544053"><ele>292.0</ele><time>2026-04-19T10:46:07.998Z</time></trkpt><trkpt lat="38.13200265565705" lon="14.949115437857419"><ele>292.0</ele><time>2026-04-19T10:46:10Z</time></trkpt><trkpt lat="38.132059055462555" lon="14.949177977082032"><ele>292.0</ele><time>2026-04-19T10:46:13Z</time></trkpt><trkpt lat="38.132131311124915" lon="14.94926228192011"><ele>292.0</ele><time>2026-04-19T10:46:16Z</time></trkpt><trkpt lat="38.13217700196736" lon="14.949327875750255"><ele>292.0</ele><time>2026-04-19T10:46:18Z</time></trkpt><trkpt lat="38.132238119229754" lon="14.949385335283814"><ele>292.0</ele><time>2026-04-19T10:46:20Z</time></trkpt><trkpt lat="38.132303322665166" lon="14.949425406348714"><ele>292.0</ele><time>2026-04-19T10:46:22Z</time></trkpt><trkpt lat="38.13234906813177" lon="14.949486488954895"><ele>291.16666666666663</ele><time>2026-04-19T10:46:24Z</time></trkpt><trkpt lat="38.132409972211995" lon="14.949533932378746"><ele>290.3333333333333</ele><time>2026-04-19T10:46:26Z</time></trkpt><trkpt lat="38.132478273431815" lon="14.949574037291075"><ele>289.5</ele><time>2026-04-19T10:46:28Z</time></trkpt><trkpt lat="38.13253428004015" lon="14.949642576692165"><ele>288.6666666666667</ele><time>2026-04-19T10:46:29.999Z</time></trkpt><trkpt lat="38.132599202379865" lon="14.949721929736633"><ele>287.83333333333337</ele><time>2026-04-19T10:46:31.999Z</time></trkpt><trkpt lat="38.132658844750424" lon="14.949791801606006"><ele>287.0</ele><time>2026-04-19T10:46:33.999Z</time></trkpt><trkpt lat="38.132726875065465" lon="14.949866518834193"><ele>287.0</ele><time>2026-04-19T10:46:35.999Z</time></trkpt><trkpt lat="38.13281911005196" lon="14.94990133304485"><ele>287.0</ele><time>2026-04-19T10:46:37.999Z</time></trkpt><trkpt lat="38.13293406562517" lon="14.949904783511291"><ele>287.0</ele><time>2026-04-19T10:46:39.999Z</time></trkpt><trkpt lat="38.13304238047961" lon="14.949924629229937"><ele>287.0</ele><time>2026-04-19T10:46:41.999Z</time></trkpt><trkpt lat="38.133154433786" lon="14.949949552814914"><ele>287.0</ele><time>2026-04-19T10:46:43.999Z</time></trkpt><trkpt lat="38.133251031424805" lon="14.94997918998345"><ele>288.83333333333337</ele><time>2026-04-19T10:46:45.999Z</time></trkpt><trkpt lat="38.133321561842116" lon="14.950002741769557"><ele>290.6666666666667</ele><time>2026-04-19T10:46:46.999Z</time></trkpt><trkpt lat="38.133397605037615" lon="14.950027384544017"><ele>292.5</ele><time>2026-04-19T10:46:47.999Z</time></trkpt><trkpt lat="38.133466310502854" lon="14.950042287874853"><ele>294.3333333333333</ele><time>2026-04-19T10:46:48.999Z</time></trkpt><trkpt lat="38.13353639834776" lon="14.950061433917327"><ele>296.16666666666663</ele><time>2026-04-19T10:46:49.999Z</time></trkpt><trkpt lat="38.133604507910924" lon="14.950086289205778"><ele>298.0</ele><time>2026-04-19T10:46:50.999Z</time></trkpt><trkpt lat="38.13372713610707" lon="14.950125547264648"><ele>291.75</ele><time>2026-04-19T10:46:52.999Z</time></trkpt><trkpt lat="38.13381563506112" lon="14.950163225830995"><ele>285.5</ele><time>2026-04-19T10:46:53.999Z</time></trkpt><trkpt lat="38.13391726486305" lon="14.950225688369379"><ele>279.25</ele><time>2026-04-19T10:46:54.999Z</time></trkpt><trkpt lat="38.13403480781502" lon="14.950302002693672"><ele>273.0</ele><time>2026-04-19T10:46:55.999Z</time></trkpt><trkpt lat="38.134145668046365" lon="14.95036091430582"><ele>273.0</ele><time>2026-04-19T10:46:56.999Z</time></trkpt><trkpt lat="38.134257943018845" lon="14.95039154114129"><ele>273.0</ele><time>2026-04-19T10:46:57.999Z</time></trkpt><trkpt lat="38.134388615446625" lon="14.950408294649463"><ele>273.0</ele><time>2026-04-19T10:46:58.999Z</time></trkpt><trkpt lat="38.134534310858434" lon="14.9504160354738"><ele>273.0</ele><time>2026-04-19T10:46:59.999Z</time></trkpt><trkpt lat="38.13467049181809" lon="14.95040182363161"><ele>273.0</ele><time>2026-04-19T10:47:00.999Z</time></trkpt><trkpt lat="38.13479356054583" lon="14.950361431499447"><ele>273.0</ele><time>2026-04-19T10:47:01.999Z</time></trkpt><trkpt lat="38.13489977271992" lon="14.950296550124417"><ele>273.0</ele><time>2026-04-19T10:47:02.999Z</time></trkpt><trkpt lat="38.13498714014058" lon="14.950205262609089"><ele>273.0</ele><time>2026-04-19T10:47:03.999Z</time></trkpt><trkpt lat="38.13505821569197" lon="14.950086183482897"><ele>276.75</ele><time>2026-04-19T10:47:04.999Z</time></trkpt><trkpt lat="38.135119329751014" lon="14.949966496730164"><ele>280.5</ele><time>2026-04-19T10:47:05.999Z</time></trkpt><trkpt lat="38.135184529491816" lon="14.949841735808187"><ele>284.25</ele><time>2026-04-19T10:47:06.999Z</time></trkpt><trkpt lat="38.13526320346116" lon="14.949738326310722"><ele>288.0</ele><time>2026-04-19T10:47:07.999Z</time></trkpt><trkpt lat="38.13535498879235" lon="14.949660590563946"><ele>288.0</ele><time>2026-04-19T10:47:08.999Z</time></trkpt><trkpt lat="38.135455287553334" lon="14.949598569980594"><ele>288.0</ele><time>2026-04-19T10:47:09.999Z</time></trkpt><trkpt lat="38.1355628302262" lon="14.949565744704408"><ele>288.0</ele><time>2026-04-19T10:47:10.999Z</time></trkpt><trkpt lat="38.135675246813555" lon="14.949560320996154"><ele>288.0</ele><time>2026-04-19T10:47:11.999Z</time></trkpt><trkpt lat="38.13579080667272" lon="14.949575401708465"><ele>283.5</ele><time>2026-04-19T10:47:12.999Z</time></trkpt><trkpt lat="38.13590896304092" lon="14.949606244387915"><ele>279.0</ele><time>2026-04-19T10:47:13.999Z</time></trkpt><trkpt lat="38.13602167170614" lon="14.94967088286655"><ele>274.5</ele><time>2026-04-19T10:47:14.999Z</time></trkpt><trkpt lat="38.13612373969974" lon="14.949776971351154"><ele>270.0</ele><time>2026-04-19T10:47:15.999Z</time></trkpt><trkpt lat="38.136202390962694" lon="14.949899866361607"><ele>270.0</ele><time>2026-04-19T10:47:16.999Z</time></trkpt><trkpt lat="38.13627993350188" lon="14.950009881230379"><ele>270.0</ele><time>2026-04-19T10:47:17.999Z</time></trkpt><trkpt lat="38.13638145657673" lon="14.950085640747261"><ele>270.0</ele><time>2026-04-19T10:47:18.999Z</time></trkpt><trkpt lat="38.13651368885971" lon="14.950129100464228"><ele>270.0</ele><time>2026-04-19T10:47:19.999Z</time></trkpt><trkpt lat="38.136669092113365" lon="14.950171891038352"><ele>265.0</ele><time>2026-04-19T10:47:20.999Z</time></trkpt><trkpt lat="38.13680960510825" lon="14.950232190483177"><ele>260.0</ele><time>2026-04-19T10:47:21.999Z</time></trkpt><trkpt lat="38.13693812698732" lon="14.95032265383921"><ele>255.0</ele><time>2026-04-19T10:47:22.999Z</time></trkpt><trkpt lat="38.13703168005091" lon="14.950467347770191"><ele>250.0</ele><time>2026-04-19T10:47:23.999Z</time></trkpt><trkpt lat="38.1371210011778" lon="14.950622248043452"><ele>250.0</ele><time>2026-04-19T10:47:24.999Z</time></trkpt><trkpt lat="38.13721852290161" lon="14.950767717806123"><ele>250.0</ele><time>2026-04-19T10:47:25.999Z</time></trkpt><trkpt lat="38.137295438918535" lon="14.950913958940067"><ele>250.0</ele><time>2026-04-19T10:47:26.999Z</time></trkpt><trkpt lat="38.13737589420579" lon="14.95104629622074"><ele>250.0</ele><time>2026-04-19T10:47:27.999Z</time></trkpt><trkpt lat="38.137439003411274" lon="14.951169778569142"><ele>249.75</ele><time>2026-04-19T10:47:28.999Z</time></trkpt><trkpt lat="38.1374786912767" lon="14.95131250498893"><ele>249.5</ele><time>2026-04-19T10:47:29.999Z</time></trkpt><trkpt lat="38.137524442412634" lon="14.95142571679658"><ele>249.25</ele><time>2026-04-19T10:47:30.999Z</time></trkpt><trkpt lat="38.13760655364377" lon="14.951525722667425"><ele>249.0</ele><time>2026-04-19T10:47:31.998Z</time></trkpt><trkpt lat="38.13772247298135" lon="14.951614370475221"><ele>241.66666666666669</ele><time>2026-04-19T10:47:32.998Z</time></trkpt><trkpt lat="38.137852130763996" lon="14.951712918828584"><ele>234.33333333333334</ele><time>2026-04-19T10:47:33.998Z</time></trkpt><trkpt lat="38.137977971596264" lon="14.951822389249884"><ele>227.0</ele><time>2026-04-19T10:47:34.998Z</time></trkpt><trkpt lat="38.13809648094269" lon="14.951932180340673"><ele>227.0</ele><time>2026-04-19T10:47:35.998Z</time></trkpt><trkpt lat="38.13820920215433" lon="14.9520372973484"><ele>227.0</ele><time>2026-04-19T10:47:36.998Z</time></trkpt><trkpt lat="38.138318766856855" lon="14.9521376289829"><ele>227.0</ele><time>2026-04-19T10:47:37.998Z</time></trkpt><trkpt lat="38.13842121945303" lon="14.95222772220462"><ele>227.0</ele><time>2026-04-19T10:47:38.998Z</time></trkpt><trkpt lat="38.138509988559406" lon="14.952312043979228"><ele>231.5</ele><time>2026-04-19T10:47:39.998Z</time></trkpt><trkpt lat="38.138611080708436" lon="14.952361360817392"><ele>236.0</ele><time>2026-04-19T10:47:40.998Z</time></trkpt><trkpt lat="38.13871930744544" lon="14.952360000955153"><ele>240.5</ele><time>2026-04-19T10:47:41.998Z</time></trkpt><trkpt lat="38.13883223023276" lon="14.952319445600232"><ele>245.0</ele><time>2026-04-19T10:47:42.998Z</time></trkpt><trkpt lat="38.13894874969786" lon="14.952251358896707"><ele>244.0</ele><time>2026-04-19T10:47:43.998Z</time></trkpt><trkpt lat="38.139075448481705" lon="14.952173336063147"><ele>243.0</ele><time>2026-04-19T10:47:44.998Z</time></trkpt><trkpt lat="38.13919346211244" lon="14.952110755301119"><ele>242.0</ele><time>2026-04-19T10:47:45.998Z</time></trkpt><trkpt lat="38.13931596578837" lon="14.952071572779108"><ele>241.0</ele><time>2026-04-19T10:47:46.998Z</time></trkpt><trkpt lat="38.13943642380391" lon="14.952087760553654"><ele>241.0</ele><time>2026-04-19T10:47:47.998Z</time></trkpt><trkpt lat="38.139558694323256" lon="14.95214568708301"><ele>241.0</ele><time>2026-04-19T10:47:48.998Z</time></trkpt><trkpt lat="38.13969306984689" lon="14.952227897286276"><ele>241.0</ele><time>2026-04-19T10:47:49.998Z</time></trkpt><trkpt lat="38.13985274618533" lon="14.952310527903064"><ele>242.33333333333331</ele><time>2026-04-19T10:47:50.998Z</time></trkpt><trkpt lat="38.14000512462747" lon="14.952430524143665"><ele>243.66666666666669</ele><time>2026-04-19T10:47:51.998Z</time></trkpt><trkpt lat="38.14014151519105" lon="14.952553139656615"><ele>245.0</ele><time>2026-04-19T10:47:52.998Z</time></trkpt><trkpt lat="38.14026274474819" lon="14.952680269067965"><ele>241.5</ele><time>2026-04-19T10:47:53.998Z</time></trkpt><trkpt lat="38.140374050049154" lon="14.952807088098865"><ele>238.0</ele><time>2026-04-19T10:47:54.998Z</time></trkpt><trkpt lat="38.14048421896146" lon="14.952912621294379"><ele>234.5</ele><time>2026-04-19T10:47:55.998Z</time></trkpt><trkpt lat="38.14059871956046" lon="14.95298324468632"><ele>231.0</ele><time>2026-04-19T10:47:56.998Z</time></trkpt><trkpt lat="38.14073153959602" lon="14.953022301691233"><ele>231.0</ele><time>2026-04-19T10:47:57.998Z</time></trkpt><trkpt lat="38.14086902869162" lon="14.953079751228591"><ele>231.0</ele><time>2026-04-19T10:47:58.998Z</time></trkpt><trkpt lat="38.1410019087487" lon="14.953123914161294"><ele>231.0</ele><time>2026-04-19T10:47:59.998Z</time></trkpt><trkpt lat="38.14112322309512" lon="14.953180307186466"><ele>231.0</ele><time>2026-04-19T10:48:00.998Z</time></trkpt><trkpt lat="38.14122521608779" lon="14.953285965007613"><ele>227.5</ele><time>2026-04-19T10:48:01.998Z</time></trkpt><trkpt lat="38.14128183821757" lon="14.953441982053224"><ele>224.0</ele><time>2026-04-19T10:48:02.998Z</time></trkpt><trkpt lat="38.141350518882234" lon="14.95359761042967"><ele>220.5</ele><time>2026-04-19T10:48:03.998Z</time></trkpt><trkpt lat="38.14138972871645" lon="14.953781901707043"><ele>217.0</ele><time>2026-04-19T10:48:04.998Z</time></trkpt><trkpt lat="38.141445398397465" lon="14.953958931490815"><ele>217.0</ele><time>2026-04-19T10:48:05.998Z</time></trkpt><trkpt lat="38.14152091860748" lon="14.95411985273597"><ele>217.0</ele><time>2026-04-19T10:48:06.998Z</time></trkpt><trkpt lat="38.141609315467676" lon="14.954276420745968"><ele>217.0</ele><time>2026-04-19T10:48:07.998Z</time></trkpt><trkpt lat="38.141706976497844" lon="14.954429192453714"><ele>217.25</ele><time>2026-04-19T10:48:08.998Z</time></trkpt><trkpt lat="38.1418050175469" lon="14.954565832211491"><ele>217.5</ele><time>2026-04-19T10:48:09.998Z</time></trkpt><trkpt lat="38.14190153378246" lon="14.95468931261498"><ele>217.75</ele><time>2026-04-19T10:48:10.998Z</time></trkpt><trkpt lat="38.14199469020951" lon="14.954810414726584"><ele>218.0</ele><time>2026-04-19T10:48:11.998Z</time></trkpt><trkpt lat="38.142062986753615" lon="14.95494891799574"><ele>215.5</ele><time>2026-04-19T10:48:12.998Z</time></trkpt><trkpt lat="38.14210267943004" lon="14.95510751682689"><ele>213.0</ele><time>2026-04-19T10:48:13.998Z</time></trkpt><trkpt lat="38.14211244379362" lon="14.955283961950324"><ele>210.5</ele><time>2026-04-19T10:48:15Z</time></trkpt><trkpt lat="38.14210578194234" lon="14.955467983152419"><ele>208.0</ele><time>2026-04-19T10:48:16Z</time></trkpt><trkpt lat="38.14209491554573" lon="14.95564273118211"><ele>208.0</ele><time>2026-04-19T10:48:17Z</time></trkpt><trkpt lat="38.14208856254478" lon="14.955806936501189"><ele>208.0</ele><time>2026-04-19T10:48:18Z</time></trkpt><trkpt lat="38.14209127552951" lon="14.95596496916563"><ele>208.0</ele><time>2026-04-19T10:48:19Z</time></trkpt><trkpt lat="38.14210878166004" lon="14.956115610927482"><ele>208.0</ele><time>2026-04-19T10:48:20Z</time></trkpt><trkpt lat="38.14215863625587" lon="14.956252583516807"><ele>208.75</ele><time>2026-04-19T10:48:21Z</time></trkpt><trkpt lat="38.142244187584446" lon="14.956365083398776"><ele>209.5</ele><time>2026-04-19T10:48:22Z</time></trkpt><trkpt lat="38.14235569040434" lon="14.956441492486723"><ele>210.25</ele><time>2026-04-19T10:48:23Z</time></trkpt><trkpt lat="38.142465226913075" lon="14.956518497809354"><ele>211.0</ele><time>2026-04-19T10:48:24Z</time></trkpt><trkpt lat="38.142592567861065" lon="14.956556059843681"><ele>211.0</ele><time>2026-04-19T10:48:25Z</time></trkpt><trkpt lat="38.14271873175192" lon="14.956590523040738"><ele>211.0</ele><time>2026-04-19T10:48:26Z</time></trkpt><trkpt lat="38.142851478115695" lon="14.95662256676626"><ele>211.0</ele><time>2026-04-19T10:48:27Z</time></trkpt><trkpt lat="38.14297949758776" lon="14.956647009153025"><ele>211.0</ele><time>2026-04-19T10:48:28Z</time></trkpt><trkpt lat="38.14310436951396" lon="14.95666755261407"><ele>210.25</ele><time>2026-04-19T10:48:29Z</time></trkpt><trkpt lat="38.143229609041676" lon="14.956681198953481"><ele>209.5</ele><time>2026-04-19T10:48:30Z</time></trkpt><trkpt lat="38.143347917597666" lon="14.956689539996495"><ele>208.75</ele><time>2026-04-19T10:48:31Z</time></trkpt><trkpt lat="38.14346298055208" lon="14.956698369207869"><ele>208.0</ele><time>2026-04-19T10:48:32Z</time></trkpt><trkpt lat="38.1435771161925" lon="14.956710842266137"><ele>203.0</ele><time>2026-04-19T10:48:33Z</time></trkpt><trkpt lat="38.14368844900154" lon="14.956726992202752"><ele>198.0</ele><time>2026-04-19T10:48:34Z</time></trkpt><trkpt lat="38.143802009992726" lon="14.95674656458434"><ele>193.0</ele><time>2026-04-19T10:48:35Z</time></trkpt><trkpt lat="38.143925838705265" lon="14.956772179289699"><ele>188.0</ele><time>2026-04-19T10:48:36Z</time></trkpt><trkpt lat="38.14406383670539" lon="14.95678443798815"><ele>187.0</ele><time>2026-04-19T10:48:37Z</time></trkpt><trkpt lat="38.144214769103506" lon="14.956784902521608"><ele>186.0</ele><time>2026-04-19T10:48:38Z</time></trkpt><trkpt lat="38.144371478220016" lon="14.95678243241071"><ele>185.0</ele><time>2026-04-19T10:48:39Z</time></trkpt><trkpt lat="38.14453800645762" lon="14.95677678976534"><ele>185.0</ele><time>2026-04-19T10:48:39.999Z</time></trkpt><trkpt lat="38.14470389211273" lon="14.956770943102992"><ele>185.0</ele><time>2026-04-19T10:48:40.999Z</time></trkpt><trkpt lat="38.14487107276929" lon="14.956765708940901"><ele>185.0</ele><time>2026-04-19T10:48:41.999Z</time></trkpt><trkpt lat="38.14505823463169" lon="14.956762788894714"><ele>182.33333333333331</ele><time>2026-04-19T10:48:42.999Z</time></trkpt><trkpt lat="38.14526217319783" lon="14.956746913044057"><ele>179.66666666666666</ele><time>2026-04-19T10:48:43.999Z</time></trkpt><trkpt lat="38.14548175718214" lon="14.95670908297415"><ele>177.0</ele><time>2026-04-19T10:48:44.999Z</time></trkpt><trkpt lat="38.14570022591504" lon="14.956666429141922"><ele>180.66666666666666</ele><time>2026-04-19T10:48:45.999Z</time></trkpt><trkpt lat="38.145898014269996" lon="14.956587216452087"><ele>184.33333333333331</ele><time>2026-04-19T10:48:46.999Z</time></trkpt><trkpt lat="38.1460921382426" lon="14.956558035763283"><ele>188.0</ele><time>2026-04-19T10:48:47.999Z</time></trkpt><trkpt lat="38.14627832800952" lon="14.956532640231556"><ele>188.0</ele><time>2026-04-19T10:48:48.999Z</time></trkpt><trkpt lat="38.146458008269015" lon="14.956506618191241"><ele>188.0</ele><time>2026-04-19T10:48:49.999Z</time></trkpt><trkpt lat="38.1466386049223" lon="14.95655420025034"><ele>188.0</ele><time>2026-04-19T10:48:50.999Z</time></trkpt><trkpt lat="38.14680357425579" lon="14.95651942206111"><ele>183.66666666666666</ele><time>2026-04-19T10:48:51.999Z</time></trkpt><trkpt lat="38.14696865607673" lon="14.956475533409186"><ele>179.33333333333334</ele><time>2026-04-19T10:48:52.999Z</time></trkpt><trkpt lat="38.14712701145591" lon="14.956431365543754"><ele>175.0</ele><time>2026-04-19T10:48:53.999Z</time></trkpt><trkpt lat="38.147278269494" lon="14.956398284261267"><ele>171.75</ele><time>2026-04-19T10:48:54.999Z</time></trkpt><trkpt lat="38.14742238753978" lon="14.956370498022974"><ele>168.5</ele><time>2026-04-19T10:48:55.999Z</time></trkpt><trkpt lat="38.147559324573635" lon="14.956346425134804"><ele>165.25</ele><time>2026-04-19T10:48:56.999Z</time></trkpt><trkpt lat="38.14768086503584" lon="14.956324999666935"><ele>162.0</ele><time>2026-04-19T10:48:57.999Z</time></trkpt><trkpt lat="38.14779258842555" lon="14.956304111161193"><ele>162.0</ele><time>2026-04-19T10:48:58.999Z</time></trkpt><trkpt lat="38.14789095736583" lon="14.956285719485951"><ele>162.0</ele><time>2026-04-19T10:48:59.999Z</time></trkpt><trkpt lat="38.147973128884516" lon="14.956267225194502"><ele>162.0</ele><time>2026-04-19T10:49:00.999Z</time></trkpt><trkpt lat="38.14804594409173" lon="14.956249764765188"><ele>162.0</ele><time>2026-04-19T10:49:01.999Z</time></trkpt><trkpt lat="38.14813955524328" lon="14.956274401028084"><ele>162.0</ele><time>2026-04-19T10:49:03.999Z</time></trkpt><trkpt lat="38.14811640461071" lon="14.95641780944247"><ele>162.0</ele><time>2026-04-19T10:49:05.999Z</time></trkpt><trkpt lat="38.14802436739814" lon="14.956420444820974"><ele>162.0</ele><time>2026-04-19T10:49:06.999Z</time></trkpt><trkpt lat="38.14793044193937" lon="14.956406704144154"><ele>162.0</ele><time>2026-04-19T10:49:07.999Z</time></trkpt><trkpt lat="38.14781495080339" lon="14.956422445772866"><ele>162.0</ele><time>2026-04-19T10:49:08.999Z</time></trkpt><trkpt lat="38.14769602259225" lon="14.956451876064383"><ele>162.0</ele><time>2026-04-19T10:49:09.999Z</time></trkpt><trkpt lat="38.14756411065664" lon="14.956485420251498"><ele>162.0</ele><time>2026-04-19T10:49:10.999Z</time></trkpt><trkpt lat="38.14744414204979" lon="14.956528228633317"><ele>162.0</ele><time>2026-04-19T10:49:11.999Z</time></trkpt><trkpt lat="38.14733207792729" lon="14.95658158764331"><ele>162.0</ele><time>2026-04-19T10:49:12.999Z</time></trkpt><trkpt lat="38.14723847322824" lon="14.956633108569019"><ele>162.0</ele><time>2026-04-19T10:49:13.999Z</time></trkpt><trkpt lat="38.14716884668022" lon="14.956688559668773"><ele>162.0</ele><time>2026-04-19T10:49:14.999Z</time></trkpt><trkpt lat="38.14712785161768" lon="14.956756211333445"><ele>160.2</ele><time>2026-04-19T10:49:15.999Z</time></trkpt><trkpt lat="38.14716009047987" lon="14.956895204124493"><ele>158.39999999999998</ele><time>2026-04-19T10:49:17.999Z</time></trkpt><trkpt lat="38.14723244620223" lon="14.956933166815585"><ele>156.60000000000002</ele><time>2026-04-19T10:49:18.999Z</time></trkpt><trkpt lat="38.14732216983406" lon="14.95692137582078"><ele>154.8</ele><time>2026-04-19T10:49:19.999Z</time></trkpt><trkpt lat="38.14742574886809" lon="14.956850730049826"><ele>153.0</ele><time>2026-04-19T10:49:20.999Z</time></trkpt><trkpt lat="38.147549944345144" lon="14.95677491826289"><ele>155.25</ele><time>2026-04-19T10:49:21.999Z</time></trkpt><trkpt lat="38.14768229708091" lon="14.956724475438149"><ele>157.5</ele><time>2026-04-19T10:49:22.999Z</time></trkpt><trkpt lat="38.147824029336036" lon="14.956690091152145"><ele>159.75</ele><time>2026-04-19T10:49:23.999Z</time></trkpt><trkpt lat="38.14796541260919" lon="14.956656172992192"><ele>162.0</ele><time>2026-04-19T10:49:24.999Z</time></trkpt><trkpt lat="38.14810154737637" lon="14.956625757852699"><ele>158.25</ele><time>2026-04-19T10:49:25.999Z</time></trkpt><trkpt lat="38.148232495075035" lon="14.956600305555781"><ele>154.5</ele><time>2026-04-19T10:49:26.999Z</time></trkpt><trkpt lat="38.14836623327183" lon="14.956578355282494"><ele>150.75</ele><time>2026-04-19T10:49:27.999Z</time></trkpt><trkpt lat="38.14850554542978" lon="14.956569270509286"><ele>147.0</ele><time>2026-04-19T10:49:28.999Z</time></trkpt><trkpt lat="38.148645189377554" lon="14.956571254889381"><ele>147.0</ele><time>2026-04-19T10:49:29.999Z</time></trkpt><trkpt lat="38.14877888043948" lon="14.95657053409155"><ele>147.0</ele><time>2026-04-19T10:49:30.999Z</time></trkpt><trkpt lat="38.14890392354557" lon="14.956558312042011"><ele>147.0</ele><time>2026-04-19T10:49:31.999Z</time></trkpt><trkpt lat="38.14901933206604" lon="14.95653108842992"><ele>147.0</ele><time>2026-04-19T10:49:32.999Z</time></trkpt><trkpt lat="38.1491369990495" lon="14.95652874012519"><ele>144.79999999999998</ele><time>2026-04-19T10:49:33.999Z</time></trkpt><trkpt lat="38.14922577249296" lon="14.956443305061828"><ele>142.6</ele><time>2026-04-19T10:49:34.999Z</time></trkpt><trkpt lat="38.14928268018011" lon="14.956345188556098"><ele>140.39999999999998</ele><time>2026-04-19T10:49:35.999Z</time></trkpt><trkpt lat="38.14933534473095" lon="14.956288385939184"><ele>138.2</ele><time>2026-04-19T10:49:36.999Z</time></trkpt><trkpt lat="38.14941952143243" lon="14.956281587288391"><ele>136.0</ele><time>2026-04-19T10:49:38.999Z</time></trkpt><trkpt lat="38.14943341026083" lon="14.956439925300954"><ele>136.0</ele><time>2026-04-19T10:49:40.998Z</time></trkpt><trkpt lat="38.14935967767281" lon="14.956531224357446"><ele>136.0</ele><time>2026-04-19T10:49:41.998Z</time></trkpt><trkpt lat="38.14926791233169" lon="14.956646689304367"><ele>136.0</ele><time>2026-04-19T10:49:42.998Z</time></trkpt><trkpt lat="38.149186875765004" lon="14.956786544329335"><ele>136.0</ele><time>2026-04-19T10:49:43.998Z</time></trkpt><trkpt lat="38.14909753556725" lon="14.95695804772581"><ele>134.75</ele><time>2026-04-19T10:49:44.998Z</time></trkpt><trkpt lat="38.14900516511365" lon="14.957136857093136"><ele>133.5</ele><time>2026-04-19T10:49:45.998Z</time></trkpt><trkpt lat="38.148926445799965" lon="14.957275565907805"><ele>132.25</ele><time>2026-04-19T10:49:46.998Z</time></trkpt><trkpt lat="38.148858925017564" lon="14.957402671196169"><ele>131.0</ele><time>2026-04-19T10:49:47.998Z</time></trkpt><trkpt lat="38.148797564726834" lon="14.957522626584048"><ele>129.4</ele><time>2026-04-19T10:49:48.998Z</time></trkpt><trkpt lat="38.14874208265656" lon="14.957631345961484"><ele>127.8</ele><time>2026-04-19T10:49:49.998Z</time></trkpt><trkpt lat="38.14869294003471" lon="14.957733925949567"><ele>126.20000000000002</ele><time>2026-04-19T10:49:50.998Z</time></trkpt><trkpt lat="38.1486531565424" lon="14.957832747565837"><ele>124.60000000000001</ele><time>2026-04-19T10:49:51.998Z</time></trkpt><trkpt lat="38.14863009911183" lon="14.957952370393121"><ele>123.0</ele><time>2026-04-19T10:49:52.998Z</time></trkpt><trkpt lat="38.148638194237876" lon="14.958084260403705"><ele>123.0</ele><time>2026-04-19T10:49:53.998Z</time></trkpt><trkpt lat="38.148672789095585" lon="14.95821157792156"><ele>123.00000000000001</ele><time>2026-04-19T10:49:54.998Z</time></trkpt><trkpt lat="38.148719791550384" lon="14.958331094487129"><ele>123.00000000000001</ele><time>2026-04-19T10:49:55.998Z</time></trkpt><trkpt lat="38.148758178295914" lon="14.958431874088866"><ele>123.0</ele><time>2026-04-19T10:49:56.998Z</time></trkpt><trkpt lat="38.14877834628412" lon="14.95851962978773"><ele>123.0</ele><time>2026-04-19T10:49:58.998Z</time></trkpt><trkpt lat="38.14880149872086" lon="14.958690096452305"><ele>121.2</ele><time>2026-04-19T10:50:00.998Z</time></trkpt><trkpt lat="38.14881984031768" lon="14.958804992558282"><ele>119.4</ele><time>2026-04-19T10:50:01.998Z</time></trkpt><trkpt lat="38.1488083545028" lon="14.958916651397622"><ele>117.60000000000001</ele><time>2026-04-19T10:50:02.998Z</time></trkpt><trkpt lat="38.14876416293312" lon="14.95901777552971"><ele>115.80000000000001</ele><time>2026-04-19T10:50:03.998Z</time></trkpt><trkpt lat="38.14870019920092" lon="14.959099068645376"><ele>114.0</ele><time>2026-04-19T10:50:04.998Z</time></trkpt><trkpt lat="38.14861356124837" lon="14.95916038055817"><ele>112.5</ele><time>2026-04-19T10:50:05.998Z</time></trkpt><trkpt lat="38.148502357761224" lon="14.959208169710298"><ele>111.0</ele><time>2026-04-19T10:50:06.998Z</time></trkpt><trkpt lat="38.14835848411723" lon="14.959245841768967"><ele>109.5</ele><time>2026-04-19T10:50:07.998Z</time></trkpt><trkpt lat="38.148202224638766" lon="14.95927311875881"><ele>108.0</ele><time>2026-04-19T10:50:08.998Z</time></trkpt><trkpt lat="38.14805825705187" lon="14.959306514585466"><ele>108.0</ele><time>2026-04-19T10:50:09.998Z</time></trkpt><trkpt lat="38.1479286469687" lon="14.959339314325035"><ele>108.00000000000001</ele><time>2026-04-19T10:50:10.998Z</time></trkpt><trkpt lat="38.14782662818148" lon="14.959371256221612"><ele>108.00000000000001</ele><time>2026-04-19T10:50:11.998Z</time></trkpt><trkpt lat="38.147740180215884" lon="14.95941014745978"><ele>108.0</ele><time>2026-04-19T10:50:12.998Z</time></trkpt><trkpt lat="38.14767482721903" lon="14.959475992191544"><ele>108.0</ele><time>2026-04-19T10:50:13.998Z</time></trkpt><trkpt lat="38.147636466792044" lon="14.959584422646293"><ele>108.0</ele><time>2026-04-19T10:50:14.998Z</time></trkpt><trkpt lat="38.14761591578703" lon="14.959736168609266"><ele>108.0</ele><time>2026-04-19T10:50:15.998Z</time></trkpt><trkpt lat="38.147595752662504" lon="14.95989983706093"><ele>108.0</ele><time>2026-04-19T10:50:16.998Z</time></trkpt><trkpt lat="38.14757191316255" lon="14.960067331442591"><ele>108.0</ele><time>2026-04-19T10:50:17.998Z</time></trkpt><trkpt lat="38.14755564685892" lon="14.960229994270858"><ele>105.60000000000001</ele><time>2026-04-19T10:50:18.998Z</time></trkpt><trkpt lat="38.14754555276103" lon="14.960393336367241"><ele>103.20000000000002</ele><time>2026-04-19T10:50:20Z</time></trkpt><trkpt lat="38.14754244730307" lon="14.960550449021776"><ele>100.8</ele><time>2026-04-19T10:50:21Z</time></trkpt><trkpt lat="38.14754330426304" lon="14.960688159126331"><ele>98.4</ele><time>2026-04-19T10:50:22Z</time></trkpt><trkpt lat="38.14753477992568" lon="14.96079926729924"><ele>96.0</ele><time>2026-04-19T10:50:23Z</time></trkpt><trkpt lat="38.147492885029926" lon="14.960889373030152"><ele>94.25</ele><time>2026-04-19T10:50:24Z</time></trkpt><trkpt lat="38.147435055218054" lon="14.960990970696264"><ele>92.5</ele><time>2026-04-19T10:50:25Z</time></trkpt><trkpt lat="38.14734929671628" lon="14.961089012149714"><ele>90.75</ele><time>2026-04-19T10:50:26Z</time></trkpt><trkpt lat="38.14724126985307" lon="14.961189275706056"><ele>89.0</ele><time>2026-04-19T10:50:27Z</time></trkpt><trkpt lat="38.14712633049009" lon="14.961290255113017"><ele>89.0</ele><time>2026-04-19T10:50:28Z</time></trkpt><trkpt lat="38.147021058016996" lon="14.961389775086378"><ele>89.0</ele><time>2026-04-19T10:50:29Z</time></trkpt><trkpt lat="38.14691675312455" lon="14.96148580965906"><ele>89.0</ele><time>2026-04-19T10:50:30Z</time></trkpt><trkpt lat="38.146814840731466" lon="14.96158377036161"><ele>89.0</ele><time>2026-04-19T10:50:31Z</time></trkpt><trkpt lat="38.14671442597047" lon="14.961680287226415"><ele>87.2</ele><time>2026-04-19T10:50:32Z</time></trkpt><trkpt lat="38.146620725875536" lon="14.961753833097369"><ele>85.4</ele><time>2026-04-19T10:50:33Z</time></trkpt><trkpt lat="38.1465278945476" lon="14.961804453621705"><ele>83.6</ele><time>2026-04-19T10:50:34Z</time></trkpt><trkpt lat="38.14643053707761" lon="14.961820618748412"><ele>81.8</ele><time>2026-04-19T10:50:35Z</time></trkpt><trkpt lat="38.14633221377666" lon="14.961797927333697"><ele>80.0</ele><time>2026-04-19T10:50:36Z</time></trkpt><trkpt lat="38.14624122093422" lon="14.96174799478594"><ele>80.6</ele><time>2026-04-19T10:50:37Z</time></trkpt><trkpt lat="38.14616344016179" lon="14.96170915180096"><ele>81.2</ele><time>2026-04-19T10:50:38Z</time></trkpt><trkpt lat="38.14609110431468" lon="14.961687580770295"><ele>81.80000000000001</ele><time>2026-04-19T10:50:39Z</time></trkpt><trkpt lat="38.14597474371523" lon="14.961644752219675"><ele>82.4</ele><time>2026-04-19T10:50:41Z</time></trkpt><trkpt lat="38.145876535406046" lon="14.961601776103775"><ele>83.0</ele><time>2026-04-19T10:50:43Z</time></trkpt><trkpt lat="38.14578127582211" lon="14.961579550154037"><ele>82.5</ele><time>2026-04-19T10:50:45.999Z</time></trkpt><trkpt lat="38.14565514547261" lon="14.961561411558602"><ele>82.0</ele><time>2026-04-19T10:50:47.999Z</time></trkpt><trkpt lat="38.14556469447131" lon="14.961567131231702"><ele>81.5</ele><time>2026-04-19T10:50:48.999Z</time></trkpt><trkpt lat="38.14545270698234" lon="14.96159067331093"><ele>81.0</ele><time>2026-04-19T10:50:49.999Z</time></trkpt><trkpt lat="38.1453255916931" lon="14.961625143174267"><ele>81.0</ele><time>2026-04-19T10:50:50.999Z</time></trkpt><trkpt lat="38.14520168281712" lon="14.961665987720336"><ele>81.0</ele><time>2026-04-19T10:50:51.999Z</time></trkpt><trkpt lat="38.14509333707402" lon="14.961688450729499"><ele>81.0</ele><time>2026-04-19T10:50:52.999Z</time></trkpt><trkpt lat="38.144990893865376" lon="14.96170264887785"><ele>81.0</ele><time>2026-04-19T10:50:53.999Z</time></trkpt><trkpt lat="38.14488415481634" lon="14.961690280713261"><ele>81.0</ele><time>2026-04-19T10:50:54.999Z</time></trkpt><trkpt lat="38.144759617083956" lon="14.96164576751029"><ele>81.5</ele><time>2026-04-19T10:50:55.999Z</time></trkpt><trkpt lat="38.14463467295354" lon="14.961582976663989"><ele>82.0</ele><time>2026-04-19T10:50:56.999Z</time></trkpt><trkpt lat="38.14452001266016" lon="14.961545430842865"><ele>82.5</ele><time>2026-04-19T10:50:57.999Z</time></trkpt><trkpt lat="38.14439390751829" lon="14.961553048607906"><ele>83.0</ele><time>2026-04-19T10:50:58.999Z</time></trkpt><trkpt lat="38.14424367194143" lon="14.961586321472787"><ele>83.0</ele><time>2026-04-19T10:50:59.999Z</time></trkpt><trkpt lat="38.144073471760855" lon="14.961618239543052"><ele>83.0</ele><time>2026-04-19T10:51:00.999Z</time></trkpt><trkpt lat="38.143911100598714" lon="14.96163215054483"><ele>83.0</ele><time>2026-04-19T10:51:01.999Z</time></trkpt><trkpt lat="38.143757609950306" lon="14.961637114724905"><ele>81.60000000000001</ele><time>2026-04-19T10:51:02.999Z</time></trkpt><trkpt lat="38.14362431542068" lon="14.961639240437218"><ele>80.2</ele><time>2026-04-19T10:51:03.999Z</time></trkpt><trkpt lat="38.143504642891685" lon="14.961633490120024"><ele>78.8</ele><time>2026-04-19T10:51:04.999Z</time></trkpt><trkpt lat="38.14339785611277" lon="14.96163680272644"><ele>77.4</ele><time>2026-04-19T10:51:05.999Z</time></trkpt><trkpt lat="38.14330932666419" lon="14.961653362346647"><ele>76.0</ele><time>2026-04-19T10:51:06.999Z</time></trkpt><trkpt lat="38.14324010907663" lon="14.961673532537587"><ele>74.83333333333333</ele><time>2026-04-19T10:51:07.999Z</time></trkpt><trkpt lat="38.14315971604192" lon="14.961749489468984"><ele>73.66666666666666</ele><time>2026-04-19T10:51:09.999Z</time></trkpt><trkpt lat="38.143149164752145" lon="14.961836970848557"><ele>72.5</ele><time>2026-04-19T10:51:11.999Z</time></trkpt><trkpt lat="38.143225754673864" lon="14.961902119011672"><ele>71.33333333333333</ele><time>2026-04-19T10:51:14.999Z</time></trkpt><trkpt lat="38.14329826508953" lon="14.961912588494867"><ele>70.16666666666667</ele><time>2026-04-19T10:51:15.999Z</time></trkpt><trkpt lat="38.14338811809322" lon="14.96195229446711"><ele>69.0</ele><time>2026-04-19T10:51:16.999Z</time></trkpt><trkpt lat="38.143482795680576" lon="14.96200324884909"><ele>69.0</ele><time>2026-04-19T10:51:17.999Z</time></trkpt><trkpt lat="38.143588696587855" lon="14.962086311200844"><ele>69.0</ele><time>2026-04-19T10:51:18.999Z</time></trkpt><trkpt lat="38.143678891659604" lon="14.962199829190675"><ele>69.0</ele><time>2026-04-19T10:51:19.999Z</time></trkpt><trkpt lat="38.14377686899655" lon="14.962360576529305"><ele>69.0</ele><time>2026-04-19T10:51:20.999Z</time></trkpt><trkpt lat="38.14387626920136" lon="14.962510814178485"><ele>67.25</ele><time>2026-04-19T10:51:21.999Z</time></trkpt><trkpt lat="38.14397195948389" lon="14.962648055769936"><ele>65.5</ele><time>2026-04-19T10:51:22.999Z</time></trkpt><trkpt lat="38.14406577318664" lon="14.96277672257632"><ele>63.75</ele><time>2026-04-19T10:51:23.999Z</time></trkpt><trkpt lat="38.14416056991487" lon="14.962899827247895"><ele>62.0</ele><time>2026-04-19T10:51:24.999Z</time></trkpt><trkpt lat="38.14426085778632" lon="14.963012624367924"><ele>62.0</ele><time>2026-04-19T10:51:25.999Z</time></trkpt><trkpt lat="38.14436255519825" lon="14.963122060601766"><ele>62.0</ele><time>2026-04-19T10:51:26.999Z</time></trkpt><trkpt lat="38.144463493139874" lon="14.963214950086977"><ele>62.0</ele><time>2026-04-19T10:51:27.999Z</time></trkpt><trkpt lat="38.14459561370905" lon="14.963293174734249"><ele>62.0</ele><time>2026-04-19T10:51:28.999Z</time></trkpt><trkpt lat="38.144753513302184" lon="14.963368833400567"><ele>61.66666666666667</ele><time>2026-04-19T10:51:29.999Z</time></trkpt><trkpt lat="38.14491703248852" lon="14.963454580714707"><ele>61.33333333333333</ele><time>2026-04-19T10:51:30.999Z</time></trkpt><trkpt lat="38.14506813631971" lon="14.963530878842555"><ele>61.0</ele><time>2026-04-19T10:51:31.999Z</time></trkpt><trkpt lat="38.14520423196081" lon="14.963606262604642"><ele>61.0</ele><time>2026-04-19T10:51:32.999Z</time></trkpt><trkpt lat="38.14532981539899" lon="14.963679380204505"><ele>61.0</ele><time>2026-04-19T10:51:33.999Z</time></trkpt><trkpt lat="38.145443527545986" lon="14.963742503750522"><ele>61.0</ele><time>2026-04-19T10:51:34.999Z</time></trkpt><trkpt lat="38.14555593885533" lon="14.963800178752244"><ele>61.0</ele><time>2026-04-19T10:51:35.999Z</time></trkpt><trkpt lat="38.14566671208714" lon="14.963870768827883"><ele>60.5</ele><time>2026-04-19T10:51:36.999Z</time></trkpt><trkpt lat="38.14576960023783" lon="14.963967739632102"><ele>60.0</ele><time>2026-04-19T10:51:37.999Z</time></trkpt><trkpt lat="38.1458539871292" lon="14.964071751026792"><ele>59.5</ele><time>2026-04-19T10:51:38.999Z</time></trkpt><trkpt lat="38.145903130915876" lon="14.964217649402707"><ele>59.0</ele><time>2026-04-19T10:51:39.999Z</time></trkpt><trkpt lat="38.145972571001224" lon="14.96436428877095"><ele>57.333333333333336</ele><time>2026-04-19T10:51:40.999Z</time></trkpt><trkpt lat="38.14605110894524" lon="14.964515761051667"><ele>55.66666666666667</ele><time>2026-04-19T10:51:41.999Z</time></trkpt><trkpt lat="38.14613432669193" lon="14.96467625889338"><ele>54.0</ele><time>2026-04-19T10:51:42.999Z</time></trkpt><trkpt lat="38.14622474834702" lon="14.964850444237184"><ele>54.0</ele><time>2026-04-19T10:51:43.999Z</time></trkpt><trkpt lat="38.14631804841168" lon="14.965026213376422"><ele>54.0</ele><time>2026-04-19T10:51:44.999Z</time></trkpt><trkpt lat="38.14640525464183" lon="14.965189989002699"><ele>54.0</ele><time>2026-04-19T10:51:45.998Z</time></trkpt><trkpt lat="38.14649454673753" lon="14.965357610501265"><ele>53.5</ele><time>2026-04-19T10:51:46.998Z</time></trkpt><trkpt lat="38.1465933779443" lon="14.96551135679322"><ele>53.0</ele><time>2026-04-19T10:51:47.998Z</time></trkpt><trkpt lat="38.14667637947496" lon="14.965670348321993"><ele>52.5</ele><time>2026-04-19T10:51:48.998Z</time></trkpt><trkpt lat="38.146756254362536" lon="14.965819081788041"><ele>52.0</ele><time>2026-04-19T10:51:49.998Z</time></trkpt><trkpt lat="38.14682969705949" lon="14.965961128987601"><ele>50.25</ele><time>2026-04-19T10:51:50.998Z</time></trkpt><trkpt lat="38.146901270520225" lon="14.966105688024252"><ele>48.5</ele><time>2026-04-19T10:51:51.998Z</time></trkpt><trkpt lat="38.14697025758795" lon="14.96624722599921"><ele>46.75</ele><time>2026-04-19T10:51:52.998Z</time></trkpt><trkpt lat="38.14704210939405" lon="14.966384465859965"><ele>45.0</ele><time>2026-04-19T10:51:53.998Z</time></trkpt><trkpt lat="38.14710238636028" lon="14.966534828731646"><ele>45.0</ele><time>2026-04-19T10:51:54.998Z</time></trkpt><trkpt lat="38.147188422328924" lon="14.966667458323968"><ele>45.0</ele><time>2026-04-19T10:51:55.998Z</time></trkpt><trkpt lat="38.14725774157985" lon="14.966816621463579"><ele>45.0</ele><time>2026-04-19T10:51:56.998Z</time></trkpt><trkpt lat="38.14731916335567" lon="14.96697287369818"><ele>45.0</ele><time>2026-04-19T10:51:57.998Z</time></trkpt><trkpt lat="38.14738159527703" lon="14.96712520334531"><ele>44.25</ele><time>2026-04-19T10:51:58.998Z</time></trkpt><trkpt lat="38.147438154095234" lon="14.967273623196228"><ele>43.5</ele><time>2026-04-19T10:51:59.998Z</time></trkpt><trkpt lat="38.14750177000836" lon="14.967406450840421"><ele>42.75</ele><time>2026-04-19T10:52:00.998Z</time></trkpt><trkpt lat="38.14756181451623" lon="14.967535418457715"><ele>42.0</ele><time>2026-04-19T10:52:01.998Z</time></trkpt><trkpt lat="38.14766409868411" lon="14.967622046953"><ele>40.800000000000004</ele><time>2026-04-19T10:52:02.998Z</time></trkpt><trkpt lat="38.14776150616408" lon="14.96769703135822"><ele>39.6</ele><time>2026-04-19T10:52:03.998Z</time></trkpt><trkpt lat="38.14785347151765" lon="14.967767168109988"><ele>38.400000000000006</ele><time>2026-04-19T10:52:04.998Z</time></trkpt><trkpt lat="38.14794522391122" lon="14.967826154660221"><ele>37.2</ele><time>2026-04-19T10:52:05.998Z</time></trkpt><trkpt lat="38.14799795497185" lon="14.967940264818662"><ele>36.0</ele><time>2026-04-19T10:52:06.998Z</time></trkpt><trkpt lat="38.148029906722485" lon="14.968072524588605"><ele>36.0</ele><time>2026-04-19T10:52:07.998Z</time></trkpt><trkpt lat="38.148062796952566" lon="14.968212023488471"><ele>36.0</ele><time>2026-04-19T10:52:08.998Z</time></trkpt><trkpt lat="38.148112728895164" lon="14.968352384527867"><ele>36.0</ele><time>2026-04-19T10:52:09.998Z</time></trkpt><trkpt lat="38.14817686191186" lon="14.968500769594286"><ele>36.0</ele><time>2026-04-19T10:52:10.998Z</time></trkpt><trkpt lat="38.14824632184695" lon="14.96864100335842"><ele>34.75</ele><time>2026-04-19T10:52:11.998Z</time></trkpt><trkpt lat="38.148309370390976" lon="14.968785724577138"><ele>33.5</ele><time>2026-04-19T10:52:12.998Z</time></trkpt><trkpt lat="38.148411308042796" lon="14.968898553520706"><ele>32.25</ele><time>2026-04-19T10:52:13.998Z</time></trkpt><trkpt lat="38.148532521556184" lon="14.968979346082715"><ele>31.0</ele><time>2026-04-19T10:52:14.998Z</time></trkpt><trkpt lat="38.148633877606315" lon="14.969083595706778"><ele>31.0</ele><time>2026-04-19T10:52:15.998Z</time></trkpt><trkpt lat="38.1487502419795" lon="14.969146715652538"><ele>31.0</ele><time>2026-04-19T10:52:16.998Z</time></trkpt><trkpt lat="38.148873659160266" lon="14.969179610427684"><ele>31.0</ele><time>2026-04-19T10:52:17.998Z</time></trkpt><trkpt lat="38.148986789140345" lon="14.96919547983273"><ele>31.0</ele><time>2026-04-19T10:52:18.998Z</time></trkpt><trkpt lat="38.14908813205932" lon="14.96920586904174"><ele>30.000000000000004</ele><time>2026-04-19T10:52:19.998Z</time></trkpt><trkpt lat="38.14917912479456" lon="14.96923359558356"><ele>29.0</ele><time>2026-04-19T10:52:20.998Z</time></trkpt><trkpt lat="38.149235742124205" lon="14.969326922316235"><ele>28.0</ele><time>2026-04-19T10:52:21.998Z</time></trkpt><trkpt lat="38.14925281394488" lon="14.969443888169016"><ele>27.0</ele><time>2026-04-19T10:52:22.998Z</time></trkpt><trkpt lat="38.149225950238765" lon="14.969547107157673"><ele>26.000000000000004</ele><time>2026-04-19T10:52:23.998Z</time></trkpt><trkpt lat="38.1491692652437" lon="14.969620491690106"><ele>25.0</ele><time>2026-04-19T10:52:24.998Z</time></trkpt><trkpt lat="38.149082385587086" lon="14.969656422107349"><ele>25.000000000000004</ele><time>2026-04-19T10:52:26Z</time></trkpt><trkpt lat="38.14898579794919" lon="14.969675621799693"><ele>25.0</ele><time>2026-04-19T10:52:27Z</time></trkpt><trkpt lat="38.148893658818466" lon="14.9696985403205"><ele>25.0</ele><time>2026-04-19T10:52:28Z</time></trkpt><trkpt lat="38.14880868033852" lon="14.969734996166371"><ele>25.0</ele><time>2026-04-19T10:52:29Z</time></trkpt><trkpt lat="38.14875263582291" lon="14.969795126721301"><ele>25.000000000000004</ele><time>2026-04-19T10:52:30Z</time></trkpt><trkpt lat="38.14872778336198" lon="14.96988611068595"><ele>25.0</ele><time>2026-04-19T10:52:31Z</time></trkpt><trkpt lat="38.14873002814886" lon="14.969988645157526"><ele>24.4</ele><time>2026-04-19T10:52:32Z</time></trkpt><trkpt lat="38.148737633295774" lon="14.970071435382513"><ele>23.8</ele><time>2026-04-19T10:52:33Z</time></trkpt><trkpt lat="38.14878574779577" lon="14.970158006819798"><ele>23.200000000000003</ele><time>2026-04-19T10:52:34Z</time></trkpt><trkpt lat="38.14887019234283" lon="14.970200973857011"><ele>22.6</ele><time>2026-04-19T10:52:35Z</time></trkpt><trkpt lat="38.14897467285856" lon="14.970225360776288"><ele>22.0</ele><time>2026-04-19T10:52:36Z</time></trkpt><trkpt lat="38.14910918425705" lon="14.970230979936668"><ele>21.5</ele><time>2026-04-19T10:52:37Z</time></trkpt><trkpt lat="38.149243122431436" lon="14.9702426939241"><ele>21.0</ele><time>2026-04-19T10:52:38Z</time></trkpt><trkpt lat="38.14935236343385" lon="14.970242962854167"><ele>20.5</ele><time>2026-04-19T10:52:39Z</time></trkpt><trkpt lat="38.149466610180276" lon="14.970255909227506"><ele>20.0</ele><time>2026-04-19T10:52:40Z</time></trkpt><trkpt lat="38.149577413686124" lon="14.970270841134026"><ele>20.0</ele><time>2026-04-19T10:52:41Z</time></trkpt><trkpt lat="38.149670336881535" lon="14.97026916894948"><ele>20.0</ele><time>2026-04-19T10:52:42Z</time></trkpt><trkpt lat="38.14974994474718" lon="14.970276441932361"><ele>20.0</ele><time>2026-04-19T10:52:43Z</time></trkpt><trkpt lat="38.14981672027583" lon="14.97031113073646"><ele>20.0</ele><time>2026-04-19T10:52:44Z</time></trkpt><trkpt lat="38.14989834255061" lon="14.97035954810693"><ele>20.0</ele><time>2026-04-19T10:52:45Z</time></trkpt><trkpt lat="38.14996848822998" lon="14.970421097149151"><ele>20.0</ele><time>2026-04-19T10:52:46Z</time></trkpt><trkpt lat="38.14998486077569" lon="14.97052403941177"><ele>19.8</ele><time>2026-04-19T10:52:47Z</time></trkpt><trkpt lat="38.15002547621106" lon="14.970637032302621"><ele>19.6</ele><time>2026-04-19T10:52:48Z</time></trkpt><trkpt lat="38.15007426382874" lon="14.97076772286456"><ele>19.4</ele><time>2026-04-19T10:52:49Z</time></trkpt><trkpt lat="38.150082968512855" lon="14.97090416012531"><ele>19.2</ele><time>2026-04-19T10:52:50Z</time></trkpt><trkpt lat="38.15011163578063" lon="14.971031140264284"><ele>19.0</ele><time>2026-04-19T10:52:50.999Z</time></trkpt><trkpt lat="38.15013407982722" lon="14.97116917684528"><ele>18.5</ele><time>2026-04-19T10:52:51.999Z</time></trkpt><trkpt lat="38.150195185490155" lon="14.971305567834083"><ele>18.0</ele><time>2026-04-19T10:52:52.999Z</time></trkpt><trkpt lat="38.15028625702073" lon="14.971402456791182"><ele>17.5</ele><time>2026-04-19T10:52:53.999Z</time></trkpt><trkpt lat="38.1503672214735" lon="14.97148785400816"><ele>17.0</ele><time>2026-04-19T10:52:54.999Z</time></trkpt><trkpt lat="38.15045732869653" lon="14.971554879365398"><ele>17.0</ele><time>2026-04-19T10:52:55.999Z</time></trkpt><trkpt lat="38.15055100561413" lon="14.971616786695485"><ele>17.0</ele><time>2026-04-19T10:52:56.999Z</time></trkpt><trkpt lat="38.150646964756206" lon="14.971682595960651"><ele>17.0</ele><time>2026-04-19T10:52:57.999Z</time></trkpt><trkpt lat="38.15073187036322" lon="14.971749569503263"><ele>17.0</ele><time>2026-04-19T10:52:58.999Z</time></trkpt><trkpt lat="38.15079982865053" lon="14.971815321044676"><ele>17.0</ele><time>2026-04-19T10:52:59.999Z</time></trkpt><trkpt lat="38.15084351262795" lon="14.97188088433915"><ele>15.75</ele><time>2026-04-19T10:53:00.999Z</time></trkpt><trkpt lat="38.15078986340159" lon="14.972028773016387"><ele>14.5</ele><time>2026-04-19T10:53:03.999Z</time></trkpt><trkpt lat="38.15070340726205" lon="14.972179633272985"><ele>13.25</ele><time>2026-04-19T10:53:05.999Z</time></trkpt><trkpt lat="38.150638247285805" lon="14.972241289663506"><ele>12.0</ele><time>2026-04-19T10:53:07.999Z</time></trkpt><trkpt lat="38.1505297655197" lon="14.972196071708815"><ele>12.0</ele><time>2026-04-19T10:53:09.999Z</time></trkpt><trkpt lat="38.15044338586055" lon="14.972154754016243"><ele>12.0</ele><time>2026-04-19T10:53:11.999Z</time></trkpt><trkpt lat="38.15038430505795" lon="14.972125320820668"><ele>12.0</ele><time>2026-04-19T10:53:12.999Z</time></trkpt><trkpt lat="38.15032366595394" lon="14.972041299891876"><ele>12.0</ele><time>2026-04-19T10:53:13.999Z</time></trkpt><trkpt lat="38.15022403713804" lon="14.971971476274703"><ele>12.0</ele><time>2026-04-19T10:53:15.999Z</time></trkpt><trkpt lat="38.150164598924555" lon="14.971932783836783"><ele>12.0</ele><time>2026-04-19T10:53:16.999Z</time></trkpt><trkpt lat="38.150098007341626" lon="14.9718945176892"><ele>12.0</ele><time>2026-04-19T10:53:17.999Z</time></trkpt><trkpt lat="38.15002740189245" lon="14.971860077087143"><ele>12.0</ele><time>2026-04-19T10:53:18.999Z</time></trkpt><trkpt lat="38.14996508322343" lon="14.97181266294474"><ele>12.0</ele><time>2026-04-19T10:53:20.999Z</time></trkpt><trkpt lat="38.14991880562805" lon="14.97194424478101"><ele>12.0</ele><time>2026-04-19T10:53:21.999Z</time></trkpt><trkpt lat="38.1499105812231" lon="14.972046026913906"><ele>12.0</ele><time>2026-04-19T10:53:22.999Z</time></trkpt><trkpt lat="38.14988794800943" lon="14.972178320630658"><ele>12.0</ele><time>2026-04-19T10:53:23.999Z</time></trkpt><trkpt lat="38.14984631669061" lon="14.972342944169277"><ele>12.2</ele><time>2026-04-19T10:53:24.999Z</time></trkpt><trkpt lat="38.14980932479428" lon="14.97248863308615"><ele>12.399999999999999</ele><time>2026-04-19T10:53:25.999Z</time></trkpt><trkpt lat="38.14978145701575" lon="14.972622961300184"><ele>12.600000000000001</ele><time>2026-04-19T10:53:26.999Z</time></trkpt><trkpt lat="38.14975617554564" lon="14.972749759769178"><ele>12.8</ele><time>2026-04-19T10:53:27.999Z</time></trkpt><trkpt lat="38.14972948252376" lon="14.972874149693917"><ele>13.0</ele><time>2026-04-19T10:53:28.999Z</time></trkpt><trkpt lat="38.1497001714865" lon="14.972996570569146"><ele>12.75</ele><time>2026-04-19T10:53:29.999Z</time></trkpt><trkpt lat="38.14966615958642" lon="14.97312114269878"><ele>12.5</ele><time>2026-04-19T10:53:30.999Z</time></trkpt><trkpt lat="38.149627170533684" lon="14.973253419643767"><ele>12.25</ele><time>2026-04-19T10:53:31.999Z</time></trkpt><trkpt lat="38.14958756761862" lon="14.973392092140434"><ele>12.0</ele><time>2026-04-19T10:53:32.999Z</time></trkpt><trkpt lat="38.149549365331254" lon="14.973539654547956"><ele>12.0</ele><time>2026-04-19T10:53:33.999Z</time></trkpt><trkpt lat="38.149512351428804" lon="14.973711608608962"><ele>12.0</ele><time>2026-04-19T10:53:34.999Z</time></trkpt><trkpt lat="38.14947487604078" lon="14.973910912215452"><ele>12.0</ele><time>2026-04-19T10:53:35.999Z</time></trkpt><trkpt lat="38.149424683229476" lon="14.974124649496018"><ele>10.666666666666666</ele><time>2026-04-19T10:53:36.999Z</time></trkpt><trkpt lat="38.14934213938013" lon="14.97432520351211"><ele>9.333333333333332</ele><time>2026-04-19T10:53:37.999Z</time></trkpt><trkpt lat="38.14928543455374" lon="14.974545491168199"><ele>8.0</ele><time>2026-04-19T10:53:38.999Z</time></trkpt><trkpt lat="38.149235153851976" lon="14.974741920548848"><ele>8.0</ele><time>2026-04-19T10:53:39.999Z</time></trkpt><trkpt lat="38.14920195971979" lon="14.974928608014121"><ele>8.0</ele><time>2026-04-19T10:53:40.999Z</time></trkpt><trkpt lat="38.149156691257176" lon="14.97509503756551"><ele>8.0</ele><time>2026-04-19T10:53:41.999Z</time></trkpt><trkpt lat="38.14911590828938" lon="14.975251247448321"><ele>8.0</ele><time>2026-04-19T10:53:42.999Z</time></trkpt><trkpt lat="38.14907656687034" lon="14.97539923552482"><ele>8.200000000000001</ele><time>2026-04-19T10:53:43.999Z</time></trkpt><trkpt lat="38.14903748912832" lon="14.975537682797537"><ele>8.4</ele><time>2026-04-19T10:53:44.999Z</time></trkpt><trkpt lat="38.14900103336973" lon="14.97567524454877"><ele>8.600000000000001</ele><time>2026-04-19T10:53:45.999Z</time></trkpt><trkpt lat="38.148970073032594" lon="14.975812233808776"><ele>8.8</ele><time>2026-04-19T10:53:46.999Z</time></trkpt><trkpt lat="38.14891988064205" lon="14.97592332461831"><ele>9.0</ele><time>2026-04-19T10:53:47.999Z</time></trkpt><trkpt lat="38.14888779768816" lon="14.976038981181071"><ele>9.0</ele><time>2026-04-19T10:53:48.999Z</time></trkpt><trkpt lat="38.14887652933064" lon="14.976124057872415"><ele>9.0</ele><time>2026-04-19T10:53:49.999Z</time></trkpt><trkpt lat="38.1489444021515" lon="14.976281102491185"><ele>9.0</ele><time>2026-04-19T10:53:51.998Z</time></trkpt><trkpt lat="38.14906427453764" lon="14.9763397195169"><ele>9.0</ele><time>2026-04-19T10:53:52.998Z</time></trkpt><trkpt lat="38.149161709121614" lon="14.976458117994154"><ele>8.75</ele><time>2026-04-19T10:53:53.998Z</time></trkpt><trkpt lat="38.14926143739242" lon="14.976552788220133"><ele>8.5</ele><time>2026-04-19T10:53:54.998Z</time></trkpt><trkpt lat="38.14937543272406" lon="14.97661748970143"><ele>8.25</ele><time>2026-04-19T10:53:55.998Z</time></trkpt><trkpt lat="38.149476964631404" lon="14.97668778843993"><ele>8.0</ele><time>2026-04-19T10:53:56.998Z</time></trkpt><trkpt lat="38.14956945663063" lon="14.976738381878421"><ele>7.6000000000000005</ele><time>2026-04-19T10:53:57.998Z</time></trkpt><trkpt lat="38.149637604089364" lon="14.976783760830083"><ele>7.200000000000001</ele><time>2026-04-19T10:53:58.998Z</time></trkpt><trkpt lat="38.149690922513976" lon="14.976852977237504"><ele>6.8</ele><time>2026-04-19T10:54:00.998Z</time></trkpt><trkpt lat="38.14966108562265" lon="14.977016805576548"><ele>6.4</ele><time>2026-04-19T10:54:02.998Z</time></trkpt><trkpt lat="38.14960780676669" lon="14.977162032333455"><ele>6.0</ele><time>2026-04-19T10:54:03.998Z</time></trkpt><trkpt lat="38.14953997988481" lon="14.977353586496381"><ele>6.0</ele><time>2026-04-19T10:54:04.998Z</time></trkpt><trkpt lat="38.14947211520762" lon="14.977584833825208"><ele>6.0</ele><time>2026-04-19T10:54:05.998Z</time></trkpt><trkpt lat="38.14941032361788" lon="14.977805402347721"><ele>6.0</ele><time>2026-04-19T10:54:06.998Z</time></trkpt><trkpt lat="38.14934647348223" lon="14.978004175164232"><ele>6.0</ele><time>2026-04-19T10:54:07.998Z</time></trkpt><trkpt lat="38.1492833462655" lon="14.97818724331498"><ele>6.0</ele><time>2026-04-19T10:54:08.998Z</time></trkpt><trkpt lat="38.14922421332162" lon="14.978362659048852"><ele>6.0</ele><time>2026-04-19T10:54:09.998Z</time></trkpt><trkpt lat="38.149167538704944" lon="14.978538420016635"><ele>6.25</ele><time>2026-04-19T10:54:10.998Z</time></trkpt><trkpt lat="38.149108980079404" lon="14.978718553924084"><ele>6.5</ele><time>2026-04-19T10:54:11.998Z</time></trkpt><trkpt lat="38.1490549455266" lon="14.978896746281977"><ele>6.75</ele><time>2026-04-19T10:54:12.998Z</time></trkpt><trkpt lat="38.1490036257746" lon="14.979066297237983"><ele>7.0</ele><time>2026-04-19T10:54:13.998Z</time></trkpt><trkpt lat="38.1489582261925" lon="14.979227105091363"><ele>7.25</ele><time>2026-04-19T10:54:14.998Z</time></trkpt><trkpt lat="38.14891644785073" lon="14.97937549278809"><ele>7.5</ele><time>2026-04-19T10:54:15.998Z</time></trkpt><trkpt lat="38.148873786258854" lon="14.979520309184558"><ele>7.75</ele><time>2026-04-19T10:54:16.998Z</time></trkpt><trkpt lat="38.14883485046125" lon="14.979675444929775"><ele>8.0</ele><time>2026-04-19T10:54:17.998Z</time></trkpt><trkpt lat="38.14880351705301" lon="14.979838490130527"><ele>8.0</ele><time>2026-04-19T10:54:18.998Z</time></trkpt><trkpt lat="38.14877888650322" lon="14.97999150830033"><ele>8.0</ele><time>2026-04-19T10:54:19.998Z</time></trkpt><trkpt lat="38.14875657347583" lon="14.98012831209614"><ele>8.0</ele><time>2026-04-19T10:54:20.998Z</time></trkpt><trkpt lat="38.14873266835347" lon="14.98025477902124"><ele>8.0</ele><time>2026-04-19T10:54:21.998Z</time></trkpt><trkpt lat="38.14870781537605" lon="14.98037477152509"><ele>8.0</ele><time>2026-04-19T10:54:22.998Z</time></trkpt><trkpt lat="38.14868345195083" lon="14.98049479056879"><ele>7.6000000000000005</ele><time>2026-04-19T10:54:23.998Z</time></trkpt><trkpt lat="38.148662843522224" lon="14.980617533960782"><ele>7.200000000000001</ele><time>2026-04-19T10:54:24.998Z</time></trkpt><trkpt lat="38.1486471370568" lon="14.980720008925502"><ele>6.8</ele><time>2026-04-19T10:54:25.998Z</time></trkpt><trkpt lat="38.14862183764701" lon="14.980822411366805"><ele>6.4</ele><time>2026-04-19T10:54:27.998Z</time></trkpt><trkpt lat="38.148608291770444" lon="14.98094732679829"><ele>6.0</ele><time>2026-04-19T10:54:28.998Z</time></trkpt><trkpt lat="38.148790082338415" lon="14.98088789942812"><ele>6.0</ele><time>2026-04-19T10:54:29.998Z</time></trkpt><trkpt lat="38.14889188286889" lon="14.980898479810017"><ele>6.0</ele><time>2026-04-19T10:54:30.998Z</time></trkpt><trkpt lat="38.149011106100005" lon="14.980910339885183"><ele>6.0</ele><time>2026-04-19T10:54:32Z</time></trkpt><trkpt lat="38.14912182103372" lon="14.980921353572523"><ele>6.0</ele><time>2026-04-19T10:54:33Z</time></trkpt><trkpt lat="38.149219618719236" lon="14.980931267629172"><ele>6.0</ele><time>2026-04-19T10:54:34Z</time></trkpt><trkpt lat="38.149308757786244" lon="14.98094090062422"><ele>5.666666666666667</ele><time>2026-04-19T10:54:35Z</time></trkpt><trkpt lat="38.14939718540538" lon="14.980950456721624"><ele>5.333333333333333</ele><time>2026-04-19T10:54:36Z</time></trkpt><trkpt lat="38.14948180715965" lon="14.980959601542565"><ele>5.0</ele><time>2026-04-19T10:54:37Z</time></trkpt><trkpt lat="38.14955717970267" lon="14.980967746818258"><ele>4.666666666666666</ele><time>2026-04-19T10:54:38Z</time></trkpt><trkpt lat="38.14963195537622" lon="14.980975827602743"><ele>4.333333333333333</ele><time>2026-04-19T10:54:40Z</time></trkpt><trkpt lat="38.149715782752374" lon="14.980984886634976"><ele>4.0</ele><time>2026-04-19T10:54:45Z</time></trkpt><trkpt lat="38.149788840317726" lon="14.981022116814698"><ele>3.9999999999999996</ele><time>2026-04-19T10:55:34.999Z</time></trkpt><trkpt lat="38.14971737433138" lon="14.98092921202668"><ele>4.0</ele><time>2026-04-19T10:57:01.999Z</time></trkpt><trkpt lat="38.14969269132159" lon="14.980843592566245"><ele>4.0</ele><time>2026-04-19T10:57:03.999Z</time></trkpt><trkpt lat="38.14971600070917" lon="14.980703781711158"><ele>4.0</ele><time>2026-04-19T10:57:05.999Z</time></trkpt><trkpt lat="38.149716110204295" lon="14.98060651017191"><ele>3.9999999999999996</ele><time>2026-04-19T10:57:07.999Z</time></trkpt><trkpt lat="38.14967530798992" lon="14.980542552495654"><ele>4.0</ele><time>2026-04-19T11:02:19.999Z</time></trkpt><trkpt lat="38.1497414496494" lon="14.98055060705994"><ele>4.0</ele><time>2026-04-19T11:03:18Z</time></trkpt><trkpt lat="38.1497726003711" lon="14.980477987126473"><ele>3.9999999999999996</ele><time>2026-04-19T11:21:52Z</time></trkpt><trkpt lat="38.14973271499741" lon="14.980554471114122"><ele>4.0</ele><time>2026-04-19T11:22:43.999Z</time></trkpt><trkpt lat="38.14971881129995" lon="14.980653743682877"><ele>4.0</ele><time>2026-04-19T11:25:38.999Z</time></trkpt><trkpt lat="38.14970409253878" lon="14.980750854310843"><ele>3.9999999999999996</ele><time>2026-04-19T11:25:43.998Z</time></trkpt><trkpt lat="38.14969742208383" lon="14.9808412179308"><ele>4.0</ele><time>2026-04-19T11:25:49.998Z</time></trkpt><trkpt lat="38.149679789039475" lon="14.980941055257812"><ele>4.0</ele><time>2026-04-19T11:26:18Z</time></trkpt><trkpt lat="38.149680912592316" lon="14.981036422559937"><ele>4.0</ele><time>2026-04-19T11:26:23Z</time></trkpt><trkpt lat="38.14967139417942" lon="14.981152718049545"><ele>4.0</ele><time>2026-04-19T11:26:26Z</time></trkpt><trkpt lat="38.14967461881706" lon="14.981237894323561"><ele>4.0</ele><time>2026-04-19T11:26:29Z</time></trkpt><trkpt lat="38.14968891616793" lon="14.981354133342933"><ele>4.0</ele><time>2026-04-19T11:26:32Z</time></trkpt><trkpt lat="38.149695120872224" lon="14.981498463380252"><ele>4.0</ele><time>2026-04-19T11:26:34Z</time></trkpt><trkpt lat="38.14970479330551" lon="14.981620090080465"><ele>3.9999999999999996</ele><time>2026-04-19T11:26:36Z</time></trkpt><trkpt lat="38.14970665813947" lon="14.981722265721215"><ele>4.0</ele><time>2026-04-19T11:26:38Z</time></trkpt><trkpt lat="38.14971358901093" lon="14.981806862351569"><ele>4.0</ele><time>2026-04-19T11:26:40Z</time></trkpt><trkpt lat="38.14972231906852" lon="14.981907876442152"><ele>4.0</ele><time>2026-04-19T11:26:42.999Z</time></trkpt><trkpt lat="38.149721757863425" lon="14.98199975828954"><ele>3.9999999999999996</ele><time>2026-04-19T11:26:46.999Z</time></trkpt><trkpt lat="38.14973273919843" lon="14.982081035526004"><ele>4.0</ele><time>2026-04-19T11:26:51.999Z</time></trkpt><trkpt lat="38.14973328661164" lon="14.982193729861514"><ele>3.9999999999999996</ele><time>2026-04-19T11:26:53.999Z</time></trkpt><trkpt lat="38.1497321931445" lon="14.982328466762725"><ele>4.0</ele><time>2026-04-19T11:26:55.999Z</time></trkpt><trkpt lat="38.14974452026877" lon="14.982239696206209"><ele>4.0</ele><time>2026-04-19T11:27:07.999Z</time></trkpt><trkpt lat="38.14973386486558" lon="14.982143880283887"><ele>4.0</ele><time>2026-04-19T11:27:11.999Z</time></trkpt><trkpt lat="38.149710876263505" lon="14.982046541685824"><ele>3.9999999999999996</ele><time>2026-04-19T11:27:45.998Z</time></trkpt><trkpt lat="38.149713951609385" lon="14.981912738329807"><ele>4.0</ele><time>2026-04-19T11:27:48.998Z</time></trkpt><trkpt lat="38.149705705873224" lon="14.98176257091175"><ele>3.9999999999999996</ele><time>2026-04-19T11:27:50.998Z</time></trkpt><trkpt lat="38.14970035084682" lon="14.981681564008598"><ele>4.0</ele><time>2026-04-19T11:27:51.998Z</time></trkpt><trkpt lat="38.14969576901555" lon="14.981596332514108"><ele>4.0</ele><time>2026-04-19T11:27:52.998Z</time></trkpt><trkpt lat="38.149695206397475" lon="14.981514798725417"><ele>4.0</ele><time>2026-04-19T11:27:53.998Z</time></trkpt><trkpt lat="38.14968547556572" lon="14.981361516473052"><ele>3.9999999999999996</ele><time>2026-04-19T11:27:55.998Z</time></trkpt><trkpt lat="38.14967504126587" lon="14.981222493348973"><ele>4.0</ele><time>2026-04-19T11:27:57.998Z</time></trkpt><trkpt lat="38.1496793109091" lon="14.981139712511482"><ele>4.0</ele><time>2026-04-19T11:27:58.998Z</time></trkpt><trkpt lat="38.14965562008036" lon="14.981014493087972"><ele>4.0</ele><time>2026-04-19T11:28:00.998Z</time></trkpt><trkpt lat="38.14964464299401" lon="14.980928102045405"><ele>4.0</ele><time>2026-04-19T11:28:07Z</time></trkpt><trkpt lat="38.14957882543935" lon="14.980891036527769"><ele>4.0</ele><time>2026-04-19T11:28:10Z</time></trkpt><trkpt lat="38.14948432226226" lon="14.980893366542045"><ele>4.0</ele><time>2026-04-19T11:28:12Z</time></trkpt><trkpt lat="38.149350418547726" lon="14.980876917533257"><ele>4.0</ele><time>2026-04-19T11:28:14Z</time></trkpt><trkpt lat="38.149212647242585" lon="14.980861234126136"><ele>4.0</ele><time>2026-04-19T11:28:16Z</time></trkpt><trkpt lat="38.14914494374295" lon="14.980856018301395"><ele>4.0</ele><time>2026-04-19T11:28:17Z</time></trkpt><trkpt lat="38.149079428553726" lon="14.980850304938176"><ele>4.0</ele><time>2026-04-19T11:28:18Z</time></trkpt><trkpt lat="38.14895641763948" lon="14.980842387070501"><ele>4.0</ele><time>2026-04-19T11:28:20Z</time></trkpt><trkpt lat="38.148890056452075" lon="14.980826944893147"><ele>4.2</ele><time>2026-04-19T11:28:21Z</time></trkpt><trkpt lat="38.14878137082194" lon="14.980826431230167"><ele>4.4</ele><time>2026-04-19T11:28:23Z</time></trkpt><trkpt lat="38.148702957524655" lon="14.980825222842592"><ele>4.6</ele><time>2026-04-19T11:28:25Z</time></trkpt><trkpt lat="38.148604973001866" lon="14.980877028166475"><ele>4.8</ele><time>2026-04-19T11:28:29Z</time></trkpt><trkpt lat="38.14848525228357" lon="14.980939034332174"><ele>5.0</ele><time>2026-04-19T11:28:31Z</time></trkpt><trkpt lat="38.14841028097832" lon="14.980947331680335"><ele>5.0</ele><time>2026-04-19T11:28:32Z</time></trkpt><trkpt lat="38.14833011326063" lon="14.980952550851027"><ele>5.0</ele><time>2026-04-19T11:28:33Z</time></trkpt><trkpt lat="38.148244892802964" lon="14.980949855731895"><ele>5.0</ele><time>2026-04-19T11:28:34Z</time></trkpt><trkpt lat="38.14815861333098" lon="14.980937914727434"><ele>5.0</ele><time>2026-04-19T11:28:35Z</time></trkpt><trkpt lat="38.14807151924112" lon="14.980925518334693"><ele>5.0</ele><time>2026-04-19T11:28:35.999Z</time></trkpt><trkpt lat="38.14798266957084" lon="14.98091257289183"><ele>5.0</ele><time>2026-04-19T11:28:36.999Z</time></trkpt><trkpt lat="38.14788991219696" lon="14.980901164046589"><ele>5.0</ele><time>2026-04-19T11:28:37.999Z</time></trkpt><trkpt lat="38.14779519727292" lon="14.980891188219065"><ele>5.0</ele><time>2026-04-19T11:28:38.999Z</time></trkpt><trkpt lat="38.1476994726778" lon="14.980884247670277"><ele>5.0</ele><time>2026-04-19T11:28:39.999Z</time></trkpt><trkpt lat="38.14760947465236" lon="14.980877235354336"><ele>5.0</ele><time>2026-04-19T11:28:40.999Z</time></trkpt><trkpt lat="38.147524936765" lon="14.980860791227316"><ele>5.0</ele><time>2026-04-19T11:28:41.999Z</time></trkpt><trkpt lat="38.14743966258363" lon="14.980838414984602"><ele>4.833333333333334</ele><time>2026-04-19T11:28:42.999Z</time></trkpt><trkpt lat="38.14735462499372" lon="14.980813163216695"><ele>4.666666666666667</ele><time>2026-04-19T11:28:43.999Z</time></trkpt><trkpt lat="38.14727430516128" lon="14.980789405758529"><ele>4.5</ele><time>2026-04-19T11:28:44.999Z</time></trkpt><trkpt lat="38.14720262347928" lon="14.980748531121565"><ele>4.333333333333333</ele><time>2026-04-19T11:28:45.999Z</time></trkpt><trkpt lat="38.14713825302736" lon="14.980717248001689"><ele>4.166666666666666</ele><time>2026-04-19T11:28:46.999Z</time></trkpt><trkpt lat="38.147053647497515" lon="14.98072667321929"><ele>4.0</ele><time>2026-04-19T11:28:48.999Z</time></trkpt><trkpt lat="38.14695289731881" lon="14.980825823611395"><ele>3.9999999999999996</ele><time>2026-04-19T11:28:52.999Z</time></trkpt><trkpt lat="38.14693776920038" lon="14.980921926902095"><ele>4.0</ele><time>2026-04-19T11:28:53.999Z</time></trkpt><trkpt lat="38.1469226709654" lon="14.98101784045997"><ele>4.0</ele><time>2026-04-19T11:28:54.999Z</time></trkpt><trkpt lat="38.14690603259674" lon="14.981123538074351"><ele>4.0</ele><time>2026-04-19T11:28:55.999Z</time></trkpt><trkpt lat="38.14688590637483" lon="14.981241018489177"><ele>3.9999999999999996</ele><time>2026-04-19T11:28:56.999Z</time></trkpt><trkpt lat="38.146866410184735" lon="14.981359575463324"><ele>4.0</ele><time>2026-04-19T11:28:57.999Z</time></trkpt><trkpt lat="38.146846125577135" lon="14.981482926871161"><ele>4.0</ele><time>2026-04-19T11:28:58.999Z</time></trkpt><trkpt lat="38.14683849695479" lon="14.981619691971389"><ele>4.0</ele><time>2026-04-19T11:28:59.999Z</time></trkpt><trkpt lat="38.14681072871537" lon="14.981759027641587"><ele>4.0</ele><time>2026-04-19T11:29:00.999Z</time></trkpt><trkpt lat="38.14678353687424" lon="14.981908958765636"><ele>4.0</ele><time>2026-04-19T11:29:01.999Z</time></trkpt><trkpt lat="38.146753338744254" lon="14.982063984844526"><ele>4.25</ele><time>2026-04-19T11:29:02.999Z</time></trkpt><trkpt lat="38.14672078052553" lon="14.982226933387647"><ele>4.5</ele><time>2026-04-19T11:29:03.999Z</time></trkpt><trkpt lat="38.14668654131972" lon="14.982398891445253"><ele>4.75</ele><time>2026-04-19T11:29:04.999Z</time></trkpt><trkpt lat="38.14664924271015" lon="14.982572169532437"><ele>5.0</ele><time>2026-04-19T11:29:05.999Z</time></trkpt><trkpt lat="38.14661321089113" lon="14.982755294153545"><ele>5.0</ele><time>2026-04-19T11:29:06.999Z</time></trkpt><trkpt lat="38.14657544009524" lon="14.982947766088364"><ele>5.0</ele><time>2026-04-19T11:29:07.999Z</time></trkpt><trkpt lat="38.146539711228534" lon="14.983144042533661"><ele>5.0</ele><time>2026-04-19T11:29:08.999Z</time></trkpt><trkpt lat="38.146498072046136" lon="14.983353103117022"><ele>5.0</ele><time>2026-04-19T11:29:09.999Z</time></trkpt><trkpt lat="38.14645322281204" lon="14.98356200028139"><ele>5.0</ele><time>2026-04-19T11:29:10.999Z</time></trkpt><trkpt lat="38.146410062127174" lon="14.983774944746298"><ele>5.0</ele><time>2026-04-19T11:29:11.999Z</time></trkpt><trkpt lat="38.1463682101011" lon="14.98399227383021"><ele>5.333333333333334</ele><time>2026-04-19T11:29:12.999Z</time></trkpt><trkpt lat="38.14632865652427" lon="14.984211046600107"><ele>5.666666666666667</ele><time>2026-04-19T11:29:13.999Z</time></trkpt><trkpt lat="38.14628521038058" lon="14.98442866984671"><ele>6.0</ele><time>2026-04-19T11:29:14.999Z</time></trkpt><trkpt lat="38.146193870908725" lon="14.984879933843084"><ele>5.666666666666667</ele><time>2026-04-19T11:29:16.999Z</time></trkpt><trkpt lat="38.146144080122625" lon="14.9851211615642"><ele>5.333333333333334</ele><time>2026-04-19T11:29:17.999Z</time></trkpt><trkpt lat="38.146087749753356" lon="14.985357948417182"><ele>5.0</ele><time>2026-04-19T11:29:18.999Z</time></trkpt><trkpt lat="38.14605646655122" lon="14.985561956766363"><ele>5.0</ele><time>2026-04-19T11:29:19.999Z</time></trkpt><trkpt lat="38.14600232488442" lon="14.985777130635716"><ele>5.0</ele><time>2026-04-19T11:29:20.999Z</time></trkpt><trkpt lat="38.14595855352581" lon="14.985995794509577"><ele>5.0</ele><time>2026-04-19T11:29:21.999Z</time></trkpt><trkpt lat="38.14591416886991" lon="14.986217522159412"><ele>5.333333333333334</ele><time>2026-04-19T11:29:22.999Z</time></trkpt><trkpt lat="38.14587380337108" lon="14.986446792274608"><ele>5.666666666666667</ele><time>2026-04-19T11:29:23.999Z</time></trkpt><trkpt lat="38.14581359616129" lon="14.986687017348324"><ele>6.0</ele><time>2026-04-19T11:29:24.999Z</time></trkpt><trkpt lat="38.14575433297601" lon="14.986921087381987"><ele>6.0</ele><time>2026-04-19T11:29:25.999Z</time></trkpt><trkpt lat="38.14570700573062" lon="14.987175262109742"><ele>6.0</ele><time>2026-04-19T11:29:26.999Z</time></trkpt><trkpt lat="38.14566352720961" lon="14.987433439487015"><ele>6.0</ele><time>2026-04-19T11:29:27.999Z</time></trkpt><trkpt lat="38.145621112233805" lon="14.987684750115342"><ele>6.0</ele><time>2026-04-19T11:29:28.999Z</time></trkpt><trkpt lat="38.14558644212798" lon="14.987936742967147"><ele>6.0</ele><time>2026-04-19T11:29:29.999Z</time></trkpt><trkpt lat="38.145560485367945" lon="14.988204252440491"><ele>6.0</ele><time>2026-04-19T11:29:30.999Z</time></trkpt><trkpt lat="38.14554251267335" lon="14.988475381577281"><ele>6.0</ele><time>2026-04-19T11:29:31.999Z</time></trkpt><trkpt lat="38.145515924146714" lon="14.988747276416422"><ele>6.0</ele><time>2026-04-19T11:29:32.999Z</time></trkpt><trkpt lat="38.14550673117998" lon="14.989027065786196"><ele>6.0</ele><time>2026-04-19T11:29:33.999Z</time></trkpt><trkpt lat="38.14549682933278" lon="14.989309105205036"><ele>6.0</ele><time>2026-04-19T11:29:34.999Z</time></trkpt><trkpt lat="38.14550070076464" lon="14.989584631799904"><ele>6.0</ele><time>2026-04-19T11:29:35.999Z</time></trkpt><trkpt lat="38.14551011256221" lon="14.98986250968759"><ele>6.0</ele><time>2026-04-19T11:29:36.999Z</time></trkpt><trkpt lat="38.14552602974146" lon="14.990139695842977"><ele>6.0</ele><time>2026-04-19T11:29:37.999Z</time></trkpt><trkpt lat="38.1455458928638" lon="14.990417398111859"><ele>6.0</ele><time>2026-04-19T11:29:38.999Z</time></trkpt><trkpt lat="38.14554988762897" lon="14.990692110546284"><ele>6.0</ele><time>2026-04-19T11:29:39.999Z</time></trkpt><trkpt lat="38.14557046664555" lon="14.990959401174255"><ele>6.666666666666666</ele><time>2026-04-19T11:29:40.999Z</time></trkpt><trkpt lat="38.14559092757626" lon="14.99122227398851"><ele>7.333333333333333</ele><time>2026-04-19T11:29:41.999Z</time></trkpt><trkpt lat="38.14561145715475" lon="14.991481624634858"><ele>8.0</ele><time>2026-04-19T11:29:42.999Z</time></trkpt><trkpt lat="38.145630306790906" lon="14.991736349038577"><ele>9.0</ele><time>2026-04-19T11:29:43.999Z</time></trkpt><trkpt lat="38.14564822587571" lon="14.991982819416643"><ele>10.0</ele><time>2026-04-19T11:29:44.998Z</time></trkpt><trkpt lat="38.145666206692084" lon="14.992225871918754"><ele>11.0</ele><time>2026-04-19T11:29:45.998Z</time></trkpt><trkpt lat="38.14568478226189" lon="14.992470804022984"><ele>10.333333333333332</ele><time>2026-04-19T11:29:46.998Z</time></trkpt><trkpt lat="38.14570374506069" lon="14.992720842073279"><ele>9.666666666666666</ele><time>2026-04-19T11:29:47.998Z</time></trkpt><trkpt lat="38.14572278941719" lon="14.992971955473774"><ele>9.0</ele><time>2026-04-19T11:29:48.998Z</time></trkpt><trkpt lat="38.14574158618488" lon="14.993221373047387"><ele>8.0</ele><time>2026-04-19T11:29:49.998Z</time></trkpt><trkpt lat="38.14575985392892" lon="14.993467121605262"><ele>7.0</ele><time>2026-04-19T11:29:50.998Z</time></trkpt><trkpt lat="38.1457778674032" lon="14.99370908646645"><ele>6.0</ele><time>2026-04-19T11:29:51.998Z</time></trkpt><trkpt lat="38.14579531592942" lon="14.993943144518138"><ele>6.666666666666666</ele><time>2026-04-19T11:29:52.998Z</time></trkpt><trkpt lat="38.14581247179564" lon="14.994173276747997"><ele>7.333333333333333</ele><time>2026-04-19T11:29:53.998Z</time></trkpt><trkpt lat="38.14582959730268" lon="14.99440510626563"><ele>8.0</ele><time>2026-04-19T11:29:54.998Z</time></trkpt><trkpt lat="38.145846157485714" lon="14.994630569801934"><ele>8.0</ele><time>2026-04-19T11:29:55.998Z</time></trkpt><trkpt lat="38.14586193192334" lon="14.994845335663566"><ele>8.0</ele><time>2026-04-19T11:29:56.998Z</time></trkpt><trkpt lat="38.14587800766596" lon="14.995059052994483"><ele>8.0</ele><time>2026-04-19T11:29:57.998Z</time></trkpt><trkpt lat="38.145909765114006" lon="14.995270815846375"><ele>8.0</ele><time>2026-04-19T11:29:58.998Z</time></trkpt><trkpt lat="38.1459146187365" lon="14.995478071957482"><ele>8.0</ele><time>2026-04-19T11:29:59.998Z</time></trkpt><trkpt lat="38.145920728979064" lon="14.99567352477438"><ele>8.0</ele><time>2026-04-19T11:30:00.998Z</time></trkpt><trkpt lat="38.14592645963334" lon="14.99584817572645"><ele>7.800000000000001</ele><time>2026-04-19T11:30:01.998Z</time></trkpt><trkpt lat="38.14593245331217" lon="14.996004478128539"><ele>7.6000000000000005</ele><time>2026-04-19T11:30:02.998Z</time></trkpt><trkpt lat="38.14594056559439" lon="14.996132520773559"><ele>7.3999999999999995</ele><time>2026-04-19T11:30:03.998Z</time></trkpt><trkpt lat="38.145950300033164" lon="14.996229214743305"><ele>7.199999999999999</ele><time>2026-04-19T11:30:04.998Z</time></trkpt><trkpt lat="38.14597532133525" lon="14.996324792088528"><ele>7.0</ele><time>2026-04-19T11:30:05.998Z</time></trkpt><trkpt lat="38.146003161143625" lon="14.996443408447156"><ele>7.0</ele><time>2026-04-19T11:30:06.998Z</time></trkpt><trkpt lat="38.14601667120458" lon="14.99655566682992"><ele>6.999999999999999</ele><time>2026-04-19T11:30:07.998Z</time></trkpt><trkpt lat="38.146022156059296" lon="14.996676823606204"><ele>6.999999999999999</ele><time>2026-04-19T11:30:08.998Z</time></trkpt><trkpt lat="38.14601869224438" lon="14.996801738310236"><ele>7.0</ele><time>2026-04-19T11:30:09.998Z</time></trkpt><trkpt lat="38.14603107324449" lon="14.996962706340124"><ele>7.0</ele><time>2026-04-19T11:30:10.999Z</time></trkpt><trkpt lat="38.14604531091892" lon="14.997134799045202"><ele>7.0</ele><time>2026-04-19T11:30:11.999Z</time></trkpt><trkpt lat="38.14607130516602" lon="14.997317764267638"><ele>7.0</ele><time>2026-04-19T11:30:12.999Z</time></trkpt><trkpt lat="38.14608971258429" lon="14.997494736947129"><ele>7.0</ele><time>2026-04-19T11:30:13.999Z</time></trkpt><trkpt lat="38.14610689405489" lon="14.99767138182616"><ele>7.0</ele><time>2026-04-19T11:30:14.999Z</time></trkpt><trkpt lat="38.14612395389298" lon="14.997845089139616"><ele>7.0</ele><time>2026-04-19T11:30:15.999Z</time></trkpt><trkpt lat="38.14613455613674" lon="14.998005970988665"><ele>6.999999999999999</ele><time>2026-04-19T11:30:16.999Z</time></trkpt><trkpt lat="38.14613861385736" lon="14.998152642048368"><ele>6.999999999999999</ele><time>2026-04-19T11:30:17.999Z</time></trkpt><trkpt lat="38.14613029724702" lon="14.998286381184924"><ele>7.0</ele><time>2026-04-19T11:30:18.999Z</time></trkpt><trkpt lat="38.1460978073125" lon="14.9984043427369"><ele>7.0</ele><time>2026-04-19T11:30:19.999Z</time></trkpt><trkpt lat="38.146047921531554" lon="14.998513035227308"><ele>6.8</ele><time>2026-04-19T11:30:20.999Z</time></trkpt><trkpt lat="38.14599187642193" lon="14.998613962028246"><ele>6.6</ele><time>2026-04-19T11:30:21.999Z</time></trkpt><trkpt lat="38.14592416267179" lon="14.998717479834848"><ele>6.3999999999999995</ele><time>2026-04-19T11:30:22.999Z</time></trkpt><trkpt lat="38.14584690175003" lon="14.998797375695865"><ele>6.199999999999999</ele><time>2026-04-19T11:30:23.999Z</time></trkpt><trkpt lat="38.14576352888347" lon="14.998858338212255"><ele>6.0</ele><time>2026-04-19T11:30:24.999Z</time></trkpt><trkpt lat="38.145679473166226" lon="14.99891516018021"><ele>6.4</ele><time>2026-04-19T11:30:25.999Z</time></trkpt><trkpt lat="38.1455680932435" lon="14.998924981779089"><ele>6.8</ele><time>2026-04-19T11:30:26.999Z</time></trkpt><trkpt lat="38.145469460418134" lon="14.998953064333694"><ele>7.200000000000001</ele><time>2026-04-19T11:30:27.999Z</time></trkpt><trkpt lat="38.1453571746472" lon="14.998979859182686"><ele>7.6000000000000005</ele><time>2026-04-19T11:30:28.999Z</time></trkpt><trkpt lat="38.14525207517391" lon="14.999017100450338"><ele>8.0</ele><time>2026-04-19T11:30:29.999Z</time></trkpt><trkpt lat="38.145159961833784" lon="14.999061694496682"><ele>8.0</ele><time>2026-04-19T11:30:30.999Z</time></trkpt><trkpt lat="38.14506994167784" lon="14.999118105400953"><ele>8.0</ele><time>2026-04-19T11:30:31.999Z</time></trkpt><trkpt lat="38.14498068052279" lon="14.999191306453271"><ele>8.0</ele><time>2026-04-19T11:30:32.999Z</time></trkpt><trkpt lat="38.14488203065413" lon="14.999255251232801"><ele>8.0</ele><time>2026-04-19T11:30:33.999Z</time></trkpt><trkpt lat="38.14476989067104" lon="14.999303337067724"><ele>8.0</ele><time>2026-04-19T11:30:34.999Z</time></trkpt><trkpt lat="38.144650794363116" lon="14.999346745208674"><ele>8.5</ele><time>2026-04-19T11:30:35.999Z</time></trkpt><trkpt lat="38.14452107494916" lon="14.999394840726493"><ele>9.0</ele><time>2026-04-19T11:30:36.999Z</time></trkpt><trkpt lat="38.14437701660838" lon="14.999441318255613"><ele>9.5</ele><time>2026-04-19T11:30:37.999Z</time></trkpt><trkpt lat="38.14422388126696" lon="14.99949018347041"><ele>10.0</ele><time>2026-04-19T11:30:38.999Z</time></trkpt><trkpt lat="38.14406552728424" lon="14.999542215092756"><ele>10.333333333333334</ele><time>2026-04-19T11:30:39.999Z</time></trkpt><trkpt lat="38.143898991068006" lon="14.999598591516389"><ele>10.666666666666666</ele><time>2026-04-19T11:30:40.999Z</time></trkpt><trkpt lat="38.14372522593525" lon="14.999657098352163"><ele>11.0</ele><time>2026-04-19T11:30:41.999Z</time></trkpt><trkpt lat="38.14355047440562" lon="14.999717926637055"><ele>11.0</ele><time>2026-04-19T11:30:42.999Z</time></trkpt><trkpt lat="38.143376664449" lon="14.999777654085893"><ele>11.0</ele><time>2026-04-19T11:30:43.999Z</time></trkpt><trkpt lat="38.143209281172034" lon="14.999834111198297"><ele>11.0</ele><time>2026-04-19T11:30:44.999Z</time></trkpt><trkpt lat="38.1430494192208" lon="14.999881943153955"><ele>10.666666666666666</ele><time>2026-04-19T11:30:45.999Z</time></trkpt><trkpt lat="38.14289493290596" lon="14.999919204618317"><ele>10.333333333333334</ele><time>2026-04-19T11:30:46.999Z</time></trkpt><trkpt lat="38.14274042334892" lon="14.999938710468719"><ele>10.0</ele><time>2026-04-19T11:30:47.999Z</time></trkpt><trkpt lat="38.1425868718024" lon="14.999924596424755"><ele>10.0</ele><time>2026-04-19T11:30:48.999Z</time></trkpt><trkpt lat="38.14244755492013" lon="14.99988803804508"><ele>10.0</ele><time>2026-04-19T11:30:49.999Z</time></trkpt><trkpt lat="38.14233178410624" lon="14.999806634253522"><ele>10.0</ele><time>2026-04-19T11:30:50.999Z</time></trkpt><trkpt lat="38.14223575592121" lon="14.999700328224277"><ele>10.0</ele><time>2026-04-19T11:30:51.999Z</time></trkpt><trkpt lat="38.142175763594494" lon="14.999574894237108"><ele>10.0</ele><time>2026-04-19T11:30:52.999Z</time></trkpt><trkpt lat="38.142155243210475" lon="14.999437679548166"><ele>10.0</ele><time>2026-04-19T11:30:53.999Z</time></trkpt><trkpt lat="38.14216857120564" lon="14.999299498779367"><ele>10.0</ele><time>2026-04-19T11:30:54.999Z</time></trkpt><trkpt lat="38.142193833098716" lon="14.999172272225218"><ele>10.0</ele><time>2026-04-19T11:30:55.999Z</time></trkpt><trkpt lat="38.14224172388635" lon="14.999058104773376"><ele>10.0</ele><time>2026-04-19T11:30:56.999Z</time></trkpt><trkpt lat="38.14231329090677" lon="14.998963605302892"><ele>10.2</ele><time>2026-04-19T11:30:57.999Z</time></trkpt><trkpt lat="38.14240686580847" lon="14.998895082086703"><ele>10.4</ele><time>2026-04-19T11:30:58.999Z</time></trkpt><trkpt lat="38.142508893088824" lon="14.998858105488239"><ele>10.600000000000001</ele><time>2026-04-19T11:30:59.999Z</time></trkpt><trkpt lat="38.14261694433214" lon="14.998847186552732"><ele>10.8</ele><time>2026-04-19T11:31:00.999Z</time></trkpt><trkpt lat="38.142722601710325" lon="14.998871021570205"><ele>11.0</ele><time>2026-04-19T11:31:01.999Z</time></trkpt><trkpt lat="38.14282187494386" lon="14.998930308323558"><ele>11.0</ele><time>2026-04-19T11:31:02.999Z</time></trkpt><trkpt lat="38.14290827642387" lon="14.999020111740244"><ele>11.0</ele><time>2026-04-19T11:31:03.999Z</time></trkpt><trkpt lat="38.14296234440502" lon="14.999146135745729"><ele>11.0</ele><time>2026-04-19T11:31:04.999Z</time></trkpt><trkpt lat="38.14301944869527" lon="14.999279402455317"><ele>11.0</ele><time>2026-04-19T11:31:05.999Z</time></trkpt><trkpt lat="38.14306999153775" lon="14.9994188631782"><ele>11.0</ele><time>2026-04-19T11:31:06.999Z</time></trkpt><trkpt lat="38.14312455445926" lon="14.999573004000371"><ele>11.0</ele><time>2026-04-19T11:31:07.999Z</time></trkpt><trkpt lat="38.143159210069605" lon="14.999755412580893"><ele>11.0</ele><time>2026-04-19T11:31:08.999Z</time></trkpt><trkpt lat="38.14319412817756" lon="14.999950717650433"><ele>11.0</ele><time>2026-04-19T11:31:09.999Z</time></trkpt><trkpt lat="38.143228670361694" lon="15.000161191416705"><ele>11.0</ele><time>2026-04-19T11:31:10.999Z</time></trkpt><trkpt lat="38.1432646698467" lon="15.000386600851712"><ele>11.0</ele><time>2026-04-19T11:31:11.999Z</time></trkpt><trkpt lat="38.14330208105067" lon="15.000625637997894"><ele>11.0</ele><time>2026-04-19T11:31:12.999Z</time></trkpt><trkpt lat="38.1433430541513" lon="15.000874924992846"><ele>11.0</ele><time>2026-04-19T11:31:13.999Z</time></trkpt><trkpt lat="38.143384444330394" lon="15.001130600643293"><ele>11.0</ele><time>2026-04-19T11:31:14.999Z</time></trkpt><trkpt lat="38.14342574682685" lon="15.001396407653411"><ele>11.0</ele><time>2026-04-19T11:31:15.999Z</time></trkpt><trkpt lat="38.143466468515115" lon="15.00166734089354"><ele>11.0</ele><time>2026-04-19T11:31:16.999Z</time></trkpt><trkpt lat="38.14350419862221" lon="15.001947637081376"><ele>11.0</ele><time>2026-04-19T11:31:17.999Z</time></trkpt><trkpt lat="38.14354307286019" lon="15.002234139877817"><ele>10.0</ele><time>2026-04-19T11:31:18.999Z</time></trkpt><trkpt lat="38.14358225347478" lon="15.002526934591051"><ele>9.0</ele><time>2026-04-19T11:31:19.999Z</time></trkpt><trkpt lat="38.14362170254082" lon="15.002824671160278"><ele>9.0</ele><time>2026-04-19T11:31:20.999Z</time></trkpt><trkpt lat="38.14366368171422" lon="15.00312745688174"><ele>9.0</ele><time>2026-04-19T11:31:21.999Z</time></trkpt><trkpt lat="38.14370682517121" lon="15.003434356337138"><ele>10.0</ele><time>2026-04-19T11:31:22.999Z</time></trkpt><trkpt lat="38.143752444952824" lon="15.003747992478148"><ele>11.0</ele><time>2026-04-19T11:31:23.999Z</time></trkpt><trkpt lat="38.14379855583466" lon="15.004064327245608"><ele>10.5</ele><time>2026-04-19T11:31:24.999Z</time></trkpt><trkpt lat="38.143845929302216" lon="15.004386087061697"><ele>10.0</ele><time>2026-04-19T11:31:25.999Z</time></trkpt><trkpt lat="38.14389425623523" lon="15.00471237522428"><ele>10.0</ele><time>2026-04-19T11:31:26.999Z</time></trkpt><trkpt lat="38.14394767420818" lon="15.005040529623772"><ele>10.0</ele><time>2026-04-19T11:31:27.999Z</time></trkpt><trkpt lat="38.144003768966726" lon="15.00536969370043"><ele>8.5</ele><time>2026-04-19T11:31:28.999Z</time></trkpt><trkpt lat="38.144062786604756" lon="15.00569997250185"><ele>7.0</ele><time>2026-04-19T11:31:29.999Z</time></trkpt><trkpt lat="38.14412457608885" lon="15.006031719122825"><ele>7.0</ele><time>2026-04-19T11:31:30.999Z</time></trkpt><trkpt lat="38.14419040435073" lon="15.006364627627482"><ele>7.0</ele><time>2026-04-19T11:31:31.999Z</time></trkpt><trkpt lat="38.14425891997958" lon="15.006698493284542"><ele>8.0</ele><time>2026-04-19T11:31:32.999Z</time></trkpt><trkpt lat="38.14432873946041" lon="15.007034347220316"><ele>9.0</ele><time>2026-04-19T11:31:33.999Z</time></trkpt><trkpt lat="38.14440207795911" lon="15.007371424563413"><ele>8.0</ele><time>2026-04-19T11:31:34.999Z</time></trkpt><trkpt lat="38.14448041350711" lon="15.007709968490367"><ele>7.0</ele><time>2026-04-19T11:31:35.999Z</time></trkpt><trkpt lat="38.144560676726485" lon="15.008049792787611"><ele>7.0</ele><time>2026-04-19T11:31:36.999Z</time></trkpt><trkpt lat="38.14464022551145" lon="15.008392607820937"><ele>7.0</ele><time>2026-04-19T11:31:37.999Z</time></trkpt><trkpt lat="38.14471791387047" lon="15.008737772920188"><ele>7.0</ele><time>2026-04-19T11:31:38.999Z</time></trkpt><trkpt lat="38.14479947575264" lon="15.009083495227454"><ele>7.0</ele><time>2026-04-19T11:31:39.999Z</time></trkpt><trkpt lat="38.14488423567077" lon="15.009431125486705"><ele>7.0</ele><time>2026-04-19T11:31:40.999Z</time></trkpt><trkpt lat="38.14497043356018" lon="15.00977826311525"><ele>7.0</ele><time>2026-04-19T11:31:41.999Z</time></trkpt><trkpt lat="38.14505220640077" lon="15.010126532334844"><ele>7.0</ele><time>2026-04-19T11:31:42.999Z</time></trkpt><trkpt lat="38.14513353677209" lon="15.010473582077465"><ele>7.0</ele><time>2026-04-19T11:31:43.999Z</time></trkpt><trkpt lat="38.14521429243581" lon="15.010820108469833"><ele>8.0</ele><time>2026-04-19T11:31:44.999Z</time></trkpt><trkpt lat="38.145296183311146" lon="15.011165988665148"><ele>9.0</ele><time>2026-04-19T11:31:45.999Z</time></trkpt><trkpt lat="38.145377012895665" lon="15.011511566920902"><ele>11.0</ele><time>2026-04-19T11:31:46.998Z</time></trkpt><trkpt lat="38.145457577212504" lon="15.011855973989599"><ele>13.0</ele><time>2026-04-19T11:31:47.998Z</time></trkpt><trkpt lat="38.14554140634896" lon="15.012197672374144"><ele>15.0</ele><time>2026-04-19T11:31:48.998Z</time></trkpt><trkpt lat="38.14562488359879" lon="15.012537546155981"><ele>17.0</ele><time>2026-04-19T11:31:49.998Z</time></trkpt><trkpt lat="38.145707235400955" lon="15.012877143222989"><ele>14.0</ele><time>2026-04-19T11:31:50.998Z</time></trkpt><trkpt lat="38.14578855152702" lon="15.013215830653238"><ele>11.0</ele><time>2026-04-19T11:31:51.998Z</time></trkpt><trkpt lat="38.145869039906295" lon="15.013552383047518"><ele>11.0</ele><time>2026-04-19T11:31:52.998Z</time></trkpt><trkpt lat="38.145951737277414" lon="15.013888891407248"><ele>11.0</ele><time>2026-04-19T11:31:53.998Z</time></trkpt><trkpt lat="38.146035380796285" lon="15.01422451911129"><ele>11.5</ele><time>2026-04-19T11:31:54.998Z</time></trkpt><trkpt lat="38.14611733752496" lon="15.014559579743"><ele>12.0</ele><time>2026-04-19T11:31:55.998Z</time></trkpt><trkpt lat="38.146203348186084" lon="15.014898851292195"><ele>13.0</ele><time>2026-04-19T11:31:56.998Z</time></trkpt><trkpt lat="38.14630120987155" lon="15.015230045505463"><ele>14.0</ele><time>2026-04-19T11:31:57.998Z</time></trkpt><trkpt lat="38.14639503385445" lon="15.015568356040799"><ele>13.5</ele><time>2026-04-19T11:31:58.998Z</time></trkpt><trkpt lat="38.14649179039492" lon="15.015906703859446"><ele>13.0</ele><time>2026-04-19T11:31:59.998Z</time></trkpt><trkpt lat="38.14659326074696" lon="15.016246832369529"><ele>12.5</ele><time>2026-04-19T11:32:00.998Z</time></trkpt><trkpt lat="38.14669663288244" lon="15.016595211853955"><ele>12.0</ele><time>2026-04-19T11:32:01.998Z</time></trkpt><trkpt lat="38.14679430622938" lon="15.016949738035867"><ele>12.0</ele><time>2026-04-19T11:32:02.998Z</time></trkpt><trkpt lat="38.146893467088425" lon="15.017295566944451"><ele>12.0</ele><time>2026-04-19T11:32:03.998Z</time></trkpt><trkpt lat="38.14698022350326" lon="15.017624776632019"><ele>12.0</ele><time>2026-04-19T11:32:04.998Z</time></trkpt><trkpt lat="38.14707938742726" lon="15.017981729115018"><ele>12.0</ele><time>2026-04-19T11:32:05.998Z</time></trkpt><trkpt lat="38.14719142672486" lon="15.018355014506463"><ele>12.5</ele><time>2026-04-19T11:32:06.998Z</time></trkpt><trkpt lat="38.14729030850909" lon="15.018713007123509"><ele>13.0</ele><time>2026-04-19T11:32:07.998Z</time></trkpt><trkpt lat="38.147401532412225" lon="15.019079320356"><ele>12.0</ele><time>2026-04-19T11:32:08.998Z</time></trkpt><trkpt lat="38.14750567987686" lon="15.019443013249447"><ele>11.0</ele><time>2026-04-19T11:32:09.998Z</time></trkpt><trkpt lat="38.14761139428947" lon="15.01981187605078"><ele>12.0</ele><time>2026-04-19T11:32:10.998Z</time></trkpt><trkpt lat="38.14771836763979" lon="15.020186657721052"><ele>13.0</ele><time>2026-04-19T11:32:11.998Z</time></trkpt><trkpt lat="38.14782670193825" lon="15.02056189418048"><ele>13.5</ele><time>2026-04-19T11:32:12.998Z</time></trkpt><trkpt lat="38.14793061263914" lon="15.020935533418937"><ele>14.0</ele><time>2026-04-19T11:32:13.998Z</time></trkpt><trkpt lat="38.1480344681277" lon="15.021304612951464"><ele>14.0</ele><time>2026-04-19T11:32:14.998Z</time></trkpt><trkpt lat="38.148127304348705" lon="15.02166615694585"><ele>14.0</ele><time>2026-04-19T11:32:15.998Z</time></trkpt><trkpt lat="38.1482170340009" lon="15.022029952811984"><ele>14.5</ele><time>2026-04-19T11:32:16.999Z</time></trkpt><trkpt lat="38.148304711139424" lon="15.0223945757138"><ele>15.0</ele><time>2026-04-19T11:32:17.999Z</time></trkpt><trkpt lat="38.14838373059799" lon="15.022761806950298"><ele>15.0</ele><time>2026-04-19T11:32:18.999Z</time></trkpt><trkpt lat="38.1484506761795" lon="15.023132366725047"><ele>15.0</ele><time>2026-04-19T11:32:19.999Z</time></trkpt><trkpt lat="38.148513857230675" lon="15.023501380015233"><ele>25.0</ele><time>2026-04-19T11:32:20.999Z</time></trkpt><trkpt lat="38.148563475302126" lon="15.023876096420379"><ele>35.0</ele><time>2026-04-19T11:32:21.999Z</time></trkpt><trkpt lat="38.148599227407914" lon="15.0242542967885"><ele>51.5</ele><time>2026-04-19T11:32:22.999Z</time></trkpt><trkpt lat="38.14862145919197" lon="15.024630990461352"><ele>68.0</ele><time>2026-04-19T11:32:23.999Z</time></trkpt><trkpt lat="38.14863290375033" lon="15.025010155401398"><ele>90.0</ele><time>2026-04-19T11:32:24.999Z</time></trkpt><trkpt lat="38.14863661299327" lon="15.025415903371824"><ele>112.0</ele><time>2026-04-19T11:32:26.063Z</time></trkpt><trkpt lat="38.14863322757806" lon="15.025785748262091"><ele>131.5</ele><time>2026-04-19T11:32:27.037Z</time></trkpt><trkpt lat="38.14862298516394" lon="15.026160200120104"><ele>151.0</ele><time>2026-04-19T11:32:28.036Z</time></trkpt><trkpt lat="38.14859834021488" lon="15.026540515335604"><ele>162.0</ele><time>2026-04-19T11:32:29.034Z</time></trkpt><trkpt lat="38.14855760913312" lon="15.02691749392213"><ele>173.0</ele><time>2026-04-19T11:32:30.036Z</time></trkpt><trkpt lat="38.14850350317215" lon="15.02729510496177"><ele>17.0</ele><time>2026-04-19T11:32:31.036Z</time></trkpt><trkpt lat="38.12046875047626" lon="15.057088464396443"><ele>17.0</ele><time>2026-04-19T11:34:37.998Z</time></trkpt><trkpt lat="38.12028536997116" lon="15.057386766761583"><ele>17.0</ele><time>2026-04-19T11:34:38.998Z</time></trkpt><trkpt lat="38.12009030481696" lon="15.057688113340005"><ele>18.5</ele><time>2026-04-19T11:34:39.998Z</time></trkpt><trkpt lat="38.11988991368224" lon="15.057974611215872"><ele>20.0</ele><time>2026-04-19T11:34:40.998Z</time></trkpt><trkpt lat="38.11969797854681" lon="15.058275131003414"><ele>16.5</ele><time>2026-04-19T11:34:41.998Z</time></trkpt><trkpt lat="38.119493508769054" lon="15.058578651009869"><ele>13.0</ele><time>2026-04-19T11:34:42.998Z</time></trkpt><trkpt lat="38.119300183061995" lon="15.058865337803018"><ele>13.5</ele><time>2026-04-19T11:34:44Z</time></trkpt><trkpt lat="38.11911030428657" lon="15.059161927649278"><ele>14.0</ele><time>2026-04-19T11:34:45Z</time></trkpt><trkpt lat="38.1189212736841" lon="15.059461301318029"><ele>14.0</ele><time>2026-04-19T11:34:46Z</time></trkpt><trkpt lat="38.11873451231974" lon="15.059753426743272"><ele>14.0</ele><time>2026-04-19T11:34:47Z</time></trkpt><trkpt lat="38.118553115907964" lon="15.060040433976827"><ele>14.0</ele><time>2026-04-19T11:34:48Z</time></trkpt><trkpt lat="38.11837041396774" lon="15.060332393812633"><ele>14.0</ele><time>2026-04-19T11:34:49Z</time></trkpt><trkpt lat="38.11818735104324" lon="15.0606154203033"><ele>14.5</ele><time>2026-04-19T11:34:50Z</time></trkpt><trkpt lat="38.118003816953326" lon="15.060899540320777"><ele>15.0</ele><time>2026-04-19T11:34:51Z</time></trkpt><trkpt lat="38.11782183553817" lon="15.061182715212565"><ele>15.0</ele><time>2026-04-19T11:34:52Z</time></trkpt><trkpt lat="38.117640419807906" lon="15.061466566179327"><ele>15.0</ele><time>2026-04-19T11:34:53Z</time></trkpt><trkpt lat="38.117461389147735" lon="15.06174432209801"><ele>15.0</ele><time>2026-04-19T11:34:54Z</time></trkpt><trkpt lat="38.117287563404695" lon="15.062019072066422"><ele>15.0</ele><time>2026-04-19T11:34:55Z</time></trkpt><trkpt lat="38.1171143798065" lon="15.062287038015995"><ele>14.5</ele><time>2026-04-19T11:34:56Z</time></trkpt><trkpt lat="38.116945268786516" lon="15.06255447591485"><ele>14.0</ele><time>2026-04-19T11:34:57Z</time></trkpt><trkpt lat="38.11677350024476" lon="15.062823184326982"><ele>14.0</ele><time>2026-04-19T11:34:58Z</time></trkpt><trkpt lat="38.11660292097409" lon="15.063088991659058"><ele>14.0</ele><time>2026-04-19T11:34:59Z</time></trkpt><trkpt lat="38.11643340212497" lon="15.063352080798479"><ele>17.0</ele><time>2026-04-19T11:35:00Z</time></trkpt><trkpt lat="38.11626709523386" lon="15.063615685276684"><ele>20.0</ele><time>2026-04-19T11:35:01Z</time></trkpt><trkpt lat="38.116097396112714" lon="15.063876721620856"><ele>19.5</ele><time>2026-04-19T11:35:02Z</time></trkpt><trkpt lat="38.115928122595854" lon="15.064136663163355"><ele>19.0</ele><time>2026-04-19T11:35:03Z</time></trkpt><trkpt lat="38.11575961680109" lon="15.064395498404313"><ele>22.5</ele><time>2026-04-19T11:35:04Z</time></trkpt><trkpt lat="38.1155915386818" lon="15.064656976783548"><ele>26.0</ele><time>2026-04-19T11:35:05Z</time></trkpt><trkpt lat="38.115423528657026" lon="15.064918257870183"><ele>23.5</ele><time>2026-04-19T11:35:06Z</time></trkpt><trkpt lat="38.11525832658668" lon="15.06517910325832"><ele>21.0</ele><time>2026-04-19T11:35:07Z</time></trkpt><trkpt lat="38.11509380253166" lon="15.06543617933819"><ele>21.0</ele><time>2026-04-19T11:35:08Z</time></trkpt><trkpt lat="38.11493322975184" lon="15.06569590322926"><ele>21.0</ele><time>2026-04-19T11:35:09Z</time></trkpt><trkpt lat="38.11477400557715" lon="15.065958134994402"><ele>20.0</ele><time>2026-04-19T11:35:10Z</time></trkpt><trkpt lat="38.114620113692496" lon="15.066224164657447"><ele>19.0</ele><time>2026-04-19T11:35:11Z</time></trkpt><trkpt lat="38.11447503785336" lon="15.066498655522052"><ele>19.0</ele><time>2026-04-19T11:35:12Z</time></trkpt><trkpt lat="38.11433665188236" lon="15.066779963162235"><ele>19.0</ele><time>2026-04-19T11:35:13Z</time></trkpt><trkpt lat="38.11420380437963" lon="15.067066396219008"><ele>19.0</ele><time>2026-04-19T11:35:14Z</time></trkpt><trkpt lat="38.114078592698185" lon="15.067359059729647"><ele>19.0</ele><time>2026-04-19T11:35:15Z</time></trkpt><trkpt lat="38.11395840080096" lon="15.067653979432455"><ele>18.5</ele><time>2026-04-19T11:35:16Z</time></trkpt><trkpt lat="38.11384753849261" lon="15.067953367563392"><ele>18.0</ele><time>2026-04-19T11:35:17Z</time></trkpt><trkpt lat="38.11373859183359" lon="15.068259761775405"><ele>18.0</ele><time>2026-04-19T11:35:18Z</time></trkpt><trkpt lat="38.11363962415531" lon="15.068572073431262"><ele>18.0</ele><time>2026-04-19T11:35:19Z</time></trkpt><trkpt lat="38.11354896316329" lon="15.068891890370555"><ele>17.0</ele><time>2026-04-19T11:35:20Z</time></trkpt><trkpt lat="38.1134571085046" lon="15.06921806355642"><ele>16.0</ele><time>2026-04-19T11:35:21Z</time></trkpt><trkpt lat="38.11337605329352" lon="15.069548860931349"><ele>16.0</ele><time>2026-04-19T11:35:22Z</time></trkpt><trkpt lat="38.1132998081979" lon="15.069883182031184"><ele>16.0</ele><time>2026-04-19T11:35:23Z</time></trkpt><trkpt lat="38.11323464934235" lon="15.070223773936478"><ele>17.5</ele><time>2026-04-19T11:35:24Z</time></trkpt><trkpt lat="38.113177027441026" lon="15.070570924512232"><ele>19.0</ele><time>2026-04-19T11:35:24.999Z</time></trkpt><trkpt lat="38.11312915474165" lon="15.070928586043006"><ele>19.0</ele><time>2026-04-19T11:35:25.999Z</time></trkpt><trkpt lat="38.113091138005714" lon="15.071291701416738"><ele>19.0</ele><time>2026-04-19T11:35:26.999Z</time></trkpt><trkpt lat="38.11305386236891" lon="15.071665145350474"><ele>17.0</ele><time>2026-04-19T11:35:27.999Z</time></trkpt><trkpt lat="38.113010563532235" lon="15.07202657635066"><ele>15.0</ele><time>2026-04-19T11:35:28.999Z</time></trkpt><trkpt lat="38.11296247944901" lon="15.072375283220392"><ele>15.5</ele><time>2026-04-19T11:35:29.999Z</time></trkpt><trkpt lat="38.11292866120084" lon="15.072735243421118"><ele>16.0</ele><time>2026-04-19T11:35:30.999Z</time></trkpt><trkpt lat="38.11293611355008" lon="15.073123924859145"><ele>15.0</ele><time>2026-04-19T11:35:31.999Z</time></trkpt><trkpt lat="38.1129672982371" lon="15.073524996907485"><ele>14.0</ele><time>2026-04-19T11:35:32.999Z</time></trkpt><trkpt lat="38.1129994906147" lon="15.073922015113258"><ele>12.5</ele><time>2026-04-19T11:35:33.999Z</time></trkpt><trkpt lat="38.11304037694601" lon="15.074313992603287"><ele>11.0</ele><time>2026-04-19T11:35:34.999Z</time></trkpt><trkpt lat="38.1130888948251" lon="15.074707861234044"><ele>12.5</ele><time>2026-04-19T11:35:35.999Z</time></trkpt><trkpt lat="38.113141902214295" lon="15.07509909192563"><ele>14.0</ele><time>2026-04-19T11:35:36.999Z</time></trkpt><trkpt lat="38.11319897016543" lon="15.075484871484777"><ele>11.5</ele><time>2026-04-19T11:35:37.999Z</time></trkpt><trkpt lat="38.11325036518675" lon="15.075871297528188"><ele>9.0</ele><time>2026-04-19T11:35:38.999Z</time></trkpt><trkpt lat="38.11330896361688" lon="15.076262338003433"><ele>8.5</ele><time>2026-04-19T11:35:39.999Z</time></trkpt><trkpt lat="38.11336826406613" lon="15.076657603316507"><ele>8.0</ele><time>2026-04-19T11:35:40.999Z</time></trkpt><trkpt lat="38.11342504568057" lon="15.07705463802597"><ele>9.0</ele><time>2026-04-19T11:35:41.999Z</time></trkpt><trkpt lat="38.113476107896695" lon="15.077445431174258"><ele>10.0</ele><time>2026-04-19T11:35:42.999Z</time></trkpt><trkpt lat="38.113526390011465" lon="15.077833738781749"><ele>10.0</ele><time>2026-04-19T11:35:43.999Z</time></trkpt><trkpt lat="38.11357570429373" lon="15.078220912190227"><ele>10.0</ele><time>2026-04-19T11:35:44.999Z</time></trkpt><trkpt lat="38.11362169622038" lon="15.078604630955668"><ele>12.5</ele><time>2026-04-19T11:35:45.999Z</time></trkpt><trkpt lat="38.113669905023876" lon="15.078991288735807"><ele>15.0</ele><time>2026-04-19T11:35:46.999Z</time></trkpt><trkpt lat="38.11371577894079" lon="15.079375567543428"><ele>17.0</ele><time>2026-04-19T11:35:47.999Z</time></trkpt><trkpt lat="38.11376114473035" lon="15.079764868426532"><ele>19.0</ele><time>2026-04-19T11:35:48.999Z</time></trkpt><trkpt lat="38.11380179087778" lon="15.080156661498588"><ele>20.5</ele><time>2026-04-19T11:35:49.999Z</time></trkpt><trkpt lat="38.11383655527044" lon="15.080547105418042"><ele>22.0</ele><time>2026-04-19T11:35:50.999Z</time></trkpt><trkpt lat="38.113866602338724" lon="15.080937961604668"><ele>22.5</ele><time>2026-04-19T11:35:51.999Z</time></trkpt><trkpt lat="38.113888848753575" lon="15.081321565695117"><ele>23.0</ele><time>2026-04-19T11:35:52.999Z</time></trkpt><trkpt lat="38.113924316698636" lon="15.081731888478991"><ele>22.0</ele><time>2026-04-19T11:35:53.999Z</time></trkpt><trkpt lat="38.11393872635626" lon="15.082115476364706"><ele>21.0</ele><time>2026-04-19T11:35:54.999Z</time></trkpt><trkpt lat="38.113940629885604" lon="15.082505058787993"><ele>20.5</ele><time>2026-04-19T11:35:55.999Z</time></trkpt><trkpt lat="38.113947303344155" lon="15.08289423251248"><ele>20.0</ele><time>2026-04-19T11:35:56.999Z</time></trkpt><trkpt lat="38.11394459706449" lon="15.08328003765561"><ele>18.0</ele><time>2026-04-19T11:35:57.999Z</time></trkpt><trkpt lat="38.11393934880396" lon="15.083660237553492"><ele>16.0</ele><time>2026-04-19T11:35:58.999Z</time></trkpt><trkpt lat="38.11392703907416" lon="15.084043297521283"><ele>15.0</ele><time>2026-04-19T11:35:59.999Z</time></trkpt><trkpt lat="38.11391648202566" lon="15.084431849919143"><ele>14.0</ele><time>2026-04-19T11:36:00.999Z</time></trkpt><trkpt lat="38.11388880809934" lon="15.084820823334566"><ele>14.5</ele><time>2026-04-19T11:36:01.999Z</time></trkpt><trkpt lat="38.11386296546172" lon="15.085211421355918"><ele>15.0</ele><time>2026-04-19T11:36:02.999Z</time></trkpt><trkpt lat="38.11383860286033" lon="15.085612222493857"><ele>14.5</ele><time>2026-04-19T11:36:03.999Z</time></trkpt><trkpt lat="38.113812183998064" lon="15.086008891261038"><ele>14.0</ele><time>2026-04-19T11:36:04.999Z</time></trkpt><trkpt lat="38.11378711576211" lon="15.086413060434463"><ele>14.0</ele><time>2026-04-19T11:36:05.999Z</time></trkpt><trkpt lat="38.11376250162172" lon="15.086816213938718"><ele>14.0</ele><time>2026-04-19T11:36:06.999Z</time></trkpt><trkpt lat="38.113737580912826" lon="15.08721911306665"><ele>16.5</ele><time>2026-04-19T11:36:07.999Z</time></trkpt><trkpt lat="38.11371104180635" lon="15.087624911492998"><ele>19.0</ele><time>2026-04-19T11:36:08.999Z</time></trkpt><trkpt lat="38.113686611881626" lon="15.088030590374718"><ele>20.5</ele><time>2026-04-19T11:36:09.999Z</time></trkpt><trkpt lat="38.11366098966616" lon="15.088434662589544"><ele>22.0</ele><time>2026-04-19T11:36:10.999Z</time></trkpt><trkpt lat="38.11363522113174" lon="15.088829115998271"><ele>21.5</ele><time>2026-04-19T11:36:11.999Z</time></trkpt><trkpt lat="38.11361531645988" lon="15.089216041199956"><ele>21.0</ele><time>2026-04-19T11:36:12.999Z</time></trkpt><trkpt lat="38.113598519113104" lon="15.089602843066011"><ele>18.0</ele><time>2026-04-19T11:36:13.999Z</time></trkpt><trkpt lat="38.11358211911677" lon="15.089990840491108"><ele>15.0</ele><time>2026-04-19T11:36:14.999Z</time></trkpt><trkpt lat="38.11356802215377" lon="15.09038087614816"><ele>14.0</ele><time>2026-04-19T11:36:15.999Z</time></trkpt><trkpt lat="38.11355713561648" lon="15.090774420331815"><ele>13.0</ele><time>2026-04-19T11:36:16.999Z</time></trkpt><trkpt lat="38.113551399480805" lon="15.091168265673332"><ele>13.0</ele><time>2026-04-19T11:36:17.999Z</time></trkpt><trkpt lat="38.11354759639959" lon="15.091563780935468"><ele>13.0</ele><time>2026-04-19T11:36:18.999Z</time></trkpt><trkpt lat="38.113547815249" lon="15.091958311302228"><ele>13.0</ele><time>2026-04-19T11:36:19.999Z</time></trkpt><trkpt lat="38.113552387246244" lon="15.092352195980455"><ele>13.0</ele><time>2026-04-19T11:36:20.999Z</time></trkpt><trkpt lat="38.113560757930784" lon="15.092744776294126"><ele>12.0</ele><time>2026-04-19T11:36:21.999Z</time></trkpt><trkpt lat="38.113574183027566" lon="15.093135019497065"><ele>11.0</ele><time>2026-04-19T11:36:22.999Z</time></trkpt><trkpt lat="38.11359361594447" lon="15.093524764271638"><ele>11.0</ele><time>2026-04-19T11:36:23.999Z</time></trkpt><trkpt lat="38.11361862352378" lon="15.09391479034099"><ele>11.0</ele><time>2026-04-19T11:36:24.999Z</time></trkpt><trkpt lat="38.11364702984667" lon="15.094303781934697"><ele>11.0</ele><time>2026-04-19T11:36:25.999Z</time></trkpt><trkpt lat="38.11368115572089" lon="15.094689076727136"><ele>11.0</ele><time>2026-04-19T11:36:26.999Z</time></trkpt><trkpt lat="38.11371872286396" lon="15.095072987092802"><ele>15.0</ele><time>2026-04-19T11:36:27.999Z</time></trkpt><trkpt lat="38.11375801155948" lon="15.095454045448037"><ele>19.0</ele><time>2026-04-19T11:36:28.999Z</time></trkpt><trkpt lat="38.11380035122132" lon="15.095833792388984"><ele>24.5</ele><time>2026-04-19T11:36:29.999Z</time></trkpt><trkpt lat="38.11383963106738" lon="15.096211576847312"><ele>30.0</ele><time>2026-04-19T11:36:30.999Z</time></trkpt><trkpt lat="38.113877240869066" lon="15.096588243669876"><ele>31.5</ele><time>2026-04-19T11:36:31.999Z</time></trkpt><trkpt lat="38.11391483563189" lon="15.096966680475745"><ele>33.0</ele><time>2026-04-19T11:36:32.999Z</time></trkpt><trkpt lat="38.11395468873293" lon="15.097343907863356"><ele>36.5</ele><time>2026-04-19T11:36:33.999Z</time></trkpt><trkpt lat="38.113995738248605" lon="15.097721015137644"><ele>40.0</ele><time>2026-04-19T11:36:34.999Z</time></trkpt><trkpt lat="38.114037219808175" lon="15.0981000811045"><ele>25.0</ele><time>2026-04-19T11:36:35.999Z</time></trkpt><trkpt lat="38.11407921023514" lon="15.09847997793934"><ele>10.0</ele><time>2026-04-19T11:36:36.999Z</time></trkpt><trkpt lat="38.114118425915" lon="15.098859481952594"><ele>9.5</ele><time>2026-04-19T11:36:37.999Z</time></trkpt><trkpt lat="38.114159877599114" lon="15.099240697356251"><ele>9.0</ele><time>2026-04-19T11:36:38.999Z</time></trkpt><trkpt lat="38.114199759520815" lon="15.099622371914316"><ele>8.5</ele><time>2026-04-19T11:36:39.999Z</time></trkpt><trkpt lat="38.1142401106023" lon="15.100004897961753"><ele>8.0</ele><time>2026-04-19T11:36:40.999Z</time></trkpt><trkpt lat="38.11428069717188" lon="15.100387213379037"><ele>8.5</ele><time>2026-04-19T11:36:41.999Z</time></trkpt><trkpt lat="38.11432255115684" lon="15.100771874285991"><ele>9.0</ele><time>2026-04-19T11:36:42.999Z</time></trkpt><trkpt lat="38.114364857447526" lon="15.101155137410746"><ele>9.0</ele><time>2026-04-19T11:36:43.999Z</time></trkpt><trkpt lat="38.11441270882782" lon="15.101531597365081"><ele>9.0</ele><time>2026-04-19T11:36:44.999Z</time></trkpt><trkpt lat="38.11445582488177" lon="15.10191349729307"><ele>9.0</ele><time>2026-04-19T11:36:45.999Z</time></trkpt><trkpt lat="38.11450024265239" lon="15.102293020704181"><ele>9.0</ele><time>2026-04-19T11:36:46.999Z</time></trkpt><trkpt lat="38.114541543841256" lon="15.102673474619635"><ele>9.0</ele><time>2026-04-19T11:36:47.999Z</time></trkpt><trkpt lat="38.11458074246616" lon="15.103058294318402"><ele>9.0</ele><time>2026-04-19T11:36:48.999Z</time></trkpt><trkpt lat="38.114622256825754" lon="15.103440172971752"><ele>9.0</ele><time>2026-04-19T11:36:49.999Z</time></trkpt><trkpt lat="38.11466413939187" lon="15.103821614652636"><ele>9.0</ele><time>2026-04-19T11:36:50.999Z</time></trkpt><trkpt lat="38.11470281501572" lon="15.104201313592975"><ele>8.5</ele><time>2026-04-19T11:36:51.999Z</time></trkpt><trkpt lat="38.1147454071039" lon="15.104580200114144"><ele>8.0</ele><time>2026-04-19T11:36:52.999Z</time></trkpt><trkpt lat="38.11478900256472" lon="15.104957753881715"><ele>9.0</ele><time>2026-04-19T11:36:53.999Z</time></trkpt><trkpt lat="38.11483373651447" lon="15.105330426063567"><ele>10.0</ele><time>2026-04-19T11:36:54.999Z</time></trkpt><trkpt lat="38.11488513993737" lon="15.105704975932408"><ele>9.5</ele><time>2026-04-19T11:36:55.999Z</time></trkpt><trkpt lat="38.11494327099811" lon="15.106078432791747"><ele>9.0</ele><time>2026-04-19T11:36:56.999Z</time></trkpt><trkpt lat="38.11501340915791" lon="15.106449423587812"><ele>9.0</ele><time>2026-04-19T11:36:57.999Z</time></trkpt><trkpt lat="38.115092868580874" lon="15.106817021482941"><ele>9.0</ele><time>2026-04-19T11:36:58.999Z</time></trkpt><trkpt lat="38.11518391854992" lon="15.10717824589003"><ele>8.5</ele><time>2026-04-19T11:36:59.999Z</time></trkpt><trkpt lat="38.11528471145271" lon="15.107536319526313"><ele>8.0</ele><time>2026-04-19T11:37:00.999Z</time></trkpt><trkpt lat="38.11539712573527" lon="15.107891590008792"><ele>8.5</ele><time>2026-04-19T11:37:02Z</time></trkpt><trkpt lat="38.11551565758396" lon="15.108245459679086"><ele>9.0</ele><time>2026-04-19T11:37:03Z</time></trkpt><trkpt lat="38.11564281531365" lon="15.10859608602874"><ele>9.0</ele><time>2026-04-19T11:37:04Z</time></trkpt><trkpt lat="38.11577761846128" lon="15.108940981176572"><ele>9.0</ele><time>2026-04-19T11:37:05Z</time></trkpt><trkpt lat="38.11592271284813" lon="15.109283967916273"><ele>8.0</ele><time>2026-04-19T11:37:06Z</time></trkpt><trkpt lat="38.11607749017703" lon="15.109621889690882"><ele>7.0</ele><time>2026-04-19T11:37:07Z</time></trkpt><trkpt lat="38.116240580708485" lon="15.109953374362084"><ele>7.0</ele><time>2026-04-19T11:37:08Z</time></trkpt><trkpt lat="38.116415865551716" lon="15.110276606482646"><ele>7.0</ele><time>2026-04-19T11:37:09Z</time></trkpt><trkpt lat="38.11660247005615" lon="15.110588367816444"><ele>8.0</ele><time>2026-04-19T11:37:10Z</time></trkpt><trkpt lat="38.116793608731015" lon="15.110893605630347"><ele>9.0</ele><time>2026-04-19T11:37:11Z</time></trkpt><trkpt lat="38.116988083836155" lon="15.111197263890865"><ele>9.0</ele><time>2026-04-19T11:37:12Z</time></trkpt><trkpt lat="38.117187561081636" lon="15.111498682436233"><ele>9.0</ele><time>2026-04-19T11:37:13Z</time></trkpt><trkpt lat="38.11739366731068" lon="15.111797627503151"><ele>8.0</ele><time>2026-04-19T11:37:14Z</time></trkpt><trkpt lat="38.11759984217615" lon="15.112095676066737"><ele>7.0</ele><time>2026-04-19T11:37:15Z</time></trkpt><trkpt lat="38.117803900892575" lon="15.112395245862993"><ele>6.5</ele><time>2026-04-19T11:37:16Z</time></trkpt><trkpt lat="38.118008932958695" lon="15.112698015493285"><ele>6.0</ele><time>2026-04-19T11:37:17Z</time></trkpt><trkpt lat="38.11821453057043" lon="15.112998132206748"><ele>6.5</ele><time>2026-04-19T11:37:18Z</time></trkpt><trkpt lat="38.118420174626216" lon="15.113295952281048"><ele>7.0</ele><time>2026-04-19T11:37:19Z</time></trkpt><trkpt lat="38.11862039436394" lon="15.113588781375835"><ele>7.0</ele><time>2026-04-19T11:37:20Z</time></trkpt><trkpt lat="38.11881812754952" lon="15.113879334375858"><ele>7.0</ele><time>2026-04-19T11:37:21Z</time></trkpt><trkpt lat="38.119014309077784" lon="15.11416740287528"><ele>7.5</ele><time>2026-04-19T11:37:22Z</time></trkpt><trkpt lat="38.119213689244994" lon="15.114455471202117"><ele>8.0</ele><time>2026-04-19T11:37:23Z</time></trkpt><trkpt lat="38.11941143621406" lon="15.114744559447336"><ele>8.5</ele><time>2026-04-19T11:37:24Z</time></trkpt><trkpt lat="38.11960954166933" lon="15.115034398074549"><ele>9.0</ele><time>2026-04-19T11:37:25Z</time></trkpt><trkpt lat="38.119807867695904" lon="15.11532677541538"><ele>8.0</ele><time>2026-04-19T11:37:26Z</time></trkpt><trkpt lat="38.1200066697266" lon="15.115620243843116"><ele>7.0</ele><time>2026-04-19T11:37:26.999Z</time></trkpt><trkpt lat="38.120205728738135" lon="15.115913856916878"><ele>7.0</ele><time>2026-04-19T11:37:27.999Z</time></trkpt><trkpt lat="38.120407357463385" lon="15.116206529803945"><ele>7.0</ele><time>2026-04-19T11:37:28.999Z</time></trkpt><trkpt lat="38.120608643288676" lon="15.116500631617766"><ele>6.5</ele><time>2026-04-19T11:37:29.999Z</time></trkpt><trkpt lat="38.120809273809705" lon="15.11679559177122"><ele>6.0</ele><time>2026-04-19T11:37:30.999Z</time></trkpt><trkpt lat="38.121010378381115" lon="15.117090830906077"><ele>6.0</ele><time>2026-04-19T11:37:31.999Z</time></trkpt><trkpt lat="38.12120986878618" lon="15.117384029033337"><ele>6.0</ele><time>2026-04-19T11:37:32.999Z</time></trkpt><trkpt lat="38.12141400613318" lon="15.117676361123204"><ele>6.0</ele><time>2026-04-19T11:37:33.999Z</time></trkpt><trkpt lat="38.12161259255813" lon="15.11797185257859"><ele>6.0</ele><time>2026-04-19T11:37:34.999Z</time></trkpt><trkpt lat="38.121810197293144" lon="15.118269712068107"><ele>6.0</ele><time>2026-04-19T11:37:35.999Z</time></trkpt><trkpt lat="38.12200647230986" lon="15.118569932899321"><ele>6.0</ele><time>2026-04-19T11:37:36.999Z</time></trkpt><trkpt lat="38.122201201390936" lon="15.118871747673454"><ele>6.0</ele><time>2026-04-19T11:37:37.999Z</time></trkpt><trkpt lat="38.12239256653674" lon="15.11917612125485"><ele>6.0</ele><time>2026-04-19T11:37:38.999Z</time></trkpt><trkpt lat="38.12258093354053" lon="15.11948208194664"><ele>6.5</ele><time>2026-04-19T11:37:39.999Z</time></trkpt><trkpt lat="38.12276764605026" lon="15.119788957761232"><ele>7.0</ele><time>2026-04-19T11:37:40.999Z</time></trkpt><trkpt lat="38.122952985266174" lon="15.120100592256643"><ele>7.0</ele><time>2026-04-19T11:37:41.999Z</time></trkpt><trkpt lat="38.123139056258296" lon="15.120411994827059"><ele>7.0</ele><time>2026-04-19T11:37:42.999Z</time></trkpt><trkpt lat="38.12332510765618" lon="15.120722439693395"><ele>7.0</ele><time>2026-04-19T11:37:43.999Z</time></trkpt><trkpt lat="38.123508631333436" lon="15.121027125653468"><ele>7.0</ele><time>2026-04-19T11:37:44.999Z</time></trkpt><trkpt lat="38.12368751361266" lon="15.121328729497382"><ele>8.5</ele><time>2026-04-19T11:37:45.999Z</time></trkpt><trkpt lat="38.12386467894742" lon="15.121626943602795"><ele>10.0</ele><time>2026-04-19T11:37:46.999Z</time></trkpt><trkpt lat="38.12403994498101" lon="15.121924967914948"><ele>10.0</ele><time>2026-04-19T11:37:47.999Z</time></trkpt><trkpt lat="38.12421620007119" lon="15.122222104708948"><ele>10.0</ele><time>2026-04-19T11:37:48.999Z</time></trkpt><trkpt lat="38.12439227680926" lon="15.122519666361363"><ele>10.0</ele><time>2026-04-19T11:37:49.999Z</time></trkpt><trkpt lat="38.12456453271463" lon="15.12282801620789"><ele>10.0</ele><time>2026-04-19T11:37:50.999Z</time></trkpt><trkpt lat="38.12474915595196" lon="15.123115125774268"><ele>9.0</ele><time>2026-04-19T11:37:51.999Z</time></trkpt><trkpt lat="38.12492175670225" lon="15.123413017397132"><ele>8.0</ele><time>2026-04-19T11:37:52.999Z</time></trkpt><trkpt lat="38.12510205978628" lon="15.123708218147149"><ele>8.0</ele><time>2026-04-19T11:37:53.999Z</time></trkpt><trkpt lat="38.12528045028928" lon="15.124005466135651"><ele>8.0</ele><time>2026-04-19T11:37:54.999Z</time></trkpt><trkpt lat="38.125458347627905" lon="15.124301306726757"><ele>9.5</ele><time>2026-04-19T11:37:55.999Z</time></trkpt><trkpt lat="38.125629911971636" lon="15.12459525757973"><ele>11.0</ele><time>2026-04-19T11:37:56.999Z</time></trkpt><trkpt lat="38.12581167954715" lon="15.124878976693724"><ele>11.0</ele><time>2026-04-19T11:37:57.999Z</time></trkpt><trkpt lat="38.12599307195027" lon="15.125175743174259"><ele>11.0</ele><time>2026-04-19T11:37:58.999Z</time></trkpt><trkpt lat="38.12616804956589" lon="15.125482376507325"><ele>11.5</ele><time>2026-04-19T11:37:59.999Z</time></trkpt><trkpt lat="38.1263466120761" lon="15.125782129939829"><ele>12.0</ele><time>2026-04-19T11:38:00.999Z</time></trkpt><trkpt lat="38.1265274619002" lon="15.126083532050782"><ele>11.5</ele><time>2026-04-19T11:38:01.999Z</time></trkpt><trkpt lat="38.12671040172629" lon="15.126383301562052"><ele>11.0</ele><time>2026-04-19T11:38:02.999Z</time></trkpt><trkpt lat="38.126892870490146" lon="15.126686323600921"><ele>11.0</ele><time>2026-04-19T11:38:03.999Z</time></trkpt><trkpt lat="38.127074548687034" lon="15.126992432808802"><ele>11.0</ele><time>2026-04-19T11:38:04.999Z</time></trkpt><trkpt lat="38.12725668412503" lon="15.127297724219037"><ele>11.0</ele><time>2026-04-19T11:38:05.999Z</time></trkpt><trkpt lat="38.127440650315926" lon="15.127603940022285"><ele>11.0</ele><time>2026-04-19T11:38:06.999Z</time></trkpt><trkpt lat="38.127623359999575" lon="15.127911095190163"><ele>11.0</ele><time>2026-04-19T11:38:07.999Z</time></trkpt><trkpt lat="38.127807778179616" lon="15.128210895397933"><ele>11.0</ele><time>2026-04-19T11:38:08.999Z</time></trkpt><trkpt lat="38.12799205177124" lon="15.128515884620994"><ele>11.5</ele><time>2026-04-19T11:38:09.999Z</time></trkpt><trkpt lat="38.12817342508037" lon="15.12881958935899"><ele>12.0</ele><time>2026-04-19T11:38:10.999Z</time></trkpt><trkpt lat="38.12835664286197" lon="15.129125068667035"><ele>12.0</ele><time>2026-04-19T11:38:11.999Z</time></trkpt><trkpt lat="38.12853750764678" lon="15.129429215084903"><ele>12.0</ele><time>2026-04-19T11:38:12.999Z</time></trkpt><trkpt lat="38.128717320098644" lon="15.129735756396586"><ele>13.0</ele><time>2026-04-19T11:38:13.999Z</time></trkpt><trkpt lat="38.12889871333125" lon="15.13004221832058"><ele>14.0</ele><time>2026-04-19T11:38:14.999Z</time></trkpt><trkpt lat="38.129081756428825" lon="15.130348799365066"><ele>14.0</ele><time>2026-04-19T11:38:15.999Z</time></trkpt><trkpt lat="38.12926304540002" lon="15.130673441340882"><ele>14.0</ele><time>2026-04-19T11:38:16.999Z</time></trkpt><trkpt lat="38.129449558059" lon="15.13098672845197"><ele>14.0</ele><time>2026-04-19T11:38:17.999Z</time></trkpt><trkpt lat="38.12963087913039" lon="15.131301500376708"><ele>14.0</ele><time>2026-04-19T11:38:18.999Z</time></trkpt><trkpt lat="38.12980825934856" lon="15.131597367622575"><ele>13.0</ele><time>2026-04-19T11:38:19.999Z</time></trkpt><trkpt lat="38.129987584318535" lon="15.131907291599706"><ele>12.0</ele><time>2026-04-19T11:38:20.999Z</time></trkpt><trkpt lat="38.130168132545236" lon="15.132218191751988"><ele>12.5</ele><time>2026-04-19T11:38:21.999Z</time></trkpt><trkpt lat="38.13035226764181" lon="15.132528827097046"><ele>13.0</ele><time>2026-04-19T11:38:22.999Z</time></trkpt><trkpt lat="38.13053320931903" lon="15.132838323062428"><ele>13.0</ele><time>2026-04-19T11:38:23.999Z</time></trkpt><trkpt lat="38.130714400393856" lon="15.133148288549958"><ele>13.0</ele><time>2026-04-19T11:38:24.999Z</time></trkpt><trkpt lat="38.13089307215531" lon="15.133457192788905"><ele>13.5</ele><time>2026-04-19T11:38:25.999Z</time></trkpt><trkpt lat="38.13106682343391" lon="15.133771604815557"><ele>14.0</ele><time>2026-04-19T11:38:26.999Z</time></trkpt><trkpt lat="38.13123736604596" lon="15.134087323135716"><ele>14.0</ele><time>2026-04-19T11:38:27.999Z</time></trkpt><trkpt lat="38.13140332595642" lon="15.134406389338942"><ele>14.0</ele><time>2026-04-19T11:38:28.999Z</time></trkpt><trkpt lat="38.13156688293178" lon="15.13472647556322"><ele>12.5</ele><time>2026-04-19T11:38:29.999Z</time></trkpt><trkpt lat="38.13172582209071" lon="15.135048697914508"><ele>11.0</ele><time>2026-04-19T11:38:30.999Z</time></trkpt><trkpt lat="38.131881382774" lon="15.135374220541795"><ele>11.0</ele><time>2026-04-19T11:38:31.999Z</time></trkpt><trkpt lat="38.132034778206254" lon="15.135703712744142"><ele>11.0</ele><time>2026-04-19T11:38:32.999Z</time></trkpt><trkpt lat="38.13218294861454" lon="15.136035496662114"><ele>11.0</ele><time>2026-04-19T11:38:33.999Z</time></trkpt><trkpt lat="38.13232711243573" lon="15.136374139456487"><ele>11.0</ele><time>2026-04-19T11:38:34.999Z</time></trkpt><trkpt lat="38.132467968685454" lon="15.136715513277721"><ele>12.5</ele><time>2026-04-19T11:38:35.999Z</time></trkpt><trkpt lat="38.13260575550715" lon="15.137064987755002"><ele>14.0</ele><time>2026-04-19T11:38:36.999Z</time></trkpt><trkpt lat="38.13274175974258" lon="15.137420030703543"><ele>14.0</ele><time>2026-04-19T11:38:37.999Z</time></trkpt><trkpt lat="38.13287391683398" lon="15.137779780512737"><ele>14.0</ele><time>2026-04-19T11:38:38.999Z</time></trkpt><trkpt lat="38.13300118915492" lon="15.138145548218947"><ele>13.5</ele><time>2026-04-19T11:38:39.999Z</time></trkpt><trkpt lat="38.13312125113796" lon="15.138514618476846"><ele>13.0</ele><time>2026-04-19T11:38:40.999Z</time></trkpt><trkpt lat="38.13323974593275" lon="15.138889521624458"><ele>12.5</ele><time>2026-04-19T11:38:41.999Z</time></trkpt><trkpt lat="38.13335273410769" lon="15.139270893079923"><ele>12.0</ele><time>2026-04-19T11:38:42.999Z</time></trkpt><trkpt lat="38.13346178004427" lon="15.139658542306954"><ele>12.0</ele><time>2026-04-19T11:38:43.999Z</time></trkpt><trkpt lat="38.133563185774825" lon="15.14004344367575"><ele>12.0</ele><time>2026-04-19T11:38:44.999Z</time></trkpt><trkpt lat="38.13366341342686" lon="15.140426388867546"><ele>11.5</ele><time>2026-04-19T11:38:45.999Z</time></trkpt><trkpt lat="38.13375825542383" lon="15.140803600186285"><ele>11.0</ele><time>2026-04-19T11:38:46.999Z</time></trkpt><trkpt lat="38.13384472880258" lon="15.14117066230932"><ele>11.0</ele><time>2026-04-19T11:38:47.999Z</time></trkpt><trkpt lat="38.133926946073814" lon="15.141529482434679"><ele>11.0</ele><time>2026-04-19T11:38:48.999Z</time></trkpt><trkpt lat="38.13400595275984" lon="15.14188218556804"><ele>10.5</ele><time>2026-04-19T11:38:49.999Z</time></trkpt><trkpt lat="38.13409088749772" lon="15.142244353877626"><ele>10.0</ele><time>2026-04-19T11:38:50.999Z</time></trkpt><trkpt lat="38.13418315991879" lon="15.142601316303521"><ele>9.5</ele><time>2026-04-19T11:38:51.999Z</time></trkpt><trkpt lat="38.134276720668026" lon="15.142959859337935"><ele>9.0</ele><time>2026-04-19T11:38:52.999Z</time></trkpt><trkpt lat="38.13437080846333" lon="15.14331791848202"><ele>8.5</ele><time>2026-04-19T11:38:53.999Z</time></trkpt><trkpt lat="38.13447343260795" lon="15.143683230536665"><ele>8.0</ele><time>2026-04-19T11:38:55Z</time></trkpt><trkpt lat="38.13457192798665" lon="15.14404348215368"><ele>7.5</ele><time>2026-04-19T11:38:56Z</time></trkpt><trkpt lat="38.13467233394856" lon="15.144407296917773"><ele>7.0</ele><time>2026-04-19T11:38:57Z</time></trkpt><trkpt lat="38.13477970670183" lon="15.144771343495679"><ele>7.0</ele><time>2026-04-19T11:38:58Z</time></trkpt><trkpt lat="38.13488885254218" lon="15.145128540657522"><ele>7.0</ele><time>2026-04-19T11:38:59Z</time></trkpt><trkpt lat="38.13500570203136" lon="15.14549663092512"><ele>6.5</ele><time>2026-04-19T11:39:00Z</time></trkpt><trkpt lat="38.13512866392009" lon="15.14586661588138"><ele>6.0</ele><time>2026-04-19T11:39:01Z</time></trkpt><trkpt lat="38.13525333915239" lon="15.146230099791715"><ele>6.5</ele><time>2026-04-19T11:39:02Z</time></trkpt><trkpt lat="38.13539141120094" lon="15.146600647353386"><ele>7.0</ele><time>2026-04-19T11:39:03Z</time></trkpt><trkpt lat="38.13553542250901" lon="15.146967443565213"><ele>7.0</ele><time>2026-04-19T11:39:04Z</time></trkpt><trkpt lat="38.135686941816985" lon="15.147322084891744"><ele>7.0</ele><time>2026-04-19T11:39:05Z</time></trkpt><trkpt lat="38.13583603134928" lon="15.147673668199829"><ele>7.0</ele><time>2026-04-19T11:39:06Z</time></trkpt><trkpt lat="38.13598815494039" lon="15.148024473106593"><ele>7.0</ele><time>2026-04-19T11:39:07Z</time></trkpt><trkpt lat="38.13614096940797" lon="15.148370825461809"><ele>7.5</ele><time>2026-04-19T11:39:08Z</time></trkpt><trkpt lat="38.13629925046042" lon="15.14871794948748"><ele>8.0</ele><time>2026-04-19T11:39:09Z</time></trkpt><trkpt lat="38.136456179213084" lon="15.149069910570091"><ele>8.0</ele><time>2026-04-19T11:39:10Z</time></trkpt><trkpt lat="38.1366103813136" lon="15.149420666295125"><ele>8.0</ele><time>2026-04-19T11:39:11Z</time></trkpt><trkpt lat="38.136762376479574" lon="15.14976829584059"><ele>8.0</ele><time>2026-04-19T11:39:12Z</time></trkpt><trkpt lat="38.136914126668486" lon="15.150114567106982"><ele>8.0</ele><time>2026-04-19T11:39:13Z</time></trkpt><trkpt lat="38.13707235223959" lon="15.150454731430058"><ele>8.0</ele><time>2026-04-19T11:39:14Z</time></trkpt><trkpt lat="38.137231068710236" lon="15.150796487824543"><ele>8.0</ele><time>2026-04-19T11:39:15Z</time></trkpt><trkpt lat="38.13738947198181" lon="15.151138236662515"><ele>8.0</ele><time>2026-04-19T11:39:16Z</time></trkpt><trkpt lat="38.137546990815835" lon="15.151483778969416"><ele>8.0</ele><time>2026-04-19T11:39:17Z</time></trkpt><trkpt lat="38.13770450477925" lon="15.151831588203866"><ele>7.5</ele><time>2026-04-19T11:39:18Z</time></trkpt><trkpt lat="38.13786215636142" lon="15.15218347507594"><ele>7.0</ele><time>2026-04-19T11:39:19Z</time></trkpt><trkpt lat="38.13802154604895" lon="15.152534887308178"><ele>7.5</ele><time>2026-04-19T11:39:20Z</time></trkpt><trkpt lat="38.13818111662382" lon="15.15288835235856"><ele>8.0</ele><time>2026-04-19T11:39:21Z</time></trkpt><trkpt lat="38.138341378953626" lon="15.153244423310925"><ele>8.0</ele><time>2026-04-19T11:39:22Z</time></trkpt><trkpt lat="38.13850233523468" lon="15.153600598037963"><ele>8.0</ele><time>2026-04-19T11:39:23Z</time></trkpt><trkpt lat="38.13866502818114" lon="15.153956896242718"><ele>8.0</ele><time>2026-04-19T11:39:24Z</time></trkpt><trkpt lat="38.13882693831938" lon="15.154314295612851"><ele>8.0</ele><time>2026-04-19T11:39:25Z</time></trkpt><trkpt lat="38.13898802647203" lon="15.1546731350138"><ele>8.0</ele><time>2026-04-19T11:39:26Z</time></trkpt><trkpt lat="38.139150345402626" lon="15.155031271572081"><ele>8.0</ele><time>2026-04-19T11:39:27Z</time></trkpt><trkpt lat="38.13931120177363" lon="15.155389359098638"><ele>8.5</ele><time>2026-04-19T11:39:28Z</time></trkpt><trkpt lat="38.13947225778563" lon="15.155747732657012"><ele>9.0</ele><time>2026-04-19T11:39:29Z</time></trkpt><trkpt lat="38.13963486936848" lon="15.15610494909142"><ele>9.0</ele><time>2026-04-19T11:39:30Z</time></trkpt><trkpt lat="38.1397961889112" lon="15.15646093348873"><ele>9.0</ele><time>2026-04-19T11:39:31Z</time></trkpt><trkpt lat="38.139957953624425" lon="15.156815366019089"><ele>8.5</ele><time>2026-04-19T11:39:32Z</time></trkpt><trkpt lat="38.140119027386476" lon="15.157170342783365"><ele>8.0</ele><time>2026-04-19T11:39:33Z</time></trkpt><trkpt lat="38.14027980404045" lon="15.157524955645687"><ele>8.0</ele><time>2026-04-19T11:39:34Z</time></trkpt><trkpt lat="38.14044082184797" lon="15.157882903985819"><ele>8.0</ele><time>2026-04-19T11:39:35Z</time></trkpt><trkpt lat="38.1406011728412" lon="15.158242075424777"><ele>7.5</ele><time>2026-04-19T11:39:36Z</time></trkpt><trkpt lat="38.14076190323984" lon="15.158601357209045"><ele>7.0</ele><time>2026-04-19T11:39:37Z</time></trkpt><trkpt lat="38.14092484198129" lon="15.158958898540526"><ele>7.5</ele><time>2026-04-19T11:39:38Z</time></trkpt><trkpt lat="38.141087819585564" lon="15.159316243454757"><ele>8.0</ele><time>2026-04-19T11:39:39Z</time></trkpt><trkpt lat="38.14124965037566" lon="15.159674211248298"><ele>8.0</ele><time>2026-04-19T11:39:40Z</time></trkpt><trkpt lat="38.1414106471009" lon="15.160032728957308"><ele>8.0</ele><time>2026-04-19T11:39:41Z</time></trkpt><trkpt lat="38.14157251574305" lon="15.160390896882179"><ele>8.5</ele><time>2026-04-19T11:39:42Z</time></trkpt><trkpt lat="38.141730888521444" lon="15.160749833295444"><ele>9.0</ele><time>2026-04-19T11:39:43Z</time></trkpt><trkpt lat="38.14189117207273" lon="15.161107706713178"><ele>9.0</ele><time>2026-04-19T11:39:44Z</time></trkpt><trkpt lat="38.14205135785832" lon="15.161465314537335"><ele>9.0</ele><time>2026-04-19T11:39:45Z</time></trkpt><trkpt lat="38.142210033911105" lon="15.161820479321861"><ele>9.5</ele><time>2026-04-19T11:39:46Z</time></trkpt><trkpt lat="38.14236843677188" lon="15.162173179460464"><ele>10.0</ele><time>2026-04-19T11:39:47Z</time></trkpt><trkpt lat="38.142526607183825" lon="15.162525067259942"><ele>9.5</ele><time>2026-04-19T11:39:48Z</time></trkpt><trkpt lat="38.142684594101695" lon="15.162874906981878"><ele>9.0</ele><time>2026-04-19T11:39:49Z</time></trkpt><trkpt lat="38.142845302068395" lon="15.163224307859398"><ele>9.0</ele><time>2026-04-19T11:39:50Z</time></trkpt><trkpt lat="38.143003986008324" lon="15.163571938251735"><ele>9.0</ele><time>2026-04-19T11:39:51Z</time></trkpt><trkpt lat="38.14316251194451" lon="15.163919320576957"><ele>10.0</ele><time>2026-04-19T11:39:52Z</time></trkpt><trkpt lat="38.143327062864635" lon="15.164263259558727"><ele>11.0</ele><time>2026-04-19T11:39:53Z</time></trkpt><trkpt lat="38.143496405578944" lon="15.164608452222295"><ele>10.5</ele><time>2026-04-19T11:39:54Z</time></trkpt><trkpt lat="38.14366941576044" lon="15.164951697439049"><ele>10.0</ele><time>2026-04-19T11:39:55Z</time></trkpt><trkpt lat="38.143845220668545" lon="15.165293781209236"><ele>10.0</ele><time>2026-04-19T11:39:56Z</time></trkpt><trkpt lat="38.14402530063672" lon="15.165634264635749"><ele>10.0</ele><time>2026-04-19T11:39:57Z</time></trkpt><trkpt lat="38.14420789964137" lon="15.165973749303442"><ele>10.5</ele><time>2026-04-19T11:39:58Z</time></trkpt><trkpt lat="38.14439182069871" lon="15.166314120422763"><ele>11.0</ele><time>2026-04-19T11:39:59Z</time></trkpt><trkpt lat="38.14458022218498" lon="15.166651574663351"><ele>11.0</ele><time>2026-04-19T11:39:59.999Z</time></trkpt><trkpt lat="38.14477247225013" lon="15.166985555170884"><ele>11.0</ele><time>2026-04-19T11:40:00.999Z</time></trkpt><trkpt lat="38.144968612535685" lon="15.16731700913041"><ele>12.5</ele><time>2026-04-19T11:40:01.999Z</time></trkpt><trkpt lat="38.145167562124286" lon="15.167645598047198"><ele>14.0</ele><time>2026-04-19T11:40:02.999Z</time></trkpt><trkpt lat="38.1453677772682" lon="15.167972241634716"><ele>13.5</ele><time>2026-04-19T11:40:03.999Z</time></trkpt><trkpt lat="38.14556910303067" lon="15.16829579680841"><ele>13.0</ele><time>2026-04-19T11:40:04.999Z</time></trkpt><trkpt lat="38.14577158968623" lon="15.168613822268917"><ele>12.5</ele><time>2026-04-19T11:40:05.999Z</time></trkpt><trkpt lat="38.145973682450105" lon="15.16893023275648"><ele>12.0</ele><time>2026-04-19T11:40:06.999Z</time></trkpt><trkpt lat="38.14617534724035" lon="15.169244491997496"><ele>12.0</ele><time>2026-04-19T11:40:07.999Z</time></trkpt><trkpt lat="38.14637651215537" lon="15.169560496360758"><ele>12.0</ele><time>2026-04-19T11:40:08.999Z</time></trkpt><trkpt lat="38.14657829978907" lon="15.169874737173528"><ele>12.5</ele><time>2026-04-19T11:40:09.999Z</time></trkpt><trkpt lat="38.14677749307332" lon="15.170190965595843"><ele>13.0</ele><time>2026-04-19T11:40:10.999Z</time></trkpt><trkpt lat="38.14697377490915" lon="15.170510250078298"><ele>13.0</ele><time>2026-04-19T11:40:11.999Z</time></trkpt><trkpt lat="38.14717086070284" lon="15.170825894482684"><ele>13.0</ele><time>2026-04-19T11:40:12.999Z</time></trkpt><trkpt lat="38.14736861379694" lon="15.17113809973336"><ele>12.5</ele><time>2026-04-19T11:40:13.999Z</time></trkpt><trkpt lat="38.14756508716898" lon="15.171450285912623"><ele>12.0</ele><time>2026-04-19T11:40:14.999Z</time></trkpt><trkpt lat="38.147756518680886" lon="15.171768410403962"><ele>12.0</ele><time>2026-04-19T11:40:15.999Z</time></trkpt><trkpt lat="38.147944474963104" lon="15.172085778912601"><ele>12.0</ele><time>2026-04-19T11:40:16.999Z</time></trkpt><trkpt lat="38.148131505912914" lon="15.172404475096167"><ele>12.0</ele><time>2026-04-19T11:40:17.999Z</time></trkpt><trkpt lat="38.1483161705157" lon="15.172725903027487"><ele>12.0</ele><time>2026-04-19T11:40:18.999Z</time></trkpt><trkpt lat="38.14849552818015" lon="15.173056472667486"><ele>12.0</ele><time>2026-04-19T11:40:19.999Z</time></trkpt><trkpt lat="38.14867175603029" lon="15.173388338843797"><ele>12.0</ele><time>2026-04-19T11:40:20.999Z</time></trkpt><trkpt lat="38.14884702500606" lon="15.173719235460975"><ele>12.5</ele><time>2026-04-19T11:40:21.999Z</time></trkpt><trkpt lat="38.1490195021902" lon="15.17405723145688"><ele>13.0</ele><time>2026-04-19T11:40:22.999Z</time></trkpt><trkpt lat="38.14918721155286" lon="15.174400374433256"><ele>13.0</ele><time>2026-04-19T11:40:23.999Z</time></trkpt><trkpt lat="38.1493528127676" lon="15.1747425856741"><ele>13.0</ele><time>2026-04-19T11:40:24.999Z</time></trkpt><trkpt lat="38.149518884379624" lon="15.175088386706538"><ele>13.0</ele><time>2026-04-19T11:40:25.999Z</time></trkpt><trkpt lat="38.14968061452809" lon="15.175436464246456"><ele>13.0</ele><time>2026-04-19T11:40:26.999Z</time></trkpt><trkpt lat="38.14984089787451" lon="15.175790272062116"><ele>12.0</ele><time>2026-04-19T11:40:27.999Z</time></trkpt><trkpt lat="38.150001677565854" lon="15.176149104398732"><ele>11.0</ele><time>2026-04-19T11:40:28.999Z</time></trkpt><trkpt lat="38.150164402532695" lon="15.17650947045682"><ele>11.0</ele><time>2026-04-19T11:40:29.999Z</time></trkpt><trkpt lat="38.15032888018564" lon="15.1768732417919"><ele>11.0</ele><time>2026-04-19T11:40:30.999Z</time></trkpt><trkpt lat="38.15049311744731" lon="15.177237644054827"><ele>11.5</ele><time>2026-04-19T11:40:31.999Z</time></trkpt><trkpt lat="38.15065874129062" lon="15.177601812017924"><ele>12.0</ele><time>2026-04-19T11:40:32.999Z</time></trkpt><trkpt lat="38.15083151392927" lon="15.177964988097303"><ele>11.5</ele><time>2026-04-19T11:40:33.999Z</time></trkpt><trkpt lat="38.15100860469897" lon="15.178327921928442"><ele>11.0</ele><time>2026-04-19T11:40:34.999Z</time></trkpt><trkpt lat="38.15119112616554" lon="15.178687195477234"><ele>10.5</ele><time>2026-04-19T11:40:35.999Z</time></trkpt><trkpt lat="38.1513773985829" lon="15.179044546465756"><ele>10.0</ele><time>2026-04-19T11:40:36.999Z</time></trkpt><trkpt lat="38.15157005175985" lon="15.179396086768904"><ele>10.0</ele><time>2026-04-19T11:40:37.999Z</time></trkpt><trkpt lat="38.15176589212101" lon="15.179744135154598"><ele>10.0</ele><time>2026-04-19T11:40:38.999Z</time></trkpt><trkpt lat="38.151964616696844" lon="15.180089328434216"><ele>11.0</ele><time>2026-04-19T11:40:39.999Z</time></trkpt><trkpt lat="38.152163376737754" lon="15.180435456787304"><ele>12.0</ele><time>2026-04-19T11:40:40.999Z</time></trkpt><trkpt lat="38.152362667550506" lon="15.180778729810266"><ele>11.0</ele><time>2026-04-19T11:40:41.999Z</time></trkpt><trkpt lat="38.15255929179033" lon="15.181125397636707"><ele>10.0</ele><time>2026-04-19T11:40:42.999Z</time></trkpt><trkpt lat="38.15274827838884" lon="15.181468359874145"><ele>10.0</ele><time>2026-04-19T11:40:43.999Z</time></trkpt><trkpt lat="38.152932091567216" lon="15.181822552392246"><ele>10.0</ele><time>2026-04-19T11:40:44.999Z</time></trkpt><trkpt lat="38.15311348601943" lon="15.182178971170403"><ele>10.0</ele><time>2026-04-19T11:40:45.999Z</time></trkpt><trkpt lat="38.15329015905143" lon="15.182537789903465"><ele>10.0</ele><time>2026-04-19T11:40:46.999Z</time></trkpt><trkpt lat="38.15346151426154" lon="15.182898317999864"><ele>10.5</ele><time>2026-04-19T11:40:47.999Z</time></trkpt><trkpt lat="38.15363268548595" lon="15.183260101387264"><ele>11.0</ele><time>2026-04-19T11:40:48.999Z</time></trkpt><trkpt lat="38.15380244038998" lon="15.183624003408609"><ele>11.0</ele><time>2026-04-19T11:40:49.999Z</time></trkpt><trkpt lat="38.153971802134365" lon="15.183988265923022"><ele>11.0</ele><time>2026-04-19T11:40:50.999Z</time></trkpt><trkpt lat="38.154145399960534" lon="15.184351888360009"><ele>11.0</ele><time>2026-04-19T11:40:51.999Z</time></trkpt><trkpt lat="38.15431973768455" lon="15.184712091937778"><ele>11.0</ele><time>2026-04-19T11:40:52.999Z</time></trkpt><trkpt lat="38.15449805580826" lon="15.185070204419727"><ele>11.0</ele><time>2026-04-19T11:40:53.999Z</time></trkpt><trkpt lat="38.154677989862115" lon="15.18542353026344"><ele>11.0</ele><time>2026-04-19T11:40:54.999Z</time></trkpt><trkpt lat="38.15486151726974" lon="15.185779285125104"><ele>11.0</ele><time>2026-04-19T11:40:55.999Z</time></trkpt><trkpt lat="38.15505749817149" lon="15.186122364654931"><ele>11.0</ele><time>2026-04-19T11:40:56.999Z</time></trkpt><trkpt lat="38.1552484800139" lon="15.186461396584226"><ele>10.5</ele><time>2026-04-19T11:40:57.999Z</time></trkpt><trkpt lat="38.15544046150012" lon="15.186803673687653"><ele>10.0</ele><time>2026-04-19T11:40:58.999Z</time></trkpt><trkpt lat="38.155626763977814" lon="15.187147939620923"><ele>11.5</ele><time>2026-04-19T11:41:00Z</time></trkpt><trkpt lat="38.1558095863857" lon="15.187491174947663"><ele>13.0</ele><time>2026-04-19T11:41:01Z</time></trkpt><trkpt lat="38.155994995163454" lon="15.187837135236641"><ele>13.5</ele><time>2026-04-19T11:41:02Z</time></trkpt><trkpt lat="38.15618150757384" lon="15.188178744931646"><ele>14.0</ele><time>2026-04-19T11:41:03Z</time></trkpt><trkpt lat="38.15637160931121" lon="15.188527012639533"><ele>12.5</ele><time>2026-04-19T11:41:04Z</time></trkpt><trkpt lat="38.15655974966206" lon="15.18886844494398"><ele>11.0</ele><time>2026-04-19T11:41:05Z</time></trkpt><trkpt lat="38.15674780112813" lon="15.189212715968502"><ele>11.0</ele><time>2026-04-19T11:41:06Z</time></trkpt><trkpt lat="38.15693814250834" lon="15.1895548244274"><ele>11.0</ele><time>2026-04-19T11:41:07Z</time></trkpt><trkpt lat="38.157127615215565" lon="15.189896442622143"><ele>11.5</ele><time>2026-04-19T11:41:08Z</time></trkpt><trkpt lat="38.15731584588438" lon="15.19023877613962"><ele>12.0</ele><time>2026-04-19T11:41:09Z</time></trkpt><trkpt lat="38.1575037768813" lon="15.190582754608275"><ele>12.5</ele><time>2026-04-19T11:41:10Z</time></trkpt><trkpt lat="38.15769147165523" lon="15.190926837269972"><ele>13.0</ele><time>2026-04-19T11:41:11Z</time></trkpt><trkpt lat="38.157878725266485" lon="15.191272595162339"><ele>13.0</ele><time>2026-04-19T11:41:12Z</time></trkpt><trkpt lat="38.15806479808839" lon="15.191617865223256"><ele>13.0</ele><time>2026-04-19T11:41:13Z</time></trkpt><trkpt lat="38.15824974460909" lon="15.19196458178738"><ele>13.0</ele><time>2026-04-19T11:41:14Z</time></trkpt><trkpt lat="38.158434768210675" lon="15.192307406849084"><ele>13.0</ele><time>2026-04-19T11:41:15Z</time></trkpt><trkpt lat="38.15862294585891" lon="15.19265083679823"><ele>13.0</ele><time>2026-04-19T11:41:16Z</time></trkpt><trkpt lat="38.158808882207744" lon="15.192991715998142"><ele>13.0</ele><time>2026-04-19T11:41:17Z</time></trkpt><trkpt lat="38.15899473924029" lon="15.193334188636465"><ele>13.0</ele><time>2026-04-19T11:41:18Z</time></trkpt><trkpt lat="38.159177415032815" lon="15.193678117966629"><ele>13.0</ele><time>2026-04-19T11:41:19Z</time></trkpt><trkpt lat="38.159355238849024" lon="15.194025586747903"><ele>13.5</ele><time>2026-04-19T11:41:20Z</time></trkpt><trkpt lat="38.159532262474826" lon="15.194379091712648"><ele>14.0</ele><time>2026-04-19T11:41:21Z</time></trkpt><trkpt lat="38.159708501397006" lon="15.194730972663194"><ele>14.0</ele><time>2026-04-19T11:41:22Z</time></trkpt><trkpt lat="38.15988405861159" lon="15.19508473808631"><ele>14.0</ele><time>2026-04-19T11:41:23Z</time></trkpt><trkpt lat="38.16005923973792" lon="15.195437414249525"><ele>14.5</ele><time>2026-04-19T11:41:24Z</time></trkpt><trkpt lat="38.16023810119366" lon="15.195793611412087"><ele>15.0</ele><time>2026-04-19T11:41:25Z</time></trkpt><trkpt lat="38.160413726802304" lon="15.19614785922353"><ele>15.0</ele><time>2026-04-19T11:41:26Z</time></trkpt><trkpt lat="38.16059180764448" lon="15.19649751051543"><ele>15.0</ele><time>2026-04-19T11:41:27Z</time></trkpt><trkpt lat="38.160772307956414" lon="15.196849022512382"><ele>15.0</ele><time>2026-04-19T11:41:28Z</time></trkpt><trkpt lat="38.16096548958731" lon="15.197187395154371"><ele>15.0</ele><time>2026-04-19T11:41:29Z</time></trkpt><trkpt lat="38.161159951355664" lon="15.19752492654593"><ele>15.0</ele><time>2026-04-19T11:41:30Z</time></trkpt><trkpt lat="38.161355623103645" lon="15.197856512675976"><ele>15.0</ele><time>2026-04-19T11:41:31Z</time></trkpt><trkpt lat="38.16155376304245" lon="15.198182184553083"><ele>16.5</ele><time>2026-04-19T11:41:32Z</time></trkpt><trkpt lat="38.16174868019389" lon="15.198522010371281"><ele>18.0</ele><time>2026-04-19T11:41:33Z</time></trkpt><trkpt lat="38.16193746522275" lon="15.198861680164368"><ele>17.5</ele><time>2026-04-19T11:41:34Z</time></trkpt><trkpt lat="38.16212133751266" lon="15.199189610554138"><ele>17.0</ele><time>2026-04-19T11:41:35Z</time></trkpt><trkpt lat="38.16229476286086" lon="15.199532035866314"><ele>18.0</ele><time>2026-04-19T11:41:36Z</time></trkpt><trkpt lat="38.16245816676156" lon="15.199862168574386"><ele>19.0</ele><time>2026-04-19T11:41:37Z</time></trkpt><trkpt lat="38.16260934933556" lon="15.200193958846329"><ele>19.0</ele><time>2026-04-19T11:41:38Z</time></trkpt><trkpt lat="38.162754490613345" lon="15.200530900023674"><ele>19.0</ele><time>2026-04-19T11:41:39Z</time></trkpt><trkpt lat="38.162889750952196" lon="15.200867810584723"><ele>19.0</ele><time>2026-04-19T11:41:40Z</time></trkpt><trkpt lat="38.163019350665785" lon="15.201207225511773"><ele>19.0</ele><time>2026-04-19T11:41:41Z</time></trkpt><trkpt lat="38.16314167893245" lon="15.2015566144268"><ele>18.0</ele><time>2026-04-19T11:41:42Z</time></trkpt><trkpt lat="38.163258692734146" lon="15.201915869735414"><ele>17.0</ele><time>2026-04-19T11:41:43Z</time></trkpt><trkpt lat="38.16336198738594" lon="15.202285114321407"><ele>16.5</ele><time>2026-04-19T11:41:44Z</time></trkpt><trkpt lat="38.163448662227594" lon="15.202659564277923"><ele>16.0</ele><time>2026-04-19T11:41:45Z</time></trkpt><trkpt lat="38.16352343188805" lon="15.203038744943747"><ele>16.0</ele><time>2026-04-19T11:41:46Z</time></trkpt><trkpt lat="38.16359146183258" lon="15.203421089738026"><ele>16.0</ele><time>2026-04-19T11:41:47Z</time></trkpt><trkpt lat="38.16364763102965" lon="15.203803921143031"><ele>17.0</ele><time>2026-04-19T11:41:48Z</time></trkpt><trkpt lat="38.16369495669224" lon="15.204182629451585"><ele>18.0</ele><time>2026-04-19T11:41:49Z</time></trkpt><trkpt lat="38.16373574644948" lon="15.204559032433968"><ele>18.0</ele><time>2026-04-19T11:41:50Z</time></trkpt><trkpt lat="38.1637732405683" lon="15.204937866363325"><ele>18.0</ele><time>2026-04-19T11:41:51Z</time></trkpt><trkpt lat="38.163808862126" lon="15.205315442440012"><ele>17.5</ele><time>2026-04-19T11:41:52Z</time></trkpt><trkpt lat="38.163841374536915" lon="15.205689890513204"><ele>17.0</ele><time>2026-04-19T11:41:53Z</time></trkpt><trkpt lat="38.16387169977104" lon="15.206060639884102"><ele>17.0</ele><time>2026-04-19T11:41:54Z</time></trkpt><trkpt lat="38.163904216188826" lon="15.20643693504122"><ele>17.0</ele><time>2026-04-19T11:41:55Z</time></trkpt><trkpt lat="38.163933327130806" lon="15.206814285755135"><ele>17.5</ele><time>2026-04-19T11:41:56Z</time></trkpt><trkpt lat="38.16396787770409" lon="15.20719446479851"><ele>18.0</ele><time>2026-04-19T11:41:57Z</time></trkpt><trkpt lat="38.16400231379566" lon="15.207571529968908"><ele>18.0</ele><time>2026-04-19T11:41:58Z</time></trkpt><trkpt lat="38.16404132090684" lon="15.207954619318393"><ele>18.0</ele><time>2026-04-19T11:41:59Z</time></trkpt><trkpt lat="38.16408650001414" lon="15.208339110064639"><ele>17.5</ele><time>2026-04-19T11:42:00Z</time></trkpt><trkpt lat="38.164137191747976" lon="15.20872486292823"><ele>17.0</ele><time>2026-04-19T11:42:01Z</time></trkpt><trkpt lat="38.16419779500733" lon="15.209110378841489"><ele>18.0</ele><time>2026-04-19T11:42:02Z</time></trkpt><trkpt lat="38.16427455476831" lon="15.209493617437023"><ele>19.0</ele><time>2026-04-19T11:42:03Z</time></trkpt><trkpt lat="38.16435724906664" lon="15.209873875031235"><ele>20.5</ele><time>2026-04-19T11:42:04Z</time></trkpt><trkpt lat="38.16445294106871" lon="15.210239778060487"><ele>22.0</ele><time>2026-04-19T11:42:05Z</time></trkpt><trkpt lat="38.164552903448424" lon="15.21059821058753"><ele>22.0</ele><time>2026-04-19T11:42:06Z</time></trkpt><trkpt lat="38.16466307890416" lon="15.210953006806728"><ele>22.0</ele><time>2026-04-19T11:42:07Z</time></trkpt><trkpt lat="38.164784005920495" lon="15.21130508179851"><ele>21.0</ele><time>2026-04-19T11:42:08Z</time></trkpt><trkpt lat="38.16491378223776" lon="15.211653546645847"><ele>20.0</ele><time>2026-04-19T11:42:09Z</time></trkpt><trkpt lat="38.165055454978926" lon="15.211991566499028"><ele>20.0</ele><time>2026-04-19T11:42:10Z</time></trkpt><trkpt lat="38.16520356941105" lon="15.212325490912582"><ele>20.0</ele><time>2026-04-19T11:42:11Z</time></trkpt><trkpt lat="38.16535920239647" lon="15.212655530459386"><ele>20.0</ele><time>2026-04-19T11:42:12Z</time></trkpt><trkpt lat="38.16551862229014" lon="15.212984006026977"><ele>20.0</ele><time>2026-04-19T11:42:13Z</time></trkpt><trkpt lat="38.165675948717265" lon="15.213313783590928"><ele>20.0</ele><time>2026-04-19T11:42:14Z</time></trkpt><trkpt lat="38.1658327912651" lon="15.213646332772058"><ele>20.0</ele><time>2026-04-19T11:42:15Z</time></trkpt><trkpt lat="38.16598670879305" lon="15.213983281852878"><ele>20.0</ele><time>2026-04-19T11:42:16Z</time></trkpt><trkpt lat="38.16614073869324" lon="15.21432169860077"><ele>20.0</ele><time>2026-04-19T11:42:17Z</time></trkpt><trkpt lat="38.166296182301714" lon="15.21466130255374"><ele>20.0</ele><time>2026-04-19T11:42:18Z</time></trkpt><trkpt lat="38.16645108901636" lon="15.214999572015325"><ele>20.0</ele><time>2026-04-19T11:42:19Z</time></trkpt><trkpt lat="38.166600369858905" lon="15.21534322324763"><ele>22.0</ele><time>2026-04-19T11:42:20Z</time></trkpt><trkpt lat="38.1667415105745" lon="15.215690370429888"><ele>24.0</ele><time>2026-04-19T11:42:20.999Z</time></trkpt><trkpt lat="38.16688065856123" lon="15.216036592229498"><ele>24.0</ele><time>2026-04-19T11:42:21.999Z</time></trkpt><trkpt lat="38.16701531898093" lon="15.216387434659541"><ele>24.0</ele><time>2026-04-19T11:42:22.999Z</time></trkpt><trkpt lat="38.16715022223972" lon="15.216745977689211"><ele>22.5</ele><time>2026-04-19T11:42:23.999Z</time></trkpt><trkpt lat="38.16727454126546" lon="15.217104877824784"><ele>21.0</ele><time>2026-04-19T11:42:24.999Z</time></trkpt><trkpt lat="38.16739381292555" lon="15.2174665145558"><ele>21.0</ele><time>2026-04-19T11:42:25.999Z</time></trkpt><trkpt lat="38.167512256730035" lon="15.217827741765232"><ele>21.0</ele><time>2026-04-19T11:42:26.999Z</time></trkpt><trkpt lat="38.167631096935246" lon="15.218190236130162"><ele>20.5</ele><time>2026-04-19T11:42:27.999Z</time></trkpt><trkpt lat="38.1677494239667" lon="15.218551270544435"><ele>20.0</ele><time>2026-04-19T11:42:28.999Z</time></trkpt><trkpt lat="38.16786818323325" lon="15.218912626463428"><ele>20.5</ele><time>2026-04-19T11:42:29.999Z</time></trkpt><trkpt lat="38.1679884189845" lon="15.219272414512224"><ele>21.0</ele><time>2026-04-19T11:42:30.999Z</time></trkpt><trkpt lat="38.16810632580928" lon="15.219635495831222"><ele>22.0</ele><time>2026-04-19T11:42:31.999Z</time></trkpt><trkpt lat="38.168225755706885" lon="15.219997053254408"><ele>23.0</ele><time>2026-04-19T11:42:32.999Z</time></trkpt><trkpt lat="38.16834501225056" lon="15.220359470362466"><ele>23.0</ele><time>2026-04-19T11:42:33.999Z</time></trkpt><trkpt lat="38.16846521809267" lon="15.220723422004571"><ele>23.0</ele><time>2026-04-19T11:42:34.999Z</time></trkpt><trkpt lat="38.168585619775584" lon="15.221086883416119"><ele>23.0</ele><time>2026-04-19T11:42:35.999Z</time></trkpt><trkpt lat="38.168705585552" lon="15.221450469519427"><ele>23.0</ele><time>2026-04-19T11:42:36.999Z</time></trkpt><trkpt lat="38.16882133646623" lon="15.221816346393613"><ele>23.5</ele><time>2026-04-19T11:42:37.999Z</time></trkpt><trkpt lat="38.168937727998774" lon="15.222183503267594"><ele>24.0</ele><time>2026-04-19T11:42:38.999Z</time></trkpt><trkpt lat="38.169055709154044" lon="15.222549361484079"><ele>24.5</ele><time>2026-04-19T11:42:39.999Z</time></trkpt><trkpt lat="38.16917477530849" lon="15.222912971701758"><ele>25.0</ele><time>2026-04-19T11:42:40.999Z</time></trkpt><trkpt lat="38.16929137818995" lon="15.22327443590988"><ele>25.0</ele><time>2026-04-19T11:42:41.999Z</time></trkpt><trkpt lat="38.16940746097326" lon="15.22363392922993"><ele>25.0</ele><time>2026-04-19T11:42:42.999Z</time></trkpt><trkpt lat="38.16952374507579" lon="15.223989193091144"><ele>25.0</ele><time>2026-04-19T11:42:43.999Z</time></trkpt><trkpt lat="38.169637445006344" lon="15.22434442153615"><ele>25.0</ele><time>2026-04-19T11:42:44.999Z</time></trkpt><trkpt lat="38.16975137463657" lon="15.224694734728404"><ele>26.0</ele><time>2026-04-19T11:42:45.999Z</time></trkpt><trkpt lat="38.16987114302619" lon="15.22503937801731"><ele>27.0</ele><time>2026-04-19T11:42:46.999Z</time></trkpt><trkpt lat="38.1699866284273" lon="15.225385649786405"><ele>28.5</ele><time>2026-04-19T11:42:47.999Z</time></trkpt><trkpt lat="38.17010036932615" lon="15.225736958287033"><ele>30.0</ele><time>2026-04-19T11:42:48.999Z</time></trkpt><trkpt lat="38.17021118965977" lon="15.226087948344906"><ele>30.0</ele><time>2026-04-19T11:42:49.999Z</time></trkpt><trkpt lat="38.17032321841948" lon="15.22643720052542"><ele>30.0</ele><time>2026-04-19T11:42:50.999Z</time></trkpt><trkpt lat="38.17044038661754" lon="15.22678710974484"><ele>30.0</ele><time>2026-04-19T11:42:51.999Z</time></trkpt><trkpt lat="38.17055125642551" lon="15.227137617784942"><ele>30.0</ele><time>2026-04-19T11:42:52.999Z</time></trkpt><trkpt lat="38.170661260876145" lon="15.22748997126245"><ele>30.5</ele><time>2026-04-19T11:42:53.999Z</time></trkpt><trkpt lat="38.1707665852718" lon="15.227841795306182"><ele>31.0</ele><time>2026-04-19T11:42:54.999Z</time></trkpt><trkpt lat="38.17086749281369" lon="15.228192908353206"><ele>32.5</ele><time>2026-04-19T11:42:55.999Z</time></trkpt><trkpt lat="38.170971255606155" lon="15.228549621730936"><ele>34.0</ele><time>2026-04-19T11:42:56.999Z</time></trkpt><trkpt lat="38.17106569092184" lon="15.228907815763446"><ele>33.0</ele><time>2026-04-19T11:42:57.999Z</time></trkpt><trkpt lat="38.17115543403621" lon="15.229271386279434"><ele>32.0</ele><time>2026-04-19T11:42:58.999Z</time></trkpt><trkpt lat="38.171238983137286" lon="15.229639918672316"><ele>32.5</ele><time>2026-04-19T11:42:59.999Z</time></trkpt><trkpt lat="38.171331106538645" lon="15.230003129124292"><ele>33.0</ele><time>2026-04-19T11:43:00.999Z</time></trkpt><trkpt lat="38.171425590318876" lon="15.230383827584864"><ele>32.5</ele><time>2026-04-19T11:43:01.999Z</time></trkpt><trkpt lat="38.1715146146828" lon="15.23076123449988"><ele>32.0</ele><time>2026-04-19T11:43:02.999Z</time></trkpt><trkpt lat="38.17163521438523" lon="15.23119124138339"><ele>32.5</ele><time>2026-04-19T11:43:03.999Z</time></trkpt><trkpt lat="38.17173985886094" lon="15.231569509093122"><ele>33.0</ele><time>2026-04-19T11:43:04.999Z</time></trkpt><trkpt lat="38.171851811569866" lon="15.231949966521452"><ele>34.0</ele><time>2026-04-19T11:43:06Z</time></trkpt><trkpt lat="38.1719780452892" lon="15.232332047537042"><ele>35.0</ele><time>2026-04-19T11:43:07Z</time></trkpt><trkpt lat="38.17211347593857" lon="15.232698802276131"><ele>35.0</ele><time>2026-04-19T11:43:08Z</time></trkpt><trkpt lat="38.1722572007844" lon="15.233061202128278"><ele>35.0</ele><time>2026-04-19T11:43:09Z</time></trkpt><trkpt lat="38.17241020429" lon="15.233410038155732"><ele>36.0</ele><time>2026-04-19T11:43:10Z</time></trkpt><trkpt lat="38.1725661340255" lon="15.233749909199673"><ele>37.0</ele><time>2026-04-19T11:43:11Z</time></trkpt><trkpt lat="38.17272715854452" lon="15.234079481124422"><ele>37.0</ele><time>2026-04-19T11:43:12Z</time></trkpt><trkpt lat="38.17289532995021" lon="15.234405650406456"><ele>37.0</ele><time>2026-04-19T11:43:13Z</time></trkpt><trkpt lat="38.173064239031916" lon="15.234727235819605"><ele>37.0</ele><time>2026-04-19T11:43:14Z</time></trkpt><trkpt lat="38.17323354887605" lon="15.235047781567792"><ele>37.0</ele><time>2026-04-19T11:43:15Z</time></trkpt><trkpt lat="38.17339902610261" lon="15.235366950248753"><ele>38.5</ele><time>2026-04-19T11:43:16Z</time></trkpt><trkpt lat="38.173563389136504" lon="15.235684665177791"><ele>40.0</ele><time>2026-04-19T11:43:17Z</time></trkpt><trkpt lat="38.17372843990585" lon="15.235995495784886"><ele>40.0</ele><time>2026-04-19T11:43:18Z</time></trkpt><trkpt lat="38.173893994005084" lon="15.236304269114896"><ele>40.0</ele><time>2026-04-19T11:43:19Z</time></trkpt><trkpt lat="38.174063991099736" lon="15.236610664769238"><ele>40.5</ele><time>2026-04-19T11:43:20Z</time></trkpt><trkpt lat="38.17423224728064" lon="15.236919375986956"><ele>41.0</ele><time>2026-04-19T11:43:21Z</time></trkpt><trkpt lat="38.17439826775448" lon="15.237231427533557"><ele>41.0</ele><time>2026-04-19T11:43:22Z</time></trkpt><trkpt lat="38.17456538140686" lon="15.237549065627416"><ele>41.0</ele><time>2026-04-19T11:43:23Z</time></trkpt><trkpt lat="38.174737418769354" lon="15.237860742223543"><ele>42.5</ele><time>2026-04-19T11:43:24Z</time></trkpt><trkpt lat="38.174912887396516" lon="15.238174630062526"><ele>44.0</ele><time>2026-04-19T11:43:25Z</time></trkpt><trkpt lat="38.17508376404176" lon="15.238486966329875"><ele>44.0</ele><time>2026-04-19T11:43:26Z</time></trkpt><trkpt lat="38.17524755484556" lon="15.238781924286549"><ele>44.0</ele><time>2026-04-19T11:43:27Z</time></trkpt><trkpt lat="38.175408653929324" lon="15.239092417630376"><ele>44.0</ele><time>2026-04-19T11:43:28Z</time></trkpt><trkpt lat="38.17557620279576" lon="15.239403653814282"><ele>44.0</ele><time>2026-04-19T11:43:29Z</time></trkpt><trkpt lat="38.17573111404089" lon="15.23972471261987"><ele>43.0</ele><time>2026-04-19T11:43:30Z</time></trkpt><trkpt lat="38.175879160498596" lon="15.240060264951214"><ele>42.0</ele><time>2026-04-19T11:43:31Z</time></trkpt><trkpt lat="38.17600757135555" lon="15.240408118022762"><ele>42.5</ele><time>2026-04-19T11:43:32Z</time></trkpt><trkpt lat="38.17612137458875" lon="15.240766162507853"><ele>43.0</ele><time>2026-04-19T11:43:33Z</time></trkpt><trkpt lat="38.17622699837041" lon="15.241124500950027"><ele>42.0</ele><time>2026-04-19T11:43:34Z</time></trkpt><trkpt lat="38.17633129691694" lon="15.241488168022597"><ele>41.0</ele><time>2026-04-19T11:43:35Z</time></trkpt><trkpt lat="38.1764455134034" lon="15.241844098015232"><ele>41.0</ele><time>2026-04-19T11:43:36Z</time></trkpt><trkpt lat="38.17654437176104" lon="15.242198242060297"><ele>41.0</ele><time>2026-04-19T11:43:37Z</time></trkpt><trkpt lat="38.17667312087966" lon="15.24255882778944"><ele>41.0</ele><time>2026-04-19T11:43:38Z</time></trkpt><trkpt lat="38.17680506499033" lon="15.242910529799717"><ele>41.0</ele><time>2026-04-19T11:43:39Z</time></trkpt><trkpt lat="38.17694623892425" lon="15.243250804854448"><ele>41.0</ele><time>2026-04-19T11:43:40Z</time></trkpt><trkpt lat="38.177100804035966" lon="15.243591434543838"><ele>41.0</ele><time>2026-04-19T11:43:41Z</time></trkpt><trkpt lat="38.17727385692654" lon="15.243920978660231"><ele>42.0</ele><time>2026-04-19T11:43:42Z</time></trkpt><trkpt lat="38.17746397327655" lon="15.244232919300217"><ele>43.0</ele><time>2026-04-19T11:43:43Z</time></trkpt><trkpt lat="38.17766619207431" lon="15.244534074031309"><ele>43.0</ele><time>2026-04-19T11:43:44Z</time></trkpt><trkpt lat="38.177872249811145" lon="15.244836302002868"><ele>43.0</ele><time>2026-04-19T11:43:45Z</time></trkpt><trkpt lat="38.17808017447911" lon="15.24514085476582"><ele>43.0</ele><time>2026-04-19T11:43:46Z</time></trkpt><trkpt lat="38.17828790127135" lon="15.245443325516025"><ele>43.0</ele><time>2026-04-19T11:43:47Z</time></trkpt><trkpt lat="38.17850004058114" lon="15.245743464553279"><ele>43.5</ele><time>2026-04-19T11:43:48Z</time></trkpt><trkpt lat="38.178723649737925" lon="15.246041471747708"><ele>44.0</ele><time>2026-04-19T11:43:49Z</time></trkpt><trkpt lat="38.17893610714355" lon="15.246346256218352"><ele>45.5</ele><time>2026-04-19T11:43:50Z</time></trkpt><trkpt lat="38.17914240921145" lon="15.246659755793988"><ele>47.0</ele><time>2026-04-19T11:43:51Z</time></trkpt><trkpt lat="38.17933983325757" lon="15.24698008189852"><ele>47.0</ele><time>2026-04-19T11:43:52Z</time></trkpt><trkpt lat="38.17953237504916" lon="15.247303238532234"><ele>47.0</ele><time>2026-04-19T11:43:53Z</time></trkpt><trkpt lat="38.17972474964269" lon="15.24762953441787"><ele>46.0</ele><time>2026-04-19T11:43:54Z</time></trkpt><trkpt lat="38.17990798110105" lon="15.24796591850613"><ele>45.0</ele><time>2026-04-19T11:43:55Z</time></trkpt><trkpt lat="38.18008520214608" lon="15.248308836046126"><ele>45.0</ele><time>2026-04-19T11:43:56Z</time></trkpt><trkpt lat="38.18025796345931" lon="15.248656193031588"><ele>45.0</ele><time>2026-04-19T11:43:57Z</time></trkpt><trkpt lat="38.18042389328887" lon="15.249009830965083"><ele>44.5</ele><time>2026-04-19T11:43:58Z</time></trkpt><trkpt lat="38.18058366315215" lon="15.249369475291877"><ele>44.0</ele><time>2026-04-19T11:43:59Z</time></trkpt><trkpt lat="38.18073730307987" lon="15.2497327620782"><ele>43.5</ele><time>2026-04-19T11:44:00Z</time></trkpt><trkpt lat="38.180885739294034" lon="15.25010099278248"><ele>43.0</ele><time>2026-04-19T11:44:01Z</time></trkpt><trkpt lat="38.18103248738521" lon="15.250470890563953"><ele>43.0</ele><time>2026-04-19T11:44:02Z</time></trkpt><trkpt lat="38.18118051065705" lon="15.250841235056292"><ele>43.0</ele><time>2026-04-19T11:44:03Z</time></trkpt><trkpt lat="38.181327625139645" lon="15.25121265335568"><ele>42.0</ele><time>2026-04-19T11:44:04Z</time></trkpt><trkpt lat="38.18147604486913" lon="15.251586267131122"><ele>41.0</ele><time>2026-04-19T11:44:04.999Z</time></trkpt><trkpt lat="38.181621505660445" lon="15.251957029635024"><ele>42.5</ele><time>2026-04-19T11:44:05.999Z</time></trkpt><trkpt lat="38.181769404370606" lon="15.252328012011992"><ele>44.0</ele><time>2026-04-19T11:44:06.999Z</time></trkpt><trkpt lat="38.181922745033525" lon="15.252699709321432"><ele>44.0</ele><time>2026-04-19T11:44:07.999Z</time></trkpt><trkpt lat="38.18206969081571" lon="15.253070807896579"><ele>44.0</ele><time>2026-04-19T11:44:09Z</time></trkpt><trkpt lat="38.182217291631545" lon="15.253444373930522"><ele>44.0</ele><time>2026-04-19T11:44:09.999Z</time></trkpt><trkpt lat="38.182366709632475" lon="15.253815478691976"><ele>44.0</ele><time>2026-04-19T11:44:10.999Z</time></trkpt><trkpt lat="38.1825162472041" lon="15.254186290616435"><ele>44.0</ele><time>2026-04-19T11:44:11.999Z</time></trkpt><trkpt lat="38.18266429240361" lon="15.254557564405818"><ele>44.0</ele><time>2026-04-19T11:44:12.999Z</time></trkpt><trkpt lat="38.18281244976779" lon="15.254928841463116"><ele>47.0</ele><time>2026-04-19T11:44:13.999Z</time></trkpt></trkseg></trk></gpx>